<?xml version='1.0' encoding='UTF-8'?><gpx version="1.1" creator="JPX - https://github.com/jenetics/jpx" xmlns="http://www.topografix.com/GPX/1/1"><trk><trkseg><trkpt lat="45.771979644459556" lon="4.8193986157131095"><ele>240.99999999999997</ele><time>2026-04-25T08:20:59Z</time></trkpt><trkpt lat="45.77191670752677" lon="4.819389220014297"><ele>241.0</ele><time>2026-04-25T08:21:38Z</time></trkpt><trkpt lat="45.77195062668524" lon="4.819286057086082"><ele>241.0</ele><time>2026-04-25T08:21:57Z</time></trkpt><trkpt lat="45.77186851369563" lon="4.819405965740949"><ele>241.0</ele><time>2026-04-25T08:22:55Z</time></trkpt><trkpt lat="45.77195054799446" lon="4.819407532836782"><ele>240.99999999999997</ele><time>2026-04-25T08:23:05Z</time></trkpt><trkpt lat="45.772028435998415" lon="4.819331204256327"><ele>241.0</ele><time>2026-04-25T08:23:07Z</time></trkpt><trkpt lat="45.77211640506276" lon="4.819251988388545"><ele>240.99999999999997</ele><time>2026-04-25T08:23:09Z</time></trkpt><trkpt lat="45.772195259348116" lon="4.819189840299434"><ele>241.0</ele><time>2026-04-25T08:23:11Z</time></trkpt><trkpt lat="45.7722601726178" lon="4.819149073322885"><ele>241.0</ele><time>2026-04-25T08:23:13Z</time></trkpt><trkpt lat="45.77234602963205" lon="4.819216984609918"><ele>241.0</ele><time>2026-04-25T08:23:16Z</time></trkpt><trkpt lat="45.77238672121247" lon="4.8193573033425965"><ele>240.99999999999997</ele><time>2026-04-25T08:23:18Z</time></trkpt><trkpt lat="45.77241599234777" lon="4.819437898961707"><ele>241.0</ele><time>2026-04-25T08:23:19Z</time></trkpt><trkpt lat="45.77244301122064" lon="4.81953117068254"><ele>241.0</ele><time>2026-04-25T08:23:20Z</time></trkpt><trkpt lat="45.77247163838897" lon="4.8196252712687"><ele>241.00000000000003</ele><time>2026-04-25T08:23:21Z</time></trkpt><trkpt lat="45.77251132864847" lon="4.819777263247008"><ele>241.00000000000003</ele><time>2026-04-25T08:23:23Z</time></trkpt><trkpt lat="45.772555304498255" lon="4.819945875919561"><ele>241.0</ele><time>2026-04-25T08:23:25Z</time></trkpt><trkpt lat="45.772583000602005" lon="4.8200392241808245"><ele>241.0</ele><time>2026-04-25T08:23:26Z</time></trkpt><trkpt lat="45.77261345921578" lon="4.82014303785011"><ele>241.33333333333331</ele><time>2026-04-25T08:23:27Z</time></trkpt><trkpt lat="45.77264584008824" lon="4.820248833288909"><ele>241.66666666666666</ele><time>2026-04-25T08:23:28Z</time></trkpt><trkpt lat="45.77268682004467" lon="4.820360533385102"><ele>242.0</ele><time>2026-04-25T08:23:29Z</time></trkpt><trkpt lat="45.77272321145877" lon="4.8204596952098555"><ele>242.33333333333331</ele><time>2026-04-25T08:23:30Z</time></trkpt><trkpt lat="45.77275276382534" lon="4.8205553788951585"><ele>242.66666666666666</ele><time>2026-04-25T08:23:31Z</time></trkpt><trkpt lat="45.77278442280665" lon="4.820645481864719"><ele>243.0</ele><time>2026-04-25T08:23:32Z</time></trkpt><trkpt lat="45.772818660485655" lon="4.820731796406501"><ele>243.28571428571428</ele><time>2026-04-25T08:23:33Z</time></trkpt><trkpt lat="45.77285137914485" lon="4.820815896561682"><ele>243.57142857142858</ele><time>2026-04-25T08:23:34Z</time></trkpt><trkpt lat="45.77287966459101" lon="4.820898072026197"><ele>243.85714285714286</ele><time>2026-04-25T08:23:35Z</time></trkpt><trkpt lat="45.77289597436965" lon="4.82098974606052"><ele>244.14285714285714</ele><time>2026-04-25T08:23:36Z</time></trkpt><trkpt lat="45.77293862291282" lon="4.821134088376899"><ele>244.42857142857144</ele><time>2026-04-25T08:23:38Z</time></trkpt><trkpt lat="45.772937462552264" lon="4.821237182983489"><ele>244.71428571428572</ele><time>2026-04-25T08:24:10.001Z</time></trkpt><trkpt lat="45.77297411481822" lon="4.821316004348952"><ele>245.0</ele><time>2026-04-25T08:24:14.001Z</time></trkpt><trkpt lat="45.77301731613577" lon="4.821420471068664"><ele>245.6</ele><time>2026-04-25T08:24:34.999Z</time></trkpt><trkpt lat="45.77306903823467" lon="4.82148403078661"><ele>246.2</ele><time>2026-04-25T08:24:39.999Z</time></trkpt><trkpt lat="45.773058643218086" lon="4.821573877041935"><ele>246.8</ele><time>2026-04-25T08:24:43.999Z</time></trkpt><trkpt lat="45.77321207027169" lon="4.821494038689852"><ele>247.4</ele><time>2026-04-25T08:24:45.999Z</time></trkpt><trkpt lat="45.773299931392174" lon="4.821465156658398"><ele>248.0</ele><time>2026-04-25T08:24:48Z</time></trkpt><trkpt lat="45.77339351725474" lon="4.821451920628094"><ele>248.0</ele><time>2026-04-25T08:24:50Z</time></trkpt><trkpt lat="45.77350210637812" lon="4.82142448170786"><ele>248.0</ele><time>2026-04-25T08:24:52Z</time></trkpt><trkpt lat="45.7736304571959" lon="4.8214038161579955"><ele>248.0</ele><time>2026-04-25T08:24:54Z</time></trkpt><trkpt lat="45.77369922309845" lon="4.821394871931566"><ele>248.0</ele><time>2026-04-25T08:24:55Z</time></trkpt><trkpt lat="45.773770084664186" lon="4.821379313646516"><ele>248.0</ele><time>2026-04-25T08:24:56Z</time></trkpt><trkpt lat="45.773847803966085" lon="4.821358187801872"><ele>247.60000000000002</ele><time>2026-04-25T08:24:57Z</time></trkpt><trkpt lat="45.77393108851993" lon="4.821343019414806"><ele>247.20000000000002</ele><time>2026-04-25T08:24:58Z</time></trkpt><trkpt lat="45.77401728654687" lon="4.821319137657963"><ele>246.8</ele><time>2026-04-25T08:24:59Z</time></trkpt><trkpt lat="45.7741098229982" lon="4.821306174216804"><ele>246.4</ele><time>2026-04-25T08:25:00Z</time></trkpt><trkpt lat="45.77420315018632" lon="4.821286945739837"><ele>246.0</ele><time>2026-04-25T08:25:01Z</time></trkpt><trkpt lat="45.77429950568961" lon="4.821267044623169"><ele>246.66666666666666</ele><time>2026-04-25T08:25:02Z</time></trkpt><trkpt lat="45.77439278409524" lon="4.8212483933737085"><ele>247.33333333333331</ele><time>2026-04-25T08:25:03Z</time></trkpt><trkpt lat="45.7744699108984" lon="4.8212362257348005"><ele>248.0</ele><time>2026-04-25T08:25:04Z</time></trkpt><trkpt lat="45.774544643390826" lon="4.821222190225791"><ele>248.66666666666666</ele><time>2026-04-25T08:25:05Z</time></trkpt><trkpt lat="45.77461104050284" lon="4.8212087483502035"><ele>249.33333333333331</ele><time>2026-04-25T08:25:06Z</time></trkpt><trkpt lat="45.774676403110064" lon="4.82118974740481"><ele>250.0</ele><time>2026-04-25T08:25:07Z</time></trkpt><trkpt lat="45.77474534673664" lon="4.821180966887106"><ele>249.99999999999997</ele><time>2026-04-25T08:25:08Z</time></trkpt><trkpt lat="45.774817881402036" lon="4.821161617949452"><ele>250.0</ele><time>2026-04-25T08:25:09Z</time></trkpt><trkpt lat="45.77490033600392" lon="4.821152389781163"><ele>250.0</ele><time>2026-04-25T08:25:10Z</time></trkpt><trkpt lat="45.774984021247604" lon="4.821139255857016"><ele>250.0</ele><time>2026-04-25T08:25:11Z</time></trkpt><trkpt lat="45.775071700070455" lon="4.821123050085126"><ele>249.99999999999997</ele><time>2026-04-25T08:25:12Z</time></trkpt><trkpt lat="45.775166177002454" lon="4.821112220253645"><ele>250.0</ele><time>2026-04-25T08:25:13Z</time></trkpt><trkpt lat="45.77526192777762" lon="4.821098860431484"><ele>249.6</ele><time>2026-04-25T08:25:14Z</time></trkpt><trkpt lat="45.77535797414305" lon="4.821081516570625"><ele>249.2</ele><time>2026-04-25T08:25:15Z</time></trkpt><trkpt lat="45.775452401133016" lon="4.82106255613347"><ele>248.8</ele><time>2026-04-25T08:25:16Z</time></trkpt><trkpt lat="45.775540649488505" lon="4.8210488528889375"><ele>248.4</ele><time>2026-04-25T08:25:17Z</time></trkpt><trkpt lat="45.77563293543743" lon="4.821030525006126"><ele>248.0</ele><time>2026-04-25T08:25:18Z</time></trkpt><trkpt lat="45.775724977353384" lon="4.821024823070334"><ele>248.00000000000003</ele><time>2026-04-25T08:25:19Z</time></trkpt><trkpt lat="45.7758086298695" lon="4.821008472434193"><ele>248.0</ele><time>2026-04-25T08:25:20Z</time></trkpt><trkpt lat="45.77588423614571" lon="4.820989417598972"><ele>248.0</ele><time>2026-04-25T08:25:21Z</time></trkpt><trkpt lat="45.77595529157411" lon="4.820977866814968"><ele>248.0</ele><time>2026-04-25T08:25:22Z</time></trkpt><trkpt lat="45.776021284566475" lon="4.820961669617914"><ele>248.00000000000003</ele><time>2026-04-25T08:25:23Z</time></trkpt><trkpt lat="45.776140798751584" lon="4.82094961141505"><ele>248.0</ele><time>2026-04-25T08:25:25Z</time></trkpt><trkpt lat="45.77621368183997" lon="4.820938123639983"><ele>248.00000000000003</ele><time>2026-04-25T08:25:27.001Z</time></trkpt><trkpt lat="45.77628125796876" lon="4.820930934537319"><ele>248.0</ele><time>2026-04-25T08:25:31.001Z</time></trkpt><trkpt lat="45.776281085274476" lon="4.8210411081559705"><ele>248.0</ele><time>2026-04-25T08:25:33.001Z</time></trkpt><trkpt lat="45.77630625479998" lon="4.8211307312581235"><ele>248.0</ele><time>2026-04-25T08:25:38.001Z</time></trkpt><trkpt lat="45.77640800971926" lon="4.821063104543432"><ele>248.00000000000003</ele><time>2026-04-25T08:25:43.001Z</time></trkpt><trkpt lat="45.776306555310356" lon="4.821131834048235"><ele>248.0</ele><time>2026-04-25T08:25:47.001Z</time></trkpt><trkpt lat="45.77643679405002" lon="4.821065923251378"><ele>248.0</ele><time>2026-04-25T08:25:50.001Z</time></trkpt><trkpt lat="45.77630809251705" lon="4.821137475592267"><ele>248.0</ele><time>2026-04-25T08:25:53.001Z</time></trkpt><trkpt lat="45.77645355920694" lon="4.821060602104511"><ele>248.0</ele><time>2026-04-25T08:25:57.001Z</time></trkpt><trkpt lat="45.7763075155865" lon="4.821135358491564"><ele>248.0</ele><time>2026-04-25T08:26:01.001Z</time></trkpt><trkpt lat="45.776446053293526" lon="4.821058267573381"><ele>248.0</ele><time>2026-04-25T08:26:04.001Z</time></trkpt><trkpt lat="45.77630751564438" lon="4.821135358459355"><ele>248.0</ele><time>2026-04-25T08:26:08.001Z</time></trkpt><trkpt lat="45.776446053293526" lon="4.821058267573381"><ele>248.0</ele><time>2026-04-25T08:26:10.001Z</time></trkpt><trkpt lat="45.77630751560026" lon="4.82113535848391"><ele>248.0</ele><time>2026-04-25T08:26:13.001Z</time></trkpt><trkpt lat="45.776446053293526" lon="4.821058267573381"><ele>247.60000000000002</ele><time>2026-04-25T08:26:15.001Z</time></trkpt><trkpt lat="45.77641520853692" lon="4.820960947086421"><ele>247.20000000000002</ele><time>2026-04-25T08:29:25.001Z</time></trkpt><trkpt lat="45.77637069125998" lon="4.820888615934758"><ele>246.8</ele><time>2026-04-25T08:29:28.001Z</time></trkpt><trkpt lat="45.776308913495235" lon="4.82078824014297"><ele>246.4</ele><time>2026-04-25T08:29:31.001Z</time></trkpt><trkpt lat="45.776260924221724" lon="4.820710267729911"><ele>246.0</ele><time>2026-04-25T08:29:33.001Z</time></trkpt><trkpt lat="45.775964050872055" lon="4.820925283768324"><ele>246.0</ele><time>2026-04-25T08:29:35.001Z</time></trkpt><trkpt lat="45.775880426242466" lon="4.820950232802408"><ele>246.00000000000003</ele><time>2026-04-25T08:29:36.001Z</time></trkpt><trkpt lat="45.775797707602564" lon="4.820975456779452"><ele>246.00000000000003</ele><time>2026-04-25T08:29:37.001Z</time></trkpt><trkpt lat="45.7756758078301" lon="4.82098180667694"><ele>246.0</ele><time>2026-04-25T08:29:38.001Z</time></trkpt><trkpt lat="45.77555239931651" lon="4.821025534946904"><ele>246.0</ele><time>2026-04-25T08:29:39.001Z</time></trkpt><trkpt lat="45.775456256291136" lon="4.821006612677233"><ele>246.4</ele><time>2026-04-25T08:29:40.001Z</time></trkpt><trkpt lat="45.77535954671243" lon="4.821023382006906"><ele>246.8</ele><time>2026-04-25T08:29:41.001Z</time></trkpt><trkpt lat="45.77526169698731" lon="4.821040349110136"><ele>247.20000000000002</ele><time>2026-04-25T08:29:42.001Z</time></trkpt><trkpt lat="45.77516437049655" lon="4.821075401591022"><ele>247.60000000000002</ele><time>2026-04-25T08:29:43.001Z</time></trkpt><trkpt lat="45.77506517207731" lon="4.821077063795799"><ele>248.0</ele><time>2026-04-25T08:29:44.001Z</time></trkpt><trkpt lat="45.7749718984254" lon="4.821088804359267"><ele>248.4</ele><time>2026-04-25T08:29:45.001Z</time></trkpt><trkpt lat="45.77487765715237" lon="4.821098079192813"><ele>248.8</ele><time>2026-04-25T08:29:46.001Z</time></trkpt><trkpt lat="45.77478622462787" lon="4.821110159320522"><ele>249.2</ele><time>2026-04-25T08:29:47.001Z</time></trkpt><trkpt lat="45.77469666744201" lon="4.82112616425225"><ele>249.6</ele><time>2026-04-25T08:29:48.001Z</time></trkpt><trkpt lat="45.77460868131016" lon="4.821145198017706"><ele>250.0</ele><time>2026-04-25T08:29:49.001Z</time></trkpt><trkpt lat="45.77451944245776" lon="4.821168655945744"><ele>249.99999999999997</ele><time>2026-04-25T08:29:50.001Z</time></trkpt><trkpt lat="45.77443341726858" lon="4.821182297835546"><ele>250.0</ele><time>2026-04-25T08:29:51.001Z</time></trkpt><trkpt lat="45.77434394171079" lon="4.821197592273673"><ele>250.0</ele><time>2026-04-25T08:29:52.001Z</time></trkpt><trkpt lat="45.774255060866565" lon="4.821209820008074"><ele>250.0</ele><time>2026-04-25T08:29:53.001Z</time></trkpt><trkpt lat="45.77416629431718" lon="4.821228040152052"><ele>249.99999999999997</ele><time>2026-04-25T08:29:54.001Z</time></trkpt><trkpt lat="45.7740778596499" lon="4.821245470710448"><ele>250.0</ele><time>2026-04-25T08:29:55.001Z</time></trkpt><trkpt lat="45.773990731478925" lon="4.821263304543961"><ele>249.66666666666666</ele><time>2026-04-25T08:29:56.001Z</time></trkpt><trkpt lat="45.77390058472222" lon="4.821278029683573"><ele>249.33333333333331</ele><time>2026-04-25T08:29:57.001Z</time></trkpt><trkpt lat="45.7738127091328" lon="4.821291189119227"><ele>249.0</ele><time>2026-04-25T08:29:58.001Z</time></trkpt><trkpt lat="45.77373797708681" lon="4.821303564541517"><ele>248.66666666666669</ele><time>2026-04-25T08:29:59.001Z</time></trkpt><trkpt lat="45.77366801516691" lon="4.821309362450348"><ele>248.33333333333334</ele><time>2026-04-25T08:30:00.001Z</time></trkpt><trkpt lat="45.77354582619703" lon="4.821327643321328"><ele>248.0</ele><time>2026-04-25T08:30:02.001Z</time></trkpt><trkpt lat="45.77347961790861" lon="4.821337090232138"><ele>248.0</ele><time>2026-04-25T08:30:03.001Z</time></trkpt><trkpt lat="45.773414875616986" lon="4.821351378835653"><ele>248.00000000000003</ele><time>2026-04-25T08:30:04.001Z</time></trkpt><trkpt lat="45.77331212154244" lon="4.821372084961191"><ele>248.0</ele><time>2026-04-25T08:30:06.001Z</time></trkpt><trkpt lat="45.77324887942548" lon="4.821393956349321"><ele>248.0</ele><time>2026-04-25T08:30:08.001Z</time></trkpt><trkpt lat="45.77317188606072" lon="4.8214184514744245"><ele>248.00000000000003</ele><time>2026-04-25T08:30:10.002Z</time></trkpt><trkpt lat="45.77310838407764" lon="4.8213992587275785"><ele>248.0</ele><time>2026-04-25T08:30:12.002Z</time></trkpt><trkpt lat="45.773038603678785" lon="4.821384669201099"><ele>248.0</ele><time>2026-04-25T08:30:15.002Z</time></trkpt><trkpt lat="45.77299580699733" lon="4.821174777332613"><ele>248.0</ele><time>2026-04-25T08:30:20.002Z</time></trkpt><trkpt lat="45.77296448933408" lon="4.821089399732199"><ele>248.0</ele><time>2026-04-25T08:30:21.002Z</time></trkpt><trkpt lat="45.7729376958062" lon="4.821002988660309"><ele>248.0</ele><time>2026-04-25T08:30:22.002Z</time></trkpt><trkpt lat="45.77288848078657" lon="4.820854764068251"><ele>248.0</ele><time>2026-04-25T08:30:24.002Z</time></trkpt><trkpt lat="45.77284965285012" lon="4.820708503412308"><ele>248.0</ele><time>2026-04-25T08:30:26.002Z</time></trkpt><trkpt lat="45.772801380636075" lon="4.820562122284296"><ele>247.50000000000003</ele><time>2026-04-25T08:30:28.002Z</time></trkpt><trkpt lat="45.772725736210184" lon="4.820410498802823"><ele>247.0</ele><time>2026-04-25T08:30:30.002Z</time></trkpt><trkpt lat="45.77269436304133" lon="4.820321467917375"><ele>246.5</ele><time>2026-04-25T08:30:31.002Z</time></trkpt><trkpt lat="45.772676562135224" lon="4.820228710831564"><ele>246.0</ele><time>2026-04-25T08:30:32.002Z</time></trkpt><trkpt lat="45.77265236558044" lon="4.820140517143719"><ele>245.50000000000003</ele><time>2026-04-25T08:30:33.002Z</time></trkpt><trkpt lat="45.77262532138224" lon="4.82004985520497"><ele>245.0</ele><time>2026-04-25T08:30:34.002Z</time></trkpt><trkpt lat="45.77259852564029" lon="4.819961052421745"><ele>244.33333333333334</ele><time>2026-04-25T08:30:35.002Z</time></trkpt><trkpt lat="45.772570114297636" lon="4.819871636857126"><ele>243.66666666666669</ele><time>2026-04-25T08:30:36.002Z</time></trkpt><trkpt lat="45.772545175172006" lon="4.819772329953978"><ele>243.0</ele><time>2026-04-25T08:30:37.002Z</time></trkpt><trkpt lat="45.77251876219974" lon="4.819665415582651"><ele>242.33333333333331</ele><time>2026-04-25T08:30:38.002Z</time></trkpt><trkpt lat="45.77248956131614" lon="4.81957092509279"><ele>241.66666666666666</ele><time>2026-04-25T08:30:39.002Z</time></trkpt><trkpt lat="45.772446418907045" lon="4.819426160802732"><ele>241.0</ele><time>2026-04-25T08:30:41.002Z</time></trkpt><trkpt lat="45.77240967269949" lon="4.819301611900534"><ele>240.83333333333331</ele><time>2026-04-25T08:30:43.002Z</time></trkpt><trkpt lat="45.77237349405" lon="4.819182818906658"><ele>240.66666666666666</ele><time>2026-04-25T08:30:45.002Z</time></trkpt><trkpt lat="45.772346019454346" lon="4.819078501624948"><ele>240.5</ele><time>2026-04-25T08:30:47.001Z</time></trkpt><trkpt lat="45.772316171100265" lon="4.818989988763011"><ele>240.33333333333331</ele><time>2026-04-25T08:30:51.001Z</time></trkpt><trkpt lat="45.77228027353406" lon="4.81887920405945"><ele>240.16666666666666</ele><time>2026-04-25T08:31:34.001Z</time></trkpt><trkpt lat="45.77223831183401" lon="4.818728723409273"><ele>240.0</ele><time>2026-04-25T08:31:36.001Z</time></trkpt><trkpt lat="45.77221028359141" lon="4.818632943151414"><ele>240.0</ele><time>2026-04-25T08:31:37.001Z</time></trkpt><trkpt lat="45.772183010126184" lon="4.818539661754379"><ele>240.0</ele><time>2026-04-25T08:31:38.001Z</time></trkpt><trkpt lat="45.772153775882764" lon="4.8184421889052"><ele>240.0</ele><time>2026-04-25T08:31:39.001Z</time></trkpt><trkpt lat="45.772125328122215" lon="4.8183497506509925"><ele>240.0</ele><time>2026-04-25T08:31:40.001Z</time></trkpt><trkpt lat="45.77206920069582" lon="4.818281498693316"><ele>240.0</ele><time>2026-04-25T08:31:41.001Z</time></trkpt><trkpt lat="45.7720303370638" lon="4.818137410022798"><ele>240.0</ele><time>2026-04-25T08:31:43.001Z</time></trkpt><trkpt lat="45.772028493499796" lon="4.818015629444188"><ele>239.66666666666666</ele><time>2026-04-25T08:31:45.001Z</time></trkpt><trkpt lat="45.77208710950293" lon="4.817915577393983"><ele>239.33333333333331</ele><time>2026-04-25T08:31:47.001Z</time></trkpt><trkpt lat="45.77214913436844" lon="4.817867317754993"><ele>239.0</ele><time>2026-04-25T08:31:48.001Z</time></trkpt><trkpt lat="45.77220043140303" lon="4.8177817851009275"><ele>238.66666666666666</ele><time>2026-04-25T08:31:49.001Z</time></trkpt><trkpt lat="45.77225106000302" lon="4.8176918193633895"><ele>238.33333333333331</ele><time>2026-04-25T08:31:50.001Z</time></trkpt><trkpt lat="45.77230673766757" lon="4.817589971435803"><ele>238.0</ele><time>2026-04-25T08:31:51.001Z</time></trkpt><trkpt lat="45.77233431521967" lon="4.81747110809136"><ele>237.8</ele><time>2026-04-25T08:31:52.001Z</time></trkpt><trkpt lat="45.77239642587906" lon="4.817370121661636"><ele>237.60000000000002</ele><time>2026-04-25T08:31:53.001Z</time></trkpt><trkpt lat="45.77246248208278" lon="4.817258313876132"><ele>237.39999999999998</ele><time>2026-04-25T08:31:54.001Z</time></trkpt><trkpt lat="45.77252621277139" lon="4.817143250647233"><ele>237.2</ele><time>2026-04-25T08:31:55.001Z</time></trkpt><trkpt lat="45.77258587948392" lon="4.8170354095481995"><ele>237.0</ele><time>2026-04-25T08:31:56.001Z</time></trkpt><trkpt lat="45.77264227160073" lon="4.816932738040221"><ele>237.16666666666666</ele><time>2026-04-25T08:31:57.001Z</time></trkpt><trkpt lat="45.772699789379615" lon="4.816832718181018"><ele>237.33333333333331</ele><time>2026-04-25T08:31:58.001Z</time></trkpt><trkpt lat="45.77275833541927" lon="4.816733989879452"><ele>237.5</ele><time>2026-04-25T08:31:59.001Z</time></trkpt><trkpt lat="45.7728107776397" lon="4.816642290963343"><ele>237.66666666666666</ele><time>2026-04-25T08:32:00.001Z</time></trkpt><trkpt lat="45.77285997340178" lon="4.816558863784027"><ele>237.83333333333331</ele><time>2026-04-25T08:32:01.001Z</time></trkpt><trkpt lat="45.772902619737216" lon="4.81647719353756"><ele>238.0</ele><time>2026-04-25T08:32:02.001Z</time></trkpt><trkpt lat="45.772945090276096" lon="4.81640870926382"><ele>237.85714285714286</ele><time>2026-04-25T08:32:03.001Z</time></trkpt><trkpt lat="45.77294847583074" lon="4.816312963533236"><ele>237.71428571428572</ele><time>2026-04-25T08:32:04.001Z</time></trkpt><trkpt lat="45.77293362281848" lon="4.8162208250088545"><ele>237.57142857142856</ele><time>2026-04-25T08:32:05.001Z</time></trkpt><trkpt lat="45.772889629787144" lon="4.816139254670033"><ele>237.42857142857142</ele><time>2026-04-25T08:32:06.001Z</time></trkpt><trkpt lat="45.772816792732314" lon="4.816101461700678"><ele>237.28571428571428</ele><time>2026-04-25T08:32:07.001Z</time></trkpt><trkpt lat="45.77274291624243" lon="4.816080357971007"><ele>237.1428571428571</ele><time>2026-04-25T08:32:08.001Z</time></trkpt><trkpt lat="45.772663143972004" lon="4.816049936347373"><ele>236.99999999999997</ele><time>2026-04-25T08:32:09.001Z</time></trkpt><trkpt lat="45.772571874160654" lon="4.81606383137401"><ele>237.0</ele><time>2026-04-25T08:32:10.001Z</time></trkpt><trkpt lat="45.7724781317428" lon="4.816055248500234"><ele>237.0</ele><time>2026-04-25T08:32:11.001Z</time></trkpt><trkpt lat="45.77238223473072" lon="4.816048746779585"><ele>237.0</ele><time>2026-04-25T08:32:12.001Z</time></trkpt><trkpt lat="45.772294564650686" lon="4.816038783583276"><ele>237.0</ele><time>2026-04-25T08:32:13.001Z</time></trkpt><trkpt lat="45.77221863834929" lon="4.81604754768358"><ele>237.0</ele><time>2026-04-25T08:32:14.001Z</time></trkpt><trkpt lat="45.77215338143968" lon="4.81606368798091"><ele>237.0</ele><time>2026-04-25T08:32:15.001Z</time></trkpt><trkpt lat="45.77204827017714" lon="4.816047325771439"><ele>233.0</ele><time>2026-04-25T08:32:17.001Z</time></trkpt><trkpt lat="45.771993301049804" lon="4.815948871324834"><ele>229.0</ele><time>2026-04-25T08:32:19.001Z</time></trkpt><trkpt lat="45.77200487864681" lon="4.815802167701308"><ele>225.0</ele><time>2026-04-25T08:32:21.001Z</time></trkpt><trkpt lat="45.77208231810959" lon="4.815780527952631"><ele>221.0</ele><time>2026-04-25T08:32:22.001Z</time></trkpt><trkpt lat="45.77220890930355" lon="4.8158073289070655"><ele>217.0</ele><time>2026-04-25T08:32:24.001Z</time></trkpt><trkpt lat="45.772296387443326" lon="4.8158341714691515"><ele>217.0</ele><time>2026-04-25T08:32:25.001Z</time></trkpt><trkpt lat="45.77239660038077" lon="4.815853641279677"><ele>217.0</ele><time>2026-04-25T08:32:26.001Z</time></trkpt><trkpt lat="45.77250424125946" lon="4.815872272561637"><ele>217.0</ele><time>2026-04-25T08:32:27.001Z</time></trkpt><trkpt lat="45.772618657020935" lon="4.815883449016588"><ele>217.0</ele><time>2026-04-25T08:32:28.001Z</time></trkpt><trkpt lat="45.77273831861337" lon="4.81589337771768"><ele>217.0</ele><time>2026-04-25T08:32:29.001Z</time></trkpt><trkpt lat="45.772858197562975" lon="4.815904246827961"><ele>217.75</ele><time>2026-04-25T08:32:30.001Z</time></trkpt><trkpt lat="45.772979286101915" lon="4.8158930086621705"><ele>218.5</ele><time>2026-04-25T08:32:31.001Z</time></trkpt><trkpt lat="45.773098362611385" lon="4.8158685957254255"><ele>219.25</ele><time>2026-04-25T08:32:32.001Z</time></trkpt><trkpt lat="45.77321643648132" lon="4.815831908614103"><ele>220.0</ele><time>2026-04-25T08:32:33.001Z</time></trkpt><trkpt lat="45.77332842301405" lon="4.815797575689983"><ele>220.0</ele><time>2026-04-25T08:32:34.001Z</time></trkpt><trkpt lat="45.77344002316835" lon="4.815766197249849"><ele>220.0</ele><time>2026-04-25T08:32:35.001Z</time></trkpt><trkpt lat="45.773546527642495" lon="4.815735650208354"><ele>220.0</ele><time>2026-04-25T08:32:36.001Z</time></trkpt><trkpt lat="45.77365350719955" lon="4.8157038622169095"><ele>220.0</ele><time>2026-04-25T08:32:37.001Z</time></trkpt><trkpt lat="45.7737590021576" lon="4.815668405137541"><ele>220.0</ele><time>2026-04-25T08:32:38.001Z</time></trkpt><trkpt lat="45.773862775300834" lon="4.815638898848448"><ele>220.83333333333331</ele><time>2026-04-25T08:32:39.001Z</time></trkpt><trkpt lat="45.7739524346415" lon="4.815610321399216"><ele>221.66666666666666</ele><time>2026-04-25T08:32:40.001Z</time></trkpt><trkpt lat="45.77402892181592" lon="4.815586829205893"><ele>222.5</ele><time>2026-04-25T08:32:41.001Z</time></trkpt><trkpt lat="45.77409292559036" lon="4.8155504195798065"><ele>223.33333333333331</ele><time>2026-04-25T08:32:42.001Z</time></trkpt><trkpt lat="45.77414917467492" lon="4.8154994436607845"><ele>224.16666666666666</ele><time>2026-04-25T08:32:43.001Z</time></trkpt><trkpt lat="45.774208787785845" lon="4.815350398980338"><ele>225.0</ele><time>2026-04-25T08:32:45.001Z</time></trkpt><trkpt lat="45.774198951773734" lon="4.8152607638007705"><ele>225.0</ele><time>2026-04-25T08:32:46.001Z</time></trkpt><trkpt lat="45.77416347716669" lon="4.815181327517369"><ele>225.0</ele><time>2026-04-25T08:32:47.001Z</time></trkpt><trkpt lat="45.774053733051254" lon="4.815112881460949"><ele>225.0</ele><time>2026-04-25T08:32:49.001Z</time></trkpt><trkpt lat="45.773990989070334" lon="4.815125599517286"><ele>225.0</ele><time>2026-04-25T08:32:50.002Z</time></trkpt><trkpt lat="45.77392463479863" lon="4.815168829848008"><ele>225.0</ele><time>2026-04-25T08:32:51.002Z</time></trkpt><trkpt lat="45.773849576468685" lon="4.815235749549967"><ele>225.0</ele><time>2026-04-25T08:32:52.001Z</time></trkpt><trkpt lat="45.77376223898233" lon="4.815300026277452"><ele>225.0</ele><time>2026-04-25T08:32:53.001Z</time></trkpt><trkpt lat="45.77366369513636" lon="4.8153459835634855"><ele>225.0</ele><time>2026-04-25T08:32:54.001Z</time></trkpt><trkpt lat="45.77356443363563" lon="4.815382110256795"><ele>225.0</ele><time>2026-04-25T08:32:55.001Z</time></trkpt><trkpt lat="45.77346631575164" lon="4.815399964318774"><ele>225.0</ele><time>2026-04-25T08:32:56.001Z</time></trkpt><trkpt lat="45.773363452166926" lon="4.815396776617256"><ele>225.0</ele><time>2026-04-25T08:32:57.001Z</time></trkpt><trkpt lat="45.77326060865356" lon="4.81538917486626"><ele>224.0</ele><time>2026-04-25T08:32:58.001Z</time></trkpt><trkpt lat="45.77314601608737" lon="4.8153829974807705"><ele>223.0</ele><time>2026-04-25T08:32:59.001Z</time></trkpt><trkpt lat="45.773040023612" lon="4.81537830892369"><ele>222.0</ele><time>2026-04-25T08:33:00.001Z</time></trkpt><trkpt lat="45.77292977221096" lon="4.815373254836705"><ele>221.0</ele><time>2026-04-25T08:33:01Z</time></trkpt><trkpt lat="45.77281649076021" lon="4.815364977458142"><ele>220.0</ele><time>2026-04-25T08:33:02Z</time></trkpt><trkpt lat="45.772701700511085" lon="4.815354730254611"><ele>219.4</ele><time>2026-04-25T08:33:03Z</time></trkpt><trkpt lat="45.772587829517725" lon="4.815343697881722"><ele>218.8</ele><time>2026-04-25T08:33:04Z</time></trkpt><trkpt lat="45.772474086792066" lon="4.815335419706526"><ele>218.2</ele><time>2026-04-25T08:33:05Z</time></trkpt><trkpt lat="45.77236358527643" lon="4.8153278950756055"><ele>217.6</ele><time>2026-04-25T08:33:06Z</time></trkpt><trkpt lat="45.772260034120364" lon="4.815321170271457"><ele>217.0</ele><time>2026-04-25T08:33:07Z</time></trkpt><trkpt lat="45.772164012377104" lon="4.815310555240304"><ele>217.0</ele><time>2026-04-25T08:33:08Z</time></trkpt><trkpt lat="45.77207239684822" lon="4.815305653512588"><ele>217.0</ele><time>2026-04-25T08:33:09Z</time></trkpt><trkpt lat="45.771989780693815" lon="4.8152971438385554"><ele>217.0</ele><time>2026-04-25T08:33:10Z</time></trkpt><trkpt lat="45.77191978796666" lon="4.815288373186594"><ele>217.0</ele><time>2026-04-25T08:33:11Z</time></trkpt><trkpt lat="45.77180402182028" lon="4.815242210065654"><ele>217.0</ele><time>2026-04-25T08:33:13Z</time></trkpt><trkpt lat="45.77173759106424" lon="4.815123538001078"><ele>214.0</ele><time>2026-04-25T08:33:15Z</time></trkpt><trkpt lat="45.77175820422689" lon="4.814983718403922"><ele>211.0</ele><time>2026-04-25T08:33:17Z</time></trkpt><trkpt lat="45.77187733681461" lon="4.814947997687549"><ele>208.0</ele><time>2026-04-25T08:33:19Z</time></trkpt><trkpt lat="45.771958855506355" lon="4.814981892308878"><ele>205.0</ele><time>2026-04-25T08:33:20Z</time></trkpt><trkpt lat="45.77205193732769" lon="4.815026705530583"><ele>202.0</ele><time>2026-04-25T08:33:21Z</time></trkpt><trkpt lat="45.77215978058925" lon="4.815071098982004"><ele>199.25</ele><time>2026-04-25T08:33:22Z</time></trkpt><trkpt lat="45.772284557266595" lon="4.815105724560006"><ele>196.5</ele><time>2026-04-25T08:33:23Z</time></trkpt><trkpt lat="45.772405703734535" lon="4.815124613552767"><ele>193.75</ele><time>2026-04-25T08:33:24Z</time></trkpt><trkpt lat="45.77252484708775" lon="4.815123975227138"><ele>191.0</ele><time>2026-04-25T08:33:25Z</time></trkpt><trkpt lat="45.77265152211821" lon="4.81511102188834"><ele>192.0</ele><time>2026-04-25T08:33:26Z</time></trkpt><trkpt lat="45.7727756839205" lon="4.815077217612266"><ele>193.0</ele><time>2026-04-25T08:33:27Z</time></trkpt><trkpt lat="45.77288933436486" lon="4.815025548899615"><ele>194.0</ele><time>2026-04-25T08:33:28Z</time></trkpt><trkpt lat="45.773008376692445" lon="4.814965731624852"><ele>195.0</ele><time>2026-04-25T08:33:29Z</time></trkpt><trkpt lat="45.77312784878512" lon="4.814899882243769"><ele>195.0</ele><time>2026-04-25T08:33:30Z</time></trkpt><trkpt lat="45.77325174115333" lon="4.814836074253916"><ele>195.0</ele><time>2026-04-25T08:33:31Z</time></trkpt><trkpt lat="45.77337160035903" lon="4.81477483439888"><ele>195.0</ele><time>2026-04-25T08:33:32Z</time></trkpt><trkpt lat="45.77348741967768" lon="4.814720032805759"><ele>195.0</ele><time>2026-04-25T08:33:33Z</time></trkpt><trkpt lat="45.77360069345582" lon="4.8146715634967805"><ele>195.2</ele><time>2026-04-25T08:33:34Z</time></trkpt><trkpt lat="45.77370069102683" lon="4.814620015325207"><ele>195.4</ele><time>2026-04-25T08:33:35.001Z</time></trkpt><trkpt lat="45.77380002277723" lon="4.814565308534683"><ele>195.60000000000002</ele><time>2026-04-25T08:33:36.001Z</time></trkpt><trkpt lat="45.773891019916945" lon="4.81451018324116"><ele>195.8</ele><time>2026-04-25T08:33:37.001Z</time></trkpt><trkpt lat="45.77396715946082" lon="4.814442160847867"><ele>196.0</ele><time>2026-04-25T08:33:38.001Z</time></trkpt><trkpt lat="45.77403204512202" lon="4.8143571228130035"><ele>192.0</ele><time>2026-04-25T08:33:39.001Z</time></trkpt><trkpt lat="45.774086070028964" lon="4.814237945146139"><ele>188.0</ele><time>2026-04-25T08:33:40.001Z</time></trkpt><trkpt lat="45.77412403702519" lon="4.814091710702556"><ele>184.0</ele><time>2026-04-25T08:33:41.001Z</time></trkpt><trkpt lat="45.77415323698477" lon="4.8139341396418205"><ele>180.0</ele><time>2026-04-25T08:33:42.001Z</time></trkpt><trkpt lat="45.77417188622119" lon="4.813773570312233"><ele>176.0</ele><time>2026-04-25T08:33:43.001Z</time></trkpt><trkpt lat="45.77418342449873" lon="4.813622702104188"><ele>175.4</ele><time>2026-04-25T08:33:44.001Z</time></trkpt><trkpt lat="45.77419750383808" lon="4.813482407180687"><ele>174.8</ele><time>2026-04-25T08:33:45.001Z</time></trkpt><trkpt lat="45.77421145304297" lon="4.813354321176412"><ele>174.20000000000002</ele><time>2026-04-25T08:33:46.001Z</time></trkpt><trkpt lat="45.77422534532962" lon="4.813250237011745"><ele>173.60000000000002</ele><time>2026-04-25T08:33:47.001Z</time></trkpt><trkpt lat="45.774257011437385" lon="4.813091349803506"><ele>173.0</ele><time>2026-04-25T08:33:49.001Z</time></trkpt><trkpt lat="45.7743325862193" lon="4.812991110752182"><ele>173.0</ele><time>2026-04-25T08:33:51.001Z</time></trkpt><trkpt lat="45.77437638448115" lon="4.812870986405569"><ele>173.0</ele><time>2026-04-25T08:33:53.001Z</time></trkpt><trkpt lat="45.77432672345825" lon="4.812742289766584"><ele>173.0</ele><time>2026-04-25T08:33:55.001Z</time></trkpt><trkpt lat="45.774207212265694" lon="4.812678833876882"><ele>173.0</ele><time>2026-04-25T08:33:57.001Z</time></trkpt><trkpt lat="45.77414365012601" lon="4.812618486875377"><ele>173.0</ele><time>2026-04-25T08:33:58.001Z</time></trkpt><trkpt lat="45.77408106640488" lon="4.812544589693397"><ele>172.60000000000002</ele><time>2026-04-25T08:33:59.001Z</time></trkpt><trkpt lat="45.774022209160854" lon="4.8124745438693255"><ele>172.20000000000002</ele><time>2026-04-25T08:34:00.001Z</time></trkpt><trkpt lat="45.77396884820389" lon="4.812415122837444"><ele>171.8</ele><time>2026-04-25T08:34:01.001Z</time></trkpt><trkpt lat="45.77387345966661" lon="4.812312436504007"><ele>171.4</ele><time>2026-04-25T08:34:03.001Z</time></trkpt><trkpt lat="45.773797598047665" lon="4.812222689801804"><ele>171.0</ele><time>2026-04-25T08:34:05.001Z</time></trkpt><trkpt lat="45.773730742649036" lon="4.812135964298334"><ele>171.0</ele><time>2026-04-25T08:34:07.001Z</time></trkpt><trkpt lat="45.77369121662697" lon="4.812055018257174"><ele>171.0</ele><time>2026-04-25T08:34:09.001Z</time></trkpt><trkpt lat="45.77374882460176" lon="4.811869928304109"><ele>171.0</ele><time>2026-04-25T08:34:11.001Z</time></trkpt><trkpt lat="45.77378273128027" lon="4.811779759457341"><ele>171.0</ele><time>2026-04-25T08:34:12.001Z</time></trkpt><trkpt lat="45.773825314926114" lon="4.811681429060081"><ele>171.0</ele><time>2026-04-25T08:34:13.001Z</time></trkpt><trkpt lat="45.773882463069455" lon="4.811572696858718"><ele>170.8</ele><time>2026-04-25T08:34:14.001Z</time></trkpt><trkpt lat="45.773941685635116" lon="4.811451674966613"><ele>170.60000000000002</ele><time>2026-04-25T08:34:15.001Z</time></trkpt><trkpt lat="45.77399690620232" lon="4.811345798789434"><ele>170.4</ele><time>2026-04-25T08:34:16.001Z</time></trkpt><trkpt lat="45.77405737299568" lon="4.811237519109868"><ele>170.2</ele><time>2026-04-25T08:34:17.001Z</time></trkpt><trkpt lat="45.774132240671925" lon="4.811136952418446"><ele>170.0</ele><time>2026-04-25T08:34:18.001Z</time></trkpt><trkpt lat="45.77421557284283" lon="4.811039591297545"><ele>170.0</ele><time>2026-04-25T08:34:19.001Z</time></trkpt><trkpt lat="45.774308287894605" lon="4.8109458748289935"><ele>170.0</ele><time>2026-04-25T08:34:20.001Z</time></trkpt><trkpt lat="45.77440710709486" lon="4.810859663690127"><ele>170.0</ele><time>2026-04-25T08:34:21.001Z</time></trkpt><trkpt lat="45.77451057365187" lon="4.810776273356225"><ele>170.0</ele><time>2026-04-25T08:34:22.001Z</time></trkpt><trkpt lat="45.774622797928814" lon="4.810703965884737"><ele>170.0</ele><time>2026-04-25T08:34:23.001Z</time></trkpt><trkpt lat="45.77474235893541" lon="4.810636392767766"><ele>170.0</ele><time>2026-04-25T08:34:24.001Z</time></trkpt><trkpt lat="45.77485850769386" lon="4.810576053213788"><ele>170.0</ele><time>2026-04-25T08:34:25.001Z</time></trkpt><trkpt lat="45.774975930009425" lon="4.810525909648454"><ele>170.0</ele><time>2026-04-25T08:34:26.001Z</time></trkpt><trkpt lat="45.77508890421873" lon="4.810482882184159"><ele>170.2</ele><time>2026-04-25T08:34:27.001Z</time></trkpt><trkpt lat="45.77519686660313" lon="4.810431823942153"><ele>170.4</ele><time>2026-04-25T08:34:28.001Z</time></trkpt><trkpt lat="45.775285061436136" lon="4.810400370978428"><ele>170.60000000000002</ele><time>2026-04-25T08:34:29.001Z</time></trkpt><trkpt lat="45.77537054656785" lon="4.810377894664464"><ele>170.8</ele><time>2026-04-25T08:34:30.001Z</time></trkpt><trkpt lat="45.775453724807385" lon="4.810364779151819"><ele>171.0</ele><time>2026-04-25T08:34:31.001Z</time></trkpt><trkpt lat="45.775540240711095" lon="4.810363783588931"><ele>171.0</ele><time>2026-04-25T08:34:32.001Z</time></trkpt><trkpt lat="45.775634034766554" lon="4.810370942177886"><ele>171.0</ele><time>2026-04-25T08:34:33.001Z</time></trkpt><trkpt lat="45.775732017950034" lon="4.8103760867354985"><ele>171.0</ele><time>2026-04-25T08:34:34.001Z</time></trkpt><trkpt lat="45.77583735518561" lon="4.81036365136045"><ele>171.0</ele><time>2026-04-25T08:34:35.001Z</time></trkpt><trkpt lat="45.77595095401262" lon="4.810355583713626"><ele>171.0</ele><time>2026-04-25T08:34:36.001Z</time></trkpt><trkpt lat="45.776069743985516" lon="4.8103555269474905"><ele>171.5</ele><time>2026-04-25T08:34:37.001Z</time></trkpt><trkpt lat="45.77619401042417" lon="4.810362306274257"><ele>172.0</ele><time>2026-04-25T08:34:38.001Z</time></trkpt><trkpt lat="45.776309417297014" lon="4.810370318553218"><ele>172.5</ele><time>2026-04-25T08:34:39.001Z</time></trkpt><trkpt lat="45.77641859315619" lon="4.8103771202761285"><ele>173.0</ele><time>2026-04-25T08:34:40.001Z</time></trkpt><trkpt lat="45.77652509635757" lon="4.81039158762446"><ele>173.0</ele><time>2026-04-25T08:34:41.001Z</time></trkpt><trkpt lat="45.77663243186374" lon="4.810409831892736"><ele>173.0</ele><time>2026-04-25T08:34:42.001Z</time></trkpt><trkpt lat="45.776740032936374" lon="4.810431251225327"><ele>173.0</ele><time>2026-04-25T08:34:43.001Z</time></trkpt><trkpt lat="45.776850546203676" lon="4.810451420192055"><ele>173.0</ele><time>2026-04-25T08:34:44.001Z</time></trkpt><trkpt lat="45.77695760230023" lon="4.810479021488819"><ele>173.0</ele><time>2026-04-25T08:34:45.001Z</time></trkpt><trkpt lat="45.7770639578497" lon="4.810514328809152"><ele>173.25</ele><time>2026-04-25T08:34:46.001Z</time></trkpt><trkpt lat="45.77717262518893" lon="4.8105517195443825"><ele>173.5</ele><time>2026-04-25T08:34:47.001Z</time></trkpt><trkpt lat="45.777281870824794" lon="4.810582776111258"><ele>173.75</ele><time>2026-04-25T08:34:48.001Z</time></trkpt><trkpt lat="45.77739877392622" lon="4.810623437413775"><ele>174.0</ele><time>2026-04-25T08:34:49.001Z</time></trkpt><trkpt lat="45.77751687500527" lon="4.810665693778233"><ele>174.0</ele><time>2026-04-25T08:34:50.001Z</time></trkpt><trkpt lat="45.77762967819307" lon="4.81071788909441"><ele>174.0</ele><time>2026-04-25T08:34:51.001Z</time></trkpt><trkpt lat="45.77774308985039" lon="4.810778109801649"><ele>174.0</ele><time>2026-04-25T08:34:52.001Z</time></trkpt><trkpt lat="45.777861224314414" lon="4.810830424316623"><ele>174.0</ele><time>2026-04-25T08:34:53.001Z</time></trkpt><trkpt lat="45.77796906286379" lon="4.810876255238038"><ele>173.0</ele><time>2026-04-25T08:34:54.001Z</time></trkpt><trkpt lat="45.778074701669965" lon="4.810924650273913"><ele>172.0</ele><time>2026-04-25T08:34:55.001Z</time></trkpt><trkpt lat="45.778182345995184" lon="4.810978915580213"><ele>171.0</ele><time>2026-04-25T08:34:56.001Z</time></trkpt><trkpt lat="45.7782936263668" lon="4.811029872073889"><ele>170.0</ele><time>2026-04-25T08:34:57.001Z</time></trkpt><trkpt lat="45.77840889395531" lon="4.811079532064362"><ele>172.0</ele><time>2026-04-25T08:34:58Z</time></trkpt><trkpt lat="45.77852248989132" lon="4.811134140812799"><ele>174.0</ele><time>2026-04-25T08:34:59Z</time></trkpt><trkpt lat="45.77863512020477" lon="4.8111924316113965"><ele>176.0</ele><time>2026-04-25T08:35:00Z</time></trkpt><trkpt lat="45.77873960896495" lon="4.811245790592426"><ele>178.0</ele><time>2026-04-25T08:35:01Z</time></trkpt><trkpt lat="45.77884127218718" lon="4.81129839088836"><ele>178.0</ele><time>2026-04-25T08:35:02Z</time></trkpt><trkpt lat="45.77894564997336" lon="4.8113491123094985"><ele>178.0</ele><time>2026-04-25T08:35:03Z</time></trkpt><trkpt lat="45.779054360906414" lon="4.8114001289749515"><ele>178.0</ele><time>2026-04-25T08:35:04Z</time></trkpt><trkpt lat="45.7791633987948" lon="4.811449030090656"><ele>178.0</ele><time>2026-04-25T08:35:05Z</time></trkpt><trkpt lat="45.779262511238684" lon="4.8114928343768035"><ele>178.0</ele><time>2026-04-25T08:35:06Z</time></trkpt><trkpt lat="45.77935871354833" lon="4.811536560773308"><ele>176.33333333333334</ele><time>2026-04-25T08:35:07Z</time></trkpt><trkpt lat="45.779447569830964" lon="4.811573629932154"><ele>174.66666666666669</ele><time>2026-04-25T08:35:08Z</time></trkpt><trkpt lat="45.77953156651669" lon="4.811609511837328"><ele>173.0</ele><time>2026-04-25T08:35:09Z</time></trkpt><trkpt lat="45.77960854998399" lon="4.811645549834449"><ele>171.33333333333334</ele><time>2026-04-25T08:35:10Z</time></trkpt><trkpt lat="45.77968303977731" lon="4.811676729334984"><ele>169.66666666666666</ele><time>2026-04-25T08:35:11Z</time></trkpt><trkpt lat="45.7797543638194" lon="4.811693066017536"><ele>168.0</ele><time>2026-04-25T08:35:12Z</time></trkpt><trkpt lat="45.77982490634804" lon="4.81170380959619"><ele>168.0</ele><time>2026-04-25T08:35:13Z</time></trkpt><trkpt lat="45.779904551652265" lon="4.811710679181328"><ele>168.0</ele><time>2026-04-25T08:35:14Z</time></trkpt><trkpt lat="45.77999118504712" lon="4.811729446000803"><ele>168.0</ele><time>2026-04-25T08:35:15Z</time></trkpt><trkpt lat="45.780085956580606" lon="4.811772977339188"><ele>168.0</ele><time>2026-04-25T08:35:16Z</time></trkpt><trkpt lat="45.78018611734083" lon="4.811823387146733"><ele>168.0</ele><time>2026-04-25T08:35:17Z</time></trkpt><trkpt lat="45.78029047663371" lon="4.811882298511107"><ele>171.25</ele><time>2026-04-25T08:35:18Z</time></trkpt><trkpt lat="45.78040431354633" lon="4.811938696302804"><ele>174.5</ele><time>2026-04-25T08:35:19Z</time></trkpt><trkpt lat="45.780517793393244" lon="4.8119967075163395"><ele>177.75</ele><time>2026-04-25T08:35:20Z</time></trkpt><trkpt lat="45.78062330355479" lon="4.8120539821730555"><ele>181.0</ele><time>2026-04-25T08:35:21Z</time></trkpt><trkpt lat="45.78072156047187" lon="4.812107829130788"><ele>181.0</ele><time>2026-04-25T08:35:22Z</time></trkpt><trkpt lat="45.78081371580049" lon="4.812164755442057"><ele>181.0</ele><time>2026-04-25T08:35:23Z</time></trkpt><trkpt lat="45.78090659036871" lon="4.8122212758668645"><ele>181.0</ele><time>2026-04-25T08:35:24Z</time></trkpt><trkpt lat="45.780978147999605" lon="4.812276340403243"><ele>181.0</ele><time>2026-04-25T08:35:25Z</time></trkpt><trkpt lat="45.781050202950816" lon="4.8123323268474945"><ele>181.0</ele><time>2026-04-25T08:35:26Z</time></trkpt><trkpt lat="45.781122984844444" lon="4.812388631318214"><ele>181.0</ele><time>2026-04-25T08:35:27Z</time></trkpt><trkpt lat="45.781203275140896" lon="4.8124418616248015"><ele>179.0</ele><time>2026-04-25T08:35:28Z</time></trkpt><trkpt lat="45.78128374353889" lon="4.812499055483473"><ele>177.0</ele><time>2026-04-25T08:35:29Z</time></trkpt><trkpt lat="45.78136466204583" lon="4.812555606145507"><ele>175.0</ele><time>2026-04-25T08:35:30Z</time></trkpt><trkpt lat="45.781450808580765" lon="4.812617216622295"><ele>173.0</ele><time>2026-04-25T08:35:31Z</time></trkpt><trkpt lat="45.78153432678575" lon="4.812685901071895"><ele>171.0</ele><time>2026-04-25T08:35:32Z</time></trkpt><trkpt lat="45.78162186422962" lon="4.812750620638701"><ele>171.20000000000002</ele><time>2026-04-25T08:35:33Z</time></trkpt><trkpt lat="45.78170964923273" lon="4.812828659348911"><ele>171.4</ele><time>2026-04-25T08:35:34Z</time></trkpt><trkpt lat="45.781792244531985" lon="4.812901639661585"><ele>171.6</ele><time>2026-04-25T08:35:35Z</time></trkpt><trkpt lat="45.781885208400766" lon="4.812981275273854"><ele>171.8</ele><time>2026-04-25T08:35:36Z</time></trkpt><trkpt lat="45.781971488396046" lon="4.813063163878821"><ele>172.0</ele><time>2026-04-25T08:35:37Z</time></trkpt><trkpt lat="45.7820550144943" lon="4.81313973298993"><ele>172.0</ele><time>2026-04-25T08:35:38Z</time></trkpt><trkpt lat="45.78213840474984" lon="4.8132132508491905"><ele>172.0</ele><time>2026-04-25T08:35:39Z</time></trkpt><trkpt lat="45.78221878615413" lon="4.813286229463448"><ele>172.0</ele><time>2026-04-25T08:35:40Z</time></trkpt><trkpt lat="45.7822991192112" lon="4.8133585283408005"><ele>172.0</ele><time>2026-04-25T08:35:41Z</time></trkpt><trkpt lat="45.78238007943445" lon="4.8134296396775085"><ele>172.0</ele><time>2026-04-25T08:35:42Z</time></trkpt><trkpt lat="45.78246067915864" lon="4.813498614493718"><ele>172.0</ele><time>2026-04-25T08:35:43Z</time></trkpt><trkpt lat="45.782542586266956" lon="4.813571385882606"><ele>172.0</ele><time>2026-04-25T08:35:44Z</time></trkpt><trkpt lat="45.78262414180893" lon="4.8136404162261694"><ele>172.0</ele><time>2026-04-25T08:35:45Z</time></trkpt><trkpt lat="45.782703748350585" lon="4.81371063345849"><ele>172.0</ele><time>2026-04-25T08:35:46Z</time></trkpt><trkpt lat="45.782784882836765" lon="4.813778388561007"><ele>172.0</ele><time>2026-04-25T08:35:47Z</time></trkpt><trkpt lat="45.782861391016475" lon="4.813849332331209"><ele>172.0</ele><time>2026-04-25T08:35:48Z</time></trkpt><trkpt lat="45.78293288414298" lon="4.813917465061976"><ele>172.0</ele><time>2026-04-25T08:35:49Z</time></trkpt><trkpt lat="45.783008872455746" lon="4.81398639408781"><ele>172.0</ele><time>2026-04-25T08:35:50Z</time></trkpt><trkpt lat="45.78308266911147" lon="4.8140528421450055"><ele>172.0</ele><time>2026-04-25T08:35:51Z</time></trkpt><trkpt lat="45.78315874749587" lon="4.81411611331253"><ele>172.0</ele><time>2026-04-25T08:35:52Z</time></trkpt><trkpt lat="45.78323422298366" lon="4.814179486726713"><ele>172.0</ele><time>2026-04-25T08:35:53Z</time></trkpt><trkpt lat="45.7833102599131" lon="4.814243677163426"><ele>172.0</ele><time>2026-04-25T08:35:54Z</time></trkpt><trkpt lat="45.78338619983851" lon="4.81431006032134"><ele>172.0</ele><time>2026-04-25T08:35:55.001Z</time></trkpt><trkpt lat="45.783458702700464" lon="4.814378491216474"><ele>172.0</ele><time>2026-04-25T08:35:56.001Z</time></trkpt><trkpt lat="45.78353350972589" lon="4.814448597310783"><ele>172.0</ele><time>2026-04-25T08:35:57.001Z</time></trkpt><trkpt lat="45.78360903575247" lon="4.814515623753909"><ele>172.0</ele><time>2026-04-25T08:35:58.001Z</time></trkpt><trkpt lat="45.783686862562334" lon="4.814581440780905"><ele>172.0</ele><time>2026-04-25T08:35:59.001Z</time></trkpt><trkpt lat="45.78376229895487" lon="4.814647511889873"><ele>172.2</ele><time>2026-04-25T08:36:00.001Z</time></trkpt><trkpt lat="45.78383852436139" lon="4.814714838343823"><ele>172.39999999999998</ele><time>2026-04-25T08:36:01.001Z</time></trkpt><trkpt lat="45.78391176460816" lon="4.8147839914815"><ele>172.60000000000002</ele><time>2026-04-25T08:36:02.001Z</time></trkpt><trkpt lat="45.783988000082914" lon="4.81485210907664"><ele>172.8</ele><time>2026-04-25T08:36:03.001Z</time></trkpt><trkpt lat="45.78406553560766" lon="4.814919973971243"><ele>173.0</ele><time>2026-04-25T08:36:04.001Z</time></trkpt><trkpt lat="45.784154635684075" lon="4.8149927732148585"><ele>173.0</ele><time>2026-04-25T08:36:05.001Z</time></trkpt><trkpt lat="45.78424897328697" lon="4.815081565364894"><ele>173.0</ele><time>2026-04-25T08:36:06.001Z</time></trkpt><trkpt lat="45.78434717141917" lon="4.815174202572198"><ele>173.0</ele><time>2026-04-25T08:36:07.001Z</time></trkpt><trkpt lat="45.78444555492081" lon="4.815265887283143"><ele>173.0</ele><time>2026-04-25T08:36:08.001Z</time></trkpt><trkpt lat="45.7845497849345" lon="4.815354481035801"><ele>175.75</ele><time>2026-04-25T08:36:09.001Z</time></trkpt><trkpt lat="45.784659298659214" lon="4.815440850669089"><ele>178.5</ele><time>2026-04-25T08:36:10.001Z</time></trkpt><trkpt lat="45.784769807741164" lon="4.815526687503677"><ele>181.25</ele><time>2026-04-25T08:36:11.001Z</time></trkpt><trkpt lat="45.784880493398674" lon="4.815615389593683"><ele>184.0</ele><time>2026-04-25T08:36:12.001Z</time></trkpt><trkpt lat="45.78498724689227" lon="4.815698869750715"><ele>184.0</ele><time>2026-04-25T08:36:13.001Z</time></trkpt><trkpt lat="45.78509835220665" lon="4.815784397561043"><ele>184.0</ele><time>2026-04-25T08:36:14.001Z</time></trkpt><trkpt lat="45.78520995219829" lon="4.815874147762031"><ele>184.0</ele><time>2026-04-25T08:36:15.001Z</time></trkpt><trkpt lat="45.78532378659423" lon="4.815972993421315"><ele>184.0</ele><time>2026-04-25T08:36:16.001Z</time></trkpt><trkpt lat="45.78544008944983" lon="4.816076197621938"><ele>184.75</ele><time>2026-04-25T08:36:17.001Z</time></trkpt><trkpt lat="45.78555636816348" lon="4.816166800513853"><ele>185.5</ele><time>2026-04-25T08:36:18.001Z</time></trkpt><trkpt lat="45.78566266079061" lon="4.816246445877591"><ele>186.25</ele><time>2026-04-25T08:36:19.001Z</time></trkpt><trkpt lat="45.785765821179176" lon="4.816323714840361"><ele>187.0</ele><time>2026-04-25T08:36:20.001Z</time></trkpt><trkpt lat="45.785873096724856" lon="4.816406210571771"><ele>187.0</ele><time>2026-04-25T08:36:21.001Z</time></trkpt><trkpt lat="45.785984473591576" lon="4.816493588307005"><ele>187.0</ele><time>2026-04-25T08:36:22.001Z</time></trkpt><trkpt lat="45.786098717849846" lon="4.8165775231741295"><ele>187.0</ele><time>2026-04-25T08:36:23.001Z</time></trkpt><trkpt lat="45.78621908366053" lon="4.816654878283911"><ele>187.0</ele><time>2026-04-25T08:36:24.001Z</time></trkpt><trkpt lat="45.78632889737158" lon="4.816732097196899"><ele>186.25</ele><time>2026-04-25T08:36:25.001Z</time></trkpt><trkpt lat="45.78643416933392" lon="4.816810145436673"><ele>185.5</ele><time>2026-04-25T08:36:26.001Z</time></trkpt><trkpt lat="45.786539237830695" lon="4.81688681860888"><ele>184.75</ele><time>2026-04-25T08:36:27.001Z</time></trkpt><trkpt lat="45.78664774276559" lon="4.816965856968247"><ele>184.0</ele><time>2026-04-25T08:36:28.001Z</time></trkpt><trkpt lat="45.78675488423206" lon="4.817053460101371"><ele>180.25</ele><time>2026-04-25T08:36:29.001Z</time></trkpt><trkpt lat="45.786860029596895" lon="4.817151907906605"><ele>176.5</ele><time>2026-04-25T08:36:30.001Z</time></trkpt><trkpt lat="45.78696252389584" lon="4.817262666513064"><ele>172.75</ele><time>2026-04-25T08:36:31.001Z</time></trkpt><trkpt lat="45.787060602375895" lon="4.817376552700215"><ele>169.0</ele><time>2026-04-25T08:36:32.001Z</time></trkpt><trkpt lat="45.78715157928491" lon="4.817480411414738"><ele>169.0</ele><time>2026-04-25T08:36:33.001Z</time></trkpt><trkpt lat="45.787240771953805" lon="4.817582018084775"><ele>169.0</ele><time>2026-04-25T08:36:34.001Z</time></trkpt><trkpt lat="45.787321337873024" lon="4.817684823344634"><ele>169.0</ele><time>2026-04-25T08:36:35.001Z</time></trkpt><trkpt lat="45.78740258432603" lon="4.817787126581521"><ele>169.0</ele><time>2026-04-25T08:36:36.001Z</time></trkpt><trkpt lat="45.78748525396267" lon="4.817888103185031"><ele>169.0</ele><time>2026-04-25T08:36:37.001Z</time></trkpt><trkpt lat="45.78756501276577" lon="4.817980791095526"><ele>168.79999999999998</ele><time>2026-04-25T08:36:38.001Z</time></trkpt><trkpt lat="45.78764248352001" lon="4.8180751163121"><ele>168.6</ele><time>2026-04-25T08:36:39.001Z</time></trkpt><trkpt lat="45.78771955566395" lon="4.818171114977612"><ele>168.4</ele><time>2026-04-25T08:36:40.001Z</time></trkpt><trkpt lat="45.78780419124636" lon="4.818273068288077"><ele>168.2</ele><time>2026-04-25T08:36:41.001Z</time></trkpt><trkpt lat="45.78788842559997" lon="4.818373428437144"><ele>168.0</ele><time>2026-04-25T08:36:42.001Z</time></trkpt><trkpt lat="45.78797395037643" lon="4.81847539340752"><ele>168.0</ele><time>2026-04-25T08:36:43.001Z</time></trkpt><trkpt lat="45.788058410148444" lon="4.818571441917367"><ele>168.0</ele><time>2026-04-25T08:36:44.001Z</time></trkpt><trkpt lat="45.78813687871257" lon="4.818662391827871"><ele>168.0</ele><time>2026-04-25T08:36:45.001Z</time></trkpt><trkpt lat="45.788206593153056" lon="4.818745362825626"><ele>168.0</ele><time>2026-04-25T08:36:46.001Z</time></trkpt><trkpt lat="45.78827029611176" lon="4.818823460613628"><ele>168.0</ele><time>2026-04-25T08:36:47.001Z</time></trkpt><trkpt lat="45.78833577001628" lon="4.818905274259682"><ele>168.0</ele><time>2026-04-25T08:36:48.001Z</time></trkpt><trkpt lat="45.78840836241831" lon="4.818988543711018"><ele>168.0</ele><time>2026-04-25T08:36:49.001Z</time></trkpt><trkpt lat="45.78848209773865" lon="4.819071543019052"><ele>168.0</ele><time>2026-04-25T08:36:50.001Z</time></trkpt><trkpt lat="45.78854648166253" lon="4.819157275241314"><ele>168.0</ele><time>2026-04-25T08:36:51.001Z</time></trkpt><trkpt lat="45.788614791697995" lon="4.81924026742538"><ele>168.0</ele><time>2026-04-25T08:36:52.001Z</time></trkpt><trkpt lat="45.78868195487615" lon="4.819326572107604"><ele>168.0</ele><time>2026-04-25T08:36:53.001Z</time></trkpt><trkpt lat="45.78875053308098" lon="4.819407751816472"><ele>168.0</ele><time>2026-04-25T08:36:54.001Z</time></trkpt><trkpt lat="45.7888180194588" lon="4.819488534694848"><ele>168.0</ele><time>2026-04-25T08:36:55.001Z</time></trkpt><trkpt lat="45.788886847221235" lon="4.819570547477315"><ele>168.0</ele><time>2026-04-25T08:36:56.001Z</time></trkpt><trkpt lat="45.788956190813366" lon="4.819655414563106"><ele>168.0</ele><time>2026-04-25T08:36:57.001Z</time></trkpt><trkpt lat="45.789027443293705" lon="4.81974244728635"><ele>168.0</ele><time>2026-04-25T08:36:58.001Z</time></trkpt><trkpt lat="45.78910705277106" lon="4.8198333305061025"><ele>168.0</ele><time>2026-04-25T08:36:59.001Z</time></trkpt><trkpt lat="45.7891864414564" lon="4.819932810329698"><ele>168.0</ele><time>2026-04-25T08:37:00.001Z</time></trkpt><trkpt lat="45.78927553629445" lon="4.820032542701611"><ele>168.0</ele><time>2026-04-25T08:37:01.001Z</time></trkpt><trkpt lat="45.78936740395721" lon="4.820136928823029"><ele>168.0</ele><time>2026-04-25T08:37:02.001Z</time></trkpt><trkpt lat="45.78946062875713" lon="4.820249904451397"><ele>168.0</ele><time>2026-04-25T08:37:03.001Z</time></trkpt><trkpt lat="45.7895458004445" lon="4.820345838780786"><ele>168.0</ele><time>2026-04-25T08:37:04Z</time></trkpt><trkpt lat="45.789624894141085" lon="4.820434840958421"><ele>168.0</ele><time>2026-04-25T08:37:05Z</time></trkpt><trkpt lat="45.78969580002485" lon="4.820523660800829"><ele>168.0</ele><time>2026-04-25T08:37:06Z</time></trkpt><trkpt lat="45.78976777957038" lon="4.820611360475823"><ele>168.0</ele><time>2026-04-25T08:37:07Z</time></trkpt><trkpt lat="45.789846538825834" lon="4.82070491461459"><ele>168.0</ele><time>2026-04-25T08:37:08Z</time></trkpt><trkpt lat="45.78992802465379" lon="4.820804769031948"><ele>168.0</ele><time>2026-04-25T08:37:09Z</time></trkpt><trkpt lat="45.790011179830245" lon="4.820909616151274"><ele>168.0</ele><time>2026-04-25T08:37:10Z</time></trkpt><trkpt lat="45.7900997682935" lon="4.821011484068378"><ele>168.0</ele><time>2026-04-25T08:37:11Z</time></trkpt><trkpt lat="45.79018912885062" lon="4.821119642478195"><ele>168.0</ele><time>2026-04-25T08:37:12Z</time></trkpt><trkpt lat="45.79027934910876" lon="4.821228631553931"><ele>168.0</ele><time>2026-04-25T08:37:13Z</time></trkpt><trkpt lat="45.79035932683496" lon="4.821325922485018"><ele>168.0</ele><time>2026-04-25T08:37:14Z</time></trkpt><trkpt lat="45.79043438967589" lon="4.8214139793464375"><ele>168.0</ele><time>2026-04-25T08:37:15Z</time></trkpt><trkpt lat="45.79050666127992" lon="4.8214975430775535"><ele>168.0</ele><time>2026-04-25T08:37:16Z</time></trkpt><trkpt lat="45.79057136237021" lon="4.821575594871342"><ele>168.0</ele><time>2026-04-25T08:37:17Z</time></trkpt><trkpt lat="45.79062456015447" lon="4.82164651164931"><ele>168.0</ele><time>2026-04-25T08:37:18Z</time></trkpt><trkpt lat="45.79070790667755" lon="4.821762923748244"><ele>168.0</ele><time>2026-04-25T08:37:20Z</time></trkpt><trkpt lat="45.79078308143682" lon="4.821876257567121"><ele>168.0</ele><time>2026-04-25T08:37:22Z</time></trkpt><trkpt lat="45.790832278335536" lon="4.821942949117557"><ele>168.0</ele><time>2026-04-25T08:37:23Z</time></trkpt><trkpt lat="45.79091840125924" lon="4.822072298704405"><ele>168.0</ele><time>2026-04-25T08:37:25Z</time></trkpt><trkpt lat="45.790962365358936" lon="4.822139421071778"><ele>167.8</ele><time>2026-04-25T08:37:26Z</time></trkpt><trkpt lat="45.791041186911784" lon="4.822257115979434"><ele>167.60000000000002</ele><time>2026-04-25T08:37:28Z</time></trkpt><trkpt lat="45.791111591143185" lon="4.822386591352675"><ele>167.39999999999998</ele><time>2026-04-25T08:37:30Z</time></trkpt><trkpt lat="45.79118043501741" lon="4.82250410680656"><ele>167.2</ele><time>2026-04-25T08:37:32Z</time></trkpt><trkpt lat="45.79123688316689" lon="4.822614968074598"><ele>167.0</ele><time>2026-04-25T08:37:34Z</time></trkpt><trkpt lat="45.79127579113176" lon="4.822691340608232"><ele>167.0</ele><time>2026-04-25T08:37:36Z</time></trkpt><trkpt lat="45.79132984435878" lon="4.822777525848704"><ele>167.0</ele><time>2026-04-25T08:37:40Z</time></trkpt><trkpt lat="45.791377527610976" lon="4.822870159052849"><ele>167.0</ele><time>2026-04-25T08:37:42Z</time></trkpt><trkpt lat="45.79143954770556" lon="4.8229773934903895"><ele>167.0</ele><time>2026-04-25T08:37:44Z</time></trkpt><trkpt lat="45.79151088571349" lon="4.823104443103713"><ele>167.0</ele><time>2026-04-25T08:37:46Z</time></trkpt><trkpt lat="45.7915456315028" lon="4.8231845710050845"><ele>167.0</ele><time>2026-04-25T08:37:47Z</time></trkpt><trkpt lat="45.791582942793156" lon="4.8232671071683875"><ele>167.0</ele><time>2026-04-25T08:37:48Z</time></trkpt><trkpt lat="45.79162816495213" lon="4.8233423288809725"><ele>167.0</ele><time>2026-04-25T08:37:49Z</time></trkpt><trkpt lat="45.79167509292588" lon="4.823415444229771"><ele>167.0</ele><time>2026-04-25T08:37:50Z</time></trkpt><trkpt lat="45.791723837587995" lon="4.8234953327156"><ele>167.0</ele><time>2026-04-25T08:37:51Z</time></trkpt><trkpt lat="45.791771149968454" lon="4.8235769662116335"><ele>167.0</ele><time>2026-04-25T08:37:52Z</time></trkpt><trkpt lat="45.79181787433218" lon="4.823660141041034"><ele>167.0</ele><time>2026-04-25T08:37:53Z</time></trkpt><trkpt lat="45.79186058025331" lon="4.823735620688398"><ele>167.0</ele><time>2026-04-25T08:37:54Z</time></trkpt><trkpt lat="45.79191500859014" lon="4.823827961341742"><ele>167.0</ele><time>2026-04-25T08:37:55Z</time></trkpt><trkpt lat="45.79197403064552" lon="4.823928505823294"><ele>167.0</ele><time>2026-04-25T08:37:56Z</time></trkpt><trkpt lat="45.792033411380956" lon="4.8240423059034425"><ele>167.0</ele><time>2026-04-25T08:37:57Z</time></trkpt><trkpt lat="45.792093982707776" lon="4.824153323670143"><ele>167.0</ele><time>2026-04-25T08:37:58Z</time></trkpt><trkpt lat="45.792150773842806" lon="4.824248897267166"><ele>167.0</ele><time>2026-04-25T08:37:59Z</time></trkpt><trkpt lat="45.792203122187274" lon="4.824347262577188"><ele>167.0</ele><time>2026-04-25T08:38:00Z</time></trkpt><trkpt lat="45.79225547336761" lon="4.824440522383874"><ele>167.0</ele><time>2026-04-25T08:38:01Z</time></trkpt><trkpt lat="45.79230285934106" lon="4.824527755694827"><ele>167.0</ele><time>2026-04-25T08:38:02Z</time></trkpt><trkpt lat="45.79235245029266" lon="4.824614634871273"><ele>167.0</ele><time>2026-04-25T08:38:03Z</time></trkpt><trkpt lat="45.792399269890446" lon="4.824699567640678"><ele>167.0</ele><time>2026-04-25T08:38:04Z</time></trkpt><trkpt lat="45.79244874287519" lon="4.824781656673547"><ele>167.0</ele><time>2026-04-25T08:38:05Z</time></trkpt><trkpt lat="45.79249571391065" lon="4.824867705926378"><ele>167.0</ele><time>2026-04-25T08:38:06.001Z</time></trkpt><trkpt lat="45.79254423997928" lon="4.824960748898608"><ele>167.0</ele><time>2026-04-25T08:38:07.001Z</time></trkpt><trkpt lat="45.79259469141996" lon="4.825060645540151"><ele>167.0</ele><time>2026-04-25T08:38:08.001Z</time></trkpt><trkpt lat="45.79265062811654" lon="4.825165560217879"><ele>167.0</ele><time>2026-04-25T08:38:09.001Z</time></trkpt><trkpt lat="45.79271448000578" lon="4.825269655275794"><ele>167.0</ele><time>2026-04-25T08:38:10.001Z</time></trkpt><trkpt lat="45.79277819350042" lon="4.825378892052456"><ele>166.8</ele><time>2026-04-25T08:38:11.001Z</time></trkpt><trkpt lat="45.79284319214252" lon="4.825492363418798"><ele>166.6</ele><time>2026-04-25T08:38:12.001Z</time></trkpt><trkpt lat="45.79290916679984" lon="4.825613219312269"><ele>166.4</ele><time>2026-04-25T08:38:13.001Z</time></trkpt><trkpt lat="45.792974854372794" lon="4.825734728947118"><ele>166.20000000000002</ele><time>2026-04-25T08:38:14.001Z</time></trkpt><trkpt lat="45.79304392432002" lon="4.825855026255455"><ele>166.0</ele><time>2026-04-25T08:38:15.001Z</time></trkpt><trkpt lat="45.793110838712266" lon="4.825976503051235"><ele>166.60000000000002</ele><time>2026-04-25T08:38:16.001Z</time></trkpt><trkpt lat="45.79318132103943" lon="4.826092940331028"><ele>167.2</ele><time>2026-04-25T08:38:17.001Z</time></trkpt><trkpt lat="45.79324412764737" lon="4.826196069439773"><ele>167.8</ele><time>2026-04-25T08:38:18.001Z</time></trkpt><trkpt lat="45.7933052489333" lon="4.8263014245943285"><ele>168.39999999999998</ele><time>2026-04-25T08:38:19.001Z</time></trkpt><trkpt lat="45.7933699687147" lon="4.826410430368086"><ele>169.0</ele><time>2026-04-25T08:38:20.001Z</time></trkpt><trkpt lat="45.79343609450674" lon="4.826522754433055"><ele>168.39999999999998</ele><time>2026-04-25T08:38:21.001Z</time></trkpt><trkpt lat="45.79350703859213" lon="4.826634917752014"><ele>167.8</ele><time>2026-04-25T08:38:22.001Z</time></trkpt><trkpt lat="45.79358217433197" lon="4.826745180819053"><ele>167.2</ele><time>2026-04-25T08:38:23.001Z</time></trkpt><trkpt lat="45.7936566958805" lon="4.826856838481753"><ele>166.60000000000002</ele><time>2026-04-25T08:38:24.001Z</time></trkpt><trkpt lat="45.793731555364744" lon="4.826952161839036"><ele>166.0</ele><time>2026-04-25T08:38:25.001Z</time></trkpt><trkpt lat="45.79379494100398" lon="4.827037586227783"><ele>166.0</ele><time>2026-04-25T08:38:26.001Z</time></trkpt><trkpt lat="45.79385044844927" lon="4.827116777236372"><ele>166.0</ele><time>2026-04-25T08:38:27.001Z</time></trkpt><trkpt lat="45.793905802454894" lon="4.827189866481274"><ele>166.0</ele><time>2026-04-25T08:38:28.001Z</time></trkpt><trkpt lat="45.793950902073966" lon="4.8272586495787895"><ele>166.0</ele><time>2026-04-25T08:38:29.001Z</time></trkpt><trkpt lat="45.79402230045496" lon="4.8273545797216215"><ele>166.0</ele><time>2026-04-25T08:38:31.001Z</time></trkpt><trkpt lat="45.79408017868636" lon="4.8274292312809575"><ele>166.0</ele><time>2026-04-25T08:38:34.001Z</time></trkpt><trkpt lat="45.794129677935096" lon="4.827490588919523"><ele>166.0</ele><time>2026-04-25T08:38:50.001Z</time></trkpt><trkpt lat="45.794205069987065" lon="4.827592461643945"><ele>166.0</ele><time>2026-04-25T08:38:52.001Z</time></trkpt><trkpt lat="45.79424839326222" lon="4.827671511799861"><ele>166.0</ele><time>2026-04-25T08:38:53.001Z</time></trkpt><trkpt lat="45.794303380901155" lon="4.8277566251058275"><ele>166.0</ele><time>2026-04-25T08:38:54.001Z</time></trkpt><trkpt lat="45.79435908704452" lon="4.827835438161153"><ele>166.0</ele><time>2026-04-25T08:38:55.001Z</time></trkpt><trkpt lat="45.794407774238586" lon="4.827897309748013"><ele>166.0</ele><time>2026-04-25T08:38:56.001Z</time></trkpt><trkpt lat="45.79445730243703" lon="4.827958691876558"><ele>166.0</ele><time>2026-04-25T08:38:57.001Z</time></trkpt><trkpt lat="45.79450353214302" lon="4.828022445720739"><ele>166.0</ele><time>2026-04-25T08:38:58.001Z</time></trkpt><trkpt lat="45.79455065352847" lon="4.828090352408456"><ele>166.0</ele><time>2026-04-25T08:38:59.001Z</time></trkpt><trkpt lat="45.79460627579573" lon="4.828170159596257"><ele>166.0</ele><time>2026-04-25T08:39:00.001Z</time></trkpt><trkpt lat="45.79466960537398" lon="4.828260037670271"><ele>166.0</ele><time>2026-04-25T08:39:01.001Z</time></trkpt><trkpt lat="45.79473986323809" lon="4.828357725773201"><ele>166.0</ele><time>2026-04-25T08:39:02.001Z</time></trkpt><trkpt lat="45.79481584982995" lon="4.828464047998318"><ele>167.0</ele><time>2026-04-25T08:39:03.001Z</time></trkpt><trkpt lat="45.79488892621868" lon="4.8285846753530555"><ele>168.0</ele><time>2026-04-25T08:39:04.001Z</time></trkpt><trkpt lat="45.79496026435614" lon="4.828709717137679"><ele>169.0</ele><time>2026-04-25T08:39:05.001Z</time></trkpt><trkpt lat="45.79502272607019" lon="4.828828519248395"><ele>170.0</ele><time>2026-04-25T08:39:06.001Z</time></trkpt><trkpt lat="45.795077413307105" lon="4.8289364830696675"><ele>171.0</ele><time>2026-04-25T08:39:07.001Z</time></trkpt><trkpt lat="45.795131906858494" lon="4.829048450103657"><ele>170.20000000000002</ele><time>2026-04-25T08:39:08.001Z</time></trkpt><trkpt lat="45.79518666552818" lon="4.82916557332775"><ele>169.4</ele><time>2026-04-25T08:39:09.001Z</time></trkpt><trkpt lat="45.795242911322575" lon="4.829289112042064"><ele>168.6</ele><time>2026-04-25T08:39:10Z</time></trkpt><trkpt lat="45.79530086245829" lon="4.829422682302465"><ele>167.8</ele><time>2026-04-25T08:39:11Z</time></trkpt><trkpt lat="45.79536193320656" lon="4.829563873467897"><ele>167.0</ele><time>2026-04-25T08:39:12Z</time></trkpt><trkpt lat="45.79541522398129" lon="4.829694754211074"><ele>167.0</ele><time>2026-04-25T08:39:13Z</time></trkpt><trkpt lat="45.795468096531046" lon="4.829820092288432"><ele>167.0</ele><time>2026-04-25T08:39:14Z</time></trkpt><trkpt lat="45.795517356551585" lon="4.82995091452572"><ele>167.0</ele><time>2026-04-25T08:39:15Z</time></trkpt><trkpt lat="45.79556399168947" lon="4.830086440983316"><ele>167.0</ele><time>2026-04-25T08:39:16Z</time></trkpt><trkpt lat="45.79560898024754" lon="4.830225006265672"><ele>167.0</ele><time>2026-04-25T08:39:17Z</time></trkpt><trkpt lat="45.79565278227605" lon="4.830366564349684"><ele>169.8</ele><time>2026-04-25T08:39:18Z</time></trkpt><trkpt lat="45.79570135514702" lon="4.830509775171843"><ele>172.6</ele><time>2026-04-25T08:39:19Z</time></trkpt><trkpt lat="45.795745503054036" lon="4.8306541056865075"><ele>175.4</ele><time>2026-04-25T08:39:20Z</time></trkpt><trkpt lat="45.79578028897422" lon="4.830789171615812"><ele>178.20000000000002</ele><time>2026-04-25T08:39:21Z</time></trkpt><trkpt lat="45.79580857537606" lon="4.8309181976382165"><ele>181.0</ele><time>2026-04-25T08:39:22Z</time></trkpt><trkpt lat="45.795834331356474" lon="4.831047917068017"><ele>182.66666666666669</ele><time>2026-04-25T08:39:23Z</time></trkpt><trkpt lat="45.79585375426923" lon="4.831158550635554"><ele>184.33333333333334</ele><time>2026-04-25T08:39:24Z</time></trkpt><trkpt lat="45.79587602739226" lon="4.831263385952219"><ele>186.0</ele><time>2026-04-25T08:39:25Z</time></trkpt><trkpt lat="45.79590485218087" lon="4.831417113151402"><ele>187.66666666666666</ele><time>2026-04-25T08:39:27Z</time></trkpt><trkpt lat="45.79591929094882" lon="4.831517080045141"><ele>189.33333333333331</ele><time>2026-04-25T08:39:30Z</time></trkpt><trkpt lat="45.7959392098858" lon="4.831607212915366"><ele>191.0</ele><time>2026-04-25T08:39:42Z</time></trkpt><trkpt lat="45.79596924907131" lon="4.831734805850819"><ele>193.0</ele><time>2026-04-25T08:39:44Z</time></trkpt><trkpt lat="45.795992222398084" lon="4.831827472099219"><ele>195.0</ele><time>2026-04-25T08:39:45Z</time></trkpt><trkpt lat="45.79603050531072" lon="4.831979895563828"><ele>197.0</ele><time>2026-04-25T08:39:47Z</time></trkpt><trkpt lat="45.79606473899875" lon="4.832174240666295"><ele>199.0</ele><time>2026-04-25T08:39:49Z</time></trkpt><trkpt lat="45.796085979798335" lon="4.8322913621622305"><ele>201.0</ele><time>2026-04-25T08:39:50Z</time></trkpt><trkpt lat="45.79610410796039" lon="4.832422720366839"><ele>196.8</ele><time>2026-04-25T08:39:51Z</time></trkpt><trkpt lat="45.796116998628584" lon="4.832561306588687"><ele>192.60000000000002</ele><time>2026-04-25T08:39:52Z</time></trkpt><trkpt lat="45.79612758835231" lon="4.832709347143559"><ele>188.4</ele><time>2026-04-25T08:39:53Z</time></trkpt><trkpt lat="45.79614689798604" lon="4.832845153208987"><ele>184.2</ele><time>2026-04-25T08:39:54Z</time></trkpt><trkpt lat="45.79616722581575" lon="4.832970042431299"><ele>180.0</ele><time>2026-04-25T08:39:55Z</time></trkpt><trkpt lat="45.79619683092049" lon="4.833094149674009"><ele>180.0</ele><time>2026-04-25T08:39:56Z</time></trkpt><trkpt lat="45.79623086456705" lon="4.833225756035261"><ele>180.0</ele><time>2026-04-25T08:39:57Z</time></trkpt><trkpt lat="45.79627440668801" lon="4.833372616925424"><ele>180.0</ele><time>2026-04-25T08:39:58Z</time></trkpt><trkpt lat="45.796330743439256" lon="4.833518012308299"><ele>180.0</ele><time>2026-04-25T08:39:59Z</time></trkpt><trkpt lat="45.79638864134901" lon="4.833667744274178"><ele>180.0</ele><time>2026-04-25T08:40:00Z</time></trkpt><trkpt lat="45.79645581567029" lon="4.83382562503617"><ele>181.8</ele><time>2026-04-25T08:40:01Z</time></trkpt><trkpt lat="45.796511999716806" lon="4.833973595034717"><ele>183.6</ele><time>2026-04-25T08:40:02Z</time></trkpt><trkpt lat="45.79656470727861" lon="4.83410945595722"><ele>185.39999999999998</ele><time>2026-04-25T08:40:03Z</time></trkpt><trkpt lat="45.796611397004895" lon="4.834241669685501"><ele>187.2</ele><time>2026-04-25T08:40:04Z</time></trkpt><trkpt lat="45.79666082599784" lon="4.83439043489162"><ele>189.0</ele><time>2026-04-25T08:40:05Z</time></trkpt><trkpt lat="45.79671805537988" lon="4.834543322030953"><ele>190.0</ele><time>2026-04-25T08:40:06Z</time></trkpt><trkpt lat="45.796765791835725" lon="4.834677741151527"><ele>191.0</ele><time>2026-04-25T08:40:07Z</time></trkpt><trkpt lat="45.796792106158854" lon="4.834805514351518"><ele>192.0</ele><time>2026-04-25T08:40:08Z</time></trkpt><trkpt lat="45.796829105733316" lon="4.834907460494114"><ele>193.0</ele><time>2026-04-25T08:40:09Z</time></trkpt><trkpt lat="45.796856301256895" lon="4.834990616536347"><ele>194.0</ele><time>2026-04-25T08:40:10Z</time></trkpt><trkpt lat="45.79687565769214" lon="4.835114368348544"><ele>195.0</ele><time>2026-04-25T08:40:12Z</time></trkpt><trkpt lat="45.79688976315951" lon="4.835213613592706"><ele>190.6</ele><time>2026-04-25T08:40:15Z</time></trkpt><trkpt lat="45.796905187471545" lon="4.835359277681886"><ele>186.2</ele><time>2026-04-25T08:40:22.001Z</time></trkpt><trkpt lat="45.796906967406976" lon="4.835523899714244"><ele>181.8</ele><time>2026-04-25T08:40:24.001Z</time></trkpt><trkpt lat="45.796922808672306" lon="4.835700847214351"><ele>177.4</ele><time>2026-04-25T08:40:26.001Z</time></trkpt><trkpt lat="45.79692527545955" lon="4.835796226296046"><ele>173.0</ele><time>2026-04-25T08:40:27.001Z</time></trkpt><trkpt lat="45.79693066103432" lon="4.8358970859328085"><ele>175.0</ele><time>2026-04-25T08:40:28.001Z</time></trkpt><trkpt lat="45.79694667876761" lon="4.836000460578895"><ele>177.0</ele><time>2026-04-25T08:40:29.001Z</time></trkpt><trkpt lat="45.79698030510776" lon="4.836111336698293"><ele>179.0</ele><time>2026-04-25T08:40:30.001Z</time></trkpt><trkpt lat="45.79702797756058" lon="4.836232716259251"><ele>181.0</ele><time>2026-04-25T08:40:31.001Z</time></trkpt><trkpt lat="45.79708974205765" lon="4.836357943910696"><ele>183.0</ele><time>2026-04-25T08:40:32.001Z</time></trkpt><trkpt lat="45.79714832100086" lon="4.836474584827499"><ele>183.0</ele><time>2026-04-25T08:40:33.001Z</time></trkpt><trkpt lat="45.79719945937478" lon="4.836585955809676"><ele>183.0</ele><time>2026-04-25T08:40:34.001Z</time></trkpt><trkpt lat="45.797248257535344" lon="4.83669072574226"><ele>183.0</ele><time>2026-04-25T08:40:35.001Z</time></trkpt><trkpt lat="45.79729705669912" lon="4.836787012582246"><ele>183.0</ele><time>2026-04-25T08:40:36.001Z</time></trkpt><trkpt lat="45.79734174414664" lon="4.836876270431434"><ele>183.0</ele><time>2026-04-25T08:40:37.001Z</time></trkpt><trkpt lat="45.79738206523525" lon="4.836963654784952"><ele>183.0</ele><time>2026-04-25T08:40:38.001Z</time></trkpt><trkpt lat="45.79742283069172" lon="4.837049358873016"><ele>183.14285714285714</ele><time>2026-04-25T08:40:39.001Z</time></trkpt><trkpt lat="45.79746270916514" lon="4.8371360328428015"><ele>183.28571428571428</ele><time>2026-04-25T08:40:40.001Z</time></trkpt><trkpt lat="45.797503539050794" lon="4.837222977607539"><ele>183.42857142857144</ele><time>2026-04-25T08:40:41.001Z</time></trkpt><trkpt lat="45.79754204827331" lon="4.837310114800802"><ele>183.57142857142856</ele><time>2026-04-25T08:40:42.001Z</time></trkpt><trkpt lat="45.79758165926683" lon="4.837398454072432"><ele>183.7142857142857</ele><time>2026-04-25T08:40:43.001Z</time></trkpt><trkpt lat="45.79762016796678" lon="4.837483925476522"><ele>183.85714285714286</ele><time>2026-04-25T08:40:44.001Z</time></trkpt><trkpt lat="45.797655803781765" lon="4.8375663334107735"><ele>184.0</ele><time>2026-04-25T08:40:45.001Z</time></trkpt><trkpt lat="45.79772416225764" lon="4.837710636227629"><ele>180.79999999999998</ele><time>2026-04-25T08:40:47.001Z</time></trkpt><trkpt lat="45.7977834193518" lon="4.837850425660709"><ele>177.6</ele><time>2026-04-25T08:40:49.001Z</time></trkpt><trkpt lat="45.797859072363515" lon="4.838001951531004"><ele>174.4</ele><time>2026-04-25T08:40:51.001Z</time></trkpt><trkpt lat="45.797914509068725" lon="4.838091004290894"><ele>171.2</ele><time>2026-04-25T08:40:52.001Z</time></trkpt><trkpt lat="45.79797752743501" lon="4.8381885905532735"><ele>168.0</ele><time>2026-04-25T08:40:53.001Z</time></trkpt><trkpt lat="45.79805088653966" lon="4.8383038989272045"><ele>168.0</ele><time>2026-04-25T08:40:54.001Z</time></trkpt><trkpt lat="45.79813238807419" lon="4.838427648691066"><ele>168.0</ele><time>2026-04-25T08:40:55.001Z</time></trkpt><trkpt lat="45.79822292633724" lon="4.838559552269179"><ele>168.0</ele><time>2026-04-25T08:40:56.001Z</time></trkpt><trkpt lat="45.798312832849284" lon="4.838681702778708"><ele>168.0</ele><time>2026-04-25T08:40:57.001Z</time></trkpt><trkpt lat="45.79840805352121" lon="4.838809949950127"><ele>168.25</ele><time>2026-04-25T08:40:58.001Z</time></trkpt><trkpt lat="45.79849924770159" lon="4.8389257165145025"><ele>168.5</ele><time>2026-04-25T08:40:59.001Z</time></trkpt><trkpt lat="45.79859159249168" lon="4.83902683100313"><ele>168.75</ele><time>2026-04-25T08:41:00.001Z</time></trkpt><trkpt lat="45.798682370270114" lon="4.839130987529783"><ele>169.0</ele><time>2026-04-25T08:41:01.001Z</time></trkpt><trkpt lat="45.79877216962097" lon="4.839237259962567"><ele>170.25</ele><time>2026-04-25T08:41:02.001Z</time></trkpt><trkpt lat="45.798867557435784" lon="4.839346453578175"><ele>171.5</ele><time>2026-04-25T08:41:03.001Z</time></trkpt><trkpt lat="45.798965864530935" lon="4.839456802462695"><ele>172.75</ele><time>2026-04-25T08:41:04.001Z</time></trkpt><trkpt lat="45.799065936645526" lon="4.839571362020082"><ele>174.0</ele><time>2026-04-25T08:41:05.001Z</time></trkpt><trkpt lat="45.79916872834287" lon="4.8396864108539175"><ele>174.0</ele><time>2026-04-25T08:41:06.001Z</time></trkpt><trkpt lat="45.79927025186305" lon="4.8398031757517215"><ele>174.0</ele><time>2026-04-25T08:41:07.001Z</time></trkpt><trkpt lat="45.799365479093844" lon="4.839909026467344"><ele>174.0</ele><time>2026-04-25T08:41:08.001Z</time></trkpt><trkpt lat="45.79945009631051" lon="4.840013932623917"><ele>174.0</ele><time>2026-04-25T08:41:09.001Z</time></trkpt><trkpt lat="45.79953855321837" lon="4.840120407627748"><ele>174.0</ele><time>2026-04-25T08:41:10.001Z</time></trkpt><trkpt lat="45.799628585392064" lon="4.840225636727035"><ele>174.0</ele><time>2026-04-25T08:41:11.001Z</time></trkpt><trkpt lat="45.79971938803927" lon="4.840333696811943"><ele>174.0</ele><time>2026-04-25T08:41:12.001Z</time></trkpt><trkpt lat="45.79981259680337" lon="4.840442200814466"><ele>174.0</ele><time>2026-04-25T08:41:13.001Z</time></trkpt><trkpt lat="45.799911160253295" lon="4.840544148384185"><ele>174.0</ele><time>2026-04-25T08:41:14.001Z</time></trkpt><trkpt lat="45.8000033593319" lon="4.8406410409092695"><ele>174.0</ele><time>2026-04-25T08:41:15.001Z</time></trkpt><trkpt lat="45.80008667246347" lon="4.840737917965885"><ele>174.0</ele><time>2026-04-25T08:41:16Z</time></trkpt><trkpt lat="45.800169583246216" lon="4.84083681668837"><ele>174.0</ele><time>2026-04-25T08:41:17Z</time></trkpt><trkpt lat="45.80025978749484" lon="4.840935162509841"><ele>174.0</ele><time>2026-04-25T08:41:18Z</time></trkpt><trkpt lat="45.800358023973125" lon="4.84102807152375"><ele>174.25</ele><time>2026-04-25T08:41:19Z</time></trkpt><trkpt lat="45.800463601303605" lon="4.8411272875524"><ele>174.5</ele><time>2026-04-25T08:41:20Z</time></trkpt><trkpt lat="45.80057476453428" lon="4.841228569827762"><ele>174.75</ele><time>2026-04-25T08:41:21Z</time></trkpt><trkpt lat="45.800690794133644" lon="4.841332807947533"><ele>175.0</ele><time>2026-04-25T08:41:22Z</time></trkpt><trkpt lat="45.800811033874076" lon="4.8414353074847964"><ele>175.0</ele><time>2026-04-25T08:41:23Z</time></trkpt><trkpt lat="45.80093460150953" lon="4.841524300258216"><ele>175.0</ele><time>2026-04-25T08:41:24Z</time></trkpt><trkpt lat="45.80105954402206" lon="4.841608579600867"><ele>175.0</ele><time>2026-04-25T08:41:25Z</time></trkpt><trkpt lat="45.8011809980919" lon="4.841699975252715"><ele>175.0</ele><time>2026-04-25T08:41:26Z</time></trkpt><trkpt lat="45.8012996647531" lon="4.841788142124222"><ele>173.5</ele><time>2026-04-25T08:41:27Z</time></trkpt><trkpt lat="45.80141039392258" lon="4.841869961203886"><ele>172.0</ele><time>2026-04-25T08:41:28Z</time></trkpt><trkpt lat="45.80151090872771" lon="4.841949612443613"><ele>170.5</ele><time>2026-04-25T08:41:29Z</time></trkpt><trkpt lat="45.80161337332167" lon="4.842021814132398"><ele>169.0</ele><time>2026-04-25T08:41:30Z</time></trkpt><trkpt lat="45.8017158678556" lon="4.842088905143734"><ele>169.0</ele><time>2026-04-25T08:41:31Z</time></trkpt><trkpt lat="45.80182124730267" lon="4.842151712910432"><ele>169.0</ele><time>2026-04-25T08:41:32Z</time></trkpt><trkpt lat="45.80193118680695" lon="4.842203961278236"><ele>169.0</ele><time>2026-04-25T08:41:33Z</time></trkpt><trkpt lat="45.802040443320436" lon="4.842253826326261"><ele>169.0</ele><time>2026-04-25T08:41:34Z</time></trkpt><trkpt lat="45.80215342001606" lon="4.842292617873784"><ele>169.25</ele><time>2026-04-25T08:41:35Z</time></trkpt><trkpt lat="45.80227228161581" lon="4.842335256113135"><ele>169.5</ele><time>2026-04-25T08:41:36Z</time></trkpt><trkpt lat="45.80239461722106" lon="4.842377174620483"><ele>169.75</ele><time>2026-04-25T08:41:37Z</time></trkpt><trkpt lat="45.80252138188033" lon="4.842417056480993"><ele>170.0</ele><time>2026-04-25T08:41:38Z</time></trkpt><trkpt lat="45.80264994891025" lon="4.8424571699594905"><ele>169.75</ele><time>2026-04-25T08:41:39Z</time></trkpt><trkpt lat="45.80277819447695" lon="4.842497580554661"><ele>169.5</ele><time>2026-04-25T08:41:40Z</time></trkpt><trkpt lat="45.80289589520231" lon="4.842535718130245"><ele>169.25</ele><time>2026-04-25T08:41:41Z</time></trkpt><trkpt lat="45.80301073062031" lon="4.842572541194363"><ele>169.0</ele><time>2026-04-25T08:41:42Z</time></trkpt><trkpt lat="45.80312482282005" lon="4.8426099218165675"><ele>170.25</ele><time>2026-04-25T08:41:43Z</time></trkpt><trkpt lat="45.803238806477026" lon="4.842647418204424"><ele>171.5</ele><time>2026-04-25T08:41:44Z</time></trkpt><trkpt lat="45.803353471296106" lon="4.842683224943659"><ele>172.75</ele><time>2026-04-25T08:41:45Z</time></trkpt><trkpt lat="45.80346773950442" lon="4.842722574687305"><ele>174.0</ele><time>2026-04-25T08:41:46Z</time></trkpt><trkpt lat="45.80357709583425" lon="4.842756734972055"><ele>174.5</ele><time>2026-04-25T08:41:47Z</time></trkpt><trkpt lat="45.8036911366904" lon="4.842793787704831"><ele>175.0</ele><time>2026-04-25T08:41:48Z</time></trkpt><trkpt lat="45.80380443239749" lon="4.842832066328667"><ele>175.5</ele><time>2026-04-25T08:41:49Z</time></trkpt><trkpt lat="45.80392008235715" lon="4.8428693397068745"><ele>176.0</ele><time>2026-04-25T08:41:50Z</time></trkpt><trkpt lat="45.80403208504684" lon="4.84290528597417"><ele>176.0</ele><time>2026-04-25T08:41:51Z</time></trkpt><trkpt lat="45.8041378827636" lon="4.842938882751162"><ele>176.0</ele><time>2026-04-25T08:41:52Z</time></trkpt><trkpt lat="45.8042430262889" lon="4.8429769333003465"><ele>176.0</ele><time>2026-04-25T08:41:53Z</time></trkpt><trkpt lat="45.80435338159064" lon="4.84301224102694"><ele>176.0</ele><time>2026-04-25T08:41:54Z</time></trkpt><trkpt lat="45.804467526145515" lon="4.843047480875798"><ele>176.0</ele><time>2026-04-25T08:41:55Z</time></trkpt><trkpt lat="45.80458591309013" lon="4.843080398143145"><ele>175.4</ele><time>2026-04-25T08:41:56Z</time></trkpt><trkpt lat="45.80469908447655" lon="4.8431149623301515"><ele>174.8</ele><time>2026-04-25T08:41:57Z</time></trkpt><trkpt lat="45.8048046287022" lon="4.843148863268386"><ele>174.20000000000002</ele><time>2026-04-25T08:41:58Z</time></trkpt><trkpt lat="45.80491222042028" lon="4.843179475002651"><ele>173.60000000000002</ele><time>2026-04-25T08:41:59Z</time></trkpt><trkpt lat="45.805020658929415" lon="4.843215719799388"><ele>173.0</ele><time>2026-04-25T08:42:00Z</time></trkpt><trkpt lat="45.80512960137618" lon="4.8432535271629"><ele>172.25</ele><time>2026-04-25T08:42:01Z</time></trkpt><trkpt lat="45.80524461974575" lon="4.8432915084033485"><ele>171.5</ele><time>2026-04-25T08:42:02Z</time></trkpt><trkpt lat="45.80535466460068" lon="4.843325372581652"><ele>170.75</ele><time>2026-04-25T08:42:03Z</time></trkpt><trkpt lat="45.80546260310142" lon="4.843359086951097"><ele>170.0</ele><time>2026-04-25T08:42:04Z</time></trkpt><trkpt lat="45.80556917642885" lon="4.843391892276104"><ele>170.0</ele><time>2026-04-25T08:42:05Z</time></trkpt><trkpt lat="45.80567552849378" lon="4.843429695562606"><ele>170.0</ele><time>2026-04-25T08:42:06Z</time></trkpt><trkpt lat="45.80578247248515" lon="4.843462679302841"><ele>170.0</ele><time>2026-04-25T08:42:07Z</time></trkpt><trkpt lat="45.80588406214952" lon="4.843496770951462"><ele>170.0</ele><time>2026-04-25T08:42:08Z</time></trkpt><trkpt lat="45.805990555228085" lon="4.843532072100223"><ele>170.0</ele><time>2026-04-25T08:42:09Z</time></trkpt><trkpt lat="45.80610148435418" lon="4.843563046380497"><ele>170.6</ele><time>2026-04-25T08:42:10Z</time></trkpt><trkpt lat="45.80620677995405" lon="4.843596632359849"><ele>171.2</ele><time>2026-04-25T08:42:11Z</time></trkpt><trkpt lat="45.80630498938409" lon="4.843621089448673"><ele>171.8</ele><time>2026-04-25T08:42:12Z</time></trkpt><trkpt lat="45.806407908545424" lon="4.843646567112237"><ele>172.4</ele><time>2026-04-25T08:42:13Z</time></trkpt><trkpt lat="45.80650780078508" lon="4.843670764451631"><ele>173.0</ele><time>2026-04-25T08:42:14Z</time></trkpt><trkpt lat="45.80660819891514" lon="4.8436894352509485"><ele>173.0</ele><time>2026-04-25T08:42:15Z</time></trkpt><trkpt lat="45.80670882761585" lon="4.843710132393231"><ele>173.0</ele><time>2026-04-25T08:42:16Z</time></trkpt><trkpt lat="45.806805761616936" lon="4.8437249445614"><ele>173.0</ele><time>2026-04-25T08:42:17Z</time></trkpt><trkpt lat="45.80689619493575" lon="4.84373672833175"><ele>173.0</ele><time>2026-04-25T08:42:18Z</time></trkpt><trkpt lat="45.80698068428522" lon="4.84375656608762"><ele>173.0</ele><time>2026-04-25T08:42:19Z</time></trkpt><trkpt lat="45.80704828906654" lon="4.843769196635797"><ele>173.0</ele><time>2026-04-25T08:42:20Z</time></trkpt><trkpt lat="45.80716126913933" lon="4.843793850369873"><ele>173.0</ele><time>2026-04-25T08:42:22Z</time></trkpt><trkpt lat="45.80726234558918" lon="4.843819380797692"><ele>173.0</ele><time>2026-04-25T08:42:24Z</time></trkpt><trkpt lat="45.80735967545802" lon="4.843836337795418"><ele>173.0</ele><time>2026-04-25T08:42:26Z</time></trkpt><trkpt lat="45.80746208194162" lon="4.843859273745621"><ele>173.0</ele><time>2026-04-25T08:42:28Z</time></trkpt><trkpt lat="45.807562753487616" lon="4.843897315379021"><ele>173.0</ele><time>2026-04-25T08:42:30Z</time></trkpt><trkpt lat="45.80767363236456" lon="4.843927349410249"><ele>173.0</ele><time>2026-04-25T08:42:32.001Z</time></trkpt><trkpt lat="45.807751212484696" lon="4.8439461673615405"><ele>173.0</ele><time>2026-04-25T08:42:33.001Z</time></trkpt><trkpt lat="45.80784068900166" lon="4.8439704644207895"><ele>173.0</ele><time>2026-04-25T08:42:34.001Z</time></trkpt><trkpt lat="45.80794186619386" lon="4.843988816855897"><ele>173.0</ele><time>2026-04-25T08:42:35.001Z</time></trkpt><trkpt lat="45.80805499702756" lon="4.844006175281515"><ele>173.0</ele><time>2026-04-25T08:42:36.001Z</time></trkpt><trkpt lat="45.80816866431668" lon="4.844035861266784"><ele>173.0</ele><time>2026-04-25T08:42:37.001Z</time></trkpt><trkpt lat="45.80828767223205" lon="4.844045512389348"><ele>173.0</ele><time>2026-04-25T08:42:38.001Z</time></trkpt><trkpt lat="45.80839548224498" lon="4.844068232296499"><ele>173.0</ele><time>2026-04-25T08:42:39.001Z</time></trkpt><trkpt lat="45.80850071475271" lon="4.844094449955622"><ele>173.0</ele><time>2026-04-25T08:42:40.001Z</time></trkpt><trkpt lat="45.80861163102743" lon="4.844111935677771"><ele>173.0</ele><time>2026-04-25T08:42:41.001Z</time></trkpt><trkpt lat="45.808720125086026" lon="4.844135099296926"><ele>173.4</ele><time>2026-04-25T08:42:42.001Z</time></trkpt><trkpt lat="45.808827254777114" lon="4.844162547979166"><ele>173.8</ele><time>2026-04-25T08:42:43.001Z</time></trkpt><trkpt lat="45.80893328183458" lon="4.844189761779779"><ele>174.2</ele><time>2026-04-25T08:42:44.001Z</time></trkpt><trkpt lat="45.809037902594575" lon="4.844220481385197"><ele>174.6</ele><time>2026-04-25T08:42:45.001Z</time></trkpt><trkpt lat="45.80914145789577" lon="4.844256217816351"><ele>175.0</ele><time>2026-04-25T08:42:46.001Z</time></trkpt><trkpt lat="45.80923237839523" lon="4.84429014563646"><ele>175.2</ele><time>2026-04-25T08:42:47.001Z</time></trkpt><trkpt lat="45.809308888951456" lon="4.844326223421344"><ele>175.4</ele><time>2026-04-25T08:42:48.001Z</time></trkpt><trkpt lat="45.809391527972345" lon="4.844368541176522"><ele>175.60000000000002</ele><time>2026-04-25T08:42:49.001Z</time></trkpt><trkpt lat="45.809489841431244" lon="4.844428954763408"><ele>175.8</ele><time>2026-04-25T08:42:50.001Z</time></trkpt><trkpt lat="45.80959665268821" lon="4.844501447668826"><ele>176.0</ele><time>2026-04-25T08:42:51.001Z</time></trkpt><trkpt lat="45.80971194231654" lon="4.844586284019785"><ele>176.0</ele><time>2026-04-25T08:42:52.001Z</time></trkpt><trkpt lat="45.809830479240496" lon="4.844679508469166"><ele>176.0</ele><time>2026-04-25T08:42:53.001Z</time></trkpt><trkpt lat="45.80993359551902" lon="4.844767749639172"><ele>176.0</ele><time>2026-04-25T08:42:54.001Z</time></trkpt><trkpt lat="45.81003855601001" lon="4.84484705102658"><ele>176.0</ele><time>2026-04-25T08:42:55.001Z</time></trkpt><trkpt lat="45.81014592972962" lon="4.844929899119896"><ele>175.25</ele><time>2026-04-25T08:42:56.001Z</time></trkpt><trkpt lat="45.810255660475114" lon="4.845018554575605"><ele>174.5</ele><time>2026-04-25T08:42:57.001Z</time></trkpt><trkpt lat="45.810364116265255" lon="4.845113383247171"><ele>173.75</ele><time>2026-04-25T08:42:58.001Z</time></trkpt><trkpt lat="45.81047392694473" lon="4.845196098922417"><ele>173.0</ele><time>2026-04-25T08:42:59.001Z</time></trkpt><trkpt lat="45.810591388358525" lon="4.845277660479166"><ele>173.0</ele><time>2026-04-25T08:43:00.001Z</time></trkpt><trkpt lat="45.810709792524435" lon="4.845360056275314"><ele>173.0</ele><time>2026-04-25T08:43:01.001Z</time></trkpt><trkpt lat="45.81082183488477" lon="4.84545340725057"><ele>173.0</ele><time>2026-04-25T08:43:02.001Z</time></trkpt><trkpt lat="45.81093258960406" lon="4.845553577194698"><ele>173.0</ele><time>2026-04-25T08:43:03.001Z</time></trkpt><trkpt lat="45.811046339867396" lon="4.845646770880988"><ele>172.0</ele><time>2026-04-25T08:43:04.001Z</time></trkpt><trkpt lat="45.811156836707376" lon="4.845750263351548"><ele>171.0</ele><time>2026-04-25T08:43:05.001Z</time></trkpt><trkpt lat="45.811264206716665" lon="4.845856456583307"><ele>170.0</ele><time>2026-04-25T08:43:06.001Z</time></trkpt><trkpt lat="45.8113663646464" lon="4.845955621113443"><ele>169.0</ele><time>2026-04-25T08:43:07.001Z</time></trkpt><trkpt lat="45.81146434827608" lon="4.846050236365231"><ele>169.0</ele><time>2026-04-25T08:43:08.001Z</time></trkpt><trkpt lat="45.81155959550251" lon="4.846145981325574"><ele>169.0</ele><time>2026-04-25T08:43:09.001Z</time></trkpt><trkpt lat="45.811651210524126" lon="4.84624498683607"><ele>169.0</ele><time>2026-04-25T08:43:10.001Z</time></trkpt><trkpt lat="45.81174347025475" lon="4.846341093784042"><ele>169.0</ele><time>2026-04-25T08:43:11.001Z</time></trkpt><trkpt lat="45.81184676086492" lon="4.846446126927107"><ele>168.75</ele><time>2026-04-25T08:43:12.001Z</time></trkpt><trkpt lat="45.81195342259045" lon="4.846561779607109"><ele>168.5</ele><time>2026-04-25T08:43:13.001Z</time></trkpt><trkpt lat="45.812063379558516" lon="4.8466864066828235"><ele>168.25</ele><time>2026-04-25T08:43:14.001Z</time></trkpt><trkpt lat="45.81216813156317" lon="4.846809298741583"><ele>168.0</ele><time>2026-04-25T08:43:15.001Z</time></trkpt><trkpt lat="45.812259720233165" lon="4.846925194892119"><ele>168.0</ele><time>2026-04-25T08:43:16.001Z</time></trkpt><trkpt lat="45.81234638944505" lon="4.847033461780173"><ele>168.0</ele><time>2026-04-25T08:43:17.001Z</time></trkpt><trkpt lat="45.81243094392055" lon="4.847144373567904"><ele>168.0</ele><time>2026-04-25T08:43:18.001Z</time></trkpt><trkpt lat="45.81251720239456" lon="4.847257704007939"><ele>168.0</ele><time>2026-04-25T08:43:19.001Z</time></trkpt><trkpt lat="45.81260121211746" lon="4.847366653707695"><ele>167.66666666666666</ele><time>2026-04-25T08:43:20.001Z</time></trkpt><trkpt lat="45.812677385982894" lon="4.847464714067456"><ele>167.33333333333334</ele><time>2026-04-25T08:43:21.001Z</time></trkpt><trkpt lat="45.81274342734012" lon="4.847554554842585"><ele>167.0</ele><time>2026-04-25T08:43:22Z</time></trkpt><trkpt lat="45.81280435919947" lon="4.847635080872362"><ele>166.66666666666669</ele><time>2026-04-25T08:43:23Z</time></trkpt><trkpt lat="45.81286066852729" lon="4.847710567424513"><ele>166.33333333333334</ele><time>2026-04-25T08:43:24Z</time></trkpt><trkpt lat="45.812910668841056" lon="4.8477729677960255"><ele>166.0</ele><time>2026-04-25T08:43:25Z</time></trkpt><trkpt lat="45.81298832426128" lon="4.847870298511755"><ele>166.66666666666669</ele><time>2026-04-25T08:43:27Z</time></trkpt><trkpt lat="45.81303563959864" lon="4.847949680792612"><ele>167.33333333333334</ele><time>2026-04-25T08:43:29Z</time></trkpt><trkpt lat="45.81308042511341" lon="4.848021606729304"><ele>168.0</ele><time>2026-04-25T08:43:31Z</time></trkpt><trkpt lat="45.813158099820285" lon="4.8481364738425645"><ele>168.66666666666666</ele><time>2026-04-25T08:43:33Z</time></trkpt><trkpt lat="45.81321155994029" lon="4.848208063105814"><ele>169.33333333333331</ele><time>2026-04-25T08:43:34Z</time></trkpt><trkpt lat="45.81327146247799" lon="4.848291572430774"><ele>170.0</ele><time>2026-04-25T08:43:35Z</time></trkpt><trkpt lat="45.81333341430885" lon="4.848380616403877"><ele>169.5</ele><time>2026-04-25T08:43:36Z</time></trkpt><trkpt lat="45.81339349658093" lon="4.848471908503882"><ele>169.0</ele><time>2026-04-25T08:43:37Z</time></trkpt><trkpt lat="45.81345328666515" lon="4.848565119118789"><ele>168.5</ele><time>2026-04-25T08:43:38Z</time></trkpt><trkpt lat="45.813510113209055" lon="4.848659513378871"><ele>168.0</ele><time>2026-04-25T08:43:39Z</time></trkpt><trkpt lat="45.81355814881904" lon="4.84875320549834"><ele>167.5</ele><time>2026-04-25T08:43:40Z</time></trkpt><trkpt lat="45.813608761686666" lon="4.84884916781385"><ele>167.0</ele><time>2026-04-25T08:43:41Z</time></trkpt><trkpt lat="45.81365864229495" lon="4.848946232158469"><ele>167.0</ele><time>2026-04-25T08:43:42Z</time></trkpt><trkpt lat="45.813699624726574" lon="4.849032211373309"><ele>167.0</ele><time>2026-04-25T08:43:43Z</time></trkpt><trkpt lat="45.813741039883375" lon="4.84912267443506"><ele>167.0</ele><time>2026-04-25T08:43:44Z</time></trkpt><trkpt lat="45.81378690531277" lon="4.849228610505055"><ele>167.0</ele><time>2026-04-25T08:43:45Z</time></trkpt><trkpt lat="45.813835863516495" lon="4.849347151974877"><ele>167.0</ele><time>2026-04-25T08:43:46Z</time></trkpt><trkpt lat="45.813892326420394" lon="4.849478767810597"><ele>167.0</ele><time>2026-04-25T08:43:47Z</time></trkpt><trkpt lat="45.81395433671021" lon="4.8496143455088525"><ele>170.0</ele><time>2026-04-25T08:43:48Z</time></trkpt><trkpt lat="45.81402236978" lon="4.8497707926881155"><ele>173.0</ele><time>2026-04-25T08:43:49Z</time></trkpt><trkpt lat="45.814095886226156" lon="4.84993480001827"><ele>176.0</ele><time>2026-04-25T08:43:50Z</time></trkpt><trkpt lat="45.81416979218961" lon="4.850105310123206"><ele>179.0</ele><time>2026-04-25T08:43:51Z</time></trkpt><trkpt lat="45.81424172454629" lon="4.8502648597789895"><ele>175.75</ele><time>2026-04-25T08:43:52Z</time></trkpt><trkpt lat="45.814308334972125" lon="4.850423201196317"><ele>172.5</ele><time>2026-04-25T08:43:53Z</time></trkpt><trkpt lat="45.814378910875845" lon="4.850591022270767"><ele>169.25</ele><time>2026-04-25T08:43:54Z</time></trkpt><trkpt lat="45.8144532544158" lon="4.850764776783658"><ele>166.0</ele><time>2026-04-25T08:43:55Z</time></trkpt><trkpt lat="45.81452690912295" lon="4.850946934011176"><ele>168.75</ele><time>2026-04-25T08:43:56Z</time></trkpt><trkpt lat="45.814603911840955" lon="4.851129731424659"><ele>171.5</ele><time>2026-04-25T08:43:57Z</time></trkpt><trkpt lat="45.81467602272834" lon="4.851306262377679"><ele>174.25</ele><time>2026-04-25T08:43:58Z</time></trkpt><trkpt lat="45.814743584386065" lon="4.851470266992439"><ele>177.0</ele><time>2026-04-25T08:43:59Z</time></trkpt><trkpt lat="45.81481125433356" lon="4.851626226111686"><ele>177.0</ele><time>2026-04-25T08:44:00Z</time></trkpt><trkpt lat="45.81488073265879" lon="4.851763392830092"><ele>177.0</ele><time>2026-04-25T08:44:01Z</time></trkpt><trkpt lat="45.81495729930466" lon="4.851902822163362"><ele>177.0</ele><time>2026-04-25T08:44:02Z</time></trkpt><trkpt lat="45.815039107688186" lon="4.852042883511219"><ele>177.0</ele><time>2026-04-25T08:44:03Z</time></trkpt><trkpt lat="45.815125623109374" lon="4.852184462910323"><ele>176.0</ele><time>2026-04-25T08:44:04Z</time></trkpt><trkpt lat="45.81521729896983" lon="4.852329684919267"><ele>175.0</ele><time>2026-04-25T08:44:05Z</time></trkpt><trkpt lat="45.81530523292543" lon="4.852475832681527"><ele>174.0</ele><time>2026-04-25T08:44:06Z</time></trkpt><trkpt lat="45.81539804941714" lon="4.852628522427834"><ele>173.0</ele><time>2026-04-25T08:44:07Z</time></trkpt><trkpt lat="45.815485768974575" lon="4.85278595825051"><ele>173.0</ele><time>2026-04-25T08:44:08Z</time></trkpt><trkpt lat="45.81556650665567" lon="4.852948237626433"><ele>173.0</ele><time>2026-04-25T08:44:09Z</time></trkpt><trkpt lat="45.81564181292268" lon="4.853116816409528"><ele>173.0</ele><time>2026-04-25T08:44:10Z</time></trkpt><trkpt lat="45.81571313559747" lon="4.853295394960969"><ele>173.0</ele><time>2026-04-25T08:44:11Z</time></trkpt><trkpt lat="45.81578142114309" lon="4.853476467105573"><ele>171.25</ele><time>2026-04-25T08:44:12Z</time></trkpt><trkpt lat="45.81584617332642" lon="4.853642735019765"><ele>169.5</ele><time>2026-04-25T08:44:13Z</time></trkpt><trkpt lat="45.81591000400992" lon="4.853806095110773"><ele>167.75</ele><time>2026-04-25T08:44:14Z</time></trkpt><trkpt lat="45.81597880024645" lon="4.853965556142086"><ele>166.0</ele><time>2026-04-25T08:44:15Z</time></trkpt><trkpt lat="45.81604630857981" lon="4.854126000100635"><ele>166.0</ele><time>2026-04-25T08:44:16Z</time></trkpt><trkpt lat="45.816117455361415" lon="4.854283653991407"><ele>166.0</ele><time>2026-04-25T08:44:17Z</time></trkpt><trkpt lat="45.81619330149635" lon="4.854433597707753"><ele>166.0</ele><time>2026-04-25T08:44:18Z</time></trkpt><trkpt lat="45.81626976820204" lon="4.854590157891064"><ele>166.0</ele><time>2026-04-25T08:44:19Z</time></trkpt><trkpt lat="45.81634432080278" lon="4.85474551177647"><ele>168.0</ele><time>2026-04-25T08:44:20Z</time></trkpt><trkpt lat="45.816424898233535" lon="4.854897863960294"><ele>170.0</ele><time>2026-04-25T08:44:21Z</time></trkpt><trkpt lat="45.816500290934066" lon="4.85504263149866"><ele>172.0</ele><time>2026-04-25T08:44:22Z</time></trkpt><trkpt lat="45.81656635955721" lon="4.855178629496733"><ele>174.0</ele><time>2026-04-25T08:44:23Z</time></trkpt><trkpt lat="45.81663025027273" lon="4.85530931098361"><ele>171.75</ele><time>2026-04-25T08:44:24Z</time></trkpt><trkpt lat="45.81670035552189" lon="4.855433949694694"><ele>169.5</ele><time>2026-04-25T08:44:25Z</time></trkpt><trkpt lat="45.816777294221225" lon="4.855560006539745"><ele>167.25</ele><time>2026-04-25T08:44:26Z</time></trkpt><trkpt lat="45.81686132526078" lon="4.855683141158653"><ele>165.0</ele><time>2026-04-25T08:44:27Z</time></trkpt><trkpt lat="45.816960899393926" lon="4.8558090777196545"><ele>165.0</ele><time>2026-04-25T08:44:28Z</time></trkpt><trkpt lat="45.81707043120719" lon="4.855937815729252"><ele>165.0</ele><time>2026-04-25T08:44:29Z</time></trkpt><trkpt lat="45.81718657912739" lon="4.856067885048231"><ele>165.0</ele><time>2026-04-25T08:44:30Z</time></trkpt><trkpt lat="45.817303150802964" lon="4.856182447562509"><ele>165.0</ele><time>2026-04-25T08:44:31Z</time></trkpt><trkpt lat="45.817400831216524" lon="4.856308514125247"><ele>165.0</ele><time>2026-04-25T08:44:32Z</time></trkpt><trkpt lat="45.81749830526414" lon="4.856425564912133"><ele>165.0</ele><time>2026-04-25T08:44:33Z</time></trkpt><trkpt lat="45.817589571234585" lon="4.856535649207793"><ele>165.0</ele><time>2026-04-25T08:44:34Z</time></trkpt><trkpt lat="45.8176865488887" lon="4.85664246249034"><ele>165.0</ele><time>2026-04-25T08:44:35Z</time></trkpt><trkpt lat="45.817789651857865" lon="4.856739597644109"><ele>169.5</ele><time>2026-04-25T08:44:36Z</time></trkpt><trkpt lat="45.81789850946158" lon="4.856836694137977"><ele>174.0</ele><time>2026-04-25T08:44:37Z</time></trkpt><trkpt lat="45.81801761916919" lon="4.856923930016762"><ele>178.5</ele><time>2026-04-25T08:44:38Z</time></trkpt><trkpt lat="45.81814135983752" lon="4.857023127222388"><ele>183.0</ele><time>2026-04-25T08:44:39Z</time></trkpt><trkpt lat="45.81826934714746" lon="4.857124724826076"><ele>183.0</ele><time>2026-04-25T08:44:40Z</time></trkpt><trkpt lat="45.818394026363364" lon="4.857226232350211"><ele>183.0</ele><time>2026-04-25T08:44:41Z</time></trkpt><trkpt lat="45.81850972217099" lon="4.857316195457461"><ele>183.0</ele><time>2026-04-25T08:44:42Z</time></trkpt><trkpt lat="45.818613388407606" lon="4.857403774053658"><ele>183.0</ele><time>2026-04-25T08:44:43Z</time></trkpt><trkpt lat="45.81871366270239" lon="4.857485408979614"><ele>179.25</ele><time>2026-04-25T08:44:44Z</time></trkpt><trkpt lat="45.8188169669609" lon="4.857570376559146"><ele>175.5</ele><time>2026-04-25T08:44:45Z</time></trkpt><trkpt lat="45.8189234656173" lon="4.857661983438953"><ele>171.75</ele><time>2026-04-25T08:44:46Z</time></trkpt><trkpt lat="45.81903642981027" lon="4.857757142105402"><ele>168.0</ele><time>2026-04-25T08:44:47Z</time></trkpt><trkpt lat="45.81914908756124" lon="4.857849085285981"><ele>170.5</ele><time>2026-04-25T08:44:48Z</time></trkpt><trkpt lat="45.81926365336337" lon="4.857914932660338"><ele>173.0</ele><time>2026-04-25T08:44:49Z</time></trkpt><trkpt lat="45.81939295991252" lon="4.8579804855136155"><ele>175.5</ele><time>2026-04-25T08:44:50Z</time></trkpt><trkpt lat="45.81952925572692" lon="4.8580377892249"><ele>178.0</ele><time>2026-04-25T08:44:51Z</time></trkpt><trkpt lat="45.81967167009073" lon="4.858091572905604"><ele>178.0</ele><time>2026-04-25T08:44:52Z</time></trkpt><trkpt lat="45.81981659359823" lon="4.858148457753845"><ele>178.0</ele><time>2026-04-25T08:44:53Z</time></trkpt><trkpt lat="45.81995105020828" lon="4.858198890685407"><ele>178.0</ele><time>2026-04-25T08:44:54Z</time></trkpt><trkpt lat="45.82007693665135" lon="4.858246075365249"><ele>178.0</ele><time>2026-04-25T08:44:55Z</time></trkpt><trkpt lat="45.820198043226235" lon="4.858286005063318"><ele>176.5</ele><time>2026-04-25T08:44:56Z</time></trkpt><trkpt lat="45.820316439414945" lon="4.85832814372624"><ele>175.0</ele><time>2026-04-25T08:44:57Z</time></trkpt><trkpt lat="45.820434743312056" lon="4.858371882437481"><ele>173.5</ele><time>2026-04-25T08:44:58Z</time></trkpt><trkpt lat="45.820558075009025" lon="4.858410504343416"><ele>172.0</ele><time>2026-04-25T08:44:59Z</time></trkpt><trkpt lat="45.82068287341024" lon="4.858452088881464"><ele>176.75</ele><time>2026-04-25T08:45:00Z</time></trkpt><trkpt lat="45.82080981972667" lon="4.858495738161841"><ele>181.5</ele><time>2026-04-25T08:45:01.001Z</time></trkpt><trkpt lat="45.82094163214846" lon="4.8585396258988816"><ele>186.25</ele><time>2026-04-25T08:45:02.001Z</time></trkpt><trkpt lat="45.82107429290447" lon="4.858594392299511"><ele>191.0</ele><time>2026-04-25T08:45:03.001Z</time></trkpt><trkpt lat="45.82120573330439" lon="4.8586502909312115"><ele>191.0</ele><time>2026-04-25T08:45:04.001Z</time></trkpt><trkpt lat="45.82133919756739" lon="4.858711689388888"><ele>191.0</ele><time>2026-04-25T08:45:05.001Z</time></trkpt><trkpt lat="45.821474909397274" lon="4.858766578968796"><ele>191.0</ele><time>2026-04-25T08:45:06.001Z</time></trkpt><trkpt lat="45.82161524762211" lon="4.858807843745333"><ele>191.0</ele><time>2026-04-25T08:45:07.001Z</time></trkpt><trkpt lat="45.82175474113006" lon="4.858841975545225"><ele>188.5</ele><time>2026-04-25T08:45:08.001Z</time></trkpt><trkpt lat="45.82188944317883" lon="4.858872524192231"><ele>186.0</ele><time>2026-04-25T08:45:09.001Z</time></trkpt><trkpt lat="45.82201958738801" lon="4.858904338010814"><ele>183.5</ele><time>2026-04-25T08:45:10.001Z</time></trkpt><trkpt lat="45.82214437382916" lon="4.858937476450624"><ele>181.0</ele><time>2026-04-25T08:45:11.001Z</time></trkpt><trkpt lat="45.822271284833185" lon="4.8589658100873665"><ele>181.0</ele><time>2026-04-25T08:45:12.001Z</time></trkpt><trkpt lat="45.82238527587008" lon="4.858994819624224"><ele>181.0</ele><time>2026-04-25T08:45:13.001Z</time></trkpt><trkpt lat="45.822507218301126" lon="4.859004821223459"><ele>181.0</ele><time>2026-04-25T08:45:14.001Z</time></trkpt><trkpt lat="45.82264093975433" lon="4.8590137712273975"><ele>181.0</ele><time>2026-04-25T08:45:15.001Z</time></trkpt><trkpt lat="45.82278212736682" lon="4.859012896620544"><ele>181.75</ele><time>2026-04-25T08:45:16.001Z</time></trkpt><trkpt lat="45.82292243574813" lon="4.859008912504521"><ele>182.5</ele><time>2026-04-25T08:45:17.001Z</time></trkpt><trkpt lat="45.823063465331806" lon="4.859004240865587"><ele>183.25</ele><time>2026-04-25T08:45:18.001Z</time></trkpt><trkpt lat="45.823201516870384" lon="4.859002483968863"><ele>184.0</ele><time>2026-04-25T08:45:19.001Z</time></trkpt><trkpt lat="45.82332962058491" lon="4.85899919315782"><ele>184.0</ele><time>2026-04-25T08:45:20.001Z</time></trkpt><trkpt lat="45.82344998960501" lon="4.8589896738949125"><ele>184.0</ele><time>2026-04-25T08:45:21.001Z</time></trkpt><trkpt lat="45.82356467707384" lon="4.858970476090302"><ele>184.0</ele><time>2026-04-25T08:45:22.001Z</time></trkpt><trkpt lat="45.823676317258254" lon="4.858947872100217"><ele>184.0</ele><time>2026-04-25T08:45:23.001Z</time></trkpt><trkpt lat="45.82378989970263" lon="4.858923801141831"><ele>184.25</ele><time>2026-04-25T08:45:24.001Z</time></trkpt><trkpt lat="45.82390599783233" lon="4.8588976881822195"><ele>184.5</ele><time>2026-04-25T08:45:25.001Z</time></trkpt><trkpt lat="45.824023334542396" lon="4.85887141453638"><ele>184.75</ele><time>2026-04-25T08:45:26.001Z</time></trkpt><trkpt lat="45.82414044025265" lon="4.85884642565444"><ele>185.0</ele><time>2026-04-25T08:45:27.001Z</time></trkpt><trkpt lat="45.824260695086664" lon="4.858815197248121"><ele>185.25</ele><time>2026-04-25T08:45:28Z</time></trkpt><trkpt lat="45.82438208469787" lon="4.858784368138342"><ele>185.5</ele><time>2026-04-25T08:45:29Z</time></trkpt><trkpt lat="45.824500337384045" lon="4.858754472495243"><ele>185.75</ele><time>2026-04-25T08:45:30Z</time></trkpt><trkpt lat="45.824617813482305" lon="4.858727242405719"><ele>186.0</ele><time>2026-04-25T08:45:31Z</time></trkpt><trkpt lat="45.82473384196912" lon="4.858696077728141"><ele>186.0</ele><time>2026-04-25T08:45:32Z</time></trkpt><trkpt lat="45.82484803347423" lon="4.858658457799485"><ele>186.0</ele><time>2026-04-25T08:45:33Z</time></trkpt><trkpt lat="45.824963618081995" lon="4.858615458699544"><ele>186.0</ele><time>2026-04-25T08:45:34Z</time></trkpt><trkpt lat="45.82507364145283" lon="4.858562175555738"><ele>186.0</ele><time>2026-04-25T08:45:35Z</time></trkpt><trkpt lat="45.82517501183582" lon="4.858497816342671"><ele>184.25</ele><time>2026-04-25T08:45:36Z</time></trkpt><trkpt lat="45.82527176040534" lon="4.858423149187517"><ele>182.5</ele><time>2026-04-25T08:45:37Z</time></trkpt><trkpt lat="45.82536708826109" lon="4.858327246264647"><ele>180.75</ele><time>2026-04-25T08:45:38Z</time></trkpt><trkpt lat="45.8254544459796" lon="4.858216460778964"><ele>179.0</ele><time>2026-04-25T08:45:39Z</time></trkpt><trkpt lat="45.82553749843509" lon="4.858087141002357"><ele>179.0</ele><time>2026-04-25T08:45:40Z</time></trkpt><trkpt lat="45.8256249474648" lon="4.8579696507656855"><ele>179.0</ele><time>2026-04-25T08:45:41Z</time></trkpt><trkpt lat="45.82571727233313" lon="4.857852573244893"><ele>179.0</ele><time>2026-04-25T08:45:42Z</time></trkpt><trkpt lat="45.82580950575899" lon="4.857734216760431"><ele>179.0</ele><time>2026-04-25T08:45:43Z</time></trkpt><trkpt lat="45.82588894694282" lon="4.8576287786294206"><ele>177.39999999999998</ele><time>2026-04-25T08:45:44Z</time></trkpt><trkpt lat="45.825966474523874" lon="4.857527114209619"><ele>175.8</ele><time>2026-04-25T08:45:45Z</time></trkpt><trkpt lat="45.82604347803189" lon="4.857426606649381"><ele>174.2</ele><time>2026-04-25T08:45:46Z</time></trkpt><trkpt lat="45.826123205262206" lon="4.857321872001948"><ele>172.60000000000002</ele><time>2026-04-25T08:45:47Z</time></trkpt><trkpt lat="45.8262039686626" lon="4.857216286348278"><ele>171.0</ele><time>2026-04-25T08:45:48Z</time></trkpt><trkpt lat="45.82628425628778" lon="4.857106784200635"><ele>171.0</ele><time>2026-04-25T08:45:49Z</time></trkpt><trkpt lat="45.82636869453193" lon="4.856990791393008"><ele>171.0</ele><time>2026-04-25T08:45:50Z</time></trkpt><trkpt lat="45.826459239268694" lon="4.856868163917508"><ele>171.0</ele><time>2026-04-25T08:45:51Z</time></trkpt><trkpt lat="45.8265555085266" lon="4.856740847959646"><ele>171.0</ele><time>2026-04-25T08:45:52Z</time></trkpt><trkpt lat="45.82665532773956" lon="4.856605053036118"><ele>170.5</ele><time>2026-04-25T08:45:53Z</time></trkpt><trkpt lat="45.82675381613605" lon="4.856465649304019"><ele>170.0</ele><time>2026-04-25T08:45:54Z</time></trkpt><trkpt lat="45.82684891830737" lon="4.856339650294578"><ele>169.5</ele><time>2026-04-25T08:45:55Z</time></trkpt><trkpt lat="45.82693557023126" lon="4.856227085014148"><ele>169.0</ele><time>2026-04-25T08:45:56Z</time></trkpt><trkpt lat="45.82701796433132" lon="4.856122504664718"><ele>169.6</ele><time>2026-04-25T08:45:57Z</time></trkpt><trkpt lat="45.82709537288178" lon="4.856024899891892"><ele>170.2</ele><time>2026-04-25T08:45:58Z</time></trkpt><trkpt lat="45.82717047674248" lon="4.855918968055892"><ele>170.79999999999998</ele><time>2026-04-25T08:45:59Z</time></trkpt><trkpt lat="45.827254466055095" lon="4.855813942243566"><ele>171.39999999999998</ele><time>2026-04-25T08:46:00Z</time></trkpt><trkpt lat="45.82734427260622" lon="4.855708552468489"><ele>172.0</ele><time>2026-04-25T08:46:01Z</time></trkpt><trkpt lat="45.82743401385295" lon="4.855587612956125"><ele>172.0</ele><time>2026-04-25T08:46:02Z</time></trkpt><trkpt lat="45.827523909952646" lon="4.855467087727647"><ele>172.0</ele><time>2026-04-25T08:46:03Z</time></trkpt><trkpt lat="45.82761679347492" lon="4.855346659911729"><ele>172.0</ele><time>2026-04-25T08:46:04Z</time></trkpt><trkpt lat="45.82770859693708" lon="4.855229199092886"><ele>172.0</ele><time>2026-04-25T08:46:05Z</time></trkpt><trkpt lat="45.82779746453456" lon="4.855110987993209"><ele>172.75</ele><time>2026-04-25T08:46:06Z</time></trkpt><trkpt lat="45.82788333143386" lon="4.854994638424681"><ele>173.5</ele><time>2026-04-25T08:46:07Z</time></trkpt><trkpt lat="45.82796582603883" lon="4.854887816029557"><ele>174.25</ele><time>2026-04-25T08:46:08Z</time></trkpt><trkpt lat="45.82804844171007" lon="4.85477971481231"><ele>175.0</ele><time>2026-04-25T08:46:09Z</time></trkpt><trkpt lat="45.8281338309995" lon="4.854666074105831"><ele>175.0</ele><time>2026-04-25T08:46:10Z</time></trkpt><trkpt lat="45.828220076620745" lon="4.854549190701832"><ele>175.0</ele><time>2026-04-25T08:46:11Z</time></trkpt><trkpt lat="45.82830373995325" lon="4.854427693363237"><ele>175.0</ele><time>2026-04-25T08:46:12Z</time></trkpt><trkpt lat="45.828391764787185" lon="4.854298325389473"><ele>175.0</ele><time>2026-04-25T08:46:13Z</time></trkpt><trkpt lat="45.82847906712136" lon="4.854176950641794"><ele>175.0</ele><time>2026-04-25T08:46:14Z</time></trkpt><trkpt lat="45.828567806149145" lon="4.85405072063624"><ele>175.0</ele><time>2026-04-25T08:46:15Z</time></trkpt><trkpt lat="45.82866448213401" lon="4.853918572995696"><ele>175.0</ele><time>2026-04-25T08:46:16Z</time></trkpt><trkpt lat="45.82876566761027" lon="4.853790680878197"><ele>175.0</ele><time>2026-04-25T08:46:17Z</time></trkpt><trkpt lat="45.82887076596907" lon="4.8536552072646435"><ele>175.0</ele><time>2026-04-25T08:46:18Z</time></trkpt><trkpt lat="45.82896884828784" lon="4.853541573597707"><ele>175.0</ele><time>2026-04-25T08:46:19Z</time></trkpt><trkpt lat="45.829058880758076" lon="4.853437055369548"><ele>175.0</ele><time>2026-04-25T08:46:20Z</time></trkpt><trkpt lat="45.829141768048395" lon="4.8533413948022215"><ele>175.0</ele><time>2026-04-25T08:46:21Z</time></trkpt><trkpt lat="45.829219236584045" lon="4.85324873176546"><ele>175.0</ele><time>2026-04-25T08:46:22Z</time></trkpt><trkpt lat="45.82928057923991" lon="4.853149376060487"><ele>174.5</ele><time>2026-04-25T08:46:23Z</time></trkpt><trkpt lat="45.82934413512214" lon="4.853064783304218"><ele>174.0</ele><time>2026-04-25T08:46:24Z</time></trkpt><trkpt lat="45.82940531076597" lon="4.8529889586812"><ele>173.5</ele><time>2026-04-25T08:46:25Z</time></trkpt><trkpt lat="45.829463609756836" lon="4.852909868234068"><ele>173.0</ele><time>2026-04-25T08:46:26Z</time></trkpt><trkpt lat="45.82952668042377" lon="4.852832215105219"><ele>172.5</ele><time>2026-04-25T08:46:27Z</time></trkpt><trkpt lat="45.829596835752525" lon="4.852743899802461"><ele>172.0</ele><time>2026-04-25T08:46:28Z</time></trkpt><trkpt lat="45.829667200905476" lon="4.8526460135221425"><ele>171.6</ele><time>2026-04-25T08:46:29Z</time></trkpt><trkpt lat="45.82975086417614" lon="4.852544405197859"><ele>171.2</ele><time>2026-04-25T08:46:30Z</time></trkpt><trkpt lat="45.82983432328588" lon="4.852438604738012"><ele>170.8</ele><time>2026-04-25T08:46:31Z</time></trkpt><trkpt lat="45.829919904835" lon="4.852331228867954"><ele>170.4</ele><time>2026-04-25T08:46:32Z</time></trkpt><trkpt lat="45.83000664161454" lon="4.852228607814605"><ele>170.0</ele><time>2026-04-25T08:46:33Z</time></trkpt><trkpt lat="45.830087072018436" lon="4.852126868731574"><ele>170.2</ele><time>2026-04-25T08:46:34Z</time></trkpt><trkpt lat="45.83017589406331" lon="4.852043829654352"><ele>170.4</ele><time>2026-04-25T08:46:35Z</time></trkpt><trkpt lat="45.83024037318192" lon="4.851962612131239"><ele>170.60000000000002</ele><time>2026-04-25T08:46:36Z</time></trkpt><trkpt lat="45.830305057528584" lon="4.851875288070517"><ele>170.8</ele><time>2026-04-25T08:46:37Z</time></trkpt><trkpt lat="45.83037400052325" lon="4.8517906671579825"><ele>171.0</ele><time>2026-04-25T08:46:38Z</time></trkpt><trkpt lat="45.8304474925322" lon="4.8516997470968155"><ele>170.60000000000002</ele><time>2026-04-25T08:46:39Z</time></trkpt><trkpt lat="45.830524256292925" lon="4.851611382940138"><ele>170.2</ele><time>2026-04-25T08:46:40Z</time></trkpt><trkpt lat="45.8305998859696" lon="4.851525144190517"><ele>169.8</ele><time>2026-04-25T08:46:41Z</time></trkpt><trkpt lat="45.830670768450005" lon="4.851438556825298"><ele>169.39999999999998</ele><time>2026-04-25T08:46:42Z</time></trkpt><trkpt lat="45.830736309792684" lon="4.851359883777169"><ele>169.0</ele><time>2026-04-25T08:46:43Z</time></trkpt><trkpt lat="45.83079740679782" lon="4.851287112255093"><ele>169.0</ele><time>2026-04-25T08:46:44Z</time></trkpt><trkpt lat="45.830856853625185" lon="4.851223839812534"><ele>169.0</ele><time>2026-04-25T08:46:45Z</time></trkpt><trkpt lat="45.83091199375449" lon="4.851161845329249"><ele>169.0</ele><time>2026-04-25T08:46:46Z</time></trkpt><trkpt lat="45.83100198403835" lon="4.851056818562511"><ele>169.0</ele><time>2026-04-25T08:46:48Z</time></trkpt><trkpt lat="45.831073419301866" lon="4.850964472674804"><ele>169.0</ele><time>2026-04-25T08:46:50Z</time></trkpt><trkpt lat="45.8311295115112" lon="4.85088874380539"><ele>169.0</ele><time>2026-04-25T08:46:52Z</time></trkpt><trkpt lat="45.83118459707511" lon="4.850836824725787"><ele>169.16666666666669</ele><time>2026-04-25T08:46:54Z</time></trkpt><trkpt lat="45.83125534154018" lon="4.850759771797683"><ele>169.33333333333334</ele><time>2026-04-25T08:47:32Z</time></trkpt><trkpt lat="45.831319675352816" lon="4.850685699451744"><ele>169.5</ele><time>2026-04-25T08:47:34Z</time></trkpt><trkpt lat="45.83137841635236" lon="4.850615824231737"><ele>169.66666666666666</ele><time>2026-04-25T08:47:36Z</time></trkpt><trkpt lat="45.83147844088096" lon="4.850513407339807"><ele>169.83333333333331</ele><time>2026-04-25T08:47:38Z</time></trkpt><trkpt lat="45.83154255085003" lon="4.850450906967295"><ele>170.0</ele><time>2026-04-25T08:47:39Z</time></trkpt><trkpt lat="45.831599878853375" lon="4.850374504402644"><ele>170.0</ele><time>2026-04-25T08:47:40Z</time></trkpt><trkpt lat="45.831655471483394" lon="4.850285539698364"><ele>170.0</ele><time>2026-04-25T08:47:41Z</time></trkpt><trkpt lat="45.83171989900486" lon="4.85017101199086"><ele>170.0</ele><time>2026-04-25T08:47:42Z</time></trkpt><trkpt lat="45.83178507197758" lon="4.850041609888712"><ele>170.0</ele><time>2026-04-25T08:47:43Z</time></trkpt><trkpt lat="45.831860245532084" lon="4.849902012148572"><ele>170.0</ele><time>2026-04-25T08:47:44Z</time></trkpt><trkpt lat="45.83193872150763" lon="4.84975213322222"><ele>170.4</ele><time>2026-04-25T08:47:45Z</time></trkpt><trkpt lat="45.832013206955054" lon="4.849611677092927"><ele>170.8</ele><time>2026-04-25T08:47:46Z</time></trkpt><trkpt lat="45.8320791806794" lon="4.849494535050608"><ele>171.2</ele><time>2026-04-25T08:47:47Z</time></trkpt><trkpt lat="45.83213867262194" lon="4.849385434224696"><ele>171.6</ele><time>2026-04-25T08:47:48Z</time></trkpt><trkpt lat="45.832197776716875" lon="4.849272525332398"><ele>172.0</ele><time>2026-04-25T08:47:49Z</time></trkpt><trkpt lat="45.83225275177865" lon="4.849158764465785"><ele>172.0</ele><time>2026-04-25T08:47:50Z</time></trkpt><trkpt lat="45.83230488062885" lon="4.849050971517202"><ele>172.0</ele><time>2026-04-25T08:47:51Z</time></trkpt><trkpt lat="45.8323478049262" lon="4.848950419821171"><ele>172.0</ele><time>2026-04-25T08:47:52Z</time></trkpt><trkpt lat="45.83239038765104" lon="4.848844297295509"><ele>172.0</ele><time>2026-04-25T08:47:53Z</time></trkpt><trkpt lat="45.83243620084398" lon="4.848731060482659"><ele>172.0</ele><time>2026-04-25T08:47:54Z</time></trkpt><trkpt lat="45.83248403658644" lon="4.8486216145228935"><ele>172.0</ele><time>2026-04-25T08:47:55Z</time></trkpt><trkpt lat="45.832523174962255" lon="4.848521236682883"><ele>171.66666666666669</ele><time>2026-04-25T08:47:56Z</time></trkpt><trkpt lat="45.832562093306485" lon="4.848419612621212"><ele>171.33333333333334</ele><time>2026-04-25T08:47:57Z</time></trkpt><trkpt lat="45.832604329328824" lon="4.848310234261251"><ele>171.0</ele><time>2026-04-25T08:47:58Z</time></trkpt><trkpt lat="45.83264294215405" lon="4.848195017609835"><ele>170.66666666666666</ele><time>2026-04-25T08:47:59Z</time></trkpt><trkpt lat="45.83267464461819" lon="4.8480686245205655"><ele>170.33333333333331</ele><time>2026-04-25T08:48:00Z</time></trkpt><trkpt lat="45.83270478775184" lon="4.847958473238664"><ele>170.0</ele><time>2026-04-25T08:48:01Z</time></trkpt><trkpt lat="45.83273146982373" lon="4.84785799992647"><ele>170.0</ele><time>2026-04-25T08:48:02Z</time></trkpt><trkpt lat="45.8327549555129" lon="4.847764255375001"><ele>170.0</ele><time>2026-04-25T08:48:03Z</time></trkpt><trkpt lat="45.83279419798328" lon="4.8476128861336125"><ele>170.0</ele><time>2026-04-25T08:48:05Z</time></trkpt><trkpt lat="45.83283249972393" lon="4.84746830711022"><ele>170.0</ele><time>2026-04-25T08:48:07Z</time></trkpt><trkpt lat="45.83287325525459" lon="4.847318090730589"><ele>170.0</ele><time>2026-04-25T08:48:09Z</time></trkpt><trkpt lat="45.83290685451633" lon="4.84716840581867"><ele>170.16666666666666</ele><time>2026-04-25T08:48:11Z</time></trkpt><trkpt lat="45.83293831848361" lon="4.847023995661194"><ele>170.33333333333331</ele><time>2026-04-25T08:48:13Z</time></trkpt><trkpt lat="45.83296227497434" lon="4.846921210527442"><ele>170.5</ele><time>2026-04-25T08:48:15Z</time></trkpt><trkpt lat="45.832980077986704" lon="4.84683197517887"><ele>170.66666666666666</ele><time>2026-04-25T08:48:27Z</time></trkpt><trkpt lat="45.83301057399959" lon="4.846729766845154"><ele>170.83333333333334</ele><time>2026-04-25T08:48:30Z</time></trkpt><trkpt lat="45.83305097089627" lon="4.846562243559796"><ele>171.0</ele><time>2026-04-25T08:48:32Z</time></trkpt><trkpt lat="45.83309705174685" lon="4.846401935044242"><ele>170.57142857142856</ele><time>2026-04-25T08:48:34Z</time></trkpt><trkpt lat="45.833121583038995" lon="4.846316714329014"><ele>170.14285714285714</ele><time>2026-04-25T08:48:35Z</time></trkpt><trkpt lat="45.83314570244703" lon="4.846225250941226"><ele>169.71428571428572</ele><time>2026-04-25T08:48:36Z</time></trkpt><trkpt lat="45.83316846292708" lon="4.846128079277653"><ele>169.28571428571428</ele><time>2026-04-25T08:48:37Z</time></trkpt><trkpt lat="45.8331929992809" lon="4.846033114442075"><ele>168.85714285714286</ele><time>2026-04-25T08:48:38Z</time></trkpt><trkpt lat="45.833220630015965" lon="4.845939824413585"><ele>168.42857142857142</ele><time>2026-04-25T08:48:39Z</time></trkpt><trkpt lat="45.83325129198031" lon="4.845843162744506"><ele>168.0</ele><time>2026-04-25T08:48:40Z</time></trkpt><trkpt lat="45.833282547858836" lon="4.845731882770155"><ele>168.0</ele><time>2026-04-25T08:48:41Z</time></trkpt><trkpt lat="45.833318236874625" lon="4.845609020520909"><ele>168.0</ele><time>2026-04-25T08:48:42Z</time></trkpt><trkpt lat="45.833355397724" lon="4.845471297413541"><ele>168.0</ele><time>2026-04-25T08:48:43Z</time></trkpt><trkpt lat="45.83339121708668" lon="4.8453425196180415"><ele>168.0</ele><time>2026-04-25T08:48:44Z</time></trkpt><trkpt lat="45.83342335525009" lon="4.8452299799148015"><ele>168.0</ele><time>2026-04-25T08:48:45Z</time></trkpt><trkpt lat="45.83345636383409" lon="4.845117039228317"><ele>169.16666666666666</ele><time>2026-04-25T08:48:46Z</time></trkpt><trkpt lat="45.833489691717986" lon="4.8450017393800024"><ele>170.33333333333334</ele><time>2026-04-25T08:48:47Z</time></trkpt><trkpt lat="45.8335215476883" lon="4.844891860547601"><ele>171.5</ele><time>2026-04-25T08:48:48Z</time></trkpt><trkpt lat="45.83355129403858" lon="4.844788095643007"><ele>172.66666666666669</ele><time>2026-04-25T08:48:49Z</time></trkpt><trkpt lat="45.83358056520955" lon="4.844689564334849"><ele>173.83333333333334</ele><time>2026-04-25T08:48:50Z</time></trkpt><trkpt lat="45.83360933656826" lon="4.844585315457066"><ele>175.0</ele><time>2026-04-25T08:48:51Z</time></trkpt><trkpt lat="45.833637104446744" lon="4.8444695528178086"><ele>175.0</ele><time>2026-04-25T08:48:52Z</time></trkpt><trkpt lat="45.83366981150997" lon="4.844354410072892"><ele>175.0</ele><time>2026-04-25T08:48:53Z</time></trkpt><trkpt lat="45.83370713628157" lon="4.844233056247735"><ele>175.0</ele><time>2026-04-25T08:48:54Z</time></trkpt><trkpt lat="45.833747911256076" lon="4.844106031767224"><ele>175.0</ele><time>2026-04-25T08:48:55Z</time></trkpt><trkpt lat="45.833793634712215" lon="4.843966741351499"><ele>175.0</ele><time>2026-04-25T08:48:56Z</time></trkpt><trkpt lat="45.833838859435176" lon="4.843817575561313"><ele>174.6</ele><time>2026-04-25T08:48:57Z</time></trkpt><trkpt lat="45.83388424297868" lon="4.843670993812832"><ele>174.2</ele><time>2026-04-25T08:48:58Z</time></trkpt><trkpt lat="45.83392167851875" lon="4.843533836697116"><ele>173.8</ele><time>2026-04-25T08:48:59Z</time></trkpt><trkpt lat="45.83395996603289" lon="4.843401000022309"><ele>173.4</ele><time>2026-04-25T08:49:00Z</time></trkpt><trkpt lat="45.834000974930795" lon="4.8432674385598675"><ele>173.0</ele><time>2026-04-25T08:49:01Z</time></trkpt><trkpt lat="45.83404353256502" lon="4.843127776927394"><ele>172.4</ele><time>2026-04-25T08:49:02Z</time></trkpt><trkpt lat="45.834086488671666" lon="4.842988244361664"><ele>171.8</ele><time>2026-04-25T08:49:03Z</time></trkpt><trkpt lat="45.83413166543459" lon="4.842849208360468"><ele>171.2</ele><time>2026-04-25T08:49:04Z</time></trkpt><trkpt lat="45.834172042236105" lon="4.842711443797489"><ele>170.6</ele><time>2026-04-25T08:49:05Z</time></trkpt><trkpt lat="45.83420972202934" lon="4.842578978214583"><ele>170.0</ele><time>2026-04-25T08:49:06Z</time></trkpt><trkpt lat="45.834250553457856" lon="4.8424410699777365"><ele>170.0</ele><time>2026-04-25T08:49:07Z</time></trkpt><trkpt lat="45.83429562359166" lon="4.8423028256180745"><ele>170.0</ele><time>2026-04-25T08:49:08Z</time></trkpt><trkpt lat="45.83433516341565" lon="4.842172568926405"><ele>170.0</ele><time>2026-04-25T08:49:09Z</time></trkpt><trkpt lat="45.83437549299976" lon="4.842044787756239"><ele>170.0</ele><time>2026-04-25T08:49:10Z</time></trkpt><trkpt lat="45.83441848540107" lon="4.841903544553208"><ele>170.0</ele><time>2026-04-25T08:49:11Z</time></trkpt><trkpt lat="45.834465678889266" lon="4.8417486563036976"><ele>170.0</ele><time>2026-04-25T08:49:12Z</time></trkpt><trkpt lat="45.83451685873311" lon="4.841584098203217"><ele>170.0</ele><time>2026-04-25T08:49:13Z</time></trkpt><trkpt lat="45.834563589487495" lon="4.841425966374995"><ele>170.0</ele><time>2026-04-25T08:49:14Z</time></trkpt><trkpt lat="45.83461316974906" lon="4.841262757431478"><ele>170.0</ele><time>2026-04-25T08:49:15Z</time></trkpt><trkpt lat="45.83466670996799" lon="4.841098179530155"><ele>169.75</ele><time>2026-04-25T08:49:16Z</time></trkpt><trkpt lat="45.83472436128" lon="4.840928419243061"><ele>169.5</ele><time>2026-04-25T08:49:17Z</time></trkpt><trkpt lat="45.83479122723114" lon="4.840759746364194"><ele>169.25</ele><time>2026-04-25T08:49:18Z</time></trkpt><trkpt lat="45.834862354811364" lon="4.840584045141328"><ele>169.0</ele><time>2026-04-25T08:49:19Z</time></trkpt><trkpt lat="45.83492934345368" lon="4.8404010844835295"><ele>169.0</ele><time>2026-04-25T08:49:20Z</time></trkpt><trkpt lat="45.834988581963074" lon="4.84023779687021"><ele>169.0</ele><time>2026-04-25T08:49:21Z</time></trkpt><trkpt lat="45.83504623527543" lon="4.8400888310397665"><ele>169.0</ele><time>2026-04-25T08:49:22Z</time></trkpt><trkpt lat="45.8351005871822" lon="4.839958092803841"><ele>169.0</ele><time>2026-04-25T08:49:23Z</time></trkpt><trkpt lat="45.83515405661484" lon="4.839838655326459"><ele>169.0</ele><time>2026-04-25T08:49:24Z</time></trkpt><trkpt lat="45.83520169116747" lon="4.839732945813293"><ele>169.0</ele><time>2026-04-25T08:49:25Z</time></trkpt><trkpt lat="45.835250016765784" lon="4.839636152484136"><ele>169.0</ele><time>2026-04-25T08:49:26Z</time></trkpt><trkpt lat="45.835295168061066" lon="4.839540891754989"><ele>169.0</ele><time>2026-04-25T08:49:27Z</time></trkpt><trkpt lat="45.83533619928851" lon="4.839460598309485"><ele>169.0</ele><time>2026-04-25T08:49:28Z</time></trkpt><trkpt lat="45.83537040267149" lon="4.839377997502398"><ele>169.0</ele><time>2026-04-25T08:49:29Z</time></trkpt><trkpt lat="45.83540369605084" lon="4.839300547502857"><ele>169.0</ele><time>2026-04-25T08:49:30Z</time></trkpt><trkpt lat="45.83546734029728" lon="4.839174093773409"><ele>169.0</ele><time>2026-04-25T08:49:32Z</time></trkpt><trkpt lat="45.835519599192224" lon="4.839081367169618"><ele>169.0</ele><time>2026-04-25T08:49:35Z</time></trkpt><trkpt lat="45.83555696545264" lon="4.839008028014099"><ele>169.0</ele><time>2026-04-25T08:49:37Z</time></trkpt><trkpt lat="45.83561185856046" lon="4.838904380418884"><ele>169.0</ele><time>2026-04-25T08:49:39Z</time></trkpt><trkpt lat="45.835675432757824" lon="4.838783925927744"><ele>169.0</ele><time>2026-04-25T08:49:41Z</time></trkpt><trkpt lat="45.83574325614422" lon="4.838679769654686"><ele>169.0</ele><time>2026-04-25T08:49:43Z</time></trkpt><trkpt lat="45.83582113580536" lon="4.838602930539259"><ele>169.0</ele><time>2026-04-25T08:49:45Z</time></trkpt><trkpt lat="45.83590011087076" lon="4.838548710938715"><ele>169.0</ele><time>2026-04-25T08:49:47Z</time></trkpt><trkpt lat="45.83597392011063" lon="4.838551618596455"><ele>169.0</ele><time>2026-04-25T08:49:49Z</time></trkpt><trkpt lat="45.83604421327003" lon="4.838565178662725"><ele>169.0</ele><time>2026-04-25T08:49:51Z</time></trkpt><trkpt lat="45.836120018640855" lon="4.838494566719925"><ele>169.79999999999998</ele><time>2026-04-25T08:49:53Z</time></trkpt><trkpt lat="45.83615039567755" lon="4.8383592481938225"><ele>170.6</ele><time>2026-04-25T08:49:55Z</time></trkpt><trkpt lat="45.836142836650495" lon="4.838184481662324"><ele>171.4</ele><time>2026-04-25T08:49:57Z</time></trkpt><trkpt lat="45.83617006468244" lon="4.838079892600253"><ele>172.2</ele><time>2026-04-25T08:49:58Z</time></trkpt><trkpt lat="45.83620597895635" lon="4.837973687190599"><ele>173.0</ele><time>2026-04-25T08:49:59Z</time></trkpt><trkpt lat="45.836258687311435" lon="4.837863809246067"><ele>173.0</ele><time>2026-04-25T08:50:00Z</time></trkpt><trkpt lat="45.836326756804155" lon="4.83774670865876"><ele>173.0</ele><time>2026-04-25T08:50:01Z</time></trkpt><trkpt lat="45.83639232975428" lon="4.837640385114535"><ele>173.0</ele><time>2026-04-25T08:50:02Z</time></trkpt><trkpt lat="45.8364434665029" lon="4.837495611668932"><ele>173.0</ele><time>2026-04-25T08:50:03Z</time></trkpt><trkpt lat="45.836560140759914" lon="4.83736417892862"><ele>173.0</ele><time>2026-04-25T08:50:04Z</time></trkpt><trkpt lat="45.83665055558963" lon="4.83723029017693"><ele>173.0</ele><time>2026-04-25T08:50:05Z</time></trkpt><trkpt lat="45.8367412877504" lon="4.837102502492904"><ele>173.0</ele><time>2026-04-25T08:50:06Z</time></trkpt><trkpt lat="45.836831579396566" lon="4.836967872148661"><ele>173.0</ele><time>2026-04-25T08:50:07Z</time></trkpt><trkpt lat="45.836922126926275" lon="4.83683126428882"><ele>172.0</ele><time>2026-04-25T08:50:08Z</time></trkpt><trkpt lat="45.83701466209917" lon="4.836690275115266"><ele>171.0</ele><time>2026-04-25T08:50:09Z</time></trkpt><trkpt lat="45.83710906534301" lon="4.836548055572557"><ele>170.0</ele><time>2026-04-25T08:50:10Z</time></trkpt><trkpt lat="45.83719789002198" lon="4.8364142244052974"><ele>169.0</ele><time>2026-04-25T08:50:11Z</time></trkpt><trkpt lat="45.83728016969292" lon="4.8362872456175054"><ele>169.0</ele><time>2026-04-25T08:50:12Z</time></trkpt><trkpt lat="45.83737262600458" lon="4.836146064412613"><ele>169.0</ele><time>2026-04-25T08:50:13Z</time></trkpt><trkpt lat="45.83747046783137" lon="4.8359944376888775"><ele>169.0</ele><time>2026-04-25T08:50:14Z</time></trkpt><trkpt lat="45.83757038249427" lon="4.835847200128634"><ele>169.0</ele><time>2026-04-25T08:50:15Z</time></trkpt><trkpt lat="45.83766272711654" lon="4.835719849171181"><ele>168.75</ele><time>2026-04-25T08:50:16Z</time></trkpt><trkpt lat="45.837755529104655" lon="4.835596029919494"><ele>168.5</ele><time>2026-04-25T08:50:17Z</time></trkpt><trkpt lat="45.837850423357025" lon="4.835478102078784"><ele>168.25</ele><time>2026-04-25T08:50:18Z</time></trkpt><trkpt lat="45.83794446444301" lon="4.835370994047209"><ele>168.0</ele><time>2026-04-25T08:50:19Z</time></trkpt><trkpt lat="45.83803331993094" lon="4.8352701550375325"><ele>168.0</ele><time>2026-04-25T08:50:20Z</time></trkpt><trkpt lat="45.83813311805078" lon="4.835160470374125"><ele>168.0</ele><time>2026-04-25T08:50:21Z</time></trkpt><trkpt lat="45.83823525998693" lon="4.835054654518945"><ele>168.0</ele><time>2026-04-25T08:50:22Z</time></trkpt><trkpt lat="45.83834014838425" lon="4.834952284660771"><ele>168.0</ele><time>2026-04-25T08:50:23Z</time></trkpt><trkpt lat="45.83844251399816" lon="4.834868622741429"><ele>168.60000000000002</ele><time>2026-04-25T08:50:24Z</time></trkpt><trkpt lat="45.83853573940434" lon="4.834789294628663"><ele>169.20000000000002</ele><time>2026-04-25T08:50:25Z</time></trkpt><trkpt lat="45.83862430781445" lon="4.834716462867284"><ele>169.8</ele><time>2026-04-25T08:50:26Z</time></trkpt><trkpt lat="45.8387114226542" lon="4.834649378974762"><ele>170.4</ele><time>2026-04-25T08:50:27Z</time></trkpt><trkpt lat="45.838807967145435" lon="4.8345774781165405"><ele>171.0</ele><time>2026-04-25T08:50:28Z</time></trkpt><trkpt lat="45.838914313518536" lon="4.834503908909271"><ele>171.0</ele><time>2026-04-25T08:50:29Z</time></trkpt><trkpt lat="45.83903062976371" lon="4.834432604944645"><ele>171.0</ele><time>2026-04-25T08:50:30Z</time></trkpt><trkpt lat="45.83913481088129" lon="4.834370852472514"><ele>171.0</ele><time>2026-04-25T08:50:31Z</time></trkpt><trkpt lat="45.83923178709707" lon="4.834316763543643"><ele>171.0</ele><time>2026-04-25T08:50:32Z</time></trkpt><trkpt lat="45.83932603707675" lon="4.834261970067982"><ele>171.0</ele><time>2026-04-25T08:50:33Z</time></trkpt><trkpt lat="45.839419738067086" lon="4.834215847984484"><ele>171.0</ele><time>2026-04-25T08:50:34Z</time></trkpt><trkpt lat="45.83952195970778" lon="4.8341694475361585"><ele>171.0</ele><time>2026-04-25T08:50:35Z</time></trkpt><trkpt lat="45.839627004464326" lon="4.83412254783363"><ele>171.0</ele><time>2026-04-25T08:50:36Z</time></trkpt><trkpt lat="45.83972546383465" lon="4.834083882533363"><ele>171.0</ele><time>2026-04-25T08:50:37Z</time></trkpt><trkpt lat="45.83982742951549" lon="4.834045923278212"><ele>171.0</ele><time>2026-04-25T08:50:38Z</time></trkpt><trkpt lat="45.83993092904181" lon="4.834012162223438"><ele>171.0</ele><time>2026-04-25T08:50:39Z</time></trkpt><trkpt lat="45.84004119701349" lon="4.833985550035279"><ele>171.0</ele><time>2026-04-25T08:50:40Z</time></trkpt><trkpt lat="45.84015135544189" lon="4.833955507198788"><ele>171.0</ele><time>2026-04-25T08:50:41Z</time></trkpt><trkpt lat="45.84026242367052" lon="4.833924502095889"><ele>171.0</ele><time>2026-04-25T08:50:42Z</time></trkpt><trkpt lat="45.840384404513244" lon="4.833901823799368"><ele>171.0</ele><time>2026-04-25T08:50:43Z</time></trkpt><trkpt lat="45.84050227209647" lon="4.833883980038007"><ele>171.0</ele><time>2026-04-25T08:50:44Z</time></trkpt><trkpt lat="45.840608247996855" lon="4.83386806570416"><ele>171.0</ele><time>2026-04-25T08:50:45Z</time></trkpt><trkpt lat="45.84071765203836" lon="4.833858838188017"><ele>171.0</ele><time>2026-04-25T08:50:46Z</time></trkpt><trkpt lat="45.84083593435801" lon="4.833848693086869"><ele>171.0</ele><time>2026-04-25T08:50:47Z</time></trkpt><trkpt lat="45.84096135538918" lon="4.833847558355909"><ele>171.0</ele><time>2026-04-25T08:50:48Z</time></trkpt><trkpt lat="45.84109119116682" lon="4.833852240481949"><ele>171.0</ele><time>2026-04-25T08:50:49Z</time></trkpt><trkpt lat="45.841216005055124" lon="4.833855583632974"><ele>171.0</ele><time>2026-04-25T08:50:50Z</time></trkpt><trkpt lat="45.84132914340721" lon="4.833863792985566"><ele>170.75</ele><time>2026-04-25T08:50:51Z</time></trkpt><trkpt lat="45.841439651771424" lon="4.833880824910594"><ele>170.5</ele><time>2026-04-25T08:50:52Z</time></trkpt><trkpt lat="45.84155242371442" lon="4.833899346777525"><ele>170.25</ele><time>2026-04-25T08:50:53Z</time></trkpt><trkpt lat="45.84167118687806" lon="4.833920640566775"><ele>170.0</ele><time>2026-04-25T08:50:54Z</time></trkpt><trkpt lat="45.84179412963454" lon="4.833946358513404"><ele>170.25</ele><time>2026-04-25T08:50:55Z</time></trkpt><trkpt lat="45.84193421129527" lon="4.833984054402046"><ele>170.5</ele><time>2026-04-25T08:50:56Z</time></trkpt><trkpt lat="45.84206335910987" lon="4.834018527804859"><ele>170.75</ele><time>2026-04-25T08:50:57Z</time></trkpt><trkpt lat="45.84218120166057" lon="4.834055125539921"><ele>171.0</ele><time>2026-04-25T08:50:58Z</time></trkpt><trkpt lat="45.84228976407029" lon="4.834093332850344"><ele>171.0</ele><time>2026-04-25T08:50:59Z</time></trkpt><trkpt lat="45.84238937330117" lon="4.834132236474505"><ele>171.0</ele><time>2026-04-25T08:51:00Z</time></trkpt><trkpt lat="45.84248395941561" lon="4.834174902540374"><ele>171.0</ele><time>2026-04-25T08:51:01Z</time></trkpt><trkpt lat="45.84257580513899" lon="4.834215263969604"><ele>171.0</ele><time>2026-04-25T08:51:02Z</time></trkpt><trkpt lat="45.842662915092646" lon="4.834259126108639"><ele>171.0</ele><time>2026-04-25T08:51:03Z</time></trkpt><trkpt lat="45.842744008167394" lon="4.834296222816122"><ele>171.4</ele><time>2026-04-25T08:51:04Z</time></trkpt><trkpt lat="45.842825215967686" lon="4.8343300285151845"><ele>171.8</ele><time>2026-04-25T08:51:05Z</time></trkpt><trkpt lat="45.84290901893482" lon="4.834363664637644"><ele>172.20000000000002</ele><time>2026-04-25T08:51:06Z</time></trkpt><trkpt lat="45.843003597178175" lon="4.834405771258283"><ele>172.60000000000002</ele><time>2026-04-25T08:51:07Z</time></trkpt><trkpt lat="45.84310306511516" lon="4.834451940704336"><ele>173.0</ele><time>2026-04-25T08:51:08Z</time></trkpt><trkpt lat="45.84320874530256" lon="4.83449902272923"><ele>173.0</ele><time>2026-04-25T08:51:09Z</time></trkpt><trkpt lat="45.843317333419684" lon="4.83454425692854"><ele>173.0</ele><time>2026-04-25T08:51:10Z</time></trkpt><trkpt lat="45.84342709646244" lon="4.834593436643813"><ele>173.0</ele><time>2026-04-25T08:51:11Z</time></trkpt><trkpt lat="45.84353461287683" lon="4.834644701396519"><ele>173.0</ele><time>2026-04-25T08:51:12Z</time></trkpt><trkpt lat="45.843639828214634" lon="4.834687151271338"><ele>172.8</ele><time>2026-04-25T08:51:13Z</time></trkpt><trkpt lat="45.843739678035796" lon="4.834713528791017"><ele>172.60000000000002</ele><time>2026-04-25T08:51:14Z</time></trkpt><trkpt lat="45.84383924776548" lon="4.834745126698062"><ele>172.39999999999998</ele><time>2026-04-25T08:51:15Z</time></trkpt><trkpt lat="45.84394009475693" lon="4.834785395010272"><ele>172.2</ele><time>2026-04-25T08:51:16Z</time></trkpt><trkpt lat="45.84404571595177" lon="4.83482699554732"><ele>172.0</ele><time>2026-04-25T08:51:17Z</time></trkpt><trkpt lat="45.84415331516422" lon="4.834872569147917"><ele>172.0</ele><time>2026-04-25T08:51:18Z</time></trkpt><trkpt lat="45.844266886261764" lon="4.83492145297655"><ele>172.0</ele><time>2026-04-25T08:51:19Z</time></trkpt><trkpt lat="45.84437833005507" lon="4.834966898163366"><ele>172.0</ele><time>2026-04-25T08:51:20Z</time></trkpt><trkpt lat="45.84448709206915" lon="4.835008874791024"><ele>172.0</ele><time>2026-04-25T08:51:21Z</time></trkpt><trkpt lat="45.844595565746594" lon="4.835056286478321"><ele>172.0</ele><time>2026-04-25T08:51:22Z</time></trkpt><trkpt lat="45.84470281408297" lon="4.835108924687127"><ele>172.0</ele><time>2026-04-25T08:51:23Z</time></trkpt><trkpt lat="45.844810250308115" lon="4.8351639712191"><ele>172.0</ele><time>2026-04-25T08:51:24Z</time></trkpt><trkpt lat="45.84492224308005" lon="4.835216614626728"><ele>172.0</ele><time>2026-04-25T08:51:25Z</time></trkpt><trkpt lat="45.84503825819695" lon="4.835272560404602"><ele>172.25</ele><time>2026-04-25T08:51:26Z</time></trkpt><trkpt lat="45.845164100295435" lon="4.835327756310615"><ele>172.5</ele><time>2026-04-25T08:51:27Z</time></trkpt><trkpt lat="45.845296796727666" lon="4.835384689982227"><ele>172.75</ele><time>2026-04-25T08:51:28Z</time></trkpt><trkpt lat="45.84543431824245" lon="4.835443169789721"><ele>173.0</ele><time>2026-04-25T08:51:29Z</time></trkpt><trkpt lat="45.8455736385513" lon="4.8354959410311285"><ele>173.0</ele><time>2026-04-25T08:51:30Z</time></trkpt><trkpt lat="45.84569771675524" lon="4.835542839900217"><ele>173.0</ele><time>2026-04-25T08:51:31Z</time></trkpt><trkpt lat="45.84581962261964" lon="4.8355853994631275"><ele>173.0</ele><time>2026-04-25T08:51:32Z</time></trkpt><trkpt lat="45.84594467515119" lon="4.8356334668330065"><ele>173.0</ele><time>2026-04-25T08:51:33Z</time></trkpt><trkpt lat="45.84607340158525" lon="4.835687061055569"><ele>172.0</ele><time>2026-04-25T08:51:34Z</time></trkpt><trkpt lat="45.84620904853197" lon="4.835742014700566"><ele>171.0</ele><time>2026-04-25T08:51:35Z</time></trkpt><trkpt lat="45.84634950084289" lon="4.835804189136089"><ele>170.0</ele><time>2026-04-25T08:51:36Z</time></trkpt><trkpt lat="45.846486360411156" lon="4.835872135237208"><ele>169.0</ele><time>2026-04-25T08:51:37Z</time></trkpt><trkpt lat="45.846618876500735" lon="4.835939168294133"><ele>169.75</ele><time>2026-04-25T08:51:38Z</time></trkpt><trkpt lat="45.84673625002404" lon="4.835996640609702"><ele>170.5</ele><time>2026-04-25T08:51:39Z</time></trkpt><trkpt lat="45.84685252051643" lon="4.8360547428843"><ele>171.25</ele><time>2026-04-25T08:51:40Z</time></trkpt><trkpt lat="45.84697240546022" lon="4.836116550817014"><ele>172.0</ele><time>2026-04-25T08:51:41Z</time></trkpt><trkpt lat="45.847097488991004" lon="4.836177785934472"><ele>172.0</ele><time>2026-04-25T08:51:42Z</time></trkpt><trkpt lat="45.847221143609325" lon="4.836241383282499"><ele>172.0</ele><time>2026-04-25T08:51:43Z</time></trkpt><trkpt lat="45.847335344854706" lon="4.836299443980834"><ele>172.0</ele><time>2026-04-25T08:51:44Z</time></trkpt><trkpt lat="45.847445620955476" lon="4.836359752454935"><ele>172.0</ele><time>2026-04-25T08:51:45Z</time></trkpt><trkpt lat="45.84756050441179" lon="4.836417743900785"><ele>171.5</ele><time>2026-04-25T08:51:46Z</time></trkpt><trkpt lat="45.847678545309655" lon="4.836477382658182"><ele>171.0</ele><time>2026-04-25T08:51:47Z</time></trkpt><trkpt lat="45.8477964856329" lon="4.836542495498772"><ele>170.5</ele><time>2026-04-25T08:51:48Z</time></trkpt><trkpt lat="45.84791905949533" lon="4.836603103112038"><ele>170.0</ele><time>2026-04-25T08:51:49Z</time></trkpt><trkpt lat="45.84804480229025" lon="4.836670009529452"><ele>170.0</ele><time>2026-04-25T08:51:50Z</time></trkpt><trkpt lat="45.848171734510615" lon="4.836741292958345"><ele>170.0</ele><time>2026-04-25T08:51:51Z</time></trkpt><trkpt lat="45.848292557027186" lon="4.836809402428249"><ele>170.0</ele><time>2026-04-25T08:51:52Z</time></trkpt><trkpt lat="45.848402524157244" lon="4.836869736055907"><ele>170.0</ele><time>2026-04-25T08:51:53Z</time></trkpt><trkpt lat="45.848501610606725" lon="4.836923835277881"><ele>170.16666666666666</ele><time>2026-04-25T08:51:54Z</time></trkpt><trkpt lat="45.848589951580934" lon="4.836974410830396"><ele>170.33333333333331</ele><time>2026-04-25T08:51:55Z</time></trkpt><trkpt lat="45.84867457275053" lon="4.837019087136494"><ele>170.5</ele><time>2026-04-25T08:51:56Z</time></trkpt><trkpt lat="45.8487550947845" lon="4.8370623790791605"><ele>170.66666666666666</ele><time>2026-04-25T08:51:57Z</time></trkpt><trkpt lat="45.84883104761269" lon="4.837103915090905"><ele>170.83333333333334</ele><time>2026-04-25T08:51:58Z</time></trkpt><trkpt lat="45.8489070203219" lon="4.837145170449877"><ele>171.0</ele><time>2026-04-25T08:51:59Z</time></trkpt><trkpt lat="45.84897441350998" lon="4.837179517498476"><ele>171.0</ele><time>2026-04-25T08:52:00Z</time></trkpt><trkpt lat="45.84904067472378" lon="4.837211611422963"><ele>171.0</ele><time>2026-04-25T08:52:01Z</time></trkpt><trkpt lat="45.84910435401229" lon="4.837242582926501"><ele>171.0</ele><time>2026-04-25T08:52:02Z</time></trkpt><trkpt lat="45.84920991878264" lon="4.837289504864281"><ele>171.0</ele><time>2026-04-25T08:52:04Z</time></trkpt><trkpt lat="45.84931015936817" lon="4.837342296439966"><ele>171.0</ele><time>2026-04-25T08:52:06Z</time></trkpt><trkpt lat="45.84941997131355" lon="4.837402857052254"><ele>170.99999999999997</ele><time>2026-04-25T08:52:08Z</time></trkpt><trkpt lat="45.849482401474035" lon="4.837435110283062"><ele>171.0</ele><time>2026-04-25T08:52:09Z</time></trkpt><trkpt lat="45.84954838468351" lon="4.8374754635751795"><ele>171.0</ele><time>2026-04-25T08:52:10Z</time></trkpt><trkpt lat="45.849613812788164" lon="4.837531079321039"><ele>171.0</ele><time>2026-04-25T08:52:11Z</time></trkpt><trkpt lat="45.84968045808306" lon="4.837573213725887"><ele>171.0</ele><time>2026-04-25T08:52:12Z</time></trkpt><trkpt lat="45.849752599276954" lon="4.837594697220229"><ele>170.99999999999997</ele><time>2026-04-25T08:52:13Z</time></trkpt><trkpt lat="45.849836894010586" lon="4.8376126856748725"><ele>171.0</ele><time>2026-04-25T08:52:14Z</time></trkpt><trkpt lat="45.849928068852265" lon="4.8376470469444905"><ele>171.0</ele><time>2026-04-25T08:52:15Z</time></trkpt><trkpt lat="45.85002946034489" lon="4.837693051174539"><ele>171.0</ele><time>2026-04-25T08:52:16Z</time></trkpt><trkpt lat="45.85013991318733" lon="4.837737890500788"><ele>171.0</ele><time>2026-04-25T08:52:17Z</time></trkpt><trkpt lat="45.85026304440673" lon="4.837779315945808"><ele>171.0</ele><time>2026-04-25T08:52:18Z</time></trkpt><trkpt lat="45.85039292518221" lon="4.837822357543151"><ele>170.5</ele><time>2026-04-25T08:52:19Z</time></trkpt><trkpt lat="45.850513591615844" lon="4.837859499370276"><ele>170.0</ele><time>2026-04-25T08:52:20Z</time></trkpt><trkpt lat="45.85063613633821" lon="4.837895750164824"><ele>169.5</ele><time>2026-04-25T08:52:21Z</time></trkpt><trkpt lat="45.85076326669761" lon="4.837930932968452"><ele>169.0</ele><time>2026-04-25T08:52:22Z</time></trkpt><trkpt lat="45.85089244877073" lon="4.837960379873303"><ele>168.75</ele><time>2026-04-25T08:52:23Z</time></trkpt><trkpt lat="45.851018971616654" lon="4.837997627398429"><ele>168.5</ele><time>2026-04-25T08:52:24Z</time></trkpt><trkpt lat="45.85113128061904" lon="4.8380378414294105"><ele>168.25</ele><time>2026-04-25T08:52:25Z</time></trkpt><trkpt lat="45.85124417175749" lon="4.838076709837747"><ele>168.0</ele><time>2026-04-25T08:52:26Z</time></trkpt><trkpt lat="45.85136059792713" lon="4.838115268395967"><ele>168.0</ele><time>2026-04-25T08:52:27Z</time></trkpt><trkpt lat="45.85147975837584" lon="4.838149013729619"><ele>168.0</ele><time>2026-04-25T08:52:28Z</time></trkpt><trkpt lat="45.85160332440817" lon="4.838183833534949"><ele>168.0</ele><time>2026-04-25T08:52:29Z</time></trkpt><trkpt lat="45.85173267309678" lon="4.838221861818267"><ele>168.0</ele><time>2026-04-25T08:52:30Z</time></trkpt><trkpt lat="45.85185580067455" lon="4.838261645430817"><ele>168.5</ele><time>2026-04-25T08:52:31Z</time></trkpt><trkpt lat="45.85197014898261" lon="4.838291563576473"><ele>169.0</ele><time>2026-04-25T08:52:32Z</time></trkpt><trkpt lat="45.852086027919604" lon="4.8383160839840675"><ele>169.5</ele><time>2026-04-25T08:52:33Z</time></trkpt><trkpt lat="45.85220890261662" lon="4.838345677530918"><ele>170.0</ele><time>2026-04-25T08:52:34Z</time></trkpt><trkpt lat="45.852335710225425" lon="4.838380280221459"><ele>170.0</ele><time>2026-04-25T08:52:35Z</time></trkpt><trkpt lat="45.852465612401346" lon="4.838415613576221"><ele>170.0</ele><time>2026-04-25T08:52:36Z</time></trkpt><trkpt lat="45.85259174799141" lon="4.838451677758531"><ele>170.0</ele><time>2026-04-25T08:52:37Z</time></trkpt><trkpt lat="45.8527193672799" lon="4.838488454189621"><ele>170.0</ele><time>2026-04-25T08:52:38Z</time></trkpt><trkpt lat="45.85285235360273" lon="4.83853189121756"><ele>172.25</ele><time>2026-04-25T08:52:39Z</time></trkpt><trkpt lat="45.852978960840495" lon="4.838582199840368"><ele>174.5</ele><time>2026-04-25T08:52:40Z</time></trkpt><trkpt lat="45.85310691729902" lon="4.83863887353743"><ele>176.75</ele><time>2026-04-25T08:52:41Z</time></trkpt><trkpt lat="45.85322318724982" lon="4.838690153609155"><ele>179.0</ele><time>2026-04-25T08:52:42Z</time></trkpt><trkpt lat="45.85333647233426" lon="4.8387434576666495"><ele>179.0</ele><time>2026-04-25T08:52:43Z</time></trkpt><trkpt lat="45.85345389474072" lon="4.838798443588337"><ele>179.0</ele><time>2026-04-25T08:52:44Z</time></trkpt><trkpt lat="45.853571851415275" lon="4.838854775834971"><ele>179.0</ele><time>2026-04-25T08:52:45Z</time></trkpt><trkpt lat="45.853690070739034" lon="4.838910222431472"><ele>179.0</ele><time>2026-04-25T08:52:46Z</time></trkpt><trkpt lat="45.85379603967642" lon="4.838962993345983"><ele>178.0</ele><time>2026-04-25T08:52:47Z</time></trkpt><trkpt lat="45.85389289276968" lon="4.83901532335494"><ele>177.0</ele><time>2026-04-25T08:52:48Z</time></trkpt><trkpt lat="45.853980258979696" lon="4.839059066704182"><ele>176.0</ele><time>2026-04-25T08:52:49Z</time></trkpt><trkpt lat="45.854057826196176" lon="4.839095974163715"><ele>175.0</ele><time>2026-04-25T08:52:50Z</time></trkpt><trkpt lat="45.85411943304276" lon="4.839127274870478"><ele>174.0</ele><time>2026-04-25T08:52:51Z</time></trkpt><trkpt lat="45.854224448015614" lon="4.839181338648504"><ele>174.5</ele><time>2026-04-25T08:52:53Z</time></trkpt><trkpt lat="45.85431373758064" lon="4.839228459058217"><ele>175.0</ele><time>2026-04-25T08:52:55Z</time></trkpt><trkpt lat="45.85441144598252" lon="4.8392764055829725"><ele>175.5</ele><time>2026-04-25T08:52:57Z</time></trkpt><trkpt lat="45.85447829434405" lon="4.839312811059226"><ele>176.0</ele><time>2026-04-25T08:52:58Z</time></trkpt><trkpt lat="45.85455431623037" lon="4.839355027047127"><ele>176.5</ele><time>2026-04-25T08:52:59Z</time></trkpt><trkpt lat="45.854642564670684" lon="4.83939894608346"><ele>177.0</ele><time>2026-04-25T08:53:00Z</time></trkpt><trkpt lat="45.854731712798696" lon="4.839442432048756"><ele>177.0</ele><time>2026-04-25T08:53:01Z</time></trkpt><trkpt lat="45.85482133979609" lon="4.839483195250524"><ele>177.0</ele><time>2026-04-25T08:53:02Z</time></trkpt><trkpt lat="45.85492378155035" lon="4.839531650330584"><ele>177.0</ele><time>2026-04-25T08:53:03Z</time></trkpt><trkpt lat="45.8550207137837" lon="4.839579876368215"><ele>177.0</ele><time>2026-04-25T08:53:04Z</time></trkpt><trkpt lat="45.85510445854942" lon="4.839623397752839"><ele>177.0</ele><time>2026-04-25T08:53:05Z</time></trkpt><trkpt lat="45.855185321535565" lon="4.839660688263135"><ele>175.6</ele><time>2026-04-25T08:53:06Z</time></trkpt><trkpt lat="45.8552699613708" lon="4.839700645039691"><ele>174.2</ele><time>2026-04-25T08:53:07Z</time></trkpt><trkpt lat="45.85535840971947" lon="4.839743277227195"><ele>172.8</ele><time>2026-04-25T08:53:08Z</time></trkpt><trkpt lat="45.85545245952801" lon="4.839785373517096"><ele>171.4</ele><time>2026-04-25T08:53:09Z</time></trkpt><trkpt lat="45.85555214500888" lon="4.839828242843968"><ele>170.0</ele><time>2026-04-25T08:53:10Z</time></trkpt><trkpt lat="45.8556495905253" lon="4.839883332244526"><ele>170.0</ele><time>2026-04-25T08:53:11Z</time></trkpt><trkpt lat="45.855749362151776" lon="4.8399425362709065"><ele>170.0</ele><time>2026-04-25T08:53:12Z</time></trkpt><trkpt lat="45.85585089017337" lon="4.839995962123771"><ele>170.0</ele><time>2026-04-25T08:53:13Z</time></trkpt><trkpt lat="45.85594679629829" lon="4.840043090376205"><ele>170.0</ele><time>2026-04-25T08:53:14Z</time></trkpt><trkpt lat="45.8560483160003" lon="4.8400927815741355"><ele>170.0</ele><time>2026-04-25T08:53:15Z</time></trkpt><trkpt lat="45.85615471426652" lon="4.840147580870342"><ele>171.5</ele><time>2026-04-25T08:53:16Z</time></trkpt><trkpt lat="45.85626371988643" lon="4.840205729989847"><ele>173.0</ele><time>2026-04-25T08:53:17Z</time></trkpt><trkpt lat="45.85637535392075" lon="4.840265589819285"><ele>174.5</ele><time>2026-04-25T08:53:18Z</time></trkpt><trkpt lat="45.8564932968784" lon="4.840319176004059"><ele>176.0</ele><time>2026-04-25T08:53:19Z</time></trkpt><trkpt lat="45.856617716285704" lon="4.840371939357998"><ele>176.0</ele><time>2026-04-25T08:53:20Z</time></trkpt><trkpt lat="45.85674184818609" lon="4.840432471637071"><ele>176.0</ele><time>2026-04-25T08:53:21Z</time></trkpt><trkpt lat="45.85684780669781" lon="4.8404813688499715"><ele>176.0</ele><time>2026-04-25T08:53:22Z</time></trkpt><trkpt lat="45.856942705511045" lon="4.840528790564258"><ele>176.0</ele><time>2026-04-25T08:53:23Z</time></trkpt><trkpt lat="45.85703129223356" lon="4.8405695066542656"><ele>176.0</ele><time>2026-04-25T08:53:24Z</time></trkpt><trkpt lat="45.85712559050442" lon="4.84061281787531"><ele>175.0</ele><time>2026-04-25T08:53:25Z</time></trkpt><trkpt lat="45.857225654252915" lon="4.840668315711333"><ele>174.0</ele><time>2026-04-25T08:53:26Z</time></trkpt><trkpt lat="45.857329279736284" lon="4.840724752436379"><ele>173.0</ele><time>2026-04-25T08:53:27Z</time></trkpt><trkpt lat="45.857433194676155" lon="4.840790367066777"><ele>172.0</ele><time>2026-04-25T08:53:28Z</time></trkpt><trkpt lat="45.85752291720803" lon="4.840850120492831"><ele>171.0</ele><time>2026-04-25T08:53:29Z</time></trkpt><trkpt lat="45.85760562541972" lon="4.840892700399136"><ele>170.66666666666666</ele><time>2026-04-25T08:53:30Z</time></trkpt><trkpt lat="45.857688109575186" lon="4.840930951796022"><ele>170.33333333333334</ele><time>2026-04-25T08:53:31Z</time></trkpt><trkpt lat="45.857764717622395" lon="4.84096236585688"><ele>170.0</ele><time>2026-04-25T08:53:32Z</time></trkpt><trkpt lat="45.85783162626075" lon="4.841010095456521"><ele>169.66666666666669</ele><time>2026-04-25T08:53:33Z</time></trkpt><trkpt lat="45.85788929846167" lon="4.8410762180900955"><ele>169.33333333333334</ele><time>2026-04-25T08:53:34Z</time></trkpt><trkpt lat="45.85793401519617" lon="4.841161421066864"><ele>169.0</ele><time>2026-04-25T08:53:35Z</time></trkpt><trkpt lat="45.857966025177504" lon="4.84125414963301"><ele>169.0</ele><time>2026-04-25T08:53:36Z</time></trkpt><trkpt lat="45.85803984655386" lon="4.841387141845952"><ele>169.0</ele><time>2026-04-25T08:53:38Z</time></trkpt><trkpt lat="45.858106845188296" lon="4.841494525123407"><ele>169.0</ele><time>2026-04-25T08:53:40Z</time></trkpt><trkpt lat="45.858209414521404" lon="4.841407872067034"><ele>169.0</ele><time>2026-04-25T08:53:41Z</time></trkpt><trkpt lat="45.85826639975093" lon="4.8413516801379135"><ele>169.0</ele><time>2026-04-25T08:53:42Z</time></trkpt><trkpt lat="45.8583357892892" lon="4.841302988582199"><ele>169.0</ele><time>2026-04-25T08:53:43Z</time></trkpt><trkpt lat="45.85841558223916" lon="4.841290703604162"><ele>169.0</ele><time>2026-04-25T08:53:44Z</time></trkpt><trkpt lat="45.858509382525945" lon="4.841313066948745"><ele>169.0</ele><time>2026-04-25T08:53:45Z</time></trkpt><trkpt lat="45.858614407174564" lon="4.841337518740626"><ele>169.0</ele><time>2026-04-25T08:53:46Z</time></trkpt><trkpt lat="45.858734291808865" lon="4.841358831807321"><ele>169.0</ele><time>2026-04-25T08:53:47Z</time></trkpt><trkpt lat="45.85886892908594" lon="4.841383774861256"><ele>169.0</ele><time>2026-04-25T08:53:48Z</time></trkpt><trkpt lat="45.859017890253504" lon="4.841404050551412"><ele>169.0</ele><time>2026-04-25T08:53:49Z</time></trkpt><trkpt lat="45.859173959219085" lon="4.841418888220843"><ele>169.0</ele><time>2026-04-25T08:53:50Z</time></trkpt><trkpt lat="45.85932588703156" lon="4.841426137389646"><ele>169.0</ele><time>2026-04-25T08:53:51Z</time></trkpt><trkpt lat="45.859480871824985" lon="4.841421703210338"><ele>169.0</ele><time>2026-04-25T08:53:52Z</time></trkpt><trkpt lat="45.85964689219713" lon="4.841398220417852"><ele>169.0</ele><time>2026-04-25T08:53:53Z</time></trkpt><trkpt lat="45.85981388698922" lon="4.841360215269339"><ele>169.0</ele><time>2026-04-25T08:53:54Z</time></trkpt><trkpt lat="45.85995755009305" lon="4.841316663426558"><ele>169.0</ele><time>2026-04-25T08:53:55Z</time></trkpt><trkpt lat="45.86008929096147" lon="4.84128366828507"><ele>169.0</ele><time>2026-04-25T08:53:56Z</time></trkpt><trkpt lat="45.86021609128156" lon="4.841252241250805"><ele>169.0</ele><time>2026-04-25T08:53:57Z</time></trkpt><trkpt lat="45.86034328433558" lon="4.841218456782858"><ele>169.75</ele><time>2026-04-25T08:53:58Z</time></trkpt><trkpt lat="45.86047394682942" lon="4.8411872655736445"><ele>170.5</ele><time>2026-04-25T08:53:59Z</time></trkpt><trkpt lat="45.86060683522186" lon="4.841152411155122"><ele>171.25</ele><time>2026-04-25T08:54:00Z</time></trkpt><trkpt lat="45.86074396616933" lon="4.841118115815031"><ele>172.0</ele><time>2026-04-25T08:54:01Z</time></trkpt><trkpt lat="45.86088707610633" lon="4.841084128508174"><ele>172.0</ele><time>2026-04-25T08:54:02Z</time></trkpt><trkpt lat="45.86103644757492" lon="4.841052094935143"><ele>172.0</ele><time>2026-04-25T08:54:03Z</time></trkpt><trkpt lat="45.86117317641099" lon="4.841018491765907"><ele>172.0</ele><time>2026-04-25T08:54:04Z</time></trkpt><trkpt lat="45.861298213134994" lon="4.840986451054905"><ele>172.0</ele><time>2026-04-25T08:54:05Z</time></trkpt><trkpt lat="45.861426039393145" lon="4.840948144556989"><ele>171.75</ele><time>2026-04-25T08:54:06Z</time></trkpt><trkpt lat="45.86156018566262" lon="4.840913791986649"><ele>171.5</ele><time>2026-04-25T08:54:07Z</time></trkpt><trkpt lat="45.86170051569845" lon="4.840886698721286"><ele>171.25</ele><time>2026-04-25T08:54:08Z</time></trkpt><trkpt lat="45.861843341655366" lon="4.84085523085035"><ele>171.0</ele><time>2026-04-25T08:54:09Z</time></trkpt><trkpt lat="45.861983054279605" lon="4.840817877340785"><ele>171.0</ele><time>2026-04-25T08:54:10Z</time></trkpt><trkpt lat="45.86210448862401" lon="4.840778449896057"><ele>171.0</ele><time>2026-04-25T08:54:11Z</time></trkpt><trkpt lat="45.86221631365093" lon="4.840755328712495"><ele>171.0</ele><time>2026-04-25T08:54:12Z</time></trkpt><trkpt lat="45.8623315887633" lon="4.8407320912278475"><ele>171.0</ele><time>2026-04-25T08:54:13Z</time></trkpt><trkpt lat="45.862455453392215" lon="4.840701852493886"><ele>171.0</ele><time>2026-04-25T08:54:14Z</time></trkpt><trkpt lat="45.86257595589674" lon="4.8406721079330275"><ele>171.0</ele><time>2026-04-25T08:54:15Z</time></trkpt><trkpt lat="45.86268758746305" lon="4.8406429963111375"><ele>171.0</ele><time>2026-04-25T08:54:16Z</time></trkpt><trkpt lat="45.862797537372806" lon="4.840617191817752"><ele>171.0</ele><time>2026-04-25T08:54:17Z</time></trkpt><trkpt lat="45.86291082137316" lon="4.840588840557313"><ele>171.25</ele><time>2026-04-25T08:54:18Z</time></trkpt><trkpt lat="45.86303084660121" lon="4.840555616619041"><ele>171.5</ele><time>2026-04-25T08:54:19Z</time></trkpt><trkpt lat="45.863162123358464" lon="4.8405251184459726"><ele>171.75</ele><time>2026-04-25T08:54:20Z</time></trkpt><trkpt lat="45.86330598141196" lon="4.840493032525761"><ele>172.0</ele><time>2026-04-25T08:54:21Z</time></trkpt><trkpt lat="45.86344578979463" lon="4.840458174388881"><ele>172.0</ele><time>2026-04-25T08:54:22Z</time></trkpt><trkpt lat="45.8635798625398" lon="4.840421362501995"><ele>172.0</ele><time>2026-04-25T08:54:23Z</time></trkpt><trkpt lat="45.863712119581415" lon="4.840388237012941"><ele>172.0</ele><time>2026-04-25T08:54:24Z</time></trkpt><trkpt lat="45.863844632943476" lon="4.840355715327962"><ele>172.0</ele><time>2026-04-25T08:54:25Z</time></trkpt><trkpt lat="45.863977087420956" lon="4.840318168352554"><ele>172.0</ele><time>2026-04-25T08:54:26Z</time></trkpt><trkpt lat="45.864110058074395" lon="4.8402778478148685"><ele>172.0</ele><time>2026-04-25T08:54:27Z</time></trkpt><trkpt lat="45.864247363105314" lon="4.840236221587379"><ele>172.0</ele><time>2026-04-25T08:54:28Z</time></trkpt><trkpt lat="45.86438880240836" lon="4.840189510990868"><ele>172.0</ele><time>2026-04-25T08:54:29Z</time></trkpt><trkpt lat="45.864535634134874" lon="4.840135237340452"><ele>172.25</ele><time>2026-04-25T08:54:30Z</time></trkpt><trkpt lat="45.86468622134479" lon="4.840079264914149"><ele>172.5</ele><time>2026-04-25T08:54:31Z</time></trkpt><trkpt lat="45.864831253921864" lon="4.84002673028156"><ele>172.75</ele><time>2026-04-25T08:54:32Z</time></trkpt><trkpt lat="45.864964574702356" lon="4.839978604345544"><ele>173.0</ele><time>2026-04-25T08:54:33Z</time></trkpt><trkpt lat="45.865101496744394" lon="4.839932253554917"><ele>173.25</ele><time>2026-04-25T08:54:34Z</time></trkpt><trkpt lat="45.8652415362692" lon="4.839887745367636"><ele>173.5</ele><time>2026-04-25T08:54:35Z</time></trkpt><trkpt lat="45.86537437966395" lon="4.839850710293498"><ele>173.75</ele><time>2026-04-25T08:54:36Z</time></trkpt><trkpt lat="45.86550546253539" lon="4.839813429619904"><ele>174.0</ele><time>2026-04-25T08:54:37Z</time></trkpt><trkpt lat="45.86563780961144" lon="4.8397784111613795"><ele>174.0</ele><time>2026-04-25T08:54:38Z</time></trkpt><trkpt lat="45.865766069555036" lon="4.839748198778036"><ele>174.0</ele><time>2026-04-25T08:54:39Z</time></trkpt><trkpt lat="45.865888133103866" lon="4.839724005964836"><ele>174.0</ele><time>2026-04-25T08:54:40Z</time></trkpt><trkpt lat="45.86601670802805" lon="4.839700980189929"><ele>174.0</ele><time>2026-04-25T08:54:41Z</time></trkpt><trkpt lat="45.86614887491726" lon="4.839682652540164"><ele>174.5</ele><time>2026-04-25T08:54:42Z</time></trkpt><trkpt lat="45.866286712596235" lon="4.839664577413924"><ele>175.0</ele><time>2026-04-25T08:54:43Z</time></trkpt><trkpt lat="45.866428426153064" lon="4.839648897055783"><ele>175.5</ele><time>2026-04-25T08:54:44Z</time></trkpt><trkpt lat="45.86657795006841" lon="4.839635276756819"><ele>176.0</ele><time>2026-04-25T08:54:45Z</time></trkpt><trkpt lat="45.866715025134866" lon="4.839625793681415"><ele>175.75</ele><time>2026-04-25T08:54:46Z</time></trkpt><trkpt lat="45.866842312911494" lon="4.839615756660682"><ele>175.5</ele><time>2026-04-25T08:54:47Z</time></trkpt><trkpt lat="45.8669587798523" lon="4.839612405289272"><ele>175.25</ele><time>2026-04-25T08:54:48Z</time></trkpt><trkpt lat="45.867065475432504" lon="4.839615435384569"><ele>175.0</ele><time>2026-04-25T08:54:49Z</time></trkpt><trkpt lat="45.86716455432741" lon="4.839619543746691"><ele>175.0</ele><time>2026-04-25T08:54:50Z</time></trkpt><trkpt lat="45.86725987993793" lon="4.839619765710519"><ele>175.0</ele><time>2026-04-25T08:54:51Z</time></trkpt><trkpt lat="45.86735156406034" lon="4.839620079382548"><ele>175.0</ele><time>2026-04-25T08:54:52Z</time></trkpt><trkpt lat="45.86743856726073" lon="4.83962198477778"><ele>175.0</ele><time>2026-04-25T08:54:53Z</time></trkpt><trkpt lat="45.867518327434176" lon="4.839632460694836"><ele>175.0</ele><time>2026-04-25T08:54:54Z</time></trkpt><trkpt lat="45.8675875292708" lon="4.839636243805091"><ele>175.0</ele><time>2026-04-25T08:54:55Z</time></trkpt><trkpt lat="45.86770376344822" lon="4.83963667098541"><ele>174.4</ele><time>2026-04-25T08:54:57Z</time></trkpt><trkpt lat="45.86780800793242" lon="4.839639575454776"><ele>173.8</ele><time>2026-04-25T08:54:59Z</time></trkpt><trkpt lat="45.867898923782974" lon="4.839644187696259"><ele>173.2</ele><time>2026-04-25T08:55:01Z</time></trkpt><trkpt lat="45.8679712556609" lon="4.839652116732661"><ele>172.6</ele><time>2026-04-25T08:55:03Z</time></trkpt><trkpt lat="45.868061615209854" lon="4.839663988220213"><ele>172.0</ele><time>2026-04-25T08:55:05Z</time></trkpt><trkpt lat="45.86816791922754" lon="4.839732530195719"><ele>172.0</ele><time>2026-04-25T08:55:07Z</time></trkpt><trkpt lat="45.86828251517574" lon="4.8397922202597385"><ele>172.0</ele><time>2026-04-25T08:55:09Z</time></trkpt><trkpt lat="45.86835582148624" lon="4.8398066092562955"><ele>172.0</ele><time>2026-04-25T08:55:10Z</time></trkpt><trkpt lat="45.86843986973146" lon="4.839757674151476"><ele>172.0</ele><time>2026-04-25T08:55:11Z</time></trkpt><trkpt lat="45.86853342132989" lon="4.839745234956631"><ele>172.0</ele><time>2026-04-25T08:55:12Z</time></trkpt><trkpt lat="45.86862047232088" lon="4.8397460986934275"><ele>172.0</ele><time>2026-04-25T08:55:13Z</time></trkpt><trkpt lat="45.8687204062253" lon="4.839749818667144"><ele>172.0</ele><time>2026-04-25T08:55:14Z</time></trkpt><trkpt lat="45.868829674890584" lon="4.839760262462421"><ele>172.0</ele><time>2026-04-25T08:55:15Z</time></trkpt><trkpt lat="45.8689329359222" lon="4.8397721206276865"><ele>172.0</ele><time>2026-04-25T08:55:16Z</time></trkpt><trkpt lat="45.8690216032264" lon="4.839783309812939"><ele>172.0</ele><time>2026-04-25T08:55:17Z</time></trkpt><trkpt lat="45.86909870685585" lon="4.839792551843115"><ele>172.00000000000003</ele><time>2026-04-25T08:55:18Z</time></trkpt><trkpt lat="45.86916637893069" lon="4.8397994701689395"><ele>172.0</ele><time>2026-04-25T08:55:19Z</time></trkpt><trkpt lat="45.869230372413824" lon="4.8398031637207755"><ele>172.0</ele><time>2026-04-25T08:55:20Z</time></trkpt><trkpt lat="45.86929783284215" lon="4.839807517312647"><ele>172.0</ele><time>2026-04-25T08:55:21Z</time></trkpt><trkpt lat="45.86937148539339" lon="4.839815788180893"><ele>172.0</ele><time>2026-04-25T08:55:22Z</time></trkpt><trkpt lat="45.86944803454506" lon="4.83982560141351"><ele>172.00000000000003</ele><time>2026-04-25T08:55:23Z</time></trkpt><trkpt lat="45.86952837683006" lon="4.839832557672104"><ele>172.0</ele><time>2026-04-25T08:55:24Z</time></trkpt><trkpt lat="45.869610666727176" lon="4.839838079415972"><ele>172.0</ele><time>2026-04-25T08:55:25Z</time></trkpt><trkpt lat="45.86969506418099" lon="4.839842473051989"><ele>172.0</ele><time>2026-04-25T08:55:26Z</time></trkpt><trkpt lat="45.869781957065115" lon="4.839839465383191"><ele>172.0</ele><time>2026-04-25T08:55:27Z</time></trkpt><trkpt lat="45.86987085377626" lon="4.839837055470047"><ele>172.0</ele><time>2026-04-25T08:55:28Z</time></trkpt><trkpt lat="45.86996145020352" lon="4.839835186498575"><ele>172.0</ele><time>2026-04-25T08:55:29Z</time></trkpt><trkpt lat="45.870052942916004" lon="4.839832890541233"><ele>172.0</ele><time>2026-04-25T08:55:30Z</time></trkpt><trkpt lat="45.87014395229245" lon="4.8398284368574975"><ele>172.2</ele><time>2026-04-25T08:55:31Z</time></trkpt><trkpt lat="45.8702258187217" lon="4.839824096768694"><ele>172.39999999999998</ele><time>2026-04-25T08:55:32Z</time></trkpt><trkpt lat="45.870297823429" lon="4.839820988182049"><ele>172.60000000000002</ele><time>2026-04-25T08:55:33Z</time></trkpt><trkpt lat="45.87041928708713" lon="4.839812574583061"><ele>172.8</ele><time>2026-04-25T08:55:35Z</time></trkpt><trkpt lat="45.87053300621804" lon="4.83980504307227"><ele>173.0</ele><time>2026-04-25T08:55:37Z</time></trkpt><trkpt lat="45.870639016969584" lon="4.839802739559459"><ele>173.0</ele><time>2026-04-25T08:55:39Z</time></trkpt><trkpt lat="45.870737531005574" lon="4.839798997925681"><ele>173.0</ele><time>2026-04-25T08:55:41Z</time></trkpt><trkpt lat="45.87084076784686" lon="4.839790109632405"><ele>173.0</ele><time>2026-04-25T08:55:43Z</time></trkpt><trkpt lat="45.87097234386176" lon="4.839784973450758"><ele>173.0</ele><time>2026-04-25T08:55:45Z</time></trkpt><trkpt lat="45.87105121424478" lon="4.839780570277992"><ele>173.0</ele><time>2026-04-25T08:55:46Z</time></trkpt><trkpt lat="45.87113452868124" lon="4.839778642219584"><ele>173.0</ele><time>2026-04-25T08:55:47Z</time></trkpt><trkpt lat="45.87121435466498" lon="4.839776589399113"><ele>173.0</ele><time>2026-04-25T08:55:48Z</time></trkpt><trkpt lat="45.871285290405105" lon="4.839770341270696"><ele>173.0</ele><time>2026-04-25T08:55:49Z</time></trkpt><trkpt lat="45.87135098428816" lon="4.8397574531078815"><ele>173.0</ele><time>2026-04-25T08:55:50Z</time></trkpt><trkpt lat="45.87141654618088" lon="4.83974262784508"><ele>173.0</ele><time>2026-04-25T08:55:51Z</time></trkpt><trkpt lat="45.87148369671217" lon="4.839726806627235"><ele>173.0</ele><time>2026-04-25T08:55:52Z</time></trkpt><trkpt lat="45.871606668473675" lon="4.83973231459772"><ele>173.0</ele><time>2026-04-25T08:55:54Z</time></trkpt><trkpt lat="45.87166592725523" lon="4.839774866972446"><ele>173.0</ele><time>2026-04-25T08:55:55Z</time></trkpt><trkpt lat="45.87171939586821" lon="4.839839271833949"><ele>173.0</ele><time>2026-04-25T08:55:56Z</time></trkpt><trkpt lat="45.871770321608636" lon="4.839894641300819"><ele>173.0</ele><time>2026-04-25T08:55:57Z</time></trkpt><trkpt lat="45.871870884762835" lon="4.839961970206105"><ele>173.0</ele><time>2026-04-25T08:55:59Z</time></trkpt><trkpt lat="45.87197540064915" lon="4.8400165689392125"><ele>173.0</ele><time>2026-04-25T08:56:01Z</time></trkpt><trkpt lat="45.872084137501666" lon="4.840070087057072"><ele>173.2</ele><time>2026-04-25T08:56:03Z</time></trkpt><trkpt lat="45.8721748846975" lon="4.840134021404538"><ele>173.4</ele><time>2026-04-25T08:56:05Z</time></trkpt><trkpt lat="45.87225145225178" lon="4.840159788522633"><ele>173.6</ele><time>2026-04-25T08:56:07Z</time></trkpt><trkpt lat="45.87234271490806" lon="4.840164452536057"><ele>173.79999999999998</ele><time>2026-04-25T08:56:09Z</time></trkpt><trkpt lat="45.87244515003214" lon="4.840148372101562"><ele>174.0</ele><time>2026-04-25T08:56:11Z</time></trkpt><trkpt lat="45.87253140477926" lon="4.840125626308353"><ele>173.83333333333334</ele><time>2026-04-25T08:56:13Z</time></trkpt><trkpt lat="45.87260700898962" lon="4.8401100599046485"><ele>173.66666666666666</ele><time>2026-04-25T08:56:15Z</time></trkpt><trkpt lat="45.872680639336004" lon="4.840098382436607"><ele>173.5</ele><time>2026-04-25T08:56:17Z</time></trkpt><trkpt lat="45.87275723425296" lon="4.8400901867408805"><ele>173.33333333333331</ele><time>2026-04-25T08:56:19Z</time></trkpt><trkpt lat="45.87282340022077" lon="4.840109990248566"><ele>173.16666666666666</ele><time>2026-04-25T08:56:22Z</time></trkpt><trkpt lat="45.87290157548553" lon="4.840202839779492"><ele>173.0</ele><time>2026-04-25T08:56:25Z</time></trkpt><trkpt lat="45.872955910762464" lon="4.840265857185092"><ele>173.0</ele><time>2026-04-25T08:56:27Z</time></trkpt><trkpt lat="45.87302921218975" lon="4.840169558475458"><ele>173.0</ele><time>2026-04-25T08:56:28Z</time></trkpt><trkpt lat="45.87311388282208" lon="4.84008076626955"><ele>173.0</ele><time>2026-04-25T08:56:30Z</time></trkpt><trkpt lat="45.87322408360869" lon="4.840001550897253"><ele>173.0</ele><time>2026-04-25T08:56:32Z</time></trkpt><trkpt lat="45.8733374332381" lon="4.83993416025151"><ele>173.0</ele><time>2026-04-25T08:56:34Z</time></trkpt><trkpt lat="45.873410050601166" lon="4.839915628686764"><ele>173.0</ele><time>2026-04-25T08:56:35Z</time></trkpt><trkpt lat="45.873491494687826" lon="4.839903618362546"><ele>173.0</ele><time>2026-04-25T08:56:36Z</time></trkpt><trkpt lat="45.87358943369402" lon="4.839903462519152"><ele>173.0</ele><time>2026-04-25T08:56:37Z</time></trkpt><trkpt lat="45.87368988122338" lon="4.8398794979547075"><ele>173.0</ele><time>2026-04-25T08:56:38Z</time></trkpt><trkpt lat="45.87376986619489" lon="4.839866937077789"><ele>173.0</ele><time>2026-04-25T08:56:39Z</time></trkpt><trkpt lat="45.87384123325531" lon="4.8398586952817135"><ele>173.16666666666666</ele><time>2026-04-25T08:56:40Z</time></trkpt><trkpt lat="45.87391033900156" lon="4.839845550178654"><ele>173.33333333333331</ele><time>2026-04-25T08:56:41Z</time></trkpt><trkpt lat="45.87397561783409" lon="4.839857119559567"><ele>173.5</ele><time>2026-04-25T08:56:42Z</time></trkpt><trkpt lat="45.87404582328255" lon="4.8398488357571114"><ele>173.66666666666666</ele><time>2026-04-25T08:56:43Z</time></trkpt><trkpt lat="45.87411505739352" lon="4.839840428605835"><ele>173.83333333333334</ele><time>2026-04-25T08:56:44Z</time></trkpt><trkpt lat="45.87417747207765" lon="4.839827005692934"><ele>174.0</ele><time>2026-04-25T08:56:45Z</time></trkpt><trkpt lat="45.874295957649615" lon="4.839814869781909"><ele>174.0</ele><time>2026-04-25T08:56:47Z</time></trkpt><trkpt lat="45.87441145054037" lon="4.839802890380664"><ele>174.0</ele><time>2026-04-25T08:56:49Z</time></trkpt><trkpt lat="45.8745167797699" lon="4.839791309005991"><ele>174.0</ele><time>2026-04-25T08:56:51Z</time></trkpt><trkpt lat="45.87459814105925" lon="4.839782574486368"><ele>174.0</ele><time>2026-04-25T08:56:53Z</time></trkpt><trkpt lat="45.87467976789471" lon="4.8397691981263735"><ele>174.0</ele><time>2026-04-25T08:56:56Z</time></trkpt><trkpt lat="45.874759395421286" lon="4.839773077303107"><ele>174.0</ele><time>2026-04-25T08:56:59Z</time></trkpt><trkpt lat="45.87482460428763" lon="4.839801129848419"><ele>174.0</ele><time>2026-04-25T08:57:02Z</time></trkpt><trkpt lat="45.8748769028285" lon="4.839875358824294"><ele>174.0</ele><time>2026-04-25T08:57:04Z</time></trkpt><trkpt lat="45.8749654676933" lon="4.839970705081582"><ele>174.0</ele><time>2026-04-25T08:57:06Z</time></trkpt><trkpt lat="45.87502441542416" lon="4.840134616048645"><ele>174.0</ele><time>2026-04-25T08:57:08Z</time></trkpt><trkpt lat="45.875035923108726" lon="4.8402319886940095"><ele>174.0</ele><time>2026-04-25T08:57:09Z</time></trkpt><trkpt lat="45.8750474592009" lon="4.840340394725867"><ele>174.33333333333334</ele><time>2026-04-25T08:57:10Z</time></trkpt><trkpt lat="45.87505751976778" lon="4.840461709283234"><ele>174.66666666666666</ele><time>2026-04-25T08:57:11Z</time></trkpt><trkpt lat="45.8750684107786" lon="4.840589287059088"><ele>175.0</ele><time>2026-04-25T08:57:12Z</time></trkpt><trkpt lat="45.87507549461231" lon="4.840700236600562"><ele>175.33333333333331</ele><time>2026-04-25T08:57:13Z</time></trkpt><trkpt lat="45.87507741027506" lon="4.840816570551688"><ele>175.66666666666666</ele><time>2026-04-25T08:57:14Z</time></trkpt><trkpt lat="45.875083774255245" lon="4.840908701911661"><ele>176.0</ele><time>2026-04-25T08:57:15Z</time></trkpt><trkpt lat="45.87509040311082" lon="4.841014552772781"><ele>176.33333333333331</ele><time>2026-04-25T08:57:16Z</time></trkpt><trkpt lat="45.87509720651715" lon="4.841125671855804"><ele>176.66666666666666</ele><time>2026-04-25T08:57:17Z</time></trkpt><trkpt lat="45.87510107388232" lon="4.841238025065755"><ele>177.0</ele><time>2026-04-25T08:57:18Z</time></trkpt><trkpt lat="45.87510583768783" lon="4.84133229015311"><ele>177.33333333333334</ele><time>2026-04-25T08:57:19Z</time></trkpt><trkpt lat="45.875086574834334" lon="4.841471346660428"><ele>177.66666666666669</ele><time>2026-04-25T08:57:21Z</time></trkpt><trkpt lat="45.87509117121119" lon="4.8415758398724575"><ele>178.0</ele><time>2026-04-25T08:57:23Z</time></trkpt><trkpt lat="45.875147752520895" lon="4.841690849987085"><ele>178.0</ele><time>2026-04-25T08:57:26Z</time></trkpt><trkpt lat="45.87520932704229" lon="4.841723636030536"><ele>178.0</ele><time>2026-04-25T08:57:28Z</time></trkpt><trkpt lat="45.87526978057365" lon="4.841749556928297"><ele>178.0</ele><time>2026-04-25T08:57:37Z</time></trkpt><trkpt lat="45.875350084613586" lon="4.841827753327982"><ele>178.0</ele><time>2026-04-25T08:57:39Z</time></trkpt><trkpt lat="45.875406598920364" lon="4.841886131796151"><ele>178.0</ele><time>2026-04-25T08:57:40Z</time></trkpt><trkpt lat="45.87550004476977" lon="4.841982976954985"><ele>178.0</ele><time>2026-04-25T08:57:42Z</time></trkpt><trkpt lat="45.875577471328484" lon="4.842075127118429"><ele>178.0</ele><time>2026-04-25T08:57:44Z</time></trkpt><trkpt lat="45.87564413802665" lon="4.842150193865782"><ele>178.0</ele><time>2026-04-25T08:57:46Z</time></trkpt><trkpt lat="45.87571045995707" lon="4.842216845141694"><ele>178.0</ele><time>2026-04-25T08:57:48Z</time></trkpt><trkpt lat="45.87578203019677" lon="4.8423089311008285"><ele>178.0</ele><time>2026-04-25T08:57:50Z</time></trkpt><trkpt lat="45.87587865898187" lon="4.842422960132708"><ele>178.0</ele><time>2026-04-25T08:57:52Z</time></trkpt><trkpt lat="45.87593647241362" lon="4.842498106465701"><ele>178.60000000000002</ele><time>2026-04-25T08:57:53Z</time></trkpt><trkpt lat="45.87598857396786" lon="4.8425525166801755"><ele>179.20000000000002</ele><time>2026-04-25T08:57:54Z</time></trkpt><trkpt lat="45.87607582838303" lon="4.842642758180725"><ele>179.8</ele><time>2026-04-25T08:57:56Z</time></trkpt><trkpt lat="45.876161387584624" lon="4.842740395721582"><ele>180.4</ele><time>2026-04-25T08:57:58Z</time></trkpt><trkpt lat="45.87623854067356" lon="4.842836615016452"><ele>181.0</ele><time>2026-04-25T08:58:00Z</time></trkpt><trkpt lat="45.876306358893935" lon="4.842910407147904"><ele>181.33333333333334</ele><time>2026-04-25T08:58:02Z</time></trkpt><trkpt lat="45.87634724298233" lon="4.842982033956824"><ele>181.66666666666669</ele><time>2026-04-25T08:58:04Z</time></trkpt><trkpt lat="45.87638066543746" lon="4.843058980687895"><ele>182.0</ele><time>2026-04-25T08:58:06Z</time></trkpt><trkpt lat="45.87644092715609" lon="4.84310679678832"><ele>182.33333333333334</ele><time>2026-04-25T08:58:08Z</time></trkpt><trkpt lat="45.87651278262124" lon="4.843194820670111"><ele>182.66666666666666</ele><time>2026-04-25T08:58:10Z</time></trkpt><trkpt lat="45.876606628012425" lon="4.843250448793278"><ele>183.0</ele><time>2026-04-25T08:58:12Z</time></trkpt><trkpt lat="45.87666126714457" lon="4.843305618819988"><ele>183.0</ele><time>2026-04-25T08:58:13Z</time></trkpt><trkpt lat="45.87671777806558" lon="4.843363699682766"><ele>183.0</ele><time>2026-04-25T08:58:14Z</time></trkpt><trkpt lat="45.87677650703784" lon="4.8434306459657215"><ele>183.0</ele><time>2026-04-25T08:58:15Z</time></trkpt><trkpt lat="45.87683961053208" lon="4.843494088118944"><ele>183.0</ele><time>2026-04-25T08:58:16Z</time></trkpt><trkpt lat="45.876909563815836" lon="4.843562837336714"><ele>183.0</ele><time>2026-04-25T08:58:17Z</time></trkpt><trkpt lat="45.876971079657565" lon="4.843621904246898"><ele>183.0</ele><time>2026-04-25T08:58:18Z</time></trkpt><trkpt lat="45.877032059164634" lon="4.843686867698652"><ele>183.83333333333334</ele><time>2026-04-25T08:58:19Z</time></trkpt><trkpt lat="45.8770929935997" lon="4.843755143241088"><ele>184.66666666666666</ele><time>2026-04-25T08:58:20Z</time></trkpt><trkpt lat="45.87716125418917" lon="4.843823492895281"><ele>185.5</ele><time>2026-04-25T08:58:21Z</time></trkpt><trkpt lat="45.87723289528882" lon="4.8438926355530825"><ele>186.33333333333331</ele><time>2026-04-25T08:58:22Z</time></trkpt><trkpt lat="45.877303804821985" lon="4.843963860993903"><ele>187.16666666666666</ele><time>2026-04-25T08:58:23Z</time></trkpt><trkpt lat="45.87738084235376" lon="4.844037677442036"><ele>188.0</ele><time>2026-04-25T08:58:24Z</time></trkpt><trkpt lat="45.87744171002711" lon="4.844099092549093"><ele>188.0</ele><time>2026-04-25T08:58:25Z</time></trkpt><trkpt lat="45.877505539606126" lon="4.844154142983994"><ele>188.0</ele><time>2026-04-25T08:58:26Z</time></trkpt><trkpt lat="45.877566465823726" lon="4.844222799506046"><ele>188.0</ele><time>2026-04-25T08:58:27Z</time></trkpt><trkpt lat="45.87762124863042" lon="4.844276272341377"><ele>188.0</ele><time>2026-04-25T08:58:28Z</time></trkpt><trkpt lat="45.877670740369446" lon="4.844336746863102"><ele>188.0</ele><time>2026-04-25T08:58:29Z</time></trkpt><trkpt lat="45.87776293152265" lon="4.844431057501403"><ele>188.0</ele><time>2026-04-25T08:58:31Z</time></trkpt><trkpt lat="45.87782194067948" lon="4.844488981786542"><ele>188.60000000000002</ele><time>2026-04-25T08:58:33Z</time></trkpt><trkpt lat="45.87788300424246" lon="4.844559330164545"><ele>189.20000000000002</ele><time>2026-04-25T08:58:38Z</time></trkpt><trkpt lat="45.87796824543792" lon="4.844647614507758"><ele>189.8</ele><time>2026-04-25T08:58:40Z</time></trkpt><trkpt lat="45.87805847892559" lon="4.844742550667995"><ele>190.4</ele><time>2026-04-25T08:58:42Z</time></trkpt><trkpt lat="45.87811820362231" lon="4.844784999890894"><ele>191.0</ele><time>2026-04-25T08:58:43Z</time></trkpt><trkpt lat="45.87821630684746" lon="4.844900457479716"><ele>191.0</ele><time>2026-04-25T08:58:45Z</time></trkpt><trkpt lat="45.87827497877784" lon="4.844962363267629"><ele>191.0</ele><time>2026-04-25T08:58:46Z</time></trkpt><trkpt lat="45.87833640671792" lon="4.845024999790637"><ele>191.0</ele><time>2026-04-25T08:58:47Z</time></trkpt><trkpt lat="45.878393111913965" lon="4.8450806486226"><ele>191.0</ele><time>2026-04-25T08:58:48Z</time></trkpt><trkpt lat="45.87845900278623" lon="4.845144389655019"><ele>191.0</ele><time>2026-04-25T08:58:49Z</time></trkpt><trkpt lat="45.87853268257833" lon="4.84520671334301"><ele>191.0</ele><time>2026-04-25T08:58:50Z</time></trkpt><trkpt lat="45.87861103186452" lon="4.845258686907552"><ele>192.0</ele><time>2026-04-25T08:58:51Z</time></trkpt><trkpt lat="45.878694787876164" lon="4.845332326159236"><ele>193.0</ele><time>2026-04-25T08:58:52Z</time></trkpt><trkpt lat="45.878767652768204" lon="4.845385319545548"><ele>194.0</ele><time>2026-04-25T08:58:53Z</time></trkpt><trkpt lat="45.878847404095886" lon="4.8454422692882915"><ele>195.0</ele><time>2026-04-25T08:58:54Z</time></trkpt><trkpt lat="45.87892794238534" lon="4.845509465080344"><ele>196.0</ele><time>2026-04-25T08:58:55Z</time></trkpt><trkpt lat="45.87901561297474" lon="4.845567893261653"><ele>196.0</ele><time>2026-04-25T08:58:56Z</time></trkpt><trkpt lat="45.87909454386025" lon="4.845634355349879"><ele>196.0</ele><time>2026-04-25T08:58:57Z</time></trkpt><trkpt lat="45.8791780389903" lon="4.845699293250421"><ele>196.0</ele><time>2026-04-25T08:58:58Z</time></trkpt><trkpt lat="45.87926629280825" lon="4.845763786616489"><ele>196.0</ele><time>2026-04-25T08:58:59Z</time></trkpt><trkpt lat="45.87934941878992" lon="4.8458309958286065"><ele>196.0</ele><time>2026-04-25T08:59:00Z</time></trkpt><trkpt lat="45.87945197007626" lon="4.845894323454853"><ele>196.25</ele><time>2026-04-25T08:59:01Z</time></trkpt><trkpt lat="45.879569274220714" lon="4.845979197677691"><ele>196.5</ele><time>2026-04-25T08:59:02Z</time></trkpt><trkpt lat="45.87969782310233" lon="4.846089176400292"><ele>196.75</ele><time>2026-04-25T08:59:03Z</time></trkpt><trkpt lat="45.87983541725386" lon="4.846215794454844"><ele>197.0</ele><time>2026-04-25T08:59:04Z</time></trkpt><trkpt lat="45.879946281283914" lon="4.846315295263329"><ele>197.0</ele><time>2026-04-25T08:59:05Z</time></trkpt><trkpt lat="45.88003003396629" lon="4.846401419410059"><ele>197.0</ele><time>2026-04-25T08:59:06Z</time></trkpt><trkpt lat="45.880098415553924" lon="4.846480110619327"><ele>197.0</ele><time>2026-04-25T08:59:07Z</time></trkpt><trkpt lat="45.88019169405273" lon="4.8465347930614975"><ele>197.0</ele><time>2026-04-25T08:59:08Z</time></trkpt><trkpt lat="45.88031692388688" lon="4.8466176830199705"><ele>197.0</ele><time>2026-04-25T08:59:09Z</time></trkpt><trkpt lat="45.88042528873312" lon="4.84669588076284"><ele>197.00000000000003</ele><time>2026-04-25T08:59:10Z</time></trkpt><trkpt lat="45.88052960303156" lon="4.846754159127519"><ele>197.0</ele><time>2026-04-25T08:59:11Z</time></trkpt><trkpt lat="45.880612085272986" lon="4.8467883295481125"><ele>197.0</ele><time>2026-04-25T08:59:12Z</time></trkpt><trkpt lat="45.88070103662943" lon="4.846837985152675"><ele>197.0</ele><time>2026-04-25T08:59:13Z</time></trkpt><trkpt lat="45.88076953414686" lon="4.846886877652746"><ele>197.00000000000003</ele><time>2026-04-25T08:59:14Z</time></trkpt><trkpt lat="45.88082579499756" lon="4.84694421474754"><ele>197.0</ele><time>2026-04-25T08:59:15Z</time></trkpt><trkpt lat="45.8808465209956" lon="4.8470341812788105"><ele>197.0</ele><time>2026-04-25T08:59:16Z</time></trkpt><trkpt lat="45.880886069570195" lon="4.847222774842491"><ele>197.0</ele><time>2026-04-25T08:59:18Z</time></trkpt><trkpt lat="45.88093221411395" lon="4.847312457616646"><ele>197.0</ele><time>2026-04-25T08:59:20Z</time></trkpt><trkpt lat="45.88102993153593" lon="4.847304233056769"><ele>197.0</ele><time>2026-04-25T08:59:22Z</time></trkpt><trkpt lat="45.881166417473665" lon="4.8473047814896075"><ele>197.0</ele><time>2026-04-25T08:59:24Z</time></trkpt><trkpt lat="45.88126036334682" lon="4.847348999450939"><ele>197.75</ele><time>2026-04-25T08:59:25Z</time></trkpt><trkpt lat="45.88136177892901" lon="4.847419106926464"><ele>198.5</ele><time>2026-04-25T08:59:26Z</time></trkpt><trkpt lat="45.88147640252696" lon="4.847497856406893"><ele>199.25</ele><time>2026-04-25T08:59:27Z</time></trkpt><trkpt lat="45.88160376241746" lon="4.847582407111414"><ele>200.0</ele><time>2026-04-25T08:59:28Z</time></trkpt><trkpt lat="45.88172035709215" lon="4.847664673983475"><ele>201.0</ele><time>2026-04-25T08:59:29Z</time></trkpt><trkpt lat="45.88184465088067" lon="4.847748375160314"><ele>202.0</ele><time>2026-04-25T08:59:30Z</time></trkpt><trkpt lat="45.881973294246585" lon="4.847840493330322"><ele>203.0</ele><time>2026-04-25T08:59:31Z</time></trkpt><trkpt lat="45.882115487517574" lon="4.847940447271693"><ele>204.0</ele><time>2026-04-25T08:59:32Z</time></trkpt><trkpt lat="45.882266500652186" lon="4.848049130046854"><ele>204.0</ele><time>2026-04-25T08:59:33Z</time></trkpt><trkpt lat="45.882417902219615" lon="4.848164097440814"><ele>204.0</ele><time>2026-04-25T08:59:34Z</time></trkpt><trkpt lat="45.882577292387886" lon="4.848275309747275"><ele>204.0</ele><time>2026-04-25T08:59:35Z</time></trkpt><trkpt lat="45.882741440039915" lon="4.848381171929928"><ele>203.66666666666669</ele><time>2026-04-25T08:59:36Z</time></trkpt><trkpt lat="45.88288778491874" lon="4.848479602811846"><ele>203.33333333333334</ele><time>2026-04-25T08:59:37Z</time></trkpt><trkpt lat="45.88303665738675" lon="4.848587210974604"><ele>203.0</ele><time>2026-04-25T08:59:38Z</time></trkpt><trkpt lat="45.88317533206533" lon="4.848684971159488"><ele>203.0</ele><time>2026-04-25T08:59:39Z</time></trkpt><trkpt lat="45.8833071163168" lon="4.848772449579452"><ele>203.0</ele><time>2026-04-25T08:59:40Z</time></trkpt><trkpt lat="45.883443110380966" lon="4.848867775440962"><ele>203.0</ele><time>2026-04-25T08:59:41Z</time></trkpt><trkpt lat="45.88357844226119" lon="4.848964038236142"><ele>203.0</ele><time>2026-04-25T08:59:42Z</time></trkpt><trkpt lat="45.883714466371735" lon="4.8490621233300235"><ele>204.5</ele><time>2026-04-25T08:59:43Z</time></trkpt><trkpt lat="45.883834003112845" lon="4.849145863085223"><ele>206.0</ele><time>2026-04-25T08:59:44Z</time></trkpt><trkpt lat="45.88394781844544" lon="4.849219723530759"><ele>207.5</ele><time>2026-04-25T08:59:45Z</time></trkpt><trkpt lat="45.884064568491475" lon="4.849296622270444"><ele>209.0</ele><time>2026-04-25T08:59:46Z</time></trkpt><trkpt lat="45.884191979935316" lon="4.849386888728889"><ele>210.66666666666669</ele><time>2026-04-25T08:59:47Z</time></trkpt><trkpt lat="45.88432284221338" lon="4.84947726490908"><ele>212.33333333333331</ele><time>2026-04-25T08:59:48Z</time></trkpt><trkpt lat="45.88446370260041" lon="4.8495754300770395"><ele>214.0</ele><time>2026-04-25T08:59:49Z</time></trkpt><trkpt lat="45.88461093563287" lon="4.849671679817554"><ele>214.0</ele><time>2026-04-25T08:59:50Z</time></trkpt><trkpt lat="45.884758000442844" lon="4.849773763229885"><ele>214.0</ele><time>2026-04-25T08:59:51Z</time></trkpt><trkpt lat="45.88489232890146" lon="4.8498702036972485"><ele>214.0</ele><time>2026-04-25T08:59:52Z</time></trkpt><trkpt lat="45.885015892264214" lon="4.849959982924204"><ele>213.25</ele><time>2026-04-25T08:59:53Z</time></trkpt><trkpt lat="45.885121303688315" lon="4.8500360770917785"><ele>212.5</ele><time>2026-04-25T08:59:54Z</time></trkpt><trkpt lat="45.88522734887287" lon="4.850107321378822"><ele>211.75</ele><time>2026-04-25T08:59:55Z</time></trkpt><trkpt lat="45.88533500845273" lon="4.850180347837226"><ele>211.0</ele><time>2026-04-25T08:59:56Z</time></trkpt><trkpt lat="45.88543832691823" lon="4.850241257127338"><ele>211.0</ele><time>2026-04-25T08:59:57Z</time></trkpt><trkpt lat="45.8855364843045" lon="4.850307279899259"><ele>211.0</ele><time>2026-04-25T08:59:58Z</time></trkpt><trkpt lat="45.88564910215405" lon="4.850348394474725"><ele>211.0</ele><time>2026-04-25T08:59:59Z</time></trkpt><trkpt lat="45.885774237307636" lon="4.850379824828704"><ele>211.0</ele><time>2026-04-25T09:00:00Z</time></trkpt><trkpt lat="45.88591445299179" lon="4.850400231833333"><ele>211.66666666666666</ele><time>2026-04-25T09:00:01Z</time></trkpt><trkpt lat="45.886059706865225" lon="4.850408832921316"><ele>212.33333333333331</ele><time>2026-04-25T09:00:02Z</time></trkpt><trkpt lat="45.88621679099072" lon="4.8504225841952255"><ele>213.0</ele><time>2026-04-25T09:00:03Z</time></trkpt><trkpt lat="45.88637851439713" lon="4.850444302251648"><ele>213.0</ele><time>2026-04-25T09:00:04Z</time></trkpt><trkpt lat="45.88654226221204" lon="4.850460959999186"><ele>213.0</ele><time>2026-04-25T09:00:05Z</time></trkpt><trkpt lat="45.88670968808825" lon="4.8504778872054635"><ele>213.0</ele><time>2026-04-25T09:00:06Z</time></trkpt><trkpt lat="45.88686095043711" lon="4.8504993028283945"><ele>213.75</ele><time>2026-04-25T09:00:07Z</time></trkpt><trkpt lat="45.88699027355077" lon="4.850543861212488"><ele>214.5</ele><time>2026-04-25T09:00:08Z</time></trkpt><trkpt lat="45.887109403779014" lon="4.850613890576423"><ele>215.25</ele><time>2026-04-25T09:00:09Z</time></trkpt><trkpt lat="45.887234685469885" lon="4.850699991019781"><ele>216.0</ele><time>2026-04-25T09:00:10Z</time></trkpt><trkpt lat="45.88736861005779" lon="4.850796669016466"><ele>216.0</ele><time>2026-04-25T09:00:11Z</time></trkpt><trkpt lat="45.887506075846204" lon="4.850906574893075"><ele>216.0</ele><time>2026-04-25T09:00:12Z</time></trkpt><trkpt lat="45.887656714385244" lon="4.851013636241391"><ele>216.0</ele><time>2026-04-25T09:00:13Z</time></trkpt><trkpt lat="45.887811759712875" lon="4.851121190591027"><ele>216.33333333333331</ele><time>2026-04-25T09:00:14Z</time></trkpt><trkpt lat="45.887971133299274" lon="4.851233123273657"><ele>216.66666666666666</ele><time>2026-04-25T09:00:15Z</time></trkpt><trkpt lat="45.888135601800286" lon="4.851346832142074"><ele>217.0</ele><time>2026-04-25T09:00:16Z</time></trkpt><trkpt lat="45.88829341777718" lon="4.851456816331228"><ele>217.75</ele><time>2026-04-25T09:00:17Z</time></trkpt><trkpt lat="45.888431239587284" lon="4.851555067321387"><ele>218.5</ele><time>2026-04-25T09:00:18Z</time></trkpt><trkpt lat="45.88855557492402" lon="4.851647709132425"><ele>219.25</ele><time>2026-04-25T09:00:19Z</time></trkpt><trkpt lat="45.888684566680034" lon="4.851732949710682"><ele>220.0</ele><time>2026-04-25T09:00:20Z</time></trkpt><trkpt lat="45.888814901852605" lon="4.851826239182032"><ele>220.0</ele><time>2026-04-25T09:00:21Z</time></trkpt><trkpt lat="45.888951405661146" lon="4.851933739076447"><ele>220.0</ele><time>2026-04-25T09:00:22Z</time></trkpt><trkpt lat="45.88908227143925" lon="4.852044178789256"><ele>220.0</ele><time>2026-04-25T09:00:23Z</time></trkpt><trkpt lat="45.88920944148059" lon="4.8521751481189215"><ele>223.66666666666666</ele><time>2026-04-25T09:00:24Z</time></trkpt><trkpt lat="45.889331131577705" lon="4.852312981986998"><ele>227.33333333333331</ele><time>2026-04-25T09:00:25Z</time></trkpt><trkpt lat="45.889441939861136" lon="4.852464657903122"><ele>231.0</ele><time>2026-04-25T09:00:26Z</time></trkpt><trkpt lat="45.88954299606296" lon="4.85263255974007"><ele>231.0</ele><time>2026-04-25T09:00:27Z</time></trkpt><trkpt lat="45.8896398838243" lon="4.852810326223437"><ele>231.0</ele><time>2026-04-25T09:00:28Z</time></trkpt><trkpt lat="45.88972947217616" lon="4.853000901528676"><ele>231.0</ele><time>2026-04-25T09:00:29Z</time></trkpt><trkpt lat="45.88981174697261" lon="4.853203882324646"><ele>231.0</ele><time>2026-04-25T09:00:30Z</time></trkpt><trkpt lat="45.8898909979299" lon="4.853411950548712"><ele>231.0</ele><time>2026-04-25T09:00:31Z</time></trkpt><trkpt lat="45.88996281638592" lon="4.853619327975772"><ele>231.0</ele><time>2026-04-25T09:00:32Z</time></trkpt><trkpt lat="45.89002746680529" lon="4.853825012416654"><ele>235.0</ele><time>2026-04-25T09:00:33Z</time></trkpt><trkpt lat="45.890098825316194" lon="4.854036370980812"><ele>239.0</ele><time>2026-04-25T09:00:34Z</time></trkpt><trkpt lat="45.89016158224566" lon="4.854252368028881"><ele>243.0</ele><time>2026-04-25T09:00:35Z</time></trkpt><trkpt lat="45.89023415756177" lon="4.854458655659902"><ele>243.0</ele><time>2026-04-25T09:00:36Z</time></trkpt><trkpt lat="45.89030648319441" lon="4.854655847820101"><ele>243.0</ele><time>2026-04-25T09:00:37Z</time></trkpt><trkpt lat="45.89037992957385" lon="4.854857677293318"><ele>243.0</ele><time>2026-04-25T09:00:38Z</time></trkpt><trkpt lat="45.89044570818148" lon="4.855060213133211"><ele>242.0</ele><time>2026-04-25T09:00:39Z</time></trkpt><trkpt lat="45.89050203784296" lon="4.855266297989753"><ele>241.0</ele><time>2026-04-25T09:00:40Z</time></trkpt><trkpt lat="45.89055768040183" lon="4.855445213137156"><ele>240.0</ele><time>2026-04-25T09:00:41Z</time></trkpt><trkpt lat="45.89058099423858" lon="4.85561288406217"><ele>239.0</ele><time>2026-04-25T09:00:42Z</time></trkpt><trkpt lat="45.89059728841175" lon="4.855769570759079"><ele>239.0</ele><time>2026-04-25T09:00:43Z</time></trkpt><trkpt lat="45.890600748570485" lon="4.855935686644499"><ele>239.0</ele><time>2026-04-25T09:00:44Z</time></trkpt><trkpt lat="45.890582520804244" lon="4.856121240999634"><ele>239.0</ele><time>2026-04-25T09:00:45Z</time></trkpt><trkpt lat="45.890559440517606" lon="4.856321761395978"><ele>239.0</ele><time>2026-04-25T09:00:46Z</time></trkpt><trkpt lat="45.89053496443692" lon="4.8565344083994955"><ele>239.33333333333334</ele><time>2026-04-25T09:00:47Z</time></trkpt><trkpt lat="45.89052398373182" lon="4.856760173112445"><ele>239.66666666666669</ele><time>2026-04-25T09:00:48Z</time></trkpt><trkpt lat="45.89048340943205" lon="4.8569828504866885"><ele>240.0</ele><time>2026-04-25T09:00:49Z</time></trkpt><trkpt lat="45.89045586981089" lon="4.857224009425243"><ele>240.0</ele><time>2026-04-25T09:00:50Z</time></trkpt><trkpt lat="45.89042812921323" lon="4.857466928343114"><ele>240.0</ele><time>2026-04-25T09:00:51Z</time></trkpt><trkpt lat="45.89041598366978" lon="4.857682124558249"><ele>240.0</ele><time>2026-04-25T09:00:52Z</time></trkpt><trkpt lat="45.89040377318287" lon="4.8578752696317"><ele>239.75</ele><time>2026-04-25T09:00:53Z</time></trkpt><trkpt lat="45.89039717596858" lon="4.858072767810956"><ele>239.5</ele><time>2026-04-25T09:00:54Z</time></trkpt><trkpt lat="45.8904079430101" lon="4.858269286914953"><ele>239.25</ele><time>2026-04-25T09:00:55Z</time></trkpt><trkpt lat="45.89043695691259" lon="4.858463202375363"><ele>239.0</ele><time>2026-04-25T09:00:56Z</time></trkpt><trkpt lat="45.89048797999004" lon="4.85863605140267"><ele>239.25</ele><time>2026-04-25T09:00:57Z</time></trkpt><trkpt lat="45.89056502738333" lon="4.858784291881966"><ele>239.5</ele><time>2026-04-25T09:00:58Z</time></trkpt><trkpt lat="45.89066029999803" lon="4.858937724622889"><ele>239.75</ele><time>2026-04-25T09:00:59Z</time></trkpt><trkpt lat="45.8907722070347" lon="4.859109860057317"><ele>240.0</ele><time>2026-04-25T09:01:00Z</time></trkpt><trkpt lat="45.89090479056339" lon="4.859307597067155"><ele>244.33333333333331</ele><time>2026-04-25T09:01:01Z</time></trkpt><trkpt lat="45.89104582782156" lon="4.859532367667708"><ele>248.66666666666666</ele><time>2026-04-25T09:01:02Z</time></trkpt><trkpt lat="45.8911826024575" lon="4.859757000274316"><ele>253.0</ele><time>2026-04-25T09:01:03Z</time></trkpt><trkpt lat="45.891301005843104" lon="4.859938817151007"><ele>253.0</ele><time>2026-04-25T09:01:04Z</time></trkpt><trkpt lat="45.891410109339084" lon="4.860099738367637"><ele>253.0</ele><time>2026-04-25T09:01:05Z</time></trkpt><trkpt lat="45.89151884617318" lon="4.8602487960629865"><ele>253.0</ele><time>2026-04-25T09:01:06Z</time></trkpt><trkpt lat="45.89163902203346" lon="4.860375665450149"><ele>255.66666666666666</ele><time>2026-04-25T09:01:07Z</time></trkpt><trkpt lat="45.89177275360839" lon="4.860480500463063"><ele>258.3333333333333</ele><time>2026-04-25T09:01:08Z</time></trkpt><trkpt lat="45.89192460724702" lon="4.8605586840877"><ele>261.0</ele><time>2026-04-25T09:01:09Z</time></trkpt><trkpt lat="45.89207518778243" lon="4.8606468484384315"><ele>261.0</ele><time>2026-04-25T09:01:10Z</time></trkpt><trkpt lat="45.89223232696339" lon="4.8607440974774665"><ele>261.0</ele><time>2026-04-25T09:01:11Z</time></trkpt><trkpt lat="45.8923851989008" lon="4.860830893846134"><ele>261.0</ele><time>2026-04-25T09:01:12Z</time></trkpt><trkpt lat="45.892519621385446" lon="4.860915245073761"><ele>260.5</ele><time>2026-04-25T09:01:13Z</time></trkpt><trkpt lat="45.892654484157895" lon="4.86098389263351"><ele>260.0</ele><time>2026-04-25T09:01:14Z</time></trkpt><trkpt lat="45.89278552316612" lon="4.86106007903701"><ele>259.5</ele><time>2026-04-25T09:01:15Z</time></trkpt><trkpt lat="45.892904629180244" lon="4.861161728367606"><ele>259.0</ele><time>2026-04-25T09:01:16Z</time></trkpt><trkpt lat="45.89303179908303" lon="4.861269455182191"><ele>259.0</ele><time>2026-04-25T09:01:17Z</time></trkpt><trkpt lat="45.89316171545828" lon="4.861391916534091"><ele>259.0</ele><time>2026-04-25T09:01:18Z</time></trkpt><trkpt lat="45.893287375081385" lon="4.8615348964776715"><ele>259.0</ele><time>2026-04-25T09:01:19Z</time></trkpt><trkpt lat="45.893406956752735" lon="4.861682111734659"><ele>262.3333333333333</ele><time>2026-04-25T09:01:20Z</time></trkpt><trkpt lat="45.89352827044714" lon="4.861822208378084"><ele>265.6666666666667</ele><time>2026-04-25T09:01:21Z</time></trkpt><trkpt lat="45.89364971621758" lon="4.861955592130349"><ele>269.0</ele><time>2026-04-25T09:01:22Z</time></trkpt><trkpt lat="45.89377014755191" lon="4.8620960708092795"><ele>269.0</ele><time>2026-04-25T09:01:23Z</time></trkpt><trkpt lat="45.89388959279637" lon="4.8622336950743605"><ele>269.0</ele><time>2026-04-25T09:01:24Z</time></trkpt><trkpt lat="45.894009184173555" lon="4.8623716111814"><ele>269.0</ele><time>2026-04-25T09:01:25Z</time></trkpt><trkpt lat="45.89413042360607" lon="4.862508083484264"><ele>271.0</ele><time>2026-04-25T09:01:26Z</time></trkpt><trkpt lat="45.89425506078014" lon="4.862632761045073"><ele>273.0</ele><time>2026-04-25T09:01:27Z</time></trkpt><trkpt lat="45.89438794899647" lon="4.862737228175817"><ele>275.0</ele><time>2026-04-25T09:01:28Z</time></trkpt><trkpt lat="45.89453000124473" lon="4.862826100830614"><ele>275.0</ele><time>2026-04-25T09:01:29Z</time></trkpt><trkpt lat="45.89467485892334" lon="4.862895514929003"><ele>275.0</ele><time>2026-04-25T09:01:30Z</time></trkpt><trkpt lat="45.89481796494724" lon="4.862968107318794"><ele>275.0</ele><time>2026-04-25T09:01:31Z</time></trkpt><trkpt lat="45.89497783731399" lon="4.863039744607934"><ele>275.75</ele><time>2026-04-25T09:01:32Z</time></trkpt><trkpt lat="45.89511176251627" lon="4.863111828552368"><ele>276.5</ele><time>2026-04-25T09:01:33Z</time></trkpt><trkpt lat="45.89524200084685" lon="4.863173396236805"><ele>277.25</ele><time>2026-04-25T09:01:34Z</time></trkpt><trkpt lat="45.89536601699705" lon="4.863260290308071"><ele>278.0</ele><time>2026-04-25T09:01:35Z</time></trkpt><trkpt lat="45.89549850852069" lon="4.863319389233925"><ele>278.0</ele><time>2026-04-25T09:01:36Z</time></trkpt><trkpt lat="45.89561681057287" lon="4.863443597694353"><ele>278.0</ele><time>2026-04-25T09:01:37Z</time></trkpt><trkpt lat="45.895742663707715" lon="4.863539838472667"><ele>278.0</ele><time>2026-04-25T09:01:38Z</time></trkpt><trkpt lat="45.8958620151194" lon="4.863684504758826"><ele>278.0</ele><time>2026-04-25T09:01:39Z</time></trkpt><trkpt lat="45.89597600445984" lon="4.8638462991303"><ele>279.33333333333337</ele><time>2026-04-25T09:01:40Z</time></trkpt><trkpt lat="45.89610388281943" lon="4.864003518894851"><ele>280.6666666666667</ele><time>2026-04-25T09:01:41Z</time></trkpt><trkpt lat="45.89622845344712" lon="4.864156833694495"><ele>282.0</ele><time>2026-04-25T09:01:42Z</time></trkpt><trkpt lat="45.89635056170089" lon="4.8643204937586"><ele>282.0</ele><time>2026-04-25T09:01:43Z</time></trkpt><trkpt lat="45.89646526325894" lon="4.864457587802919"><ele>282.0</ele><time>2026-04-25T09:01:44Z</time></trkpt><trkpt lat="45.896571183113345" lon="4.864597207695363"><ele>282.0</ele><time>2026-04-25T09:01:45Z</time></trkpt><trkpt lat="45.8966832961302" lon="4.864737766678688"><ele>282.0</ele><time>2026-04-25T09:01:46Z</time></trkpt><trkpt lat="45.89679544130676" lon="4.864880185582373"><ele>282.6666666666667</ele><time>2026-04-25T09:01:47Z</time></trkpt><trkpt lat="45.89690596937738" lon="4.865018247945933"><ele>283.33333333333337</ele><time>2026-04-25T09:01:48Z</time></trkpt><trkpt lat="45.89702859284522" lon="4.865147518048217"><ele>284.0</ele><time>2026-04-25T09:01:49Z</time></trkpt><trkpt lat="45.897154321983685" lon="4.8652683672986"><ele>284.0</ele><time>2026-04-25T09:01:50Z</time></trkpt><trkpt lat="45.897283806801944" lon="4.865392819395614"><ele>284.0</ele><time>2026-04-25T09:01:51Z</time></trkpt><trkpt lat="45.89742110982211" lon="4.865525869311109"><ele>284.0</ele><time>2026-04-25T09:01:52Z</time></trkpt><trkpt lat="45.89756255327039" lon="4.865668528674966"><ele>284.33333333333337</ele><time>2026-04-25T09:01:53Z</time></trkpt><trkpt lat="45.89770756395745" lon="4.865816409711781"><ele>284.6666666666667</ele><time>2026-04-25T09:01:54Z</time></trkpt><trkpt lat="45.89785192795487" lon="4.865962826408333"><ele>285.0</ele><time>2026-04-25T09:01:55Z</time></trkpt><trkpt lat="45.89798040371675" lon="4.866093871679048"><ele>285.0</ele><time>2026-04-25T09:01:56Z</time></trkpt><trkpt lat="45.898111994579246" lon="4.866222366537486"><ele>285.0</ele><time>2026-04-25T09:01:57Z</time></trkpt><trkpt lat="45.898246021118524" lon="4.866355398995462"><ele>285.0</ele><time>2026-04-25T09:01:58Z</time></trkpt><trkpt lat="45.89838036653607" lon="4.866490603744833"><ele>285.25</ele><time>2026-04-25T09:01:59Z</time></trkpt><trkpt lat="45.89850210657665" lon="4.866615594050832"><ele>285.5</ele><time>2026-04-25T09:02:00Z</time></trkpt><trkpt lat="45.89861617798872" lon="4.866732979265133"><ele>285.75</ele><time>2026-04-25T09:02:01.001Z</time></trkpt><trkpt lat="45.89873629870036" lon="4.8668522430607455"><ele>286.0</ele><time>2026-04-25T09:02:02.001Z</time></trkpt><trkpt lat="45.898862096420864" lon="4.866974529564001"><ele>286.3333333333333</ele><time>2026-04-25T09:02:03.001Z</time></trkpt><trkpt lat="45.898989686291344" lon="4.867102790073741"><ele>286.6666666666667</ele><time>2026-04-25T09:02:04.001Z</time></trkpt><trkpt lat="45.89911923547326" lon="4.867238915024049"><ele>287.0</ele><time>2026-04-25T09:02:05.001Z</time></trkpt><trkpt lat="45.89924505525318" lon="4.867364165747985"><ele>287.33333333333337</ele><time>2026-04-25T09:02:06.001Z</time></trkpt><trkpt lat="45.8993719131346" lon="4.8674932450411825"><ele>287.6666666666667</ele><time>2026-04-25T09:02:07.001Z</time></trkpt><trkpt lat="45.89950127652954" lon="4.867626797719433"><ele>288.0</ele><time>2026-04-25T09:02:08.001Z</time></trkpt><trkpt lat="45.899640908068214" lon="4.867768411008998"><ele>288.0</ele><time>2026-04-25T09:02:09.001Z</time></trkpt><trkpt lat="45.89976074551663" lon="4.867886359883847"><ele>288.0</ele><time>2026-04-25T09:02:10.001Z</time></trkpt><trkpt lat="45.89987265017013" lon="4.867996797982556"><ele>288.0</ele><time>2026-04-25T09:02:11.001Z</time></trkpt><trkpt lat="45.89998263237929" lon="4.868109072752663"><ele>288.0</ele><time>2026-04-25T09:02:12.001Z</time></trkpt><trkpt lat="45.90010906882443" lon="4.868231063832294"><ele>288.3333333333333</ele><time>2026-04-25T09:02:13.001Z</time></trkpt><trkpt lat="45.900228992014" lon="4.8683584427704885"><ele>288.66666666666663</ele><time>2026-04-25T09:02:14.001Z</time></trkpt><trkpt lat="45.90036564891927" lon="4.868492263394301"><ele>289.0</ele><time>2026-04-25T09:02:15.001Z</time></trkpt><trkpt lat="45.90049778391195" lon="4.868627036359032"><ele>289.0</ele><time>2026-04-25T09:02:16Z</time></trkpt><trkpt lat="45.90064093301616" lon="4.868767031180771"><ele>289.0</ele><time>2026-04-25T09:02:17Z</time></trkpt><trkpt lat="45.900785011196255" lon="4.868910742955217"><ele>289.0</ele><time>2026-04-25T09:02:18Z</time></trkpt><trkpt lat="45.9009276274138" lon="4.869051031166009"><ele>289.0</ele><time>2026-04-25T09:02:19Z</time></trkpt><trkpt lat="45.901055376555014" lon="4.869181244962718"><ele>289.0</ele><time>2026-04-25T09:02:20Z</time></trkpt><trkpt lat="45.9011810267877" lon="4.86930964987796"><ele>289.0</ele><time>2026-04-25T09:02:21Z</time></trkpt><trkpt lat="45.90131371427153" lon="4.869424446811551"><ele>289.66666666666663</ele><time>2026-04-25T09:02:22Z</time></trkpt><trkpt lat="45.901448503349975" lon="4.869531347881268"><ele>290.3333333333333</ele><time>2026-04-25T09:02:23Z</time></trkpt><trkpt lat="45.90158617897826" lon="4.86963715287911"><ele>291.0</ele><time>2026-04-25T09:02:24Z</time></trkpt><trkpt lat="45.9017246779693" lon="4.869738283886443"><ele>291.0</ele><time>2026-04-25T09:02:25Z</time></trkpt><trkpt lat="45.90185821905826" lon="4.869825754725675"><ele>291.0</ele><time>2026-04-25T09:02:26Z</time></trkpt><trkpt lat="45.90198326169469" lon="4.869908911779834"><ele>291.0</ele><time>2026-04-25T09:02:27Z</time></trkpt><trkpt lat="45.90210791471451" lon="4.87000374222467"><ele>291.0</ele><time>2026-04-25T09:02:28Z</time></trkpt><trkpt lat="45.902231572320424" lon="4.870117018019426"><ele>291.6666666666667</ele><time>2026-04-25T09:02:29Z</time></trkpt><trkpt lat="45.902345663809584" lon="4.870250404799896"><ele>292.33333333333337</ele><time>2026-04-25T09:02:30Z</time></trkpt><trkpt lat="45.90245869870839" lon="4.87040014326507"><ele>293.0</ele><time>2026-04-25T09:02:31Z</time></trkpt><trkpt lat="45.90256797639648" lon="4.870558579179478"><ele>292.0</ele><time>2026-04-25T09:02:32Z</time></trkpt><trkpt lat="45.90268151327685" lon="4.870718227358503"><ele>291.0</ele><time>2026-04-25T09:02:33Z</time></trkpt><trkpt lat="45.90279645131252" lon="4.870884689456607"><ele>290.0</ele><time>2026-04-25T09:02:34Z</time></trkpt><trkpt lat="45.90290558857513" lon="4.871043104589433"><ele>290.0</ele><time>2026-04-25T09:02:35Z</time></trkpt><trkpt lat="45.90300512667398" lon="4.871183755677605"><ele>290.0</ele><time>2026-04-25T09:02:36Z</time></trkpt><trkpt lat="45.903101883606645" lon="4.871321815937721"><ele>290.0</ele><time>2026-04-25T09:02:37Z</time></trkpt><trkpt lat="45.90319728743002" lon="4.8714821197745755"><ele>290.0</ele><time>2026-04-25T09:02:38Z</time></trkpt><trkpt lat="45.90328685907205" lon="4.8716695580965075"><ele>290.0</ele><time>2026-04-25T09:02:39Z</time></trkpt><trkpt lat="45.903368831335165" lon="4.871868547747121"><ele>290.0</ele><time>2026-04-25T09:02:40Z</time></trkpt><trkpt lat="45.90344054308737" lon="4.87206319575017"><ele>290.0</ele><time>2026-04-25T09:02:41Z</time></trkpt><trkpt lat="45.90349650469873" lon="4.872251292538575"><ele>289.33333333333337</ele><time>2026-04-25T09:02:42Z</time></trkpt><trkpt lat="45.90354798512146" lon="4.872460519590311"><ele>288.6666666666667</ele><time>2026-04-25T09:02:43Z</time></trkpt><trkpt lat="45.90358956042658" lon="4.8726909712362385"><ele>288.0</ele><time>2026-04-25T09:02:44Z</time></trkpt><trkpt lat="45.90362162729381" lon="4.872940116557052"><ele>287.6666666666667</ele><time>2026-04-25T09:02:45Z</time></trkpt><trkpt lat="45.9036519278913" lon="4.873207408408307"><ele>287.33333333333337</ele><time>2026-04-25T09:02:46Z</time></trkpt><trkpt lat="45.903689640679225" lon="4.8734693500612005"><ele>287.0</ele><time>2026-04-25T09:02:47Z</time></trkpt><trkpt lat="45.90373725065966" lon="4.873716703491428"><ele>286.6666666666667</ele><time>2026-04-25T09:02:48Z</time></trkpt><trkpt lat="45.90380346258896" lon="4.873959951788823"><ele>286.3333333333333</ele><time>2026-04-25T09:02:49Z</time></trkpt><trkpt lat="45.90387921614243" lon="4.87419862647496"><ele>286.0</ele><time>2026-04-25T09:02:50Z</time></trkpt><trkpt lat="45.903946305043206" lon="4.874423069481596"><ele>286.0</ele><time>2026-04-25T09:02:51Z</time></trkpt><trkpt lat="45.90401072545561" lon="4.874639809623978"><ele>286.0</ele><time>2026-04-25T09:02:52Z</time></trkpt><trkpt lat="45.90407758588134" lon="4.8748637653802795"><ele>286.0</ele><time>2026-04-25T09:02:53Z</time></trkpt><trkpt lat="45.904140460850996" lon="4.875086652520061"><ele>286.3333333333333</ele><time>2026-04-25T09:02:54Z</time></trkpt><trkpt lat="45.904213441846245" lon="4.8753162788954425"><ele>286.6666666666667</ele><time>2026-04-25T09:02:55Z</time></trkpt><trkpt lat="45.90427908946315" lon="4.875540472133571"><ele>287.0</ele><time>2026-04-25T09:02:56Z</time></trkpt><trkpt lat="45.904347418243646" lon="4.875781172339006"><ele>287.0</ele><time>2026-04-25T09:02:57Z</time></trkpt><trkpt lat="45.9044123189564" lon="4.876040886052952"><ele>287.0</ele><time>2026-04-25T09:02:58Z</time></trkpt><trkpt lat="45.90447162492474" lon="4.876310545533723"><ele>287.0</ele><time>2026-04-25T09:02:59Z</time></trkpt><trkpt lat="45.9045265577481" lon="4.876555806113915"><ele>287.0</ele><time>2026-04-25T09:03:00Z</time></trkpt><trkpt lat="45.90457869789587" lon="4.876785490341193"><ele>287.0</ele><time>2026-04-25T09:03:01Z</time></trkpt><trkpt lat="45.90463224500341" lon="4.877014280057707"><ele>287.0</ele><time>2026-04-25T09:03:02Z</time></trkpt><trkpt lat="45.90468200568727" lon="4.877229392094471"><ele>287.0</ele><time>2026-04-25T09:03:03Z</time></trkpt><trkpt lat="45.90472133172689" lon="4.877435301866109"><ele>287.0</ele><time>2026-04-25T09:03:04Z</time></trkpt><trkpt lat="45.904762529587614" lon="4.87762142086806"><ele>287.0</ele><time>2026-04-25T09:03:05Z</time></trkpt><trkpt lat="45.904804430994865" lon="4.877796708277106"><ele>287.0</ele><time>2026-04-25T09:03:06Z</time></trkpt><trkpt lat="45.90483945108293" lon="4.877952692406553"><ele>287.2</ele><time>2026-04-25T09:03:07Z</time></trkpt><trkpt lat="45.904876602369356" lon="4.87810141200722"><ele>287.4</ele><time>2026-04-25T09:03:08Z</time></trkpt><trkpt lat="45.904910914731474" lon="4.878247314128683"><ele>287.6</ele><time>2026-04-25T09:03:09Z</time></trkpt><trkpt lat="45.90494350543803" lon="4.878378683043867"><ele>287.8</ele><time>2026-04-25T09:03:10Z</time></trkpt><trkpt lat="45.90497226119009" lon="4.878497643691536"><ele>288.0</ele><time>2026-04-25T09:03:11Z</time></trkpt><trkpt lat="45.90500301981592" lon="4.878605522946545"><ele>288.3333333333333</ele><time>2026-04-25T09:03:12Z</time></trkpt><trkpt lat="45.90502645305263" lon="4.878708616759863"><ele>288.6666666666667</ele><time>2026-04-25T09:03:13Z</time></trkpt><trkpt lat="45.90502941377364" lon="4.8788619262238875"><ele>289.0</ele><time>2026-04-25T09:03:15Z</time></trkpt><trkpt lat="45.9049682272398" lon="4.878993712527404"><ele>289.33333333333337</ele><time>2026-04-25T09:03:20Z</time></trkpt><trkpt lat="45.90492830557377" lon="4.879071003421916"><ele>289.6666666666667</ele><time>2026-04-25T09:03:21Z</time></trkpt><trkpt lat="45.90488856657932" lon="4.879164418374086"><ele>290.0</ele><time>2026-04-25T09:03:22Z</time></trkpt><trkpt lat="45.90485839704023" lon="4.879262082067619"><ele>289.8</ele><time>2026-04-25T09:03:23Z</time></trkpt><trkpt lat="45.90483927311644" lon="4.879361861084611"><ele>289.6</ele><time>2026-04-25T09:03:24Z</time></trkpt><trkpt lat="45.9048488119886" lon="4.879530491942931"><ele>289.4</ele><time>2026-04-25T09:03:26Z</time></trkpt><trkpt lat="45.90493148192779" lon="4.879654111706097"><ele>289.2</ele><time>2026-04-25T09:03:28Z</time></trkpt><trkpt lat="45.90498852533553" lon="4.879734732474595"><ele>289.0</ele><time>2026-04-25T09:03:30Z</time></trkpt><trkpt lat="45.90510887495613" lon="4.87962706681799"><ele>289.4</ele><time>2026-04-25T09:03:31Z</time></trkpt><trkpt lat="45.90520612731708" lon="4.879472429955778"><ele>289.79999999999995</ele><time>2026-04-25T09:03:33Z</time></trkpt><trkpt lat="45.905259208704294" lon="4.879390028204144"><ele>290.20000000000005</ele><time>2026-04-25T09:03:34Z</time></trkpt><trkpt lat="45.905330898604376" lon="4.87933627277993"><ele>290.6</ele><time>2026-04-25T09:03:35Z</time></trkpt><trkpt lat="45.90541757449719" lon="4.8793210460400305"><ele>291.0</ele><time>2026-04-25T09:03:36Z</time></trkpt><trkpt lat="45.90552500442745" lon="4.879302850659422"><ele>291.0</ele><time>2026-04-25T09:03:37Z</time></trkpt><trkpt lat="45.905632967252515" lon="4.879357380848599"><ele>291.0</ele><time>2026-04-25T09:03:38Z</time></trkpt><trkpt lat="45.90576142838252" lon="4.879399132303724"><ele>291.0</ele><time>2026-04-25T09:03:39Z</time></trkpt><trkpt lat="45.90591081567067" lon="4.879450807161082"><ele>291.0</ele><time>2026-04-25T09:03:40Z</time></trkpt><trkpt lat="45.90607600640991" lon="4.879513085237551"><ele>291.0</ele><time>2026-04-25T09:03:41Z</time></trkpt><trkpt lat="45.90625492268425" lon="4.879586424776753"><ele>291.0</ele><time>2026-04-25T09:03:42Z</time></trkpt><trkpt lat="45.906434561375676" lon="4.879663031250761"><ele>291.0</ele><time>2026-04-25T09:03:43Z</time></trkpt><trkpt lat="45.90661654005354" lon="4.879740131428554"><ele>290.3333333333333</ele><time>2026-04-25T09:03:44Z</time></trkpt><trkpt lat="45.90681620833009" lon="4.87981547930889"><ele>289.66666666666663</ele><time>2026-04-25T09:03:45.001Z</time></trkpt><trkpt lat="45.90703278756659" lon="4.8798854066209305"><ele>289.0</ele><time>2026-04-25T09:03:46.001Z</time></trkpt><trkpt lat="45.907251128571815" lon="4.879965816736449"><ele>289.0</ele><time>2026-04-25T09:03:47.001Z</time></trkpt><trkpt lat="45.90746878829915" lon="4.880043534910178"><ele>289.0</ele><time>2026-04-25T09:03:48.001Z</time></trkpt><trkpt lat="45.907686240055035" lon="4.880126102209007"><ele>289.0</ele><time>2026-04-25T09:03:49.001Z</time></trkpt><trkpt lat="45.907911320084736" lon="4.880209566063393"><ele>290.0</ele><time>2026-04-25T09:03:50.001Z</time></trkpt><trkpt lat="45.908142677377064" lon="4.880293245241463"><ele>291.0</ele><time>2026-04-25T09:03:51.001Z</time></trkpt><trkpt lat="45.908380123400455" lon="4.880373000254958"><ele>290.0</ele><time>2026-04-25T09:03:52.001Z</time></trkpt><trkpt lat="45.908616257354915" lon="4.880458199774651"><ele>289.0</ele><time>2026-04-25T09:03:53.001Z</time></trkpt><trkpt lat="45.908830009733244" lon="4.88053682395223"><ele>289.0</ele><time>2026-04-25T09:03:54.001Z</time></trkpt><trkpt lat="45.90902906929764" lon="4.880608162538824"><ele>289.0</ele><time>2026-04-25T09:03:55.001Z</time></trkpt><trkpt lat="45.9092174491259" lon="4.880671077111515"><ele>289.0</ele><time>2026-04-25T09:03:56.001Z</time></trkpt><trkpt lat="45.909402680449126" lon="4.88073482053557"><ele>289.3333333333333</ele><time>2026-04-25T09:03:57.001Z</time></trkpt><trkpt lat="45.90958192653125" lon="4.880800448986661"><ele>289.6666666666667</ele><time>2026-04-25T09:03:58.001Z</time></trkpt><trkpt lat="45.909764527749054" lon="4.880864705769168"><ele>290.0</ele><time>2026-04-25T09:03:59.001Z</time></trkpt><trkpt lat="45.90994892331612" lon="4.880930887103915"><ele>288.0</ele><time>2026-04-25T09:04:00.001Z</time></trkpt><trkpt lat="45.91013443133426" lon="4.880995868134228"><ele>286.0</ele><time>2026-04-25T09:04:01.001Z</time></trkpt><trkpt lat="45.9103221984021" lon="4.881060081702772"><ele>284.0</ele><time>2026-04-25T09:04:02.001Z</time></trkpt><trkpt lat="45.910516554927725" lon="4.881128514050369"><ele>284.0</ele><time>2026-04-25T09:04:03.001Z</time></trkpt><trkpt lat="45.910737820966446" lon="4.881204198055943"><ele>284.0</ele><time>2026-04-25T09:04:04.001Z</time></trkpt><trkpt lat="45.910977917096126" lon="4.88128684810772"><ele>283.5</ele><time>2026-04-25T09:04:05.001Z</time></trkpt><trkpt lat="45.911233079010366" lon="4.881365667876654"><ele>283.0</ele><time>2026-04-25T09:04:06.001Z</time></trkpt><trkpt lat="45.91146104476212" lon="4.881448023089337"><ele>283.0</ele><time>2026-04-25T09:04:07.001Z</time></trkpt><trkpt lat="45.91168598320579" lon="4.881525557518596"><ele>283.0</ele><time>2026-04-25T09:04:08.001Z</time></trkpt><trkpt lat="45.91190698352339" lon="4.881601989836745"><ele>283.0</ele><time>2026-04-25T09:04:09.001Z</time></trkpt><trkpt lat="45.91211624858937" lon="4.8816751399950595"><ele>283.0</ele><time>2026-04-25T09:04:10.001Z</time></trkpt><trkpt lat="45.91234152717983" lon="4.881754583824572"><ele>283.0</ele><time>2026-04-25T09:04:11.001Z</time></trkpt><trkpt lat="45.91256973949305" lon="4.8818338221191135"><ele>282.66666666666663</ele><time>2026-04-25T09:04:12.001Z</time></trkpt><trkpt lat="45.91280654635425" lon="4.881914017274473"><ele>282.3333333333333</ele><time>2026-04-25T09:04:13.001Z</time></trkpt><trkpt lat="45.912885239479564" lon="4.8819460115865345"><ele>282.0</ele><time>2026-04-25T09:04:14.001Z</time></trkpt><trkpt lat="45.913116634987404" lon="4.882028558591392"><ele>282.0</ele><time>2026-04-25T09:04:15.001Z</time></trkpt><trkpt lat="45.91336134206612" lon="4.882114267937703"><ele>282.0</ele><time>2026-04-25T09:04:16.001Z</time></trkpt><trkpt lat="45.91357922066152" lon="4.882191579957971"><ele>282.0</ele><time>2026-04-25T09:04:17.001Z</time></trkpt><trkpt lat="45.91377730223683" lon="4.882259959608174"><ele>282.0</ele><time>2026-04-25T09:04:18.001Z</time></trkpt><trkpt lat="45.91396235071942" lon="4.882325393586531"><ele>282.0</ele><time>2026-04-25T09:04:19.001Z</time></trkpt><trkpt lat="45.91413778846594" lon="4.882379385802858"><ele>282.6666666666667</ele><time>2026-04-25T09:04:20.001Z</time></trkpt><trkpt lat="45.914311935454634" lon="4.882442674191368"><ele>283.33333333333337</ele><time>2026-04-25T09:04:21.001Z</time></trkpt><trkpt lat="45.91448390905798" lon="4.882505545855115"><ele>284.0</ele><time>2026-04-25T09:04:22Z</time></trkpt><trkpt lat="45.91464912702693" lon="4.88256492656146"><ele>284.0</ele><time>2026-04-25T09:04:23Z</time></trkpt><trkpt lat="45.914795722459374" lon="4.882616505595935"><ele>284.0</ele><time>2026-04-25T09:04:24Z</time></trkpt><trkpt lat="45.9149302932841" lon="4.882657465621108"><ele>284.0</ele><time>2026-04-25T09:04:25Z</time></trkpt><trkpt lat="45.915055935011715" lon="4.882693760837368"><ele>284.0</ele><time>2026-04-25T09:04:26Z</time></trkpt><trkpt lat="45.915174508411155" lon="4.882728118288405"><ele>284.0</ele><time>2026-04-25T09:04:27Z</time></trkpt><trkpt lat="45.915299153297944" lon="4.882768900836995"><ele>284.0</ele><time>2026-04-25T09:04:28Z</time></trkpt><trkpt lat="45.91542377542797" lon="4.882818201741485"><ele>284.0</ele><time>2026-04-25T09:04:29Z</time></trkpt><trkpt lat="45.91555532327534" lon="4.882872071410967"><ele>284.0</ele><time>2026-04-25T09:04:30Z</time></trkpt><trkpt lat="45.915697350621514" lon="4.882919923630196"><ele>284.0</ele><time>2026-04-25T09:04:31Z</time></trkpt><trkpt lat="45.91583518472366" lon="4.8829741160026705"><ele>284.0</ele><time>2026-04-25T09:04:32Z</time></trkpt><trkpt lat="45.91599530976426" lon="4.883033463184307"><ele>284.0</ele><time>2026-04-25T09:04:33Z</time></trkpt><trkpt lat="45.91615339851939" lon="4.883098362027867"><ele>282.6666666666667</ele><time>2026-04-25T09:04:34Z</time></trkpt><trkpt lat="45.9163202392694" lon="4.883150820246744"><ele>281.3333333333333</ele><time>2026-04-25T09:04:35Z</time></trkpt><trkpt lat="45.91651994100115" lon="4.8832192731898525"><ele>280.0</ele><time>2026-04-25T09:04:36Z</time></trkpt><trkpt lat="45.916682218960766" lon="4.883265926477489"><ele>279.5</ele><time>2026-04-25T09:04:37Z</time></trkpt><trkpt lat="45.91683179448955" lon="4.883321344787288"><ele>279.0</ele><time>2026-04-25T09:04:38Z</time></trkpt><trkpt lat="45.916974055762985" lon="4.883374475009803"><ele>278.5</ele><time>2026-04-25T09:04:39Z</time></trkpt><trkpt lat="45.917105967149986" lon="4.883423806704128"><ele>278.0</ele><time>2026-04-25T09:04:40Z</time></trkpt><trkpt lat="45.91723504033798" lon="4.883470058867255"><ele>278.0</ele><time>2026-04-25T09:04:41Z</time></trkpt><trkpt lat="45.91735912787443" lon="4.8835112281981425"><ele>278.0</ele><time>2026-04-25T09:04:42Z</time></trkpt><trkpt lat="45.91748281147932" lon="4.883553543434198"><ele>278.0</ele><time>2026-04-25T09:04:43Z</time></trkpt><trkpt lat="45.91760563876292" lon="4.883592459206094"><ele>278.0</ele><time>2026-04-25T09:04:44Z</time></trkpt><trkpt lat="45.917724038356425" lon="4.8836394353053025"><ele>277.5</ele><time>2026-04-25T09:04:45Z</time></trkpt><trkpt lat="45.91783079600581" lon="4.883679859398014"><ele>277.0</ele><time>2026-04-25T09:04:46Z</time></trkpt><trkpt lat="45.91793731641239" lon="4.883722971892343"><ele>276.5</ele><time>2026-04-25T09:04:47Z</time></trkpt><trkpt lat="45.91805502245019" lon="4.883748454901595"><ele>276.0</ele><time>2026-04-25T09:04:48Z</time></trkpt><trkpt lat="45.91817360674103" lon="4.883775102862542"><ele>276.0</ele><time>2026-04-25T09:04:49Z</time></trkpt><trkpt lat="45.918296174289715" lon="4.883778919257187"><ele>276.0</ele><time>2026-04-25T09:04:50Z</time></trkpt><trkpt lat="45.918410035087064" lon="4.8837786789947835"><ele>276.0</ele><time>2026-04-25T09:04:51Z</time></trkpt><trkpt lat="45.9185234902417" lon="4.883751027768043"><ele>276.0</ele><time>2026-04-25T09:04:52Z</time></trkpt><trkpt lat="45.91864264205454" lon="4.883716787249165"><ele>276.0</ele><time>2026-04-25T09:04:53Z</time></trkpt><trkpt lat="45.918764339850256" lon="4.883667036706423"><ele>276.0</ele><time>2026-04-25T09:04:54Z</time></trkpt><trkpt lat="45.918887479305546" lon="4.883608668482474"><ele>276.0</ele><time>2026-04-25T09:04:55Z</time></trkpt><trkpt lat="45.91900946234991" lon="4.883548277023418"><ele>276.0</ele><time>2026-04-25T09:04:56Z</time></trkpt><trkpt lat="45.91913186259674" lon="4.883487299558212"><ele>276.75</ele><time>2026-04-25T09:04:57Z</time></trkpt><trkpt lat="45.91926542412072" lon="4.88344719045271"><ele>277.5</ele><time>2026-04-25T09:04:58Z</time></trkpt><trkpt lat="45.91939768785061" lon="4.883392995824386"><ele>278.25</ele><time>2026-04-25T09:04:59Z</time></trkpt><trkpt lat="45.91953307018886" lon="4.883312954370653"><ele>279.0</ele><time>2026-04-25T09:05:00Z</time></trkpt><trkpt lat="45.919664956084404" lon="4.883244461501005"><ele>279.2</ele><time>2026-04-25T09:05:01Z</time></trkpt><trkpt lat="45.91977492778477" lon="4.883185831260023"><ele>279.4</ele><time>2026-04-25T09:05:02Z</time></trkpt><trkpt lat="45.91986593251563" lon="4.883126338853308"><ele>279.6</ele><time>2026-04-25T09:05:03Z</time></trkpt><trkpt lat="45.91994110988597" lon="4.883071965728029"><ele>279.8</ele><time>2026-04-25T09:05:04Z</time></trkpt><trkpt lat="45.92000465715146" lon="4.883023112044089"><ele>280.0</ele><time>2026-04-25T09:05:05Z</time></trkpt><trkpt lat="45.92009872023812" lon="4.882967485949173"><ele>281.0</ele><time>2026-04-25T09:05:07Z</time></trkpt><trkpt lat="45.92021597477167" lon="4.882910074997608"><ele>282.0</ele><time>2026-04-25T09:05:09Z</time></trkpt><trkpt lat="45.920279297864894" lon="4.8828705950516555"><ele>283.0</ele><time>2026-04-25T09:05:10Z</time></trkpt><trkpt lat="45.92035541796987" lon="4.882833476816178"><ele>284.0</ele><time>2026-04-25T09:05:11Z</time></trkpt><trkpt lat="45.92042701410193" lon="4.882801708802683"><ele>285.0</ele><time>2026-04-25T09:05:12.001Z</time></trkpt><trkpt lat="45.920505102046" lon="4.882752186635847"><ele>286.0</ele><time>2026-04-25T09:05:13.001Z</time></trkpt><trkpt lat="45.92058624284551" lon="4.88270792613863"><ele>286.0</ele><time>2026-04-25T09:05:14.001Z</time></trkpt><trkpt lat="45.92066408360319" lon="4.882662967851535"><ele>286.0</ele><time>2026-04-25T09:05:15.001Z</time></trkpt><trkpt lat="45.92072837033567" lon="4.882619128973218"><ele>286.0</ele><time>2026-04-25T09:05:16.001Z</time></trkpt><trkpt lat="45.92079845666194" lon="4.882577888950926"><ele>286.0</ele><time>2026-04-25T09:05:17.001Z</time></trkpt><trkpt lat="45.92086650065423" lon="4.882516337513319"><ele>286.0</ele><time>2026-04-25T09:05:18.001Z</time></trkpt><trkpt lat="45.92095116914499" lon="4.882465167253077"><ele>286.0</ele><time>2026-04-25T09:05:19.001Z</time></trkpt><trkpt lat="45.921024606967656" lon="4.882385406307739"><ele>286.8333333333333</ele><time>2026-04-25T09:05:20.001Z</time></trkpt><trkpt lat="45.92110811414303" lon="4.882307554065674"><ele>287.66666666666663</ele><time>2026-04-25T09:05:21.001Z</time></trkpt><trkpt lat="45.92117962485038" lon="4.882230962763854"><ele>288.5</ele><time>2026-04-25T09:05:22.001Z</time></trkpt><trkpt lat="45.921239187010826" lon="4.882179184758545"><ele>289.3333333333333</ele><time>2026-04-25T09:05:23.001Z</time></trkpt><trkpt lat="45.92130091532729" lon="4.882139163422736"><ele>290.1666666666667</ele><time>2026-04-25T09:05:24.001Z</time></trkpt><trkpt lat="45.921367247383216" lon="4.882096245673701"><ele>291.0</ele><time>2026-04-25T09:05:25.001Z</time></trkpt><trkpt lat="45.921439628091726" lon="4.88206609040316"><ele>291.0</ele><time>2026-04-25T09:05:26.001Z</time></trkpt><trkpt lat="45.921515304453585" lon="4.882047646144692"><ele>291.0</ele><time>2026-04-25T09:05:27.001Z</time></trkpt><trkpt lat="45.92159841658858" lon="4.882041899677107"><ele>291.0</ele><time>2026-04-25T09:05:28.001Z</time></trkpt><trkpt lat="45.921687589466245" lon="4.88203402690078"><ele>291.0</ele><time>2026-04-25T09:05:29.001Z</time></trkpt><trkpt lat="45.921797283558675" lon="4.882032128956261"><ele>291.0</ele><time>2026-04-25T09:05:30.001Z</time></trkpt><trkpt lat="45.92194777860734" lon="4.8820383720304195"><ele>291.8</ele><time>2026-04-25T09:05:31.001Z</time></trkpt><trkpt lat="45.92206470821719" lon="4.882044871241522"><ele>292.6</ele><time>2026-04-25T09:05:32.001Z</time></trkpt><trkpt lat="45.92215973607" lon="4.8820566616411245"><ele>293.4</ele><time>2026-04-25T09:05:33.001Z</time></trkpt><trkpt lat="45.9222598060481" lon="4.882046108684376"><ele>294.2</ele><time>2026-04-25T09:05:34.001Z</time></trkpt><trkpt lat="45.922338113840695" lon="4.882053920225566"><ele>295.0</ele><time>2026-04-25T09:05:35.001Z</time></trkpt><trkpt lat="45.922410433193505" lon="4.8820574096584215"><ele>295.0</ele><time>2026-04-25T09:05:36.001Z</time></trkpt><trkpt lat="45.922537525681626" lon="4.882052398677272"><ele>295.0</ele><time>2026-04-25T09:05:38.001Z</time></trkpt><trkpt lat="45.922619822283316" lon="4.882057268089245"><ele>295.0</ele><time>2026-04-25T09:05:39.001Z</time></trkpt><trkpt lat="45.922740189442756" lon="4.882059996930598"><ele>295.0</ele><time>2026-04-25T09:05:41.001Z</time></trkpt><trkpt lat="45.922815523097114" lon="4.8820553835209815"><ele>295.0</ele><time>2026-04-25T09:05:42.001Z</time></trkpt><trkpt lat="45.922904435959964" lon="4.882041305822404"><ele>294.75</ele><time>2026-04-25T09:05:43.001Z</time></trkpt><trkpt lat="45.923017118689906" lon="4.882054318332231"><ele>294.5</ele><time>2026-04-25T09:05:44.001Z</time></trkpt><trkpt lat="45.92313714383405" lon="4.8820555343401"><ele>294.25</ele><time>2026-04-25T09:05:45.001Z</time></trkpt><trkpt lat="45.92325709761037" lon="4.882069827436984"><ele>294.0</ele><time>2026-04-25T09:05:46.001Z</time></trkpt><trkpt lat="45.92339360172527" lon="4.882069798600065"><ele>293.3333333333333</ele><time>2026-04-25T09:05:47.001Z</time></trkpt><trkpt lat="45.92354015143905" lon="4.882060276423802"><ele>292.66666666666663</ele><time>2026-04-25T09:05:48.001Z</time></trkpt><trkpt lat="45.923700346510564" lon="4.882064413522389"><ele>292.0</ele><time>2026-04-25T09:05:49.001Z</time></trkpt><trkpt lat="45.92386181945138" lon="4.882067378710991"><ele>292.0</ele><time>2026-04-25T09:05:50.001Z</time></trkpt><trkpt lat="45.92400423879733" lon="4.8820625693182045"><ele>292.0</ele><time>2026-04-25T09:05:51.001Z</time></trkpt><trkpt lat="45.92413522035" lon="4.8820599703257015"><ele>292.0</ele><time>2026-04-25T09:05:52.001Z</time></trkpt><trkpt lat="45.924256030355274" lon="4.882057840843536"><ele>292.0</ele><time>2026-04-25T09:05:53.001Z</time></trkpt><trkpt lat="45.92436439204759" lon="4.882061503245395"><ele>291.5</ele><time>2026-04-25T09:05:54.001Z</time></trkpt><trkpt lat="45.924472388316396" lon="4.882062929997332"><ele>291.0</ele><time>2026-04-25T09:05:55.001Z</time></trkpt><trkpt lat="45.924593001369004" lon="4.8820653423736"><ele>290.5</ele><time>2026-04-25T09:05:56.001Z</time></trkpt><trkpt lat="45.924721723612976" lon="4.882066523226011"><ele>290.0</ele><time>2026-04-25T09:05:57.001Z</time></trkpt><trkpt lat="45.924865180861566" lon="4.882068835046145"><ele>290.0</ele><time>2026-04-25T09:05:58.001Z</time></trkpt><trkpt lat="45.92501793367609" lon="4.882065113179097"><ele>290.0</ele><time>2026-04-25T09:05:59.001Z</time></trkpt><trkpt lat="45.92518138417724" lon="4.882065419455818"><ele>290.0</ele><time>2026-04-25T09:06:00.001Z</time></trkpt><trkpt lat="45.92536178867806" lon="4.882081704170356"><ele>290.0</ele><time>2026-04-25T09:06:01.001Z</time></trkpt><trkpt lat="45.92554598111486" lon="4.882080630026211"><ele>290.0</ele><time>2026-04-25T09:06:02.001Z</time></trkpt><trkpt lat="45.9257553978883" lon="4.882081253542903"><ele>290.0</ele><time>2026-04-25T09:06:03.001Z</time></trkpt><trkpt lat="45.92597410678381" lon="4.882078751912211"><ele>290.6666666666667</ele><time>2026-04-25T09:06:04.001Z</time></trkpt><trkpt lat="45.926185397142184" lon="4.882079816848824"><ele>291.3333333333333</ele><time>2026-04-25T09:06:05.001Z</time></trkpt><trkpt lat="45.92640551781924" lon="4.882079493037009"><ele>292.0</ele><time>2026-04-25T09:06:06.001Z</time></trkpt><trkpt lat="45.926634285135755" lon="4.882079115722254"><ele>292.0</ele><time>2026-04-25T09:06:07.001Z</time></trkpt><trkpt lat="45.926873723484775" lon="4.882081608525046"><ele>292.0</ele><time>2026-04-25T09:06:08.001Z</time></trkpt><trkpt lat="45.92710377722754" lon="4.882081344900756"><ele>292.0</ele><time>2026-04-25T09:06:09.001Z</time></trkpt><trkpt lat="45.927309210973185" lon="4.88208388491079"><ele>292.0</ele><time>2026-04-25T09:06:10.001Z</time></trkpt><trkpt lat="45.92751151996833" lon="4.882082102963112"><ele>292.0</ele><time>2026-04-25T09:06:11.001Z</time></trkpt><trkpt lat="45.9277267260723" lon="4.882086505956127"><ele>291.66666666666663</ele><time>2026-04-25T09:06:12.001Z</time></trkpt><trkpt lat="45.92794691205859" lon="4.882089578307751"><ele>291.3333333333333</ele><time>2026-04-25T09:06:13.001Z</time></trkpt><trkpt lat="45.928166916240684" lon="4.882095717586226"><ele>291.0</ele><time>2026-04-25T09:06:14.001Z</time></trkpt><trkpt lat="45.92839426519501" lon="4.882104021279836"><ele>290.5</ele><time>2026-04-25T09:06:15.001Z</time></trkpt><trkpt lat="45.928622442423595" lon="4.882099922538891"><ele>290.0</ele><time>2026-04-25T09:06:16.001Z</time></trkpt><trkpt lat="45.92885486192878" lon="4.882105669777951"><ele>290.0</ele><time>2026-04-25T09:06:17.001Z</time></trkpt><trkpt lat="45.92909146371667" lon="4.882108210240164"><ele>290.0</ele><time>2026-04-25T09:06:18.001Z</time></trkpt><trkpt lat="45.929313484156225" lon="4.8821087162004835"><ele>290.33333333333337</ele><time>2026-04-25T09:06:19.001Z</time></trkpt><trkpt lat="45.92951043278391" lon="4.882112658182694"><ele>290.6666666666667</ele><time>2026-04-25T09:06:20.001Z</time></trkpt><trkpt lat="45.92971023990306" lon="4.882112150333764"><ele>291.0</ele><time>2026-04-25T09:06:21.001Z</time></trkpt><trkpt lat="45.92990985428931" lon="4.882111070018308"><ele>291.3333333333333</ele><time>2026-04-25T09:06:22.001Z</time></trkpt><trkpt lat="45.93011258615273" lon="4.882117683963515"><ele>291.66666666666663</ele><time>2026-04-25T09:06:23.001Z</time></trkpt><trkpt lat="45.93032248656517" lon="4.882119163141559"><ele>292.0</ele><time>2026-04-25T09:06:24.001Z</time></trkpt><trkpt lat="45.93052599173983" lon="4.8821203340293495"><ele>292.0</ele><time>2026-04-25T09:06:25.001Z</time></trkpt><trkpt lat="45.930726695710725" lon="4.882125693674885"><ele>292.0</ele><time>2026-04-25T09:06:26.001Z</time></trkpt><trkpt lat="45.93093362719635" lon="4.882119755137451"><ele>292.0</ele><time>2026-04-25T09:06:27.001Z</time></trkpt><trkpt lat="45.93113781107374" lon="4.8821288081861"><ele>292.0</ele><time>2026-04-25T09:06:28.001Z</time></trkpt><trkpt lat="45.93135161177247" lon="4.882123575362377"><ele>292.0</ele><time>2026-04-25T09:06:29.001Z</time></trkpt><trkpt lat="45.931570808583785" lon="4.882128279124474"><ele>292.0</ele><time>2026-04-25T09:06:30.001Z</time></trkpt><trkpt lat="45.931766632425884" lon="4.8821310287798125"><ele>291.3333333333333</ele><time>2026-04-25T09:06:31.001Z</time></trkpt><trkpt lat="45.93195348767529" lon="4.882134711065595"><ele>290.6666666666667</ele><time>2026-04-25T09:06:32.001Z</time></trkpt><trkpt lat="45.93213376157089" lon="4.8821368630174735"><ele>290.0</ele><time>2026-04-25T09:06:33.001Z</time></trkpt><trkpt lat="45.93230200883781" lon="4.882139669967241"><ele>290.0</ele><time>2026-04-25T09:06:34.001Z</time></trkpt><trkpt lat="45.93246043794082" lon="4.882139679945361"><ele>290.0</ele><time>2026-04-25T09:06:35.001Z</time></trkpt><trkpt lat="45.932609165788435" lon="4.88213865830403"><ele>290.0</ele><time>2026-04-25T09:06:36.001Z</time></trkpt><trkpt lat="45.932754262690565" lon="4.8821395264871885"><ele>290.25</ele><time>2026-04-25T09:06:37.001Z</time></trkpt><trkpt lat="45.932890806960664" lon="4.882145268201387"><ele>290.5</ele><time>2026-04-25T09:06:38Z</time></trkpt><trkpt lat="45.93301595971392" lon="4.882136233447207"><ele>290.75</ele><time>2026-04-25T09:06:39Z</time></trkpt><trkpt lat="45.933137679364506" lon="4.882141566402366"><ele>291.0</ele><time>2026-04-25T09:06:40Z</time></trkpt><trkpt lat="45.933256350675535" lon="4.882142262393803"><ele>291.0</ele><time>2026-04-25T09:06:41Z</time></trkpt><trkpt lat="45.93337692996065" lon="4.882141080778318"><ele>291.0</ele><time>2026-04-25T09:06:42Z</time></trkpt><trkpt lat="45.93349554497465" lon="4.882138921630829"><ele>291.0</ele><time>2026-04-25T09:06:43Z</time></trkpt><trkpt lat="45.93362199195501" lon="4.882136450416843"><ele>291.0</ele><time>2026-04-25T09:06:44Z</time></trkpt><trkpt lat="45.93374743962838" lon="4.8821464228441025"><ele>290.6</ele><time>2026-04-25T09:06:45Z</time></trkpt><trkpt lat="45.93386152654014" lon="4.8821373073600665"><ele>290.20000000000005</ele><time>2026-04-25T09:06:46Z</time></trkpt><trkpt lat="45.933968767903075" lon="4.882147523110785"><ele>289.79999999999995</ele><time>2026-04-25T09:06:47Z</time></trkpt><trkpt lat="45.93407098109165" lon="4.882148065035029"><ele>289.4</ele><time>2026-04-25T09:06:48Z</time></trkpt><trkpt lat="45.93416578376989" lon="4.882149775316291"><ele>289.0</ele><time>2026-04-25T09:06:49Z</time></trkpt><trkpt lat="45.93425581147921" lon="4.882147683113534"><ele>289.0</ele><time>2026-04-25T09:06:50Z</time></trkpt><trkpt lat="45.934342425380336" lon="4.8821519552323895"><ele>289.0</ele><time>2026-04-25T09:06:51Z</time></trkpt><trkpt lat="45.93442770972186" lon="4.882177024193959"><ele>289.0</ele><time>2026-04-25T09:06:52Z</time></trkpt><trkpt lat="45.93450683049483" lon="4.882205926484962"><ele>289.0</ele><time>2026-04-25T09:06:53Z</time></trkpt><trkpt lat="45.93457720263804" lon="4.88224000204081"><ele>289.0</ele><time>2026-04-25T09:06:54Z</time></trkpt><trkpt lat="45.9346474674299" lon="4.8822364482798095"><ele>289.0</ele><time>2026-04-25T09:06:55Z</time></trkpt><trkpt lat="45.934753147414085" lon="4.882392758555599"><ele>289.0</ele><time>2026-04-25T09:06:57Z</time></trkpt><trkpt lat="45.93481751663569" lon="4.882413236716248"><ele>289.0</ele><time>2026-04-25T09:06:58Z</time></trkpt><trkpt lat="45.93489058165645" lon="4.8824024846732685"><ele>289.0</ele><time>2026-04-25T09:06:59Z</time></trkpt><trkpt lat="45.934966859778385" lon="4.882358976540845"><ele>289.0</ele><time>2026-04-25T09:07:00Z</time></trkpt><trkpt lat="45.93503827018761" lon="4.882293381916754"><ele>289.0</ele><time>2026-04-25T09:07:01Z</time></trkpt><trkpt lat="45.93512357413606" lon="4.882231469577781"><ele>289.0</ele><time>2026-04-25T09:07:02Z</time></trkpt><trkpt lat="45.93522356524025" lon="4.882194177041255"><ele>288.25</ele><time>2026-04-25T09:07:03Z</time></trkpt><trkpt lat="45.93533512037468" lon="4.882177712498806"><ele>287.5</ele><time>2026-04-25T09:07:04Z</time></trkpt><trkpt lat="45.93546298344569" lon="4.882163009815093"><ele>286.75</ele><time>2026-04-25T09:07:05Z</time></trkpt><trkpt lat="45.93560033750114" lon="4.882166901573439"><ele>286.0</ele><time>2026-04-25T09:07:06Z</time></trkpt><trkpt lat="45.93575366701279" lon="4.882170522338746"><ele>285.66666666666663</ele><time>2026-04-25T09:07:07Z</time></trkpt><trkpt lat="45.93592004883663" lon="4.882162420257853"><ele>285.3333333333333</ele><time>2026-04-25T09:07:08Z</time></trkpt><trkpt lat="45.936085008288494" lon="4.882149583452909"><ele>285.0</ele><time>2026-04-25T09:07:09Z</time></trkpt><trkpt lat="45.93627563016218" lon="4.882140533984478"><ele>285.0</ele><time>2026-04-25T09:07:10Z</time></trkpt><trkpt lat="45.936470910021455" lon="4.882143032145156"><ele>285.0</ele><time>2026-04-25T09:07:11Z</time></trkpt><trkpt lat="45.93667764753418" lon="4.882151395196925"><ele>285.0</ele><time>2026-04-25T09:07:12Z</time></trkpt><trkpt lat="45.93689443088758" lon="4.882137510744512"><ele>286.0</ele><time>2026-04-25T09:07:13Z</time></trkpt><trkpt lat="45.93712306664572" lon="4.8820967708768235"><ele>287.0</ele><time>2026-04-25T09:07:14Z</time></trkpt><trkpt lat="45.937293581342345" lon="4.882165263931"><ele>288.0</ele><time>2026-04-25T09:07:15Z</time></trkpt><trkpt lat="45.93750821844449" lon="4.882170022884926"><ele>289.3333333333333</ele><time>2026-04-25T09:07:16Z</time></trkpt><trkpt lat="45.937698967466375" lon="4.882172498586655"><ele>290.66666666666663</ele><time>2026-04-25T09:07:17Z</time></trkpt><trkpt lat="45.93788801497369" lon="4.882173045275739"><ele>292.0</ele><time>2026-04-25T09:07:18Z</time></trkpt><trkpt lat="45.938078153074045" lon="4.8821714862265155"><ele>292.0</ele><time>2026-04-25T09:07:19Z</time></trkpt><trkpt lat="45.938266502040264" lon="4.882172666455163"><ele>292.0</ele><time>2026-04-25T09:07:20Z</time></trkpt><trkpt lat="45.93845799809767" lon="4.88217711104343"><ele>292.0</ele><time>2026-04-25T09:07:21Z</time></trkpt><trkpt lat="45.938641517976535" lon="4.882173329372406"><ele>292.0</ele><time>2026-04-25T09:07:22Z</time></trkpt><trkpt lat="45.93883179368122" lon="4.882179554330389"><ele>292.0</ele><time>2026-04-25T09:07:23Z</time></trkpt><trkpt lat="45.9390219620516" lon="4.8821755438538075"><ele>292.0</ele><time>2026-04-25T09:07:24Z</time></trkpt><trkpt lat="45.93921278296738" lon="4.88217184446515"><ele>290.3333333333333</ele><time>2026-04-25T09:07:25Z</time></trkpt><trkpt lat="45.93940926292384" lon="4.882173716887716"><ele>288.6666666666667</ele><time>2026-04-25T09:07:26Z</time></trkpt><trkpt lat="45.93959101545201" lon="4.882176010895963"><ele>287.0</ele><time>2026-04-25T09:07:27Z</time></trkpt><trkpt lat="45.93977085966161" lon="4.8821821749522245"><ele>287.0</ele><time>2026-04-25T09:07:28Z</time></trkpt><trkpt lat="45.9399580027504" lon="4.882204474257816"><ele>287.0</ele><time>2026-04-25T09:07:29Z</time></trkpt><trkpt lat="45.94014885567655" lon="4.88222848528054"><ele>287.0</ele><time>2026-04-25T09:07:30Z</time></trkpt><trkpt lat="45.940352291084885" lon="4.882263995089325"><ele>285.33333333333337</ele><time>2026-04-25T09:07:31Z</time></trkpt><trkpt lat="45.94056790370417" lon="4.882297791594395"><ele>283.6666666666667</ele><time>2026-04-25T09:07:32Z</time></trkpt><trkpt lat="45.94078861287429" lon="4.8823329232167785"><ele>282.0</ele><time>2026-04-25T09:07:33Z</time></trkpt><trkpt lat="45.940986910645144" lon="4.882363243102858"><ele>281.0</ele><time>2026-04-25T09:07:34Z</time></trkpt><trkpt lat="45.94117978125158" lon="4.882392758776835"><ele>280.0</ele><time>2026-04-25T09:07:35Z</time></trkpt><trkpt lat="45.941385536870015" lon="4.8824229176363225"><ele>279.0</ele><time>2026-04-25T09:07:36Z</time></trkpt><trkpt lat="45.941606112459624" lon="4.882457246134577"><ele>278.6666666666667</ele><time>2026-04-25T09:07:37Z</time></trkpt><trkpt lat="45.94180115781209" lon="4.8824817199598"><ele>278.33333333333337</ele><time>2026-04-25T09:07:38Z</time></trkpt><trkpt lat="45.94198420662377" lon="4.882509384229435"><ele>278.0</ele><time>2026-04-25T09:07:39Z</time></trkpt><trkpt lat="45.9421831679334" lon="4.882542831424987"><ele>278.0</ele><time>2026-04-25T09:07:40Z</time></trkpt><trkpt lat="45.942382556414756" lon="4.882572606273721"><ele>278.0</ele><time>2026-04-25T09:07:41Z</time></trkpt><trkpt lat="45.94257968349551" lon="4.882599893914151"><ele>278.0</ele><time>2026-04-25T09:07:42Z</time></trkpt><trkpt lat="45.94278816393293" lon="4.88262995934926"><ele>277.6666666666667</ele><time>2026-04-25T09:07:43Z</time></trkpt><trkpt lat="45.94299988242161" lon="4.882661715857443"><ele>277.3333333333333</ele><time>2026-04-25T09:07:44Z</time></trkpt><trkpt lat="45.94320732691816" lon="4.88269255938119"><ele>277.0</ele><time>2026-04-25T09:07:45Z</time></trkpt><trkpt lat="45.943414148995444" lon="4.882722338251748"><ele>276.66666666666663</ele><time>2026-04-25T09:07:46Z</time></trkpt><trkpt lat="45.94362315990923" lon="4.882752552506965"><ele>276.3333333333333</ele><time>2026-04-25T09:07:47.001Z</time></trkpt><trkpt lat="45.94382385210959" lon="4.882784078933262"><ele>276.0</ele><time>2026-04-25T09:07:48.001Z</time></trkpt><trkpt lat="45.94402424635627" lon="4.882814557745322"><ele>276.0</ele><time>2026-04-25T09:07:49.001Z</time></trkpt><trkpt lat="45.94422888930133" lon="4.88284412675586"><ele>276.0</ele><time>2026-04-25T09:07:50.001Z</time></trkpt><trkpt lat="45.944432919441766" lon="4.882870686383448"><ele>276.0</ele><time>2026-04-25T09:07:51.001Z</time></trkpt><trkpt lat="45.94464130538203" lon="4.8828992079993"><ele>276.0</ele><time>2026-04-25T09:07:52.001Z</time></trkpt><trkpt lat="45.94484240301278" lon="4.882927379068096"><ele>276.0</ele><time>2026-04-25T09:07:53.001Z</time></trkpt><trkpt lat="45.94502351577931" lon="4.882949186306555"><ele>276.0</ele><time>2026-04-25T09:07:54.001Z</time></trkpt><trkpt lat="45.945197923545635" lon="4.882977350506943"><ele>275.6666666666667</ele><time>2026-04-25T09:07:55.001Z</time></trkpt><trkpt lat="45.94537404268834" lon="4.883002694250683"><ele>275.33333333333337</ele><time>2026-04-25T09:07:56.001Z</time></trkpt><trkpt lat="45.94556056917088" lon="4.8830246546016625"><ele>275.0</ele><time>2026-04-25T09:07:57.001Z</time></trkpt><trkpt lat="45.945747062204155" lon="4.883051822989702"><ele>275.33333333333337</ele><time>2026-04-25T09:07:58.001Z</time></trkpt><trkpt lat="45.94593889693199" lon="4.8830850088479965"><ele>275.6666666666667</ele><time>2026-04-25T09:07:59.001Z</time></trkpt><trkpt lat="45.94612770551516" lon="4.883107912407288"><ele>276.0</ele><time>2026-04-25T09:08:00.001Z</time></trkpt><trkpt lat="45.94629819865296" lon="4.883130428388982"><ele>276.0</ele><time>2026-04-25T09:08:01.001Z</time></trkpt><trkpt lat="45.94646284247443" lon="4.883155039526186"><ele>276.0</ele><time>2026-04-25T09:08:02.001Z</time></trkpt><trkpt lat="45.946626441376125" lon="4.883174761142803"><ele>276.0</ele><time>2026-04-25T09:08:03.001Z</time></trkpt><trkpt lat="45.94678790268965" lon="4.883193365690798"><ele>276.3333333333333</ele><time>2026-04-25T09:08:04.001Z</time></trkpt><trkpt lat="45.94695803978013" lon="4.883221079637823"><ele>276.66666666666663</ele><time>2026-04-25T09:08:05.001Z</time></trkpt><trkpt lat="45.94711080975745" lon="4.883247404307316"><ele>277.0</ele><time>2026-04-25T09:08:06.001Z</time></trkpt><trkpt lat="45.947256631264665" lon="4.883257394517259"><ele>277.0</ele><time>2026-04-25T09:08:07.001Z</time></trkpt><trkpt lat="45.94739836900118" lon="4.883275466884323"><ele>277.0</ele><time>2026-04-25T09:08:08.001Z</time></trkpt><trkpt lat="45.94753318589014" lon="4.883311884737753"><ele>277.0</ele><time>2026-04-25T09:08:09.001Z</time></trkpt><trkpt lat="45.947662823073365" lon="4.883320518644682"><ele>277.0</ele><time>2026-04-25T09:08:10.001Z</time></trkpt><trkpt lat="45.94779336448606" lon="4.883339182864482"><ele>277.5</ele><time>2026-04-25T09:08:11.001Z</time></trkpt><trkpt lat="45.94791719722124" lon="4.883359648934621"><ele>278.0</ele><time>2026-04-25T09:08:12.001Z</time></trkpt><trkpt lat="45.94803325310939" lon="4.883373120933225"><ele>278.5</ele><time>2026-04-25T09:08:13.001Z</time></trkpt><trkpt lat="45.94814382893385" lon="4.883379187938479"><ele>279.0</ele><time>2026-04-25T09:08:14.001Z</time></trkpt><trkpt lat="45.94827105725988" lon="4.883376303051822"><ele>279.59999999999997</ele><time>2026-04-25T09:08:15.001Z</time></trkpt><trkpt lat="45.94839056145169" lon="4.883342620661745"><ele>280.2</ele><time>2026-04-25T09:08:16.001Z</time></trkpt><trkpt lat="45.94849333969634" lon="4.883314990341356"><ele>280.79999999999995</ele><time>2026-04-25T09:08:17.001Z</time></trkpt><trkpt lat="45.948590871868674" lon="4.883291901074657"><ele>281.4</ele><time>2026-04-25T09:08:18.001Z</time></trkpt><trkpt lat="45.94869308827527" lon="4.883277991099026"><ele>282.0</ele><time>2026-04-25T09:08:19.001Z</time></trkpt><trkpt lat="45.94879733466529" lon="4.883266374092637"><ele>282.0</ele><time>2026-04-25T09:08:20.001Z</time></trkpt><trkpt lat="45.94889605204777" lon="4.883237785648329"><ele>282.0</ele><time>2026-04-25T09:08:21.001Z</time></trkpt><trkpt lat="45.94900100895704" lon="4.883200662760876"><ele>282.0</ele><time>2026-04-25T09:08:22.001Z</time></trkpt><trkpt lat="45.94911150104168" lon="4.8831465731540655"><ele>282.0</ele><time>2026-04-25T09:08:23.001Z</time></trkpt><trkpt lat="45.94921134911236" lon="4.883090758718393"><ele>282.0</ele><time>2026-04-25T09:08:24.001Z</time></trkpt><trkpt lat="45.94930234140393" lon="4.883037743269766"><ele>282.5</ele><time>2026-04-25T09:08:25.001Z</time></trkpt><trkpt lat="45.949387116235336" lon="4.883009186390647"><ele>283.0</ele><time>2026-04-25T09:08:26.001Z</time></trkpt><trkpt lat="45.94946908382112" lon="4.882984357048449"><ele>283.5</ele><time>2026-04-25T09:08:27.001Z</time></trkpt><trkpt lat="45.94954249409185" lon="4.882949065490947"><ele>284.0</ele><time>2026-04-25T09:08:28.001Z</time></trkpt><trkpt lat="45.94961959576731" lon="4.882916841126049"><ele>284.5</ele><time>2026-04-25T09:08:29.001Z</time></trkpt><trkpt lat="45.949706016793556" lon="4.882886238737988"><ele>285.0</ele><time>2026-04-25T09:08:30.001Z</time></trkpt><trkpt lat="45.94978513527221" lon="4.88285850567366"><ele>285.0</ele><time>2026-04-25T09:08:31.001Z</time></trkpt><trkpt lat="45.949850438840826" lon="4.882836830804088"><ele>285.0</ele><time>2026-04-25T09:08:32.001Z</time></trkpt><trkpt lat="45.949976529520576" lon="4.8827862059246065"><ele>285.0</ele><time>2026-04-25T09:08:34Z</time></trkpt><trkpt lat="45.95005566182915" lon="4.882757498289004"><ele>285.0</ele><time>2026-04-25T09:08:35Z</time></trkpt><trkpt lat="45.950193407131806" lon="4.882708801882141"><ele>285.0</ele><time>2026-04-25T09:08:37Z</time></trkpt><trkpt lat="45.950257255894755" lon="4.882682698657634"><ele>285.3333333333333</ele><time>2026-04-25T09:08:38Z</time></trkpt><trkpt lat="45.95032144247599" lon="4.882659658715956"><ele>285.6666666666667</ele><time>2026-04-25T09:08:39Z</time></trkpt><trkpt lat="45.95043276318643" lon="4.882618160081165"><ele>286.0</ele><time>2026-04-25T09:08:41Z</time></trkpt><trkpt lat="45.95052355408238" lon="4.882586696054667"><ele>286.33333333333337</ele><time>2026-04-25T09:08:43Z</time></trkpt><trkpt lat="45.9506068934994" lon="4.882554670730969"><ele>286.6666666666667</ele><time>2026-04-25T09:08:45Z</time></trkpt><trkpt lat="45.950676078095846" lon="4.88252671553034"><ele>287.0</ele><time>2026-04-25T09:08:47Z</time></trkpt><trkpt lat="45.95075929296472" lon="4.882503128124248"><ele>287.0</ele><time>2026-04-25T09:08:50Z</time></trkpt><trkpt lat="45.95081728845822" lon="4.8824663255482905"><ele>287.0</ele><time>2026-04-25T09:08:54Z</time></trkpt><trkpt lat="45.950894584179004" lon="4.882454469143815"><ele>287.0</ele><time>2026-04-25T09:09:02Z</time></trkpt><trkpt lat="45.950961013962136" lon="4.882442152101671"><ele>287.0</ele><time>2026-04-25T09:09:05Z</time></trkpt><trkpt lat="45.95105702394619" lon="4.882423595763743"><ele>287.0</ele><time>2026-04-25T09:09:09Z</time></trkpt><trkpt lat="45.9511330643171" lon="4.882468101142513"><ele>287.0</ele><time>2026-04-25T09:09:12Z</time></trkpt><trkpt lat="45.95116627123546" lon="4.882583208466008"><ele>287.5</ele><time>2026-04-25T09:09:14Z</time></trkpt><trkpt lat="45.95118721731089" lon="4.88267962793827"><ele>288.0</ele><time>2026-04-25T09:09:16Z</time></trkpt><trkpt lat="45.95122452748421" lon="4.882784321696602"><ele>288.5</ele><time>2026-04-25T09:09:19Z</time></trkpt><trkpt lat="45.95134690856315" lon="4.882458613595323"><ele>289.0</ele><time>2026-04-25T09:09:20Z</time></trkpt><trkpt lat="45.951159521848105" lon="4.882344394611688"><ele>289.0</ele><time>2026-04-25T09:09:23Z</time></trkpt><trkpt lat="45.95123023050909" lon="4.882517251106929"><ele>289.0</ele><time>2026-04-25T09:09:25Z</time></trkpt><trkpt lat="45.951333004508164" lon="4.882457678119258"><ele>289.0</ele><time>2026-04-25T09:10:58Z</time></trkpt><trkpt lat="45.95119329661353" lon="4.882680571198658"><ele>289.0</ele><time>2026-04-25T09:11:06Z</time></trkpt><trkpt lat="45.95120766233777" lon="4.882572384030503"><ele>289.0</ele><time>2026-04-25T09:11:14Z</time></trkpt><trkpt lat="45.951221884910616" lon="4.882481336993596"><ele>289.0</ele><time>2026-04-25T09:11:17Z</time></trkpt><trkpt lat="45.951167916359864" lon="4.882376607080587"><ele>289.0</ele><time>2026-04-25T09:11:28Z</time></trkpt><trkpt lat="45.95104177481752" lon="4.882365407119389"><ele>289.0</ele><time>2026-04-25T09:11:30Z</time></trkpt><trkpt lat="45.950963010946275" lon="4.88239072945496"><ele>289.0</ele><time>2026-04-25T09:11:31Z</time></trkpt><trkpt lat="45.9508680704978" lon="4.882420368371368"><ele>288.5</ele><time>2026-04-25T09:11:32Z</time></trkpt><trkpt lat="45.950763531838376" lon="4.882453195341148"><ele>288.0</ele><time>2026-04-25T09:11:33Z</time></trkpt><trkpt lat="45.95065954808526" lon="4.882488439122135"><ele>287.5</ele><time>2026-04-25T09:11:34Z</time></trkpt><trkpt lat="45.9505286752078" lon="4.8825356589413715"><ele>287.0</ele><time>2026-04-25T09:11:35Z</time></trkpt><trkpt lat="45.950382400906115" lon="4.882589268226603"><ele>287.33333333333337</ele><time>2026-04-25T09:11:36Z</time></trkpt><trkpt lat="45.950239352664184" lon="4.88264130072792"><ele>287.6666666666667</ele><time>2026-04-25T09:11:37Z</time></trkpt><trkpt lat="45.95008828911413" lon="4.882699316863323"><ele>288.0</ele><time>2026-04-25T09:11:38Z</time></trkpt><trkpt lat="45.94994750360989" lon="4.882760041815717"><ele>287.25</ele><time>2026-04-25T09:11:39Z</time></trkpt><trkpt lat="45.94982264170292" lon="4.882804484083047"><ele>286.5</ele><time>2026-04-25T09:11:40Z</time></trkpt><trkpt lat="45.94970363395381" lon="4.8828515166445445"><ele>285.75</ele><time>2026-04-25T09:11:41Z</time></trkpt><trkpt lat="45.94957161854284" lon="4.882900855135416"><ele>285.0</ele><time>2026-04-25T09:11:42Z</time></trkpt><trkpt lat="45.949430731762064" lon="4.882953294566683"><ele>285.0</ele><time>2026-04-25T09:11:43Z</time></trkpt><trkpt lat="45.94928413014676" lon="4.883004709997281"><ele>285.0</ele><time>2026-04-25T09:11:44Z</time></trkpt><trkpt lat="45.94914753841758" lon="4.883057322608287"><ele>285.0</ele><time>2026-04-25T09:11:45Z</time></trkpt><trkpt lat="45.949019594888526" lon="4.883103046897881"><ele>285.0</ele><time>2026-04-25T09:11:46Z</time></trkpt><trkpt lat="45.94888885137373" lon="4.883152577735258"><ele>284.0</ele><time>2026-04-25T09:11:47Z</time></trkpt><trkpt lat="45.94874859333161" lon="4.883204993932228"><ele>283.0</ele><time>2026-04-25T09:11:48Z</time></trkpt><trkpt lat="45.94859443690689" lon="4.883245692750708"><ele>282.0</ele><time>2026-04-25T09:11:49Z</time></trkpt><trkpt lat="45.94843072547756" lon="4.883278864548968"><ele>281.0</ele><time>2026-04-25T09:11:50Z</time></trkpt><trkpt lat="45.94827418310148" lon="4.883302679381766"><ele>280.0</ele><time>2026-04-25T09:11:51Z</time></trkpt><trkpt lat="45.948112345419794" lon="4.883314568265321"><ele>279.0</ele><time>2026-04-25T09:11:52Z</time></trkpt><trkpt lat="45.94794061147523" lon="4.883312254438917"><ele>279.0</ele><time>2026-04-25T09:11:53Z</time></trkpt><trkpt lat="45.947763751964544" lon="4.883286312873958"><ele>279.0</ele><time>2026-04-25T09:11:54Z</time></trkpt><trkpt lat="45.947583920266716" lon="4.8832661260458154"><ele>279.0</ele><time>2026-04-25T09:11:55Z</time></trkpt><trkpt lat="45.9473932790354" lon="4.883247619956975"><ele>278.3333333333333</ele><time>2026-04-25T09:11:56Z</time></trkpt><trkpt lat="45.94721356819029" lon="4.88321735920595"><ele>277.66666666666663</ele><time>2026-04-25T09:11:57Z</time></trkpt><trkpt lat="45.94703073401043" lon="4.883187532172691"><ele>277.0</ele><time>2026-04-25T09:11:58Z</time></trkpt><trkpt lat="45.94682587820306" lon="4.883159333948306"><ele>276.5</ele><time>2026-04-25T09:11:59Z</time></trkpt><trkpt lat="45.94660069854834" lon="4.883130208945291"><ele>276.0</ele><time>2026-04-25T09:12:00Z</time></trkpt><trkpt lat="45.94636487177369" lon="4.883100354240697"><ele>276.0</ele><time>2026-04-25T09:12:01Z</time></trkpt><trkpt lat="45.94615493337354" lon="4.883067531953074"><ele>276.0</ele><time>2026-04-25T09:12:02Z</time></trkpt><trkpt lat="45.94595706151396" lon="4.883037007690246"><ele>276.0</ele><time>2026-04-25T09:12:03Z</time></trkpt><trkpt lat="45.94575374495212" lon="4.883010173326886"><ele>275.6666666666667</ele><time>2026-04-25T09:12:04Z</time></trkpt><trkpt lat="45.94554778377792" lon="4.882977399347099"><ele>275.33333333333337</ele><time>2026-04-25T09:12:05Z</time></trkpt><trkpt lat="45.94534840353842" lon="4.882947386517764"><ele>275.0</ele><time>2026-04-25T09:12:06Z</time></trkpt><trkpt lat="45.9451550879147" lon="4.882917882545205"><ele>275.33333333333337</ele><time>2026-04-25T09:12:07Z</time></trkpt><trkpt lat="45.944970150585156" lon="4.882889096033112"><ele>275.6666666666667</ele><time>2026-04-25T09:12:08Z</time></trkpt><trkpt lat="45.94477735595176" lon="4.882863503583719"><ele>276.0</ele><time>2026-04-25T09:12:09Z</time></trkpt><trkpt lat="45.944580674370584" lon="4.882834264871793"><ele>276.0</ele><time>2026-04-25T09:12:10Z</time></trkpt><trkpt lat="45.94437981935424" lon="4.882807194601034"><ele>276.0</ele><time>2026-04-25T09:12:11Z</time></trkpt><trkpt lat="45.94417474696221" lon="4.882778163367735"><ele>276.0</ele><time>2026-04-25T09:12:12Z</time></trkpt><trkpt lat="45.94397115527315" lon="4.8827488472265905"><ele>276.0</ele><time>2026-04-25T09:12:13Z</time></trkpt><trkpt lat="45.943768538012755" lon="4.882720745715762"><ele>276.0</ele><time>2026-04-25T09:12:14Z</time></trkpt><trkpt lat="45.94355602375829" lon="4.882691412010947"><ele>276.0</ele><time>2026-04-25T09:12:15Z</time></trkpt><trkpt lat="45.943351075853236" lon="4.8826636865218624"><ele>276.0</ele><time>2026-04-25T09:12:16Z</time></trkpt><trkpt lat="45.94315592853173" lon="4.882638533395819"><ele>276.0</ele><time>2026-04-25T09:12:17Z</time></trkpt><trkpt lat="45.9429564078702" lon="4.882608879621163"><ele>276.0</ele><time>2026-04-25T09:12:18Z</time></trkpt><trkpt lat="45.94274631977897" lon="4.882575159715757"><ele>276.6666666666667</ele><time>2026-04-25T09:12:19Z</time></trkpt><trkpt lat="45.942531509167985" lon="4.882543980918474"><ele>277.33333333333337</ele><time>2026-04-25T09:12:20Z</time></trkpt><trkpt lat="45.94231128640248" lon="4.882510332775371"><ele>278.0</ele><time>2026-04-25T09:12:21Z</time></trkpt><trkpt lat="45.94208737369436" lon="4.882477409478548"><ele>278.0</ele><time>2026-04-25T09:12:22Z</time></trkpt><trkpt lat="45.94185880151563" lon="4.882444039707254"><ele>278.0</ele><time>2026-04-25T09:12:23Z</time></trkpt><trkpt lat="45.94162121078028" lon="4.882410884308927"><ele>278.5</ele><time>2026-04-25T09:12:24Z</time></trkpt><trkpt lat="45.9413793784219" lon="4.882375649608894"><ele>279.0</ele><time>2026-04-25T09:12:25Z</time></trkpt><trkpt lat="45.94113616413894" lon="4.882339964863028"><ele>279.0</ele><time>2026-04-25T09:12:26Z</time></trkpt><trkpt lat="45.940894775733135" lon="4.882306130825583"><ele>279.0</ele><time>2026-04-25T09:12:27Z</time></trkpt><trkpt lat="45.9406642979002" lon="4.882273894657611"><ele>280.0</ele><time>2026-04-25T09:12:28Z</time></trkpt><trkpt lat="45.94044513145593" lon="4.882241391970554"><ele>281.0</ele><time>2026-04-25T09:12:29Z</time></trkpt><trkpt lat="45.94022317640708" lon="4.882208332224643"><ele>282.0</ele><time>2026-04-25T09:12:30Z</time></trkpt><trkpt lat="45.94000207323839" lon="4.882182453483991"><ele>284.5</ele><time>2026-04-25T09:12:31Z</time></trkpt><trkpt lat="45.93978046253243" lon="4.882161143254364"><ele>287.0</ele><time>2026-04-25T09:12:32Z</time></trkpt><trkpt lat="45.93955249179983" lon="4.882149101934767"><ele>287.0</ele><time>2026-04-25T09:12:33Z</time></trkpt><trkpt lat="45.93931325534157" lon="4.882143258186723"><ele>287.0</ele><time>2026-04-25T09:12:34Z</time></trkpt><trkpt lat="45.93907247537755" lon="4.882145360586282"><ele>288.6666666666667</ele><time>2026-04-25T09:12:35Z</time></trkpt><trkpt lat="45.938849929495206" lon="4.882146105338741"><ele>290.3333333333333</ele><time>2026-04-25T09:12:36Z</time></trkpt><trkpt lat="45.93863520187283" lon="4.882143035197834"><ele>292.0</ele><time>2026-04-25T09:12:37Z</time></trkpt><trkpt lat="45.938418151320185" lon="4.882143630723113"><ele>292.0</ele><time>2026-04-25T09:12:38Z</time></trkpt><trkpt lat="45.938201439541686" lon="4.88214548755546"><ele>292.0</ele><time>2026-04-25T09:12:39Z</time></trkpt><trkpt lat="45.938003573790716" lon="4.882141063863961"><ele>292.0</ele><time>2026-04-25T09:12:40Z</time></trkpt><trkpt lat="45.93781495176486" lon="4.882137915301682"><ele>292.0</ele><time>2026-04-25T09:12:41Z</time></trkpt><trkpt lat="45.937634496322865" lon="4.882136829738271"><ele>292.0</ele><time>2026-04-25T09:12:42Z</time></trkpt><trkpt lat="45.93745876347875" lon="4.882134044796773"><ele>292.0</ele><time>2026-04-25T09:12:43Z</time></trkpt><trkpt lat="45.93727843903295" lon="4.882132775747872"><ele>290.66666666666663</ele><time>2026-04-25T09:12:44Z</time></trkpt><trkpt lat="45.9370993835125" lon="4.882132830989551"><ele>289.3333333333333</ele><time>2026-04-25T09:12:45Z</time></trkpt><trkpt lat="45.936934817837745" lon="4.882135213408679"><ele>288.0</ele><time>2026-04-25T09:12:46Z</time></trkpt><trkpt lat="45.93677654770473" lon="4.882133489132318"><ele>287.25</ele><time>2026-04-25T09:12:47Z</time></trkpt><trkpt lat="45.9366226471712" lon="4.882128544851936"><ele>286.5</ele><time>2026-04-25T09:12:48Z</time></trkpt><trkpt lat="45.936479664295724" lon="4.882127177414089"><ele>285.75</ele><time>2026-04-25T09:12:49Z</time></trkpt><trkpt lat="45.93632780150425" lon="4.882129540144025"><ele>285.0</ele><time>2026-04-25T09:12:50Z</time></trkpt><trkpt lat="45.93616678500003" lon="4.882128543141914"><ele>285.0</ele><time>2026-04-25T09:12:51Z</time></trkpt><trkpt lat="45.93599639645289" lon="4.882127874271328"><ele>285.0</ele><time>2026-04-25T09:12:52Z</time></trkpt><trkpt lat="45.93584655010937" lon="4.882125003982039"><ele>285.0</ele><time>2026-04-25T09:12:53Z</time></trkpt><trkpt lat="45.93570993063479" lon="4.882123642657037"><ele>285.2</ele><time>2026-04-25T09:12:54Z</time></trkpt><trkpt lat="45.93558912305997" lon="4.882124355903501"><ele>285.4</ele><time>2026-04-25T09:12:55Z</time></trkpt><trkpt lat="45.93547095905399" lon="4.8821211036889025"><ele>285.6</ele><time>2026-04-25T09:12:56Z</time></trkpt><trkpt lat="45.93537196441234" lon="4.8821218889242655"><ele>285.8</ele><time>2026-04-25T09:12:57Z</time></trkpt><trkpt lat="45.93529566696006" lon="4.882125502476997"><ele>286.0</ele><time>2026-04-25T09:12:58Z</time></trkpt><trkpt lat="45.93522046507824" lon="4.882132959380081"><ele>286.0</ele><time>2026-04-25T09:12:59Z</time></trkpt><trkpt lat="45.93515116856037" lon="4.882133190508645"><ele>286.0</ele><time>2026-04-25T09:13:00Z</time></trkpt><trkpt lat="45.93503643797076" lon="4.882102881504834"><ele>286.0</ele><time>2026-04-25T09:13:02Z</time></trkpt><trkpt lat="45.934941658098886" lon="4.881979156325694"><ele>286.0</ele><time>2026-04-25T09:13:04Z</time></trkpt><trkpt lat="45.93490981819023" lon="4.88188077863284"><ele>286.0</ele><time>2026-04-25T09:13:05Z</time></trkpt><trkpt lat="45.93489219986892" lon="4.88176419969893"><ele>286.5</ele><time>2026-04-25T09:13:06Z</time></trkpt><trkpt lat="45.93489985176852" lon="4.881628954525217"><ele>287.0</ele><time>2026-04-25T09:13:07Z</time></trkpt><trkpt lat="45.93491713694675" lon="4.881478180687493"><ele>287.5</ele><time>2026-04-25T09:13:08Z</time></trkpt><trkpt lat="45.93494060167427" lon="4.881306938014398"><ele>288.0</ele><time>2026-04-25T09:13:09Z</time></trkpt><trkpt lat="45.93496714973718" lon="4.881118555557129"><ele>287.6666666666667</ele><time>2026-04-25T09:13:10Z</time></trkpt><trkpt lat="45.93499383095952" lon="4.880903433751386"><ele>287.33333333333337</ele><time>2026-04-25T09:13:11Z</time></trkpt><trkpt lat="45.935039393876174" lon="4.880670964268963"><ele>287.0</ele><time>2026-04-25T09:13:12Z</time></trkpt><trkpt lat="45.93507023017225" lon="4.880418073302151"><ele>286.33333333333337</ele><time>2026-04-25T09:13:13Z</time></trkpt><trkpt lat="45.93508214728383" lon="4.88016094683706"><ele>285.6666666666667</ele><time>2026-04-25T09:13:14Z</time></trkpt><trkpt lat="45.935112195176295" lon="4.879900744853314"><ele>285.0</ele><time>2026-04-25T09:13:15Z</time></trkpt><trkpt lat="45.9351418673588" lon="4.879630327044562"><ele>284.3333333333333</ele><time>2026-04-25T09:13:16Z</time></trkpt><trkpt lat="45.935170715827375" lon="4.879350466057978"><ele>283.66666666666663</ele><time>2026-04-25T09:13:17Z</time></trkpt><trkpt lat="45.93520193354836" lon="4.879072506350763"><ele>283.0</ele><time>2026-04-25T09:13:18Z</time></trkpt><trkpt lat="45.93523268673316" lon="4.878806464521482"><ele>282.66666666666663</ele><time>2026-04-25T09:13:19Z</time></trkpt><trkpt lat="45.9352607320777" lon="4.878540168896117"><ele>282.3333333333333</ele><time>2026-04-25T09:13:20Z</time></trkpt><trkpt lat="45.9352905985682" lon="4.87827267949003"><ele>282.0</ele><time>2026-04-25T09:13:21Z</time></trkpt><trkpt lat="45.93533289556054" lon="4.8780098772938665"><ele>282.0</ele><time>2026-04-25T09:13:22Z</time></trkpt><trkpt lat="45.93538416074117" lon="4.877749410325826"><ele>282.0</ele><time>2026-04-25T09:13:23Z</time></trkpt><trkpt lat="45.935459848384696" lon="4.877489042913614"><ele>282.0</ele><time>2026-04-25T09:13:24Z</time></trkpt><trkpt lat="45.93551362636537" lon="4.877206076408351"><ele>282.6666666666667</ele><time>2026-04-25T09:13:25Z</time></trkpt><trkpt lat="45.935583217354385" lon="4.876935950910145"><ele>283.33333333333337</ele><time>2026-04-25T09:13:26Z</time></trkpt><trkpt lat="45.93566859970258" lon="4.876675416635704"><ele>284.0</ele><time>2026-04-25T09:13:27Z</time></trkpt><trkpt lat="45.9357408882908" lon="4.876430629381866"><ele>284.0</ele><time>2026-04-25T09:13:28Z</time></trkpt><trkpt lat="45.935829677461605" lon="4.8761955416696425"><ele>284.0</ele><time>2026-04-25T09:13:29Z</time></trkpt><trkpt lat="45.93593384830185" lon="4.875961193510392"><ele>284.0</ele><time>2026-04-25T09:13:30Z</time></trkpt><trkpt lat="45.93604913830368" lon="4.875743590166062"><ele>284.33333333333337</ele><time>2026-04-25T09:13:31Z</time></trkpt><trkpt lat="45.936162152272004" lon="4.875511895471542"><ele>284.6666666666667</ele><time>2026-04-25T09:13:32Z</time></trkpt><trkpt lat="45.936291598789126" lon="4.8752827208876095"><ele>285.0</ele><time>2026-04-25T09:13:33Z</time></trkpt><trkpt lat="45.93642071732743" lon="4.875050637449669"><ele>285.0</ele><time>2026-04-25T09:13:34Z</time></trkpt><trkpt lat="45.936547217375974" lon="4.874819721292494"><ele>285.0</ele><time>2026-04-25T09:13:35Z</time></trkpt><trkpt lat="45.93667373062197" lon="4.874590974689818"><ele>285.0</ele><time>2026-04-25T09:13:36Z</time></trkpt><trkpt lat="45.936785744139584" lon="4.874378283609949"><ele>284.6666666666667</ele><time>2026-04-25T09:13:37Z</time></trkpt><trkpt lat="45.93688048077939" lon="4.87417645124034"><ele>284.33333333333337</ele><time>2026-04-25T09:13:38Z</time></trkpt><trkpt lat="45.93696217563188" lon="4.873972676498203"><ele>284.0</ele><time>2026-04-25T09:13:39Z</time></trkpt><trkpt lat="45.93703561951227" lon="4.873753785367035"><ele>284.0</ele><time>2026-04-25T09:13:40Z</time></trkpt><trkpt lat="45.937102902567375" lon="4.873526170404299"><ele>284.0</ele><time>2026-04-25T09:13:41Z</time></trkpt><trkpt lat="45.93718202505044" lon="4.8732954142853915"><ele>284.0</ele><time>2026-04-25T09:13:42Z</time></trkpt><trkpt lat="45.93724205904269" lon="4.873051211614731"><ele>284.0</ele><time>2026-04-25T09:13:43Z</time></trkpt><trkpt lat="45.93727914523046" lon="4.872792351226334"><ele>284.0</ele><time>2026-04-25T09:13:44Z</time></trkpt><trkpt lat="45.93732593305039" lon="4.87252730558574"><ele>284.0</ele><time>2026-04-25T09:13:45Z</time></trkpt><trkpt lat="45.937359946141214" lon="4.872258446808789"><ele>284.33333333333337</ele><time>2026-04-25T09:13:46Z</time></trkpt><trkpt lat="45.93739672234824" lon="4.871975830019631"><ele>284.6666666666667</ele><time>2026-04-25T09:13:47Z</time></trkpt><trkpt lat="45.937438299862414" lon="4.871683000158707"><ele>285.0</ele><time>2026-04-25T09:13:48Z</time></trkpt><trkpt lat="45.937485073841735" lon="4.871373449501264"><ele>285.0</ele><time>2026-04-25T09:13:49Z</time></trkpt><trkpt lat="45.93753340605267" lon="4.871065749958661"><ele>285.0</ele><time>2026-04-25T09:13:50Z</time></trkpt><trkpt lat="45.93757406286073" lon="4.870755940676126"><ele>285.0</ele><time>2026-04-25T09:13:51Z</time></trkpt><trkpt lat="45.9376319100114" lon="4.870446638571459"><ele>284.3333333333333</ele><time>2026-04-25T09:13:52Z</time></trkpt><trkpt lat="45.9376602502504" lon="4.870132132867374"><ele>283.66666666666663</ele><time>2026-04-25T09:13:53Z</time></trkpt><trkpt lat="45.9377205154336" lon="4.8698298807150495"><ele>283.0</ele><time>2026-04-25T09:13:54Z</time></trkpt><trkpt lat="45.93776555253285" lon="4.869517942441102"><ele>283.66666666666663</ele><time>2026-04-25T09:13:55Z</time></trkpt><trkpt lat="45.93779466089037" lon="4.869207084521662"><ele>284.3333333333333</ele><time>2026-04-25T09:13:56Z</time></trkpt><trkpt lat="45.93785478777923" lon="4.868901585488371"><ele>285.0</ele><time>2026-04-25T09:13:57Z</time></trkpt><trkpt lat="45.937898674165915" lon="4.868598457801526"><ele>285.3333333333333</ele><time>2026-04-25T09:13:58Z</time></trkpt><trkpt lat="45.937942359796835" lon="4.8682967167125675"><ele>285.66666666666663</ele><time>2026-04-25T09:13:59Z</time></trkpt><trkpt lat="45.93798544024895" lon="4.867997151611163"><ele>286.0</ele><time>2026-04-25T09:14:00Z</time></trkpt><trkpt lat="45.93802897261893" lon="4.867698654033199"><ele>286.0</ele><time>2026-04-25T09:14:01Z</time></trkpt><trkpt lat="45.938072438938" lon="4.86739690428922"><ele>286.0</ele><time>2026-04-25T09:14:02Z</time></trkpt><trkpt lat="45.9381167547596" lon="4.86709211278232"><ele>286.0</ele><time>2026-04-25T09:14:03Z</time></trkpt><trkpt lat="45.93816028994438" lon="4.866785716362266"><ele>286.3333333333333</ele><time>2026-04-25T09:14:04Z</time></trkpt><trkpt lat="45.93820489651425" lon="4.866472981367692"><ele>286.6666666666667</ele><time>2026-04-25T09:14:05Z</time></trkpt><trkpt lat="45.938249933811946" lon="4.866158586367114"><ele>287.0</ele><time>2026-04-25T09:14:06Z</time></trkpt><trkpt lat="45.938283241162644" lon="4.865832497463144"><ele>287.33333333333337</ele><time>2026-04-25T09:14:07Z</time></trkpt><trkpt lat="45.9383293483641" lon="4.865507931098584"><ele>287.6666666666667</ele><time>2026-04-25T09:14:08Z</time></trkpt><trkpt lat="45.93836969320745" lon="4.865206284921749"><ele>288.0</ele><time>2026-04-25T09:14:09Z</time></trkpt><trkpt lat="45.938411412987485" lon="4.86493375494055"><ele>287.3333333333333</ele><time>2026-04-25T09:14:10Z</time></trkpt><trkpt lat="45.938449059959844" lon="4.864676615137601"><ele>286.66666666666663</ele><time>2026-04-25T09:14:11Z</time></trkpt><trkpt lat="45.938485355638946" lon="4.864430447179437"><ele>286.0</ele><time>2026-04-25T09:14:12Z</time></trkpt><trkpt lat="45.93851857797733" lon="4.864175645816885"><ele>286.0</ele><time>2026-04-25T09:14:13Z</time></trkpt><trkpt lat="45.93855577278387" lon="4.863913008172811"><ele>286.0</ele><time>2026-04-25T09:14:14Z</time></trkpt><trkpt lat="45.938593726630316" lon="4.863665854463254"><ele>286.0</ele><time>2026-04-25T09:14:15Z</time></trkpt><trkpt lat="45.938629185330036" lon="4.863446242282553"><ele>286.3333333333333</ele><time>2026-04-25T09:14:16Z</time></trkpt><trkpt lat="45.938660963402654" lon="4.863227522149827"><ele>286.6666666666667</ele><time>2026-04-25T09:14:17Z</time></trkpt><trkpt lat="45.93869015696952" lon="4.863010910540702"><ele>287.0</ele><time>2026-04-25T09:14:18Z</time></trkpt><trkpt lat="45.938720264136585" lon="4.8627900722022455"><ele>287.0</ele><time>2026-04-25T09:14:19Z</time></trkpt><trkpt lat="45.93875196597169" lon="4.86257119477815"><ele>287.0</ele><time>2026-04-25T09:14:20Z</time></trkpt><trkpt lat="45.93876274291841" lon="4.862335949093721"><ele>287.0</ele><time>2026-04-25T09:14:21Z</time></trkpt><trkpt lat="45.9387564408455" lon="4.862099093600481"><ele>287.0</ele><time>2026-04-25T09:14:22Z</time></trkpt><trkpt lat="45.93874024337047" lon="4.861854092108469"><ele>287.0</ele><time>2026-04-25T09:14:23Z</time></trkpt><trkpt lat="45.93872003198899" lon="4.861602827691587"><ele>287.0</ele><time>2026-04-25T09:14:24Z</time></trkpt><trkpt lat="45.93869899544302" lon="4.861337996725217"><ele>286.6666666666667</ele><time>2026-04-25T09:14:25Z</time></trkpt><trkpt lat="45.93867983171541" lon="4.861062752999275"><ele>286.3333333333333</ele><time>2026-04-25T09:14:26Z</time></trkpt><trkpt lat="45.93865973717785" lon="4.860780186981358"><ele>286.0</ele><time>2026-04-25T09:14:27Z</time></trkpt><trkpt lat="45.93863666843219" lon="4.860486707203318"><ele>285.0</ele><time>2026-04-25T09:14:28Z</time></trkpt><trkpt lat="45.93861832810264" lon="4.8601817296181755"><ele>284.0</ele><time>2026-04-25T09:14:29Z</time></trkpt><trkpt lat="45.93859287111258" lon="4.859872029703744"><ele>283.0</ele><time>2026-04-25T09:14:30Z</time></trkpt><trkpt lat="45.938587642777065" lon="4.859556327392593"><ele>283.3333333333333</ele><time>2026-04-25T09:14:31Z</time></trkpt><trkpt lat="45.93855897211268" lon="4.859235789032071"><ele>283.6666666666667</ele><time>2026-04-25T09:14:32Z</time></trkpt><trkpt lat="45.938516424340214" lon="4.8589197824606565"><ele>284.0</ele><time>2026-04-25T09:14:33Z</time></trkpt><trkpt lat="45.93847073485551" lon="4.858594951111197"><ele>284.33333333333337</ele><time>2026-04-25T09:14:34Z</time></trkpt><trkpt lat="45.93842576190931" lon="4.858281487770905"><ele>284.6666666666667</ele><time>2026-04-25T09:14:35Z</time></trkpt><trkpt lat="45.93838360404389" lon="4.857989817263229"><ele>285.0</ele><time>2026-04-25T09:14:36Z</time></trkpt><trkpt lat="45.93834430386931" lon="4.85771791774708"><ele>284.3333333333333</ele><time>2026-04-25T09:14:37Z</time></trkpt><trkpt lat="45.93830774971521" lon="4.857465016683408"><ele>283.66666666666663</ele><time>2026-04-25T09:14:38Z</time></trkpt><trkpt lat="45.93827170676998" lon="4.85721565245805"><ele>283.0</ele><time>2026-04-25T09:14:39Z</time></trkpt><trkpt lat="45.938235325007014" lon="4.856963944097859"><ele>283.3333333333333</ele><time>2026-04-25T09:14:40Z</time></trkpt><trkpt lat="45.938201245483505" lon="4.856711811224789"><ele>283.6666666666667</ele><time>2026-04-25T09:14:41Z</time></trkpt><trkpt lat="45.938179531550695" lon="4.856465787240125"><ele>284.0</ele><time>2026-04-25T09:14:42Z</time></trkpt><trkpt lat="45.93815608691698" lon="4.856219848898237"><ele>284.0</ele><time>2026-04-25T09:14:43Z</time></trkpt><trkpt lat="45.938168015783084" lon="4.85595916402928"><ele>284.0</ele><time>2026-04-25T09:14:44Z</time></trkpt><trkpt lat="45.93819798591142" lon="4.85568897725585"><ele>284.0</ele><time>2026-04-25T09:14:45Z</time></trkpt><trkpt lat="45.9382391005762" lon="4.855418904523636"><ele>284.0</ele><time>2026-04-25T09:14:46Z</time></trkpt><trkpt lat="45.93827939972119" lon="4.855140781960705"><ele>284.0</ele><time>2026-04-25T09:14:47Z</time></trkpt><trkpt lat="45.93831352465366" lon="4.854883679658089"><ele>284.0</ele><time>2026-04-25T09:14:48Z</time></trkpt><trkpt lat="45.93834924227055" lon="4.85463931890219"><ele>285.0</ele><time>2026-04-25T09:14:49Z</time></trkpt><trkpt lat="45.93838983850314" lon="4.854400052978702"><ele>286.0</ele><time>2026-04-25T09:14:50Z</time></trkpt><trkpt lat="45.93843581401734" lon="4.8541645370625925"><ele>287.0</ele><time>2026-04-25T09:14:51Z</time></trkpt><trkpt lat="45.938489123317645" lon="4.853925005396949"><ele>285.0</ele><time>2026-04-25T09:14:52Z</time></trkpt><trkpt lat="45.938548094607185" lon="4.853694861583565"><ele>283.0</ele><time>2026-04-25T09:14:53Z</time></trkpt><trkpt lat="45.938604106273615" lon="4.8534845065463745"><ele>281.0</ele><time>2026-04-25T09:14:54Z</time></trkpt><trkpt lat="45.938650363227126" lon="4.853288842258414"><ele>280.5</ele><time>2026-04-25T09:14:55Z</time></trkpt><trkpt lat="45.938693581633714" lon="4.853082919354261"><ele>280.0</ele><time>2026-04-25T09:14:56Z</time></trkpt><trkpt lat="45.93872556896907" lon="4.852887741798111"><ele>279.5</ele><time>2026-04-25T09:14:57Z</time></trkpt><trkpt lat="45.938740923335644" lon="4.852693900619598"><ele>279.0</ele><time>2026-04-25T09:14:58Z</time></trkpt><trkpt lat="45.93874004736576" lon="4.8524865274388524"><ele>277.6666666666667</ele><time>2026-04-25T09:14:59Z</time></trkpt><trkpt lat="45.938746462789176" lon="4.852246202513866"><ele>276.33333333333337</ele><time>2026-04-25T09:15:00Z</time></trkpt><trkpt lat="45.938730810782616" lon="4.851979001701025"><ele>275.0</ele><time>2026-04-25T09:15:01Z</time></trkpt><trkpt lat="45.93871463159289" lon="4.8517055881595255"><ele>274.6666666666667</ele><time>2026-04-25T09:15:02Z</time></trkpt><trkpt lat="45.938697074475385" lon="4.85140904883795"><ele>274.3333333333333</ele><time>2026-04-25T09:15:03Z</time></trkpt><trkpt lat="45.938678571144365" lon="4.851096550162477"><ele>274.0</ele><time>2026-04-25T09:15:04Z</time></trkpt><trkpt lat="45.938659363210675" lon="4.8507721516635485"><ele>273.5</ele><time>2026-04-25T09:15:05Z</time></trkpt><trkpt lat="45.938627679741174" lon="4.8504438395387215"><ele>273.0</ele><time>2026-04-25T09:15:06Z</time></trkpt><trkpt lat="45.938603313352104" lon="4.850101029033538"><ele>272.5</ele><time>2026-04-25T09:15:07Z</time></trkpt><trkpt lat="45.93859996857088" lon="4.849753991429943"><ele>272.0</ele><time>2026-04-25T09:15:08Z</time></trkpt><trkpt lat="45.938582690584624" lon="4.849440360823046"><ele>271.33333333333337</ele><time>2026-04-25T09:15:09Z</time></trkpt><trkpt lat="45.93856487245192" lon="4.849117250254156"><ele>270.6666666666667</ele><time>2026-04-25T09:15:10Z</time></trkpt><trkpt lat="45.93854681414971" lon="4.848808001819446"><ele>270.0</ele><time>2026-04-25T09:15:11Z</time></trkpt><trkpt lat="45.93852337105622" lon="4.848509673733438"><ele>269.6666666666667</ele><time>2026-04-25T09:15:12Z</time></trkpt><trkpt lat="45.93848499977214" lon="4.84821280197073"><ele>269.33333333333337</ele><time>2026-04-25T09:15:13Z</time></trkpt><trkpt lat="45.9384351093076" lon="4.847905156997467"><ele>269.0</ele><time>2026-04-25T09:15:14Z</time></trkpt><trkpt lat="45.938383159321994" lon="4.847594761061446"><ele>270.0</ele><time>2026-04-25T09:15:15Z</time></trkpt><trkpt lat="45.93832897771679" lon="4.847281038627153"><ele>271.0</ele><time>2026-04-25T09:15:16Z</time></trkpt><trkpt lat="45.938273585266124" lon="4.846960305195657"><ele>271.0</ele><time>2026-04-25T09:15:17Z</time></trkpt><trkpt lat="45.938215436123166" lon="4.846622708815386"><ele>271.0</ele><time>2026-04-25T09:15:18Z</time></trkpt><trkpt lat="45.9381525430809" lon="4.846252778957654"><ele>270.5</ele><time>2026-04-25T09:15:19Z</time></trkpt><trkpt lat="45.93808770403242" lon="4.845871402763143"><ele>270.0</ele><time>2026-04-25T09:15:20Z</time></trkpt><trkpt lat="45.93802180984106" lon="4.845479164770245"><ele>269.5</ele><time>2026-04-25T09:15:21Z</time></trkpt><trkpt lat="45.93795371800402" lon="4.845070394079859"><ele>269.0</ele><time>2026-04-25T09:15:22Z</time></trkpt><trkpt lat="45.937884081247624" lon="4.844654005706848"><ele>268.5</ele><time>2026-04-25T09:15:23Z</time></trkpt><trkpt lat="45.937820940596026" lon="4.844276965838568"><ele>268.0</ele><time>2026-04-25T09:15:24Z</time></trkpt><trkpt lat="45.937760462976485" lon="4.843910548917586"><ele>268.0</ele><time>2026-04-25T09:15:25Z</time></trkpt><trkpt lat="45.9377027303567" lon="4.843560725541707"><ele>268.0</ele><time>2026-04-25T09:15:26Z</time></trkpt><trkpt lat="45.93764521684389" lon="4.843231057110297"><ele>267.66666666666663</ele><time>2026-04-25T09:15:27Z</time></trkpt><trkpt lat="45.937584903928396" lon="4.842940120667275"><ele>267.3333333333333</ele><time>2026-04-25T09:15:28Z</time></trkpt><trkpt lat="45.93757520025043" lon="4.842803131466796"><ele>267.0</ele><time>2026-04-25T09:15:29Z</time></trkpt><trkpt lat="45.93753755948205" lon="4.842571675039482"><ele>267.6666666666667</ele><time>2026-04-25T09:15:30Z</time></trkpt><trkpt lat="45.93751008513908" lon="4.84235257832367"><ele>268.33333333333337</ele><time>2026-04-25T09:15:31Z</time></trkpt><trkpt lat="45.937490791690415" lon="4.842124208124843"><ele>269.0</ele><time>2026-04-25T09:15:32Z</time></trkpt><trkpt lat="45.93747950363047" lon="4.841880492941019"><ele>269.33333333333337</ele><time>2026-04-25T09:15:33Z</time></trkpt><trkpt lat="45.937474648258885" lon="4.841624389087337"><ele>269.6666666666667</ele><time>2026-04-25T09:15:34Z</time></trkpt><trkpt lat="45.93747689496322" lon="4.841357618167313"><ele>270.0</ele><time>2026-04-25T09:15:35Z</time></trkpt><trkpt lat="45.93748578604286" lon="4.841085642420167"><ele>270.0</ele><time>2026-04-25T09:15:36Z</time></trkpt><trkpt lat="45.937503795234846" lon="4.840805605738914"><ele>270.0</ele><time>2026-04-25T09:15:37Z</time></trkpt><trkpt lat="45.93753192979556" lon="4.840510839961683"><ele>270.0</ele><time>2026-04-25T09:15:38Z</time></trkpt><trkpt lat="45.937569730452395" lon="4.8402094613632025"><ele>269.6666666666667</ele><time>2026-04-25T09:15:39Z</time></trkpt><trkpt lat="45.937614425509864" lon="4.83989703932312"><ele>269.33333333333337</ele><time>2026-04-25T09:15:40Z</time></trkpt><trkpt lat="45.93766306126681" lon="4.839596188380856"><ele>269.0</ele><time>2026-04-25T09:15:41Z</time></trkpt><trkpt lat="45.93771091970319" lon="4.839303805820263"><ele>268.33333333333337</ele><time>2026-04-25T09:15:42Z</time></trkpt><trkpt lat="45.93776602689599" lon="4.8390056545756135"><ele>267.6666666666667</ele><time>2026-04-25T09:15:43Z</time></trkpt><trkpt lat="45.93783005906701" lon="4.838716408373152"><ele>267.0</ele><time>2026-04-25T09:15:44Z</time></trkpt><trkpt lat="45.937903231388894" lon="4.838421542199684"><ele>266.6666666666667</ele><time>2026-04-25T09:15:45Z</time></trkpt><trkpt lat="45.93797111600093" lon="4.838167103936197"><ele>266.33333333333337</ele><time>2026-04-25T09:15:46Z</time></trkpt><trkpt lat="45.938036697027" lon="4.837921615290322"><ele>266.0</ele><time>2026-04-25T09:15:47Z</time></trkpt><trkpt lat="45.93809846837938" lon="4.837690345107992"><ele>266.0</ele><time>2026-04-25T09:15:48Z</time></trkpt><trkpt lat="45.938156090390834" lon="4.8374746099410695"><ele>266.0</ele><time>2026-04-25T09:15:49Z</time></trkpt><trkpt lat="45.938216670389934" lon="4.837245837665422"><ele>266.0</ele><time>2026-04-25T09:15:50Z</time></trkpt><trkpt lat="45.938279589165475" lon="4.837007540538278"><ele>265.6666666666667</ele><time>2026-04-25T09:15:51Z</time></trkpt><trkpt lat="45.93834059333225" lon="4.836782176868701"><ele>265.3333333333333</ele><time>2026-04-25T09:15:52Z</time></trkpt><trkpt lat="45.93840469712997" lon="4.836519537741449"><ele>265.0</ele><time>2026-04-25T09:15:53Z</time></trkpt><trkpt lat="45.93849751833596" lon="4.8362779217116145"><ele>264.66666666666663</ele><time>2026-04-25T09:15:54Z</time></trkpt><trkpt lat="45.938596977172836" lon="4.836042270310995"><ele>264.3333333333333</ele><time>2026-04-25T09:15:55Z</time></trkpt><trkpt lat="45.938715020000366" lon="4.83580865055102"><ele>264.0</ele><time>2026-04-25T09:15:56Z</time></trkpt><trkpt lat="45.93884071382785" lon="4.835579037475999"><ele>264.0</ele><time>2026-04-25T09:15:57Z</time></trkpt><trkpt lat="45.93897851507858" lon="4.835347094636692"><ele>264.0</ele><time>2026-04-25T09:15:58Z</time></trkpt><trkpt lat="45.939124120537926" lon="4.835121368644375"><ele>264.0</ele><time>2026-04-25T09:15:59Z</time></trkpt><trkpt lat="45.93928146500199" lon="4.834891148613384"><ele>264.0</ele><time>2026-04-25T09:16:00Z</time></trkpt><trkpt lat="45.93944027761696" lon="4.83465313140999"><ele>264.0</ele><time>2026-04-25T09:16:01Z</time></trkpt><trkpt lat="45.93960135625688" lon="4.834407396869147"><ele>264.5</ele><time>2026-04-25T09:16:02Z</time></trkpt><trkpt lat="45.9397648857673" lon="4.834165006273124"><ele>265.0</ele><time>2026-04-25T09:16:03Z</time></trkpt><trkpt lat="45.93993331991252" lon="4.833910457878396"><ele>265.0</ele><time>2026-04-25T09:16:04Z</time></trkpt><trkpt lat="45.9400993291412" lon="4.833659291060324"><ele>265.0</ele><time>2026-04-25T09:16:05Z</time></trkpt><trkpt lat="45.94026983749515" lon="4.8334049101244485"><ele>266.0</ele><time>2026-04-25T09:16:06Z</time></trkpt><trkpt lat="45.94044042747838" lon="4.833147085351842"><ele>267.0</ele><time>2026-04-25T09:16:07Z</time></trkpt><trkpt lat="45.94061092005394" lon="4.832887531888603"><ele>266.5</ele><time>2026-04-25T09:16:08Z</time></trkpt><trkpt lat="45.94078781533221" lon="4.832626620139847"><ele>266.0</ele><time>2026-04-25T09:16:09Z</time></trkpt><trkpt lat="45.94096455503882" lon="4.83236241885985"><ele>266.0</ele><time>2026-04-25T09:16:10Z</time></trkpt><trkpt lat="45.941138674159035" lon="4.832097739602925"><ele>266.0</ele><time>2026-04-25T09:16:11Z</time></trkpt><trkpt lat="45.94129921464004" lon="4.831851962601834"><ele>266.0</ele><time>2026-04-25T09:16:12Z</time></trkpt><trkpt lat="45.94145180623883" lon="4.831622386789794"><ele>266.0</ele><time>2026-04-25T09:16:13Z</time></trkpt><trkpt lat="45.94159424429482" lon="4.831414176193563"><ele>266.0</ele><time>2026-04-25T09:16:14Z</time></trkpt><trkpt lat="45.94172689245493" lon="4.831215815104641"><ele>266.0</ele><time>2026-04-25T09:16:15Z</time></trkpt><trkpt lat="45.94185457738309" lon="4.831027431936839"><ele>266.0</ele><time>2026-04-25T09:16:16Z</time></trkpt><trkpt lat="45.94197543124872" lon="4.830844933971843"><ele>266.0</ele><time>2026-04-25T09:16:17Z</time></trkpt><trkpt lat="45.94208972403426" lon="4.830677122690747"><ele>266.0</ele><time>2026-04-25T09:16:18Z</time></trkpt><trkpt lat="45.94220109473823" lon="4.830514977311547"><ele>266.0</ele><time>2026-04-25T09:16:19Z</time></trkpt><trkpt lat="45.94230260986626" lon="4.830365280319273"><ele>266.0</ele><time>2026-04-25T09:16:20Z</time></trkpt><trkpt lat="45.94239491363237" lon="4.8302231659697705"><ele>266.0</ele><time>2026-04-25T09:16:21Z</time></trkpt><trkpt lat="45.94248531683648" lon="4.830087189147627"><ele>265.75</ele><time>2026-04-25T09:16:22Z</time></trkpt><trkpt lat="45.94257525658694" lon="4.829942033233457"><ele>265.5</ele><time>2026-04-25T09:16:23Z</time></trkpt><trkpt lat="45.942658027466734" lon="4.829783515428627"><ele>265.25</ele><time>2026-04-25T09:16:24Z</time></trkpt><trkpt lat="45.94273141211343" lon="4.829607332407808"><ele>265.0</ele><time>2026-04-25T09:16:25Z</time></trkpt><trkpt lat="45.942786299420156" lon="4.829420580083464"><ele>265.0</ele><time>2026-04-25T09:16:26Z</time></trkpt><trkpt lat="45.94282750596571" lon="4.829222381573908"><ele>265.0</ele><time>2026-04-25T09:16:27Z</time></trkpt><trkpt lat="45.94285591121429" lon="4.829009129634303"><ele>265.0</ele><time>2026-04-25T09:16:28Z</time></trkpt><trkpt lat="45.94287108640066" lon="4.828787916282913"><ele>265.0</ele><time>2026-04-25T09:16:29Z</time></trkpt><trkpt lat="45.94287505718342" lon="4.828554066129193"><ele>265.0</ele><time>2026-04-25T09:16:30Z</time></trkpt><trkpt lat="45.94287917649771" lon="4.828304039323124"><ele>265.0</ele><time>2026-04-25T09:16:31Z</time></trkpt><trkpt lat="45.94288672170012" lon="4.828036151602413"><ele>265.0</ele><time>2026-04-25T09:16:32Z</time></trkpt><trkpt lat="45.94288976157557" lon="4.827763195772744"><ele>265.0</ele><time>2026-04-25T09:16:33Z</time></trkpt><trkpt lat="45.94289463388303" lon="4.827480788706741"><ele>265.0</ele><time>2026-04-25T09:16:34Z</time></trkpt><trkpt lat="45.94289981354448" lon="4.827187031606525"><ele>265.0</ele><time>2026-04-25T09:16:35Z</time></trkpt><trkpt lat="45.942905838891484" lon="4.826886446765779"><ele>265.0</ele><time>2026-04-25T09:16:36Z</time></trkpt><trkpt lat="45.94291005892034" lon="4.826575029953387"><ele>265.0</ele><time>2026-04-25T09:16:37Z</time></trkpt><trkpt lat="45.9429118773421" lon="4.826259417100346"><ele>265.0</ele><time>2026-04-25T09:16:38Z</time></trkpt><trkpt lat="45.9429153752665" lon="4.82594792964213"><ele>264.66666666666663</ele><time>2026-04-25T09:16:39Z</time></trkpt><trkpt lat="45.94292057773168" lon="4.825651244377857"><ele>264.3333333333333</ele><time>2026-04-25T09:16:40Z</time></trkpt><trkpt lat="45.94292272129557" lon="4.825356062373606"><ele>264.0</ele><time>2026-04-25T09:16:41Z</time></trkpt><trkpt lat="45.94292281728911" lon="4.825065108382413"><ele>263.6666666666667</ele><time>2026-04-25T09:16:42Z</time></trkpt><trkpt lat="45.94291803938704" lon="4.824769985970237"><ele>263.33333333333337</ele><time>2026-04-25T09:16:43Z</time></trkpt><trkpt lat="45.94290179224647" lon="4.824470682946702"><ele>263.0</ele><time>2026-04-25T09:16:44Z</time></trkpt><trkpt lat="45.94288794602036" lon="4.824194929750644"><ele>263.6666666666667</ele><time>2026-04-25T09:16:45Z</time></trkpt><trkpt lat="45.942875233569005" lon="4.823938825024868"><ele>264.3333333333333</ele><time>2026-04-25T09:16:46Z</time></trkpt><trkpt lat="45.94286410978178" lon="4.823690600391813"><ele>265.0</ele><time>2026-04-25T09:16:47Z</time></trkpt><trkpt lat="45.94285588606918" lon="4.823464203876926"><ele>265.0</ele><time>2026-04-25T09:16:48Z</time></trkpt><trkpt lat="45.94284811193931" lon="4.823254449262716"><ele>265.0</ele><time>2026-04-25T09:16:49Z</time></trkpt><trkpt lat="45.942831283396195" lon="4.823037667262635"><ele>265.0</ele><time>2026-04-25T09:16:50Z</time></trkpt><trkpt lat="45.942827588198924" lon="4.822850021313432"><ele>265.0</ele><time>2026-04-25T09:16:51Z</time></trkpt><trkpt lat="45.94282113691317" lon="4.822652061018152"><ele>265.0</ele><time>2026-04-25T09:16:52Z</time></trkpt><trkpt lat="45.94281211793053" lon="4.82244970809984"><ele>265.0</ele><time>2026-04-25T09:16:53Z</time></trkpt><trkpt lat="45.94280105780103" lon="4.822246035170417"><ele>265.0</ele><time>2026-04-25T09:16:54Z</time></trkpt><trkpt lat="45.942780793795706" lon="4.822044140765904"><ele>265.0</ele><time>2026-04-25T09:16:55Z</time></trkpt><trkpt lat="45.94275299112588" lon="4.821836935751382"><ele>264.3333333333333</ele><time>2026-04-25T09:16:56Z</time></trkpt><trkpt lat="45.94271355685392" lon="4.821628263256274"><ele>263.6666666666667</ele><time>2026-04-25T09:16:57Z</time></trkpt><trkpt lat="45.942686031999244" lon="4.821401362647731"><ele>263.0</ele><time>2026-04-25T09:16:58Z</time></trkpt><trkpt lat="45.94263956749508" lon="4.821177530908338"><ele>263.0</ele><time>2026-04-25T09:16:59Z</time></trkpt><trkpt lat="45.9425771881726" lon="4.820955774637022"><ele>263.0</ele><time>2026-04-25T09:17:00Z</time></trkpt><trkpt lat="45.94252728905907" lon="4.820717695321621"><ele>263.0</ele><time>2026-04-25T09:17:01Z</time></trkpt><trkpt lat="45.942493253964315" lon="4.820471041120582"><ele>262.6666666666667</ele><time>2026-04-25T09:17:02Z</time></trkpt><trkpt lat="45.9424411891583" lon="4.820219471627314"><ele>262.3333333333333</ele><time>2026-04-25T09:17:03Z</time></trkpt><trkpt lat="45.9423874805211" lon="4.819959960121233"><ele>262.0</ele><time>2026-04-25T09:17:04Z</time></trkpt><trkpt lat="45.94233545422935" lon="4.819708577112523"><ele>262.0</ele><time>2026-04-25T09:17:05Z</time></trkpt><trkpt lat="45.942287028529655" lon="4.8194741870567785"><ele>262.0</ele><time>2026-04-25T09:17:06Z</time></trkpt><trkpt lat="45.942229842667516" lon="4.8192655746367175"><ele>262.0</ele><time>2026-04-25T09:17:07Z</time></trkpt><trkpt lat="45.94220190502353" lon="4.819057694573423"><ele>262.0</ele><time>2026-04-25T09:17:08Z</time></trkpt><trkpt lat="45.94216357938362" lon="4.818870156258479"><ele>262.0</ele><time>2026-04-25T09:17:09Z</time></trkpt><trkpt lat="45.94212825042955" lon="4.818697173104655"><ele>262.0</ele><time>2026-04-25T09:17:10Z</time></trkpt><trkpt lat="45.94209702377949" lon="4.818544274740676"><ele>262.0</ele><time>2026-04-25T09:17:11Z</time></trkpt><trkpt lat="45.94206912778742" lon="4.818409435990857"><ele>262.16666666666663</ele><time>2026-04-25T09:17:12Z</time></trkpt><trkpt lat="45.94204620721646" lon="4.818299635575172"><ele>262.3333333333333</ele><time>2026-04-25T09:17:13Z</time></trkpt><trkpt lat="45.942017257403236" lon="4.818217340547409"><ele>262.5</ele><time>2026-04-25T09:17:14Z</time></trkpt><trkpt lat="45.94200277876754" lon="4.818075688223466"><ele>262.6666666666667</ele><time>2026-04-25T09:17:16Z</time></trkpt><trkpt lat="45.94201007429933" lon="4.8179618440119425"><ele>262.83333333333337</ele><time>2026-04-25T09:17:18Z</time></trkpt><trkpt lat="45.942026695178384" lon="4.81784920808913"><ele>263.0</ele><time>2026-04-25T09:17:20Z</time></trkpt><trkpt lat="45.942073716556614" lon="4.817673018841756"><ele>262.8</ele><time>2026-04-25T09:17:22Z</time></trkpt><trkpt lat="45.94211554204431" lon="4.817578689681472"><ele>262.6</ele><time>2026-04-25T09:17:23Z</time></trkpt><trkpt lat="45.94216552288204" lon="4.817483051892853"><ele>262.4</ele><time>2026-04-25T09:17:24Z</time></trkpt><trkpt lat="45.94220086729552" lon="4.817383476947007"><ele>262.2</ele><time>2026-04-25T09:17:25Z</time></trkpt><trkpt lat="45.942191809473215" lon="4.817212210292512"><ele>262.0</ele><time>2026-04-25T09:17:27Z</time></trkpt><trkpt lat="45.9420965429673" lon="4.817088332771398"><ele>262.0</ele><time>2026-04-25T09:17:29Z</time></trkpt><trkpt lat="45.942033143386006" lon="4.817067132255341"><ele>262.0</ele><time>2026-04-25T09:17:30Z</time></trkpt><trkpt lat="45.941960252837724" lon="4.817080372977722"><ele>262.0</ele><time>2026-04-25T09:17:31Z</time></trkpt><trkpt lat="45.941865007556885" lon="4.817197849931365"><ele>262.0</ele><time>2026-04-25T09:17:33Z</time></trkpt><trkpt lat="45.9418471707839" lon="4.817302659379616"><ele>262.0</ele><time>2026-04-25T09:17:34Z</time></trkpt><trkpt lat="45.941847595643424" lon="4.817409729040086"><ele>262.0</ele><time>2026-04-25T09:17:35Z</time></trkpt><trkpt lat="45.94187903805504" lon="4.8175079549229824"><ele>262.0</ele><time>2026-04-25T09:17:36Z</time></trkpt><trkpt lat="45.94192325903437" lon="4.817595354249028"><ele>262.0</ele><time>2026-04-25T09:17:37Z</time></trkpt><trkpt lat="45.94195895522846" lon="4.817698843702794"><ele>262.0</ele><time>2026-04-25T09:17:38Z</time></trkpt><trkpt lat="45.941979663389496" lon="4.817820925091726"><ele>262.0</ele><time>2026-04-25T09:17:39Z</time></trkpt><trkpt lat="45.94198369607555" lon="4.8179655213808426"><ele>262.0</ele><time>2026-04-25T09:17:40Z</time></trkpt><trkpt lat="45.94198295867578" lon="4.818120317746685"><ele>262.0</ele><time>2026-04-25T09:17:41Z</time></trkpt><trkpt lat="45.94199774367167" lon="4.8182860997646815"><ele>262.0</ele><time>2026-04-25T09:17:42Z</time></trkpt><trkpt lat="45.942042304127185" lon="4.818468355059949"><ele>262.0</ele><time>2026-04-25T09:17:43Z</time></trkpt><trkpt lat="45.942090432469186" lon="4.818671149631935"><ele>262.0</ele><time>2026-04-25T09:17:44Z</time></trkpt><trkpt lat="45.942133095589746" lon="4.8188904603122715"><ele>262.0</ele><time>2026-04-25T09:17:45Z</time></trkpt><trkpt lat="45.94218285470286" lon="4.819121826871627"><ele>262.0</ele><time>2026-04-25T09:17:46Z</time></trkpt><trkpt lat="45.94223126301451" lon="4.819350941030227"><ele>262.0</ele><time>2026-04-25T09:17:47Z</time></trkpt><trkpt lat="45.942278229840355" lon="4.819598581714445"><ele>262.0</ele><time>2026-04-25T09:17:48Z</time></trkpt><trkpt lat="45.942328327440805" lon="4.819863710221139"><ele>262.0</ele><time>2026-04-25T09:17:49Z</time></trkpt><trkpt lat="45.94238211412152" lon="4.8201357510680625"><ele>262.0</ele><time>2026-04-25T09:17:50Z</time></trkpt><trkpt lat="45.942435213074106" lon="4.820387191758385"><ele>262.0</ele><time>2026-04-25T09:17:51Z</time></trkpt><trkpt lat="45.94248138415291" lon="4.82060875795455"><ele>262.0</ele><time>2026-04-25T09:17:52Z</time></trkpt><trkpt lat="45.94252351862684" lon="4.8208050485453136"><ele>262.0</ele><time>2026-04-25T09:17:53Z</time></trkpt><trkpt lat="45.942560089290666" lon="4.820990088775079"><ele>262.0</ele><time>2026-04-25T09:17:54Z</time></trkpt><trkpt lat="45.94259430339274" lon="4.821155995257872"><ele>262.2</ele><time>2026-04-25T09:17:55Z</time></trkpt><trkpt lat="45.94262533501997" lon="4.821306929651392"><ele>262.4</ele><time>2026-04-25T09:17:56Z</time></trkpt><trkpt lat="45.942653855336076" lon="4.82144894620489"><ele>262.6</ele><time>2026-04-25T09:17:57Z</time></trkpt><trkpt lat="45.942680533163525" lon="4.821576322571766"><ele>262.8</ele><time>2026-04-25T09:17:58Z</time></trkpt><trkpt lat="45.94269982277178" lon="4.821676759705257"><ele>263.0</ele><time>2026-04-25T09:17:59Z</time></trkpt><trkpt lat="45.942736704436896" lon="4.8218304968142744"><ele>263.4</ele><time>2026-04-25T09:18:01Z</time></trkpt><trkpt lat="45.94271491848327" lon="4.821936195045627"><ele>263.8</ele><time>2026-04-25T09:18:03Z</time></trkpt><trkpt lat="45.942602385293576" lon="4.8219907477016095"><ele>264.2</ele><time>2026-04-25T09:18:05Z</time></trkpt><trkpt lat="45.942528562746546" lon="4.821993528242649"><ele>264.6</ele><time>2026-04-25T09:18:06Z</time></trkpt><trkpt lat="45.94244338811073" lon="4.8220010503096"><ele>265.0</ele><time>2026-04-25T09:18:07Z</time></trkpt><trkpt lat="45.9423416186038" lon="4.822022854571359"><ele>265.0</ele><time>2026-04-25T09:18:08Z</time></trkpt><trkpt lat="45.94221175519129" lon="4.822044035617921"><ele>265.0</ele><time>2026-04-25T09:18:09Z</time></trkpt><trkpt lat="45.94205755266594" lon="4.822065465151946"><ele>265.0</ele><time>2026-04-25T09:18:10Z</time></trkpt><trkpt lat="45.94189024872876" lon="4.822090753277083"><ele>265.0</ele><time>2026-04-25T09:18:11Z</time></trkpt><trkpt lat="45.94173872961948" lon="4.822110892731422"><ele>265.0</ele><time>2026-04-25T09:18:12Z</time></trkpt><trkpt lat="45.941609202297684" lon="4.822124518021773"><ele>265.0</ele><time>2026-04-25T09:18:13Z</time></trkpt><trkpt lat="45.94146499655307" lon="4.822142491104162"><ele>265.0</ele><time>2026-04-25T09:18:14Z</time></trkpt><trkpt lat="45.94130408382928" lon="4.822196144262169"><ele>264.75</ele><time>2026-04-25T09:18:15Z</time></trkpt><trkpt lat="45.94115647767263" lon="4.822214548781111"><ele>264.5</ele><time>2026-04-25T09:18:16Z</time></trkpt><trkpt lat="45.94102091176586" lon="4.822259618963713"><ele>264.25</ele><time>2026-04-25T09:18:17Z</time></trkpt><trkpt lat="45.940906282223935" lon="4.822279674723788"><ele>264.0</ele><time>2026-04-25T09:18:18Z</time></trkpt><trkpt lat="45.940784521366524" lon="4.822303292304835"><ele>264.0</ele><time>2026-04-25T09:18:19Z</time></trkpt><trkpt lat="45.94068213119346" lon="4.822322928592764"><ele>264.0</ele><time>2026-04-25T09:18:20Z</time></trkpt><trkpt lat="45.94059311980729" lon="4.822339791263283"><ele>264.0</ele><time>2026-04-25T09:18:21Z</time></trkpt><trkpt lat="45.940516877720405" lon="4.822353988891884"><ele>264.0</ele><time>2026-04-25T09:18:22Z</time></trkpt><trkpt lat="45.94044213004934" lon="4.822360646023192"><ele>264.0</ele><time>2026-04-25T09:18:23Z</time></trkpt><trkpt lat="45.94037626803489" lon="4.8223607484664255"><ele>264.0</ele><time>2026-04-25T09:18:24Z</time></trkpt><trkpt lat="45.94029927812489" lon="4.822345123636846"><ele>264.0</ele><time>2026-04-25T09:18:25Z</time></trkpt><trkpt lat="45.94022691744631" lon="4.822310291381719"><ele>264.0</ele><time>2026-04-25T09:18:26Z</time></trkpt><trkpt lat="45.94014668973501" lon="4.822268956962664"><ele>264.0</ele><time>2026-04-25T09:18:27Z</time></trkpt><trkpt lat="45.94005883825567" lon="4.822217496965552"><ele>264.0</ele><time>2026-04-25T09:18:28Z</time></trkpt><trkpt lat="45.93996386344771" lon="4.822170103942594"><ele>264.0</ele><time>2026-04-25T09:18:29Z</time></trkpt><trkpt lat="45.93986193132854" lon="4.822119557832252"><ele>264.2</ele><time>2026-04-25T09:18:30Z</time></trkpt><trkpt lat="45.93976716604361" lon="4.822076627455192"><ele>264.4</ele><time>2026-04-25T09:18:31Z</time></trkpt><trkpt lat="45.939667960050876" lon="4.822018322696053"><ele>264.6</ele><time>2026-04-25T09:18:32Z</time></trkpt><trkpt lat="45.93957133270511" lon="4.82198086839649"><ele>264.8</ele><time>2026-04-25T09:18:33Z</time></trkpt><trkpt lat="45.93947510355856" lon="4.821943517105238"><ele>265.0</ele><time>2026-04-25T09:18:34Z</time></trkpt><trkpt lat="45.93938313456293" lon="4.821914331725811"><ele>265.0</ele><time>2026-04-25T09:18:35Z</time></trkpt><trkpt lat="45.93927793597851" lon="4.821903335307617"><ele>265.0</ele><time>2026-04-25T09:18:36Z</time></trkpt><trkpt lat="45.939168166892" lon="4.821891960712125"><ele>265.0</ele><time>2026-04-25T09:18:37Z</time></trkpt><trkpt lat="45.939060420372144" lon="4.821878937390602"><ele>265.0</ele><time>2026-04-25T09:18:38Z</time></trkpt><trkpt lat="45.93896390281568" lon="4.821897675538539"><ele>265.0</ele><time>2026-04-25T09:18:39Z</time></trkpt><trkpt lat="45.93886377959015" lon="4.821911462207961"><ele>265.0</ele><time>2026-04-25T09:18:40Z</time></trkpt><trkpt lat="45.93877305750323" lon="4.821927978590828"><ele>265.0</ele><time>2026-04-25T09:18:41Z</time></trkpt><trkpt lat="45.93868931996819" lon="4.821944737944373"><ele>265.0</ele><time>2026-04-25T09:18:42Z</time></trkpt><trkpt lat="45.938599278205295" lon="4.821943496072057"><ele>265.0</ele><time>2026-04-25T09:18:43Z</time></trkpt><trkpt lat="45.93851170200342" lon="4.821939646409217"><ele>265.0</ele><time>2026-04-25T09:18:44Z</time></trkpt><trkpt lat="45.93842025374555" lon="4.821932233369489"><ele>265.0</ele><time>2026-04-25T09:18:45Z</time></trkpt><trkpt lat="45.93833514504492" lon="4.8219168386355955"><ele>262.3333333333333</ele><time>2026-04-25T09:18:46Z</time></trkpt><trkpt lat="45.93824085318985" lon="4.821909960502061"><ele>259.66666666666663</ele><time>2026-04-25T09:18:47Z</time></trkpt><trkpt lat="45.93814285648605" lon="4.821921126002806"><ele>257.0</ele><time>2026-04-25T09:18:48Z</time></trkpt><trkpt lat="45.93805440751655" lon="4.821886435707762"><ele>254.33333333333331</ele><time>2026-04-25T09:18:49Z</time></trkpt><trkpt lat="45.93795677708202" lon="4.821879467683478"><ele>251.66666666666666</ele><time>2026-04-25T09:18:50Z</time></trkpt><trkpt lat="45.93789144477082" lon="4.821867274245666"><ele>249.0</ele><time>2026-04-25T09:18:51Z</time></trkpt><trkpt lat="45.93782372705837" lon="4.821841203052533"><ele>249.0</ele><time>2026-04-25T09:18:52Z</time></trkpt><trkpt lat="45.93775517188494" lon="4.821815514254912"><ele>249.0</ele><time>2026-04-25T09:18:53Z</time></trkpt><trkpt lat="45.93768911229364" lon="4.821787394276574"><ele>249.0</ele><time>2026-04-25T09:18:54Z</time></trkpt><trkpt lat="45.937585500059676" lon="4.821738910638224"><ele>249.0</ele><time>2026-04-25T09:18:56Z</time></trkpt><trkpt lat="45.9374991808817" lon="4.821701232681846"><ele>249.0</ele><time>2026-04-25T09:18:58Z</time></trkpt><trkpt lat="45.937441909108315" lon="4.821660501670467"><ele>249.0</ele><time>2026-04-25T09:19:02Z</time></trkpt><trkpt lat="45.93735022137677" lon="4.8216864763575185"><ele>245.79999999999998</ele><time>2026-04-25T09:19:07Z</time></trkpt><trkpt lat="45.93722396702337" lon="4.8218033777712614"><ele>242.59999999999997</ele><time>2026-04-25T09:19:09Z</time></trkpt><trkpt lat="45.9371722908119" lon="4.821884686558157"><ele>239.4</ele><time>2026-04-25T09:19:10Z</time></trkpt><trkpt lat="45.93710498846696" lon="4.8219352014859425"><ele>236.2</ele><time>2026-04-25T09:19:11Z</time></trkpt><trkpt lat="45.93706184656779" lon="4.822029742840002"><ele>233.0</ele><time>2026-04-25T09:19:12Z</time></trkpt><trkpt lat="45.937012338779994" lon="4.822115912947447"><ele>233.0</ele><time>2026-04-25T09:19:13Z</time></trkpt><trkpt lat="45.93695933953737" lon="4.822183310383358"><ele>233.0</ele><time>2026-04-25T09:19:14Z</time></trkpt><trkpt lat="45.936905090162014" lon="4.822246720351294"><ele>233.0</ele><time>2026-04-25T09:19:15Z</time></trkpt><trkpt lat="45.93682110441518" lon="4.822397008024165"><ele>233.0</ele><time>2026-04-25T09:19:17Z</time></trkpt><trkpt lat="45.93677767070386" lon="4.822480349364277"><ele>233.0</ele><time>2026-04-25T09:19:18Z</time></trkpt><trkpt lat="45.93670332841348" lon="4.822614588140289"><ele>231.8</ele><time>2026-04-25T09:19:20Z</time></trkpt><trkpt lat="45.936620537344005" lon="4.822690612981634"><ele>230.60000000000002</ele><time>2026-04-25T09:19:22Z</time></trkpt><trkpt lat="45.93652610052911" lon="4.822780938589917"><ele>229.39999999999998</ele><time>2026-04-25T09:19:24Z</time></trkpt><trkpt lat="45.93645270043733" lon="4.822872470753497"><ele>228.2</ele><time>2026-04-25T09:19:26Z</time></trkpt><trkpt lat="45.93638011505249" lon="4.822931377017329"><ele>227.0</ele><time>2026-04-25T09:19:28Z</time></trkpt><trkpt lat="45.936320161311095" lon="4.822995679250241"><ele>227.00000000000003</ele><time>2026-04-25T09:19:30Z</time></trkpt><trkpt lat="45.9362405694906" lon="4.8230915241823045"><ele>227.0</ele><time>2026-04-25T09:19:32Z</time></trkpt><trkpt lat="45.936194896747246" lon="4.823163215453188"><ele>227.0</ele><time>2026-04-25T09:19:33Z</time></trkpt><trkpt lat="45.936148937595576" lon="4.823248116788896"><ele>227.0</ele><time>2026-04-25T09:19:34Z</time></trkpt><trkpt lat="45.93609488737465" lon="4.823357468680761"><ele>227.00000000000003</ele><time>2026-04-25T09:19:36Z</time></trkpt><trkpt lat="45.93604533519874" lon="4.823426293034894"><ele>227.0</ele><time>2026-04-25T09:19:38Z</time></trkpt><trkpt lat="45.935949896311506" lon="4.823354025885462"><ele>225.39999999999998</ele><time>2026-04-25T09:19:40Z</time></trkpt><trkpt lat="45.93582286449557" lon="4.8233074014401325"><ele>223.79999999999998</ele><time>2026-04-25T09:19:42Z</time></trkpt><trkpt lat="45.93569968470461" lon="4.823247169726726"><ele>222.2</ele><time>2026-04-25T09:19:44Z</time></trkpt><trkpt lat="45.93562996923295" lon="4.823227722897977"><ele>220.6</ele><time>2026-04-25T09:19:45Z</time></trkpt><trkpt lat="45.935548556461384" lon="4.823213634442568"><ele>219.0</ele><time>2026-04-25T09:19:46Z</time></trkpt><trkpt lat="45.93547974699034" lon="4.823192235256064"><ele>219.0</ele><time>2026-04-25T09:19:47Z</time></trkpt><trkpt lat="45.9354111661828" lon="4.823196652671555"><ele>218.99999999999997</ele><time>2026-04-25T09:19:48Z</time></trkpt><trkpt lat="45.93529806287072" lon="4.82325070447244"><ele>218.99999999999997</ele><time>2026-04-25T09:19:50Z</time></trkpt><trkpt lat="45.93521082212957" lon="4.8232951026438124"><ele>219.0</ele><time>2026-04-25T09:19:52Z</time></trkpt><trkpt lat="45.935152119117355" lon="4.823383541242728"><ele>219.0</ele><time>2026-04-25T09:19:54Z</time></trkpt><trkpt lat="45.935134000068885" lon="4.823519522095045"><ele>218.83333333333334</ele><time>2026-04-25T09:19:56Z</time></trkpt><trkpt lat="45.93509619077439" lon="4.8236163924787"><ele>218.66666666666669</ele><time>2026-04-25T09:19:58Z</time></trkpt><trkpt lat="45.9350139349432" lon="4.8236184052603885"><ele>218.5</ele><time>2026-04-25T09:20:01Z</time></trkpt><trkpt lat="45.93498012498656" lon="4.823533654161364"><ele>218.33333333333334</ele><time>2026-04-25T09:20:03Z</time></trkpt><trkpt lat="45.93496472822178" lon="4.823378676208574"><ele>218.16666666666669</ele><time>2026-04-25T09:20:05Z</time></trkpt><trkpt lat="45.934956143413004" lon="4.82328372435263"><ele>218.0</ele><time>2026-04-25T09:20:06Z</time></trkpt><trkpt lat="45.93494485685989" lon="4.823180793839218"><ele>216.50000000000003</ele><time>2026-04-25T09:20:07Z</time></trkpt><trkpt lat="45.934930667430365" lon="4.823074407438907"><ele>215.0</ele><time>2026-04-25T09:20:08Z</time></trkpt><trkpt lat="45.9349088737449" lon="4.8229774540311565"><ele>213.5</ele><time>2026-04-25T09:20:09Z</time></trkpt><trkpt lat="45.93489158625747" lon="4.822825895168538"><ele>212.0</ele><time>2026-04-25T09:20:11Z</time></trkpt><trkpt lat="45.93486173746416" lon="4.822721643555562"><ele>210.50000000000003</ele><time>2026-04-25T09:20:14Z</time></trkpt><trkpt lat="45.934747550380095" lon="4.822724175635088"><ele>209.0</ele><time>2026-04-25T09:20:16Z</time></trkpt><trkpt lat="45.93468543076146" lon="4.822748564206862"><ele>209.00000000000003</ele><time>2026-04-25T09:20:17Z</time></trkpt><trkpt lat="45.93460510109721" lon="4.8227786777059025"><ele>209.0</ele><time>2026-04-25T09:20:18Z</time></trkpt><trkpt lat="45.93450734975754" lon="4.822814074092716"><ele>209.0</ele><time>2026-04-25T09:20:19Z</time></trkpt><trkpt lat="45.93442519125824" lon="4.822839822339861"><ele>209.0</ele><time>2026-04-25T09:20:20Z</time></trkpt><trkpt lat="45.93436067475132" lon="4.82286754755666"><ele>209.00000000000003</ele><time>2026-04-25T09:20:21Z</time></trkpt><trkpt lat="45.934296430665" lon="4.822898713004981"><ele>209.0</ele><time>2026-04-25T09:20:22Z</time></trkpt><trkpt lat="45.93422925966347" lon="4.822928924663652"><ele>208.0</ele><time>2026-04-25T09:20:23Z</time></trkpt><trkpt lat="45.934162887811105" lon="4.822942386342291"><ele>207.0</ele><time>2026-04-25T09:20:24Z</time></trkpt><trkpt lat="45.93405960854571" lon="4.822876385244339"><ele>206.0</ele><time>2026-04-25T09:20:26Z</time></trkpt><trkpt lat="45.93396748385105" lon="4.822773334652646"><ele>205.0</ele><time>2026-04-25T09:20:28Z</time></trkpt><trkpt lat="45.933909678387344" lon="4.822686653185821"><ele>204.0</ele><time>2026-04-25T09:20:29Z</time></trkpt><trkpt lat="45.93394414728754" lon="4.822518260496327"><ele>203.79999999999998</ele><time>2026-04-25T09:20:30Z</time></trkpt><trkpt lat="45.93390712444795" lon="4.822385233958589"><ele>203.6</ele><time>2026-04-25T09:20:31Z</time></trkpt><trkpt lat="45.933881333930415" lon="4.822207770871864"><ele>203.4</ele><time>2026-04-25T09:20:32Z</time></trkpt><trkpt lat="45.93382799773155" lon="4.822100172737723"><ele>203.2</ele><time>2026-04-25T09:20:33Z</time></trkpt><trkpt lat="45.93379826070418" lon="4.822008121948712"><ele>203.0</ele><time>2026-04-25T09:20:34Z</time></trkpt><trkpt lat="45.933750332559214" lon="4.821944664814934"><ele>203.00000000000003</ele><time>2026-04-25T09:20:35Z</time></trkpt><trkpt lat="45.93372853019803" lon="4.821850267680103"><ele>203.0</ele><time>2026-04-25T09:20:36Z</time></trkpt><trkpt lat="45.93369403222754" lon="4.821770464813678"><ele>203.0</ele><time>2026-04-25T09:20:37Z</time></trkpt><trkpt lat="45.933641033380226" lon="4.821636112261578"><ele>203.0</ele><time>2026-04-25T09:20:39Z</time></trkpt><trkpt lat="45.93360730982561" lon="4.82151821486101"><ele>203.00000000000003</ele><time>2026-04-25T09:20:41Z</time></trkpt><trkpt lat="45.933718615734044" lon="4.82149938023093"><ele>203.0</ele><time>2026-04-25T09:20:44Z</time></trkpt><trkpt lat="45.933792244289094" lon="4.821481603924189"><ele>202.50000000000003</ele><time>2026-04-25T09:20:47Z</time></trkpt><trkpt lat="45.93368300261236" lon="4.821497042014923"><ele>202.0</ele><time>2026-04-25T09:22:41Z</time></trkpt><trkpt lat="45.933615541449086" lon="4.8214933862652805"><ele>201.5</ele><time>2026-04-25T09:22:43Z</time></trkpt><trkpt lat="45.93361286563743" lon="4.821589240164229"><ele>201.0</ele><time>2026-04-25T09:22:49Z</time></trkpt><trkpt lat="45.933634465191076" lon="4.8216930810441845"><ele>200.50000000000003</ele><time>2026-04-25T09:22:51Z</time></trkpt><trkpt lat="45.933590371061925" lon="4.8217579448174375"><ele>200.0</ele><time>2026-04-25T09:22:53Z</time></trkpt><trkpt lat="45.933432785353666" lon="4.821809615231624"><ele>199.6</ele><time>2026-04-25T09:22:55Z</time></trkpt><trkpt lat="45.93332474852205" lon="4.821698021286356"><ele>199.2</ele><time>2026-04-25T09:22:56Z</time></trkpt><trkpt lat="45.93323777717517" lon="4.821693653107363"><ele>198.8</ele><time>2026-04-25T09:22:57Z</time></trkpt><trkpt lat="45.93313154722645" lon="4.821687197428563"><ele>198.4</ele><time>2026-04-25T09:22:58Z</time></trkpt><trkpt lat="45.933039092147524" lon="4.821674366639818"><ele>198.0</ele><time>2026-04-25T09:22:59Z</time></trkpt><trkpt lat="45.93293500228162" lon="4.821651877855099"><ele>198.0</ele><time>2026-04-25T09:23:00Z</time></trkpt><trkpt lat="45.93281381957114" lon="4.82164185685356"><ele>198.0</ele><time>2026-04-25T09:23:01Z</time></trkpt><trkpt lat="45.93270693192725" lon="4.821620525060852"><ele>198.0</ele><time>2026-04-25T09:23:02Z</time></trkpt><trkpt lat="45.93262064935536" lon="4.821599525757766"><ele>198.0</ele><time>2026-04-25T09:23:03Z</time></trkpt><trkpt lat="45.93254149003727" lon="4.821581798773781"><ele>198.0</ele><time>2026-04-25T09:23:04Z</time></trkpt><trkpt lat="45.93248007182891" lon="4.821607542998215"><ele>197.60000000000002</ele><time>2026-04-25T09:23:05Z</time></trkpt><trkpt lat="45.93240698424518" lon="4.821617876914915"><ele>197.20000000000002</ele><time>2026-04-25T09:23:06Z</time></trkpt><trkpt lat="45.93233862561171" lon="4.8216250958124975"><ele>196.8</ele><time>2026-04-25T09:23:07Z</time></trkpt><trkpt lat="45.93223574908919" lon="4.8216372544459105"><ele>196.4</ele><time>2026-04-25T09:23:09Z</time></trkpt><trkpt lat="45.932166471152605" lon="4.821676091209074"><ele>196.0</ele><time>2026-04-25T09:23:12Z</time></trkpt><trkpt lat="45.93203671374298" lon="4.821501157848961"><ele>196.0</ele><time>2026-04-25T09:24:23Z</time></trkpt></trkseg><trkseg><trkpt lat="45.93209779252635" lon="4.821508649222843"><ele>196.0</ele><time>2026-04-25T10:19:17.999Z</time></trkpt><trkpt lat="45.932126866396004" lon="4.821609210119768"><ele>196.0</ele><time>2026-04-25T10:19:46.998Z</time></trkpt><trkpt lat="45.93216228153475" lon="4.821691134791193"><ele>196.0</ele><time>2026-04-25T10:19:53.998Z</time></trkpt><trkpt lat="45.932258161649166" lon="4.821682426586708"><ele>196.0</ele><time>2026-04-25T10:20:00.999Z</time></trkpt><trkpt lat="45.93239904714311" lon="4.821645383181378"><ele>196.0</ele><time>2026-04-25T10:20:02.999Z</time></trkpt><trkpt lat="45.93250685096943" lon="4.821640381531209"><ele>196.4</ele><time>2026-04-25T10:20:03.999Z</time></trkpt><trkpt lat="45.93258944829905" lon="4.821639765653793"><ele>196.8</ele><time>2026-04-25T10:20:04.999Z</time></trkpt><trkpt lat="45.932693618331996" lon="4.821662672810013"><ele>197.20000000000002</ele><time>2026-04-25T10:20:06.999Z</time></trkpt><trkpt lat="45.932769086865676" lon="4.821664928368116"><ele>197.60000000000002</ele><time>2026-04-25T10:20:07.999Z</time></trkpt><trkpt lat="45.93285688601106" lon="4.821689095187627"><ele>198.0</ele><time>2026-04-25T10:20:08.999Z</time></trkpt><trkpt lat="45.932964920502236" lon="4.821710860043153"><ele>198.0</ele><time>2026-04-25T10:20:09.999Z</time></trkpt><trkpt lat="45.933089374571956" lon="4.821741375319337"><ele>198.0</ele><time>2026-04-25T10:20:10.999Z</time></trkpt><trkpt lat="45.93318615777649" lon="4.8217520195905825"><ele>198.0</ele><time>2026-04-25T10:20:11.999Z</time></trkpt><trkpt lat="45.933264022273995" lon="4.821748341846125"><ele>198.0</ele><time>2026-04-25T10:20:12.999Z</time></trkpt><trkpt lat="45.93338660982528" lon="4.821757682461487"><ele>198.0</ele><time>2026-04-25T10:20:14.999Z</time></trkpt><trkpt lat="45.93348943884764" lon="4.821775455353395"><ele>198.4</ele><time>2026-04-25T10:20:16.999Z</time></trkpt><trkpt lat="45.9335562622342" lon="4.8217952234808426"><ele>198.8</ele><time>2026-04-25T10:20:18.999Z</time></trkpt><trkpt lat="45.93361861326388" lon="4.821772043398901"><ele>199.2</ele><time>2026-04-25T10:20:23.999Z</time></trkpt><trkpt lat="45.93362479648051" lon="4.821591508884836"><ele>199.6</ele><time>2026-04-25T10:20:32.999Z</time></trkpt><trkpt lat="45.93357442915921" lon="4.821465629361135"><ele>200.0</ele><time>2026-04-25T10:20:33.999Z</time></trkpt><trkpt lat="45.93354618335667" lon="4.8213291164309995"><ele>200.00000000000003</ele><time>2026-04-25T10:20:34.999Z</time></trkpt><trkpt lat="45.933517316979945" lon="4.821231684452881"><ele>200.0</ele><time>2026-04-25T10:20:35.999Z</time></trkpt><trkpt lat="45.93346581794086" lon="4.8211337844556486"><ele>200.0</ele><time>2026-04-25T10:20:36.999Z</time></trkpt><trkpt lat="45.933436805770306" lon="4.821025149544295"><ele>200.0</ele><time>2026-04-25T10:20:37.999Z</time></trkpt><trkpt lat="45.933398385684" lon="4.820893613611536"><ele>200.00000000000003</ele><time>2026-04-25T10:20:38.999Z</time></trkpt><trkpt lat="45.93336405805997" lon="4.8207836075794255"><ele>200.0</ele><time>2026-04-25T10:20:39.999Z</time></trkpt><trkpt lat="45.933338926662145" lon="4.820683497348677"><ele>198.75</ele><time>2026-04-25T10:20:40.999Z</time></trkpt><trkpt lat="45.93329393495647" lon="4.8205184515621005"><ele>197.5</ele><time>2026-04-25T10:20:42.999Z</time></trkpt><trkpt lat="45.93324072643836" lon="4.820331211400084"><ele>196.25</ele><time>2026-04-25T10:20:44.999Z</time></trkpt><trkpt lat="45.93320646422291" lon="4.8201962042570505"><ele>195.0</ele><time>2026-04-25T10:20:46Z</time></trkpt><trkpt lat="45.93317352379693" lon="4.82002972411293"><ele>194.8</ele><time>2026-04-25T10:20:47Z</time></trkpt><trkpt lat="45.93314178576874" lon="4.819869231996687"><ele>194.6</ele><time>2026-04-25T10:20:48Z</time></trkpt><trkpt lat="45.93311269510671" lon="4.819727582085298"><ele>194.39999999999998</ele><time>2026-04-25T10:20:49Z</time></trkpt><trkpt lat="45.933076361549304" lon="4.819587724870812"><ele>194.2</ele><time>2026-04-25T10:20:50Z</time></trkpt><trkpt lat="45.93303874471516" lon="4.819434968205894"><ele>194.0</ele><time>2026-04-25T10:20:51Z</time></trkpt><trkpt lat="45.932991140351135" lon="4.819283074529204"><ele>193.50000000000003</ele><time>2026-04-25T10:20:52Z</time></trkpt><trkpt lat="45.93294796502352" lon="4.819154052193666"><ele>193.0</ele><time>2026-04-25T10:20:53Z</time></trkpt><trkpt lat="45.932911341251724" lon="4.81904580707664"><ele>192.5</ele><time>2026-04-25T10:20:54Z</time></trkpt><trkpt lat="45.93289057218868" lon="4.818948659623587"><ele>192.0</ele><time>2026-04-25T10:20:55Z</time></trkpt><trkpt lat="45.93285309938377" lon="4.818848749836754"><ele>191.5</ele><time>2026-04-25T10:20:56Z</time></trkpt><trkpt lat="45.93281719602189" lon="4.818736886567029"><ele>191.0</ele><time>2026-04-25T10:20:57Z</time></trkpt><trkpt lat="45.932786609553006" lon="4.8186449749091995"><ele>191.0</ele><time>2026-04-25T10:20:58Z</time></trkpt><trkpt lat="45.932736821130774" lon="4.818512889775249"><ele>191.0</ele><time>2026-04-25T10:21:00Z</time></trkpt><trkpt lat="45.93270729068786" lon="4.818432942565736"><ele>191.0</ele><time>2026-04-25T10:21:02Z</time></trkpt><trkpt lat="45.93252241400473" lon="4.818173208390705"><ele>191.0</ele><time>2026-04-25T10:21:10Z</time></trkpt><trkpt lat="45.932453754428565" lon="4.81807361730569"><ele>190.0</ele><time>2026-04-25T10:21:11Z</time></trkpt><trkpt lat="45.93239915212358" lon="4.817959975439744"><ele>189.0</ele><time>2026-04-25T10:21:12Z</time></trkpt><trkpt lat="45.93233428926186" lon="4.817826148506893"><ele>188.0</ele><time>2026-04-25T10:21:13Z</time></trkpt><trkpt lat="45.93226713927798" lon="4.817677723815324"><ele>187.0</ele><time>2026-04-25T10:21:14Z</time></trkpt><trkpt lat="45.93220002358479" lon="4.817506856712377"><ele>186.25</ele><time>2026-04-25T10:21:15Z</time></trkpt><trkpt lat="45.93213540184147" lon="4.817335015453498"><ele>185.5</ele><time>2026-04-25T10:21:16Z</time></trkpt><trkpt lat="45.93206725616613" lon="4.817178135583068"><ele>184.75</ele><time>2026-04-25T10:21:17Z</time></trkpt><trkpt lat="45.93201840942871" lon="4.817031676817914"><ele>184.0</ele><time>2026-04-25T10:21:18Z</time></trkpt><trkpt lat="45.931972126505855" lon="4.816886793515226"><ele>183.75</ele><time>2026-04-25T10:21:19Z</time></trkpt><trkpt lat="45.93192650467337" lon="4.816738723727423"><ele>183.5</ele><time>2026-04-25T10:21:20Z</time></trkpt><trkpt lat="45.931887245722464" lon="4.81658538953915"><ele>183.25</ele><time>2026-04-25T10:21:21Z</time></trkpt><trkpt lat="45.93184737743111" lon="4.816434448802622"><ele>183.0</ele><time>2026-04-25T10:21:22Z</time></trkpt><trkpt lat="45.93180288202776" lon="4.816266136089715"><ele>183.0</ele><time>2026-04-25T10:21:23Z</time></trkpt><trkpt lat="45.93176089679676" lon="4.816084493438664"><ele>183.0</ele><time>2026-04-25T10:21:24Z</time></trkpt><trkpt lat="45.93172209753469" lon="4.815890666900133"><ele>183.0</ele><time>2026-04-25T10:21:25Z</time></trkpt><trkpt lat="45.93169617796498" lon="4.8157200091506605"><ele>183.0</ele><time>2026-04-25T10:21:26Z</time></trkpt><trkpt lat="45.931665437440785" lon="4.815569457960622"><ele>182.33333333333334</ele><time>2026-04-25T10:21:27Z</time></trkpt><trkpt lat="45.93164020324686" lon="4.8154331169291025"><ele>181.66666666666666</ele><time>2026-04-25T10:21:28Z</time></trkpt><trkpt lat="45.931619373212044" lon="4.815313596601822"><ele>181.0</ele><time>2026-04-25T10:21:29Z</time></trkpt><trkpt lat="45.931598665001665" lon="4.815197143238254"><ele>180.33333333333331</ele><time>2026-04-25T10:21:30Z</time></trkpt><trkpt lat="45.931582259882504" lon="4.815090936958595"><ele>179.66666666666666</ele><time>2026-04-25T10:21:31Z</time></trkpt><trkpt lat="45.93157065159169" lon="4.814999707078835"><ele>179.0</ele><time>2026-04-25T10:21:32Z</time></trkpt><trkpt lat="45.931554023467356" lon="4.814840823721379"><ele>178.6</ele><time>2026-04-25T10:21:34Z</time></trkpt><trkpt lat="45.93154788615813" lon="4.814677896521334"><ele>178.2</ele><time>2026-04-25T10:21:36Z</time></trkpt><trkpt lat="45.931534893247445" lon="4.814511438115112"><ele>177.79999999999998</ele><time>2026-04-25T10:21:38Z</time></trkpt><trkpt lat="45.93148284080587" lon="4.814327047350489"><ele>177.39999999999998</ele><time>2026-04-25T10:21:40Z</time></trkpt><trkpt lat="45.9314695338671" lon="4.814213723295617"><ele>177.0</ele><time>2026-04-25T10:21:41Z</time></trkpt><trkpt lat="45.93145642687253" lon="4.814093910775594"><ele>177.0</ele><time>2026-04-25T10:21:42Z</time></trkpt><trkpt lat="45.93144316432559" lon="4.8139508549798755"><ele>177.0</ele><time>2026-04-25T10:21:43Z</time></trkpt><trkpt lat="45.93142898280047" lon="4.813810358237301"><ele>177.0</ele><time>2026-04-25T10:21:43.998Z</time></trkpt><trkpt lat="45.93140803511931" lon="4.813640546283309"><ele>177.0</ele><time>2026-04-25T10:21:44.997Z</time></trkpt><trkpt lat="45.93138598088791" lon="4.813473643842445"><ele>177.0</ele><time>2026-04-25T10:21:45.998Z</time></trkpt><trkpt lat="45.931368007461856" lon="4.81331694664977"><ele>176.83333333333334</ele><time>2026-04-25T10:21:46.998Z</time></trkpt><trkpt lat="45.93134734799352" lon="4.8131876881231435"><ele>176.66666666666666</ele><time>2026-04-25T10:21:47.998Z</time></trkpt><trkpt lat="45.93132824257964" lon="4.813069797892551"><ele>176.5</ele><time>2026-04-25T10:21:48.998Z</time></trkpt><trkpt lat="45.93131111428594" lon="4.812959593210913"><ele>176.33333333333331</ele><time>2026-04-25T10:21:49.998Z</time></trkpt><trkpt lat="45.93130314259776" lon="4.812850722244203"><ele>176.16666666666666</ele><time>2026-04-25T10:21:50.998Z</time></trkpt><trkpt lat="45.93129727072711" lon="4.812747626539944"><ele>176.0</ele><time>2026-04-25T10:21:51.998Z</time></trkpt><trkpt lat="45.93129041975681" lon="4.812649775320602"><ele>176.0</ele><time>2026-04-25T10:21:52.998Z</time></trkpt><trkpt lat="45.93125398241414" lon="4.812493892313006"><ele>176.0</ele><time>2026-04-25T10:21:54.998Z</time></trkpt><trkpt lat="45.93116448097861" lon="4.8123857636120375"><ele>176.0</ele><time>2026-04-25T10:21:56.998Z</time></trkpt><trkpt lat="45.93109880746906" lon="4.812364105996988"><ele>176.0</ele><time>2026-04-25T10:21:57.998Z</time></trkpt><trkpt lat="45.931014973519574" lon="4.812355255961683"><ele>176.0</ele><time>2026-04-25T10:21:58.998Z</time></trkpt><trkpt lat="45.930923935922756" lon="4.81233833079063"><ele>175.75</ele><time>2026-04-25T10:21:59.998Z</time></trkpt><trkpt lat="45.93081501366596" lon="4.812320647738175"><ele>175.5</ele><time>2026-04-25T10:22:00.998Z</time></trkpt><trkpt lat="45.93069518408994" lon="4.812303904721919"><ele>175.25</ele><time>2026-04-25T10:22:01.998Z</time></trkpt><trkpt lat="45.930569768868104" lon="4.812288411709978"><ele>175.0</ele><time>2026-04-25T10:22:02.998Z</time></trkpt><trkpt lat="45.930457448099354" lon="4.812276185064975"><ele>175.0</ele><time>2026-04-25T10:22:03.998Z</time></trkpt><trkpt lat="45.93034679694884" lon="4.812262495926811"><ele>175.0</ele><time>2026-04-25T10:22:04.999Z</time></trkpt><trkpt lat="45.93024012841458" lon="4.81224602544007"><ele>175.0</ele><time>2026-04-25T10:22:05.999Z</time></trkpt><trkpt lat="45.93012822194316" lon="4.812237137090122"><ele>175.0</ele><time>2026-04-25T10:22:06.999Z</time></trkpt><trkpt lat="45.93001886328967" lon="4.812221939565105"><ele>175.0</ele><time>2026-04-25T10:22:07.999Z</time></trkpt><trkpt lat="45.92992033842158" lon="4.812211137535196"><ele>174.2</ele><time>2026-04-25T10:22:08.999Z</time></trkpt><trkpt lat="45.929833775181855" lon="4.812203373425356"><ele>173.4</ele><time>2026-04-25T10:22:09.999Z</time></trkpt><trkpt lat="45.929754723882134" lon="4.812196602623773"><ele>172.60000000000002</ele><time>2026-04-25T10:22:10.999Z</time></trkpt><trkpt lat="45.92962729995777" lon="4.81219235335945"><ele>171.8</ele><time>2026-04-25T10:22:12.999Z</time></trkpt><trkpt lat="45.929543355266226" lon="4.8121925771332"><ele>171.0</ele><time>2026-04-25T10:22:13.999Z</time></trkpt><trkpt lat="45.92944903753364" lon="4.812186919458438"><ele>171.0</ele><time>2026-04-25T10:22:14.999Z</time></trkpt><trkpt lat="45.929344127703835" lon="4.812178715623845"><ele>171.0</ele><time>2026-04-25T10:22:15.999Z</time></trkpt><trkpt lat="45.929230050750355" lon="4.812168042582396"><ele>171.0</ele><time>2026-04-25T10:22:16.999Z</time></trkpt><trkpt lat="45.92910623242204" lon="4.812161724528114"><ele>171.0</ele><time>2026-04-25T10:22:17.999Z</time></trkpt><trkpt lat="45.92897465181231" lon="4.812153815591759"><ele>170.75</ele><time>2026-04-25T10:22:18.999Z</time></trkpt><trkpt lat="45.92883650959484" lon="4.8121442607645735"><ele>170.5</ele><time>2026-04-25T10:22:19.999Z</time></trkpt><trkpt lat="45.92869427006718" lon="4.812132460685569"><ele>170.25</ele><time>2026-04-25T10:22:20.999Z</time></trkpt><trkpt lat="45.92855289102934" lon="4.812118589812813"><ele>170.0</ele><time>2026-04-25T10:22:21.999Z</time></trkpt><trkpt lat="45.92843081950493" lon="4.812112157553559"><ele>170.2</ele><time>2026-04-25T10:22:22.999Z</time></trkpt><trkpt lat="45.928322123397606" lon="4.812105937008482"><ele>170.4</ele><time>2026-04-25T10:22:23.999Z</time></trkpt><trkpt lat="45.92821583983701" lon="4.812098359332846"><ele>170.60000000000002</ele><time>2026-04-25T10:22:24.999Z</time></trkpt><trkpt lat="45.92811856298704" lon="4.812088516657519"><ele>170.8</ele><time>2026-04-25T10:22:25.999Z</time></trkpt><trkpt lat="45.928037928163256" lon="4.81207521365734"><ele>171.0</ele><time>2026-04-25T10:22:26.999Z</time></trkpt><trkpt lat="45.9279712616305" lon="4.812043753191557"><ele>171.0</ele><time>2026-04-25T10:22:27.999Z</time></trkpt><trkpt lat="45.92788720102697" lon="4.8119268062948635"><ele>171.0</ele><time>2026-04-25T10:22:29.999Z</time></trkpt><trkpt lat="45.92784042333351" lon="4.811785761017834"><ele>171.0</ele><time>2026-04-25T10:22:31.999Z</time></trkpt><trkpt lat="45.927811904685775" lon="4.811616242115098"><ele>171.0</ele><time>2026-04-25T10:22:33.999Z</time></trkpt><trkpt lat="45.927794456959525" lon="4.81152898969402"><ele>171.0</ele><time>2026-04-25T10:22:34.999Z</time></trkpt><trkpt lat="45.927770387671835" lon="4.811384665433924"><ele>171.0</ele><time>2026-04-25T10:22:36.999Z</time></trkpt><trkpt lat="45.92766586479733" lon="4.811365665516516"><ele>171.0</ele><time>2026-04-25T10:22:37.999Z</time></trkpt><trkpt lat="45.92754284525465" lon="4.811398530848069"><ele>171.0</ele><time>2026-04-25T10:22:40Z</time></trkpt><trkpt lat="45.92748560442551" lon="4.8114578618097905"><ele>171.0</ele><time>2026-04-25T10:22:41Z</time></trkpt><trkpt lat="45.927419258768765" lon="4.811523701001434"><ele>171.0</ele><time>2026-04-25T10:22:42Z</time></trkpt><trkpt lat="45.927333011814675" lon="4.811574333004967"><ele>170.75</ele><time>2026-04-25T10:22:43Z</time></trkpt><trkpt lat="45.92722587903847" lon="4.8116033650472"><ele>170.5</ele><time>2026-04-25T10:22:44Z</time></trkpt><trkpt lat="45.927121725450945" lon="4.8116741148236954"><ele>170.25</ele><time>2026-04-25T10:22:45Z</time></trkpt><trkpt lat="45.92696555814708" lon="4.811670018258406"><ele>170.0</ele><time>2026-04-25T10:22:46Z</time></trkpt><trkpt lat="45.92681079423668" lon="4.81170304371223"><ele>170.33333333333331</ele><time>2026-04-25T10:22:47Z</time></trkpt><trkpt lat="45.9266460507626" lon="4.811735752541943"><ele>170.66666666666666</ele><time>2026-04-25T10:22:48Z</time></trkpt><trkpt lat="45.926483662375155" lon="4.8117630405177385"><ele>171.0</ele><time>2026-04-25T10:22:49Z</time></trkpt><trkpt lat="45.92631017559091" lon="4.811788263198952"><ele>171.0</ele><time>2026-04-25T10:22:50Z</time></trkpt><trkpt lat="45.92612244846496" lon="4.81180690012248"><ele>171.0</ele><time>2026-04-25T10:22:51Z</time></trkpt><trkpt lat="45.92592394492724" lon="4.811819035585087"><ele>171.0</ele><time>2026-04-25T10:22:52Z</time></trkpt><trkpt lat="45.9257144156043" lon="4.811827219211452"><ele>171.0</ele><time>2026-04-25T10:22:53Z</time></trkpt><trkpt lat="45.9255118745647" lon="4.811836189411061"><ele>171.0</ele><time>2026-04-25T10:22:54Z</time></trkpt><trkpt lat="45.92529488967687" lon="4.811847457299957"><ele>171.0</ele><time>2026-04-25T10:22:55Z</time></trkpt><trkpt lat="45.92507263738119" lon="4.811862818129444"><ele>170.66666666666666</ele><time>2026-04-25T10:22:56Z</time></trkpt><trkpt lat="45.92487580949576" lon="4.8118839343030695"><ele>170.33333333333331</ele><time>2026-04-25T10:22:57Z</time></trkpt><trkpt lat="45.92469417881209" lon="4.811897891258435"><ele>170.0</ele><time>2026-04-25T10:22:58Z</time></trkpt><trkpt lat="45.924528381614614" lon="4.811910806129925"><ele>170.0</ele><time>2026-04-25T10:22:59Z</time></trkpt><trkpt lat="45.92437374617873" lon="4.811930846265515"><ele>170.0</ele><time>2026-04-25T10:23:00Z</time></trkpt><trkpt lat="45.92423086908398" lon="4.811957106159074"><ele>170.0</ele><time>2026-04-25T10:23:01Z</time></trkpt><trkpt lat="45.92408957144234" lon="4.811998189787456"><ele>170.0</ele><time>2026-04-25T10:23:02Z</time></trkpt><trkpt lat="45.923947496902336" lon="4.812066472289481"><ele>170.0</ele><time>2026-04-25T10:23:03Z</time></trkpt><trkpt lat="45.923798013490014" lon="4.812156776820906"><ele>170.0</ele><time>2026-04-25T10:23:04Z</time></trkpt><trkpt lat="45.92362889231871" lon="4.81226633970758"><ele>170.0</ele><time>2026-04-25T10:23:05Z</time></trkpt><trkpt lat="45.92344616342356" lon="4.812377595763042"><ele>170.0</ele><time>2026-04-25T10:23:06Z</time></trkpt><trkpt lat="45.923273845929565" lon="4.812487431638401"><ele>170.0</ele><time>2026-04-25T10:23:07Z</time></trkpt><trkpt lat="45.923110950353596" lon="4.812589809016664"><ele>170.0</ele><time>2026-04-25T10:23:08Z</time></trkpt><trkpt lat="45.92295834858167" lon="4.812688102460452"><ele>170.0</ele><time>2026-04-25T10:23:09Z</time></trkpt><trkpt lat="45.92281441323957" lon="4.812785490710318"><ele>170.0</ele><time>2026-04-25T10:23:10Z</time></trkpt><trkpt lat="45.922680874511485" lon="4.8128783320871715"><ele>170.0</ele><time>2026-04-25T10:23:11Z</time></trkpt><trkpt lat="45.922556109774035" lon="4.81295926812597"><ele>170.0</ele><time>2026-04-25T10:23:12Z</time></trkpt><trkpt lat="45.92244059745464" lon="4.813042357882726"><ele>170.2</ele><time>2026-04-25T10:23:13Z</time></trkpt><trkpt lat="45.92233755261575" lon="4.81312752900736"><ele>170.4</ele><time>2026-04-25T10:23:14Z</time></trkpt><trkpt lat="45.922241855625195" lon="4.813211366506534"><ele>170.60000000000002</ele><time>2026-04-25T10:23:15Z</time></trkpt><trkpt lat="45.92215762348836" lon="4.8132865911509315"><ele>170.8</ele><time>2026-04-25T10:23:16Z</time></trkpt><trkpt lat="45.922077461227694" lon="4.813360509412887"><ele>171.0</ele><time>2026-04-25T10:23:17Z</time></trkpt><trkpt lat="45.92199076692783" lon="4.813430319413772"><ele>171.0</ele><time>2026-04-25T10:23:18Z</time></trkpt><trkpt lat="45.921893408857194" lon="4.813483072396422"><ele>171.0</ele><time>2026-04-25T10:23:19Z</time></trkpt><trkpt lat="45.92179378591141" lon="4.813526925343509"><ele>171.0</ele><time>2026-04-25T10:23:20Z</time></trkpt><trkpt lat="45.921698048302446" lon="4.813592140218315"><ele>171.0</ele><time>2026-04-25T10:23:21Z</time></trkpt><trkpt lat="45.921605243747514" lon="4.813674958891007"><ele>171.0</ele><time>2026-04-25T10:23:22Z</time></trkpt><trkpt lat="45.92150228889275" lon="4.813732837597524"><ele>170.75</ele><time>2026-04-25T10:23:23Z</time></trkpt><trkpt lat="45.92137625121109" lon="4.813766884733317"><ele>170.5</ele><time>2026-04-25T10:23:24Z</time></trkpt><trkpt lat="45.9212415513439" lon="4.813799532775499"><ele>170.25</ele><time>2026-04-25T10:23:25Z</time></trkpt><trkpt lat="45.92109882917794" lon="4.813857186290985"><ele>170.0</ele><time>2026-04-25T10:23:26Z</time></trkpt><trkpt lat="45.92094856505349" lon="4.813932772834065"><ele>170.0</ele><time>2026-04-25T10:23:27Z</time></trkpt><trkpt lat="45.920789051240014" lon="4.814023381501066"><ele>170.0</ele><time>2026-04-25T10:23:28Z</time></trkpt><trkpt lat="45.92062345405695" lon="4.814128780157859"><ele>170.0</ele><time>2026-04-25T10:23:29Z</time></trkpt><trkpt lat="45.920446339594946" lon="4.814233193791169"><ele>170.33333333333331</ele><time>2026-04-25T10:23:30Z</time></trkpt><trkpt lat="45.920264037813396" lon="4.814336700102471"><ele>170.66666666666666</ele><time>2026-04-25T10:23:31Z</time></trkpt><trkpt lat="45.92008320929647" lon="4.8144365478213835"><ele>171.0</ele><time>2026-04-25T10:23:32Z</time></trkpt><trkpt lat="45.91988507938672" lon="4.8145319933661455"><ele>171.0</ele><time>2026-04-25T10:23:33Z</time></trkpt><trkpt lat="45.919674844822254" lon="4.81461699127435"><ele>171.0</ele><time>2026-04-25T10:23:34Z</time></trkpt><trkpt lat="45.919456437436764" lon="4.814697542377987"><ele>171.0</ele><time>2026-04-25T10:23:35Z</time></trkpt><trkpt lat="45.9192435951346" lon="4.8147717745773315"><ele>170.66666666666666</ele><time>2026-04-25T10:23:36Z</time></trkpt><trkpt lat="45.91903041414688" lon="4.81484923499076"><ele>170.33333333333331</ele><time>2026-04-25T10:23:37Z</time></trkpt><trkpt lat="45.91883698610331" lon="4.814925231740316"><ele>170.0</ele><time>2026-04-25T10:23:38Z</time></trkpt><trkpt lat="45.91865193444765" lon="4.814996647700296"><ele>170.0</ele><time>2026-04-25T10:23:39Z</time></trkpt><trkpt lat="45.91847159004713" lon="4.815059221490753"><ele>170.0</ele><time>2026-04-25T10:23:40Z</time></trkpt><trkpt lat="45.91828852054281" lon="4.815120663380859"><ele>170.0</ele><time>2026-04-25T10:23:41Z</time></trkpt><trkpt lat="45.918103701665224" lon="4.815191905005527"><ele>169.66666666666666</ele><time>2026-04-25T10:23:42Z</time></trkpt><trkpt lat="45.91791690242409" lon="4.815263527450041"><ele>169.33333333333334</ele><time>2026-04-25T10:23:43Z</time></trkpt><trkpt lat="45.91773338439617" lon="4.81532245314909"><ele>169.0</ele><time>2026-04-25T10:23:44Z</time></trkpt><trkpt lat="45.91756759127041" lon="4.815379691988743"><ele>168.66666666666669</ele><time>2026-04-25T10:23:45Z</time></trkpt><trkpt lat="45.9174065918186" lon="4.815439876295337"><ele>168.33333333333334</ele><time>2026-04-25T10:23:46Z</time></trkpt><trkpt lat="45.917238526465034" lon="4.815489645913621"><ele>168.0</ele><time>2026-04-25T10:23:47Z</time></trkpt><trkpt lat="45.91705550354317" lon="4.815540508205754"><ele>168.0</ele><time>2026-04-25T10:23:48Z</time></trkpt><trkpt lat="45.91688637292978" lon="4.8155854109797795"><ele>168.0</ele><time>2026-04-25T10:23:49Z</time></trkpt><trkpt lat="45.916715471454424" lon="4.815624418516825"><ele>168.0</ele><time>2026-04-25T10:23:49.998Z</time></trkpt><trkpt lat="45.91653861822115" lon="4.815661692965956"><ele>168.66666666666666</ele><time>2026-04-25T10:23:50.998Z</time></trkpt><trkpt lat="45.91635758420042" lon="4.815706060792146"><ele>169.33333333333331</ele><time>2026-04-25T10:23:51.998Z</time></trkpt><trkpt lat="45.91617663094663" lon="4.815743580064117"><ele>170.0</ele><time>2026-04-25T10:23:52.998Z</time></trkpt><trkpt lat="45.91600986794344" lon="4.815772119501901"><ele>170.0</ele><time>2026-04-25T10:23:53.998Z</time></trkpt><trkpt lat="45.915851402553656" lon="4.815803698223159"><ele>170.0</ele><time>2026-04-25T10:23:54.998Z</time></trkpt><trkpt lat="45.91568873871808" lon="4.815839032693703"><ele>170.0</ele><time>2026-04-25T10:23:55.998Z</time></trkpt><trkpt lat="45.9155179395385" lon="4.815865991744925"><ele>170.0</ele><time>2026-04-25T10:23:56.998Z</time></trkpt><trkpt lat="45.915346895913764" lon="4.8158902885028905"><ele>170.0</ele><time>2026-04-25T10:23:57.998Z</time></trkpt><trkpt lat="45.915183656051894" lon="4.81591816982921"><ele>170.0</ele><time>2026-04-25T10:23:58.998Z</time></trkpt><trkpt lat="45.91501609307389" lon="4.815951063349572"><ele>169.66666666666666</ele><time>2026-04-25T10:23:59.998Z</time></trkpt><trkpt lat="45.91484582933726" lon="4.815975262140597"><ele>169.33333333333334</ele><time>2026-04-25T10:24:00.998Z</time></trkpt><trkpt lat="45.91468264336635" lon="4.815989447031446"><ele>169.0</ele><time>2026-04-25T10:24:01.998Z</time></trkpt><trkpt lat="45.91451547198458" lon="4.816005730883106"><ele>169.33333333333334</ele><time>2026-04-25T10:24:02.998Z</time></trkpt><trkpt lat="45.914348263917546" lon="4.816024145675337"><ele>169.66666666666666</ele><time>2026-04-25T10:24:03.998Z</time></trkpt><trkpt lat="45.91418855868557" lon="4.816036548264005"><ele>170.0</ele><time>2026-04-25T10:24:04.998Z</time></trkpt><trkpt lat="45.91402887472186" lon="4.816046277065093"><ele>170.0</ele><time>2026-04-25T10:24:05.999Z</time></trkpt><trkpt lat="45.913868277880816" lon="4.8160568383917495"><ele>170.0</ele><time>2026-04-25T10:24:06.999Z</time></trkpt><trkpt lat="45.91370784797489" lon="4.816065891446019"><ele>170.0</ele><time>2026-04-25T10:24:07.999Z</time></trkpt><trkpt lat="45.9135440985296" lon="4.816072706683932"><ele>170.0</ele><time>2026-04-25T10:24:08.999Z</time></trkpt><trkpt lat="45.913378218915874" lon="4.816075711088714"><ele>170.0</ele><time>2026-04-25T10:24:09.999Z</time></trkpt><trkpt lat="45.913201658934675" lon="4.816073762190484"><ele>170.0</ele><time>2026-04-25T10:24:10.999Z</time></trkpt><trkpt lat="45.91303712886858" lon="4.816076240871462"><ele>170.0</ele><time>2026-04-25T10:24:11.999Z</time></trkpt><trkpt lat="45.91287435602373" lon="4.8160770564442075"><ele>170.0</ele><time>2026-04-25T10:24:12.999Z</time></trkpt><trkpt lat="45.91271316527963" lon="4.816078208332235"><ele>170.0</ele><time>2026-04-25T10:24:13.999Z</time></trkpt><trkpt lat="45.9125580199169" lon="4.816079381388976"><ele>170.25</ele><time>2026-04-25T10:24:14.999Z</time></trkpt><trkpt lat="45.912417057652746" lon="4.816080247941094"><ele>170.5</ele><time>2026-04-25T10:24:15.999Z</time></trkpt><trkpt lat="45.91228394389257" lon="4.816083236940038"><ele>170.75</ele><time>2026-04-25T10:24:16.999Z</time></trkpt><trkpt lat="45.91215146608873" lon="4.816084300140162"><ele>171.0</ele><time>2026-04-25T10:24:17.999Z</time></trkpt><trkpt lat="45.9120194867796" lon="4.816080231383239"><ele>171.0</ele><time>2026-04-25T10:24:18.999Z</time></trkpt><trkpt lat="45.91188231287859" lon="4.8160811131753505"><ele>171.0</ele><time>2026-04-25T10:24:19.999Z</time></trkpt><trkpt lat="45.911760406705234" lon="4.816082507822519"><ele>171.0</ele><time>2026-04-25T10:24:20.999Z</time></trkpt><trkpt lat="45.91164558644936" lon="4.816081995111574"><ele>171.0</ele><time>2026-04-25T10:24:21.999Z</time></trkpt><trkpt lat="45.911540675867634" lon="4.816081001461586"><ele>171.0</ele><time>2026-04-25T10:24:22.999Z</time></trkpt><trkpt lat="45.91144350451756" lon="4.816085113597344"><ele>171.0</ele><time>2026-04-25T10:24:23.999Z</time></trkpt><trkpt lat="45.91134847484205" lon="4.816085133312688"><ele>171.0</ele><time>2026-04-25T10:24:24.999Z</time></trkpt><trkpt lat="45.9112563196978" lon="4.816080929690735"><ele>171.0</ele><time>2026-04-25T10:24:25.999Z</time></trkpt><trkpt lat="45.91116943518198" lon="4.816076378767799"><ele>171.0</ele><time>2026-04-25T10:24:26.999Z</time></trkpt><trkpt lat="45.911083763577096" lon="4.816073985740941"><ele>171.0</ele><time>2026-04-25T10:24:28Z</time></trkpt><trkpt lat="45.91100339184549" lon="4.81607239366226"><ele>171.0</ele><time>2026-04-25T10:24:29Z</time></trkpt><trkpt lat="45.91092615166398" lon="4.816071497527012"><ele>171.0</ele><time>2026-04-25T10:24:30Z</time></trkpt><trkpt lat="45.910850752482006" lon="4.816068470468736"><ele>171.0</ele><time>2026-04-25T10:24:31Z</time></trkpt><trkpt lat="45.91077367494716" lon="4.816064996629114"><ele>171.0</ele><time>2026-04-25T10:24:32Z</time></trkpt><trkpt lat="45.91069183694704" lon="4.8160596679952326"><ele>171.0</ele><time>2026-04-25T10:24:33Z</time></trkpt><trkpt lat="45.91060704282377" lon="4.8160521555350275"><ele>170.60000000000002</ele><time>2026-04-25T10:24:34Z</time></trkpt><trkpt lat="45.91051844763265" lon="4.816043920901964"><ele>170.2</ele><time>2026-04-25T10:24:35Z</time></trkpt><trkpt lat="45.91042270891408" lon="4.81603582920219"><ele>169.8</ele><time>2026-04-25T10:24:36Z</time></trkpt><trkpt lat="45.91032234790703" lon="4.816025280628467"><ele>169.39999999999998</ele><time>2026-04-25T10:24:37Z</time></trkpt><trkpt lat="45.91021893758491" lon="4.816006567055041"><ele>169.0</ele><time>2026-04-25T10:24:38Z</time></trkpt><trkpt lat="45.91011088036671" lon="4.815982943174886"><ele>169.0</ele><time>2026-04-25T10:24:39Z</time></trkpt><trkpt lat="45.910000429739284" lon="4.815958938474835"><ele>169.0</ele><time>2026-04-25T10:24:40Z</time></trkpt><trkpt lat="45.9098934858837" lon="4.81593578785955"><ele>169.0</ele><time>2026-04-25T10:24:41Z</time></trkpt><trkpt lat="45.90979284443437" lon="4.81591828159764"><ele>169.0</ele><time>2026-04-25T10:24:42Z</time></trkpt><trkpt lat="45.9096995003497" lon="4.81590602726939"><ele>169.0</ele><time>2026-04-25T10:24:43Z</time></trkpt><trkpt lat="45.90961158006043" lon="4.815890032326249"><ele>169.0</ele><time>2026-04-25T10:24:44Z</time></trkpt><trkpt lat="45.90952775936594" lon="4.815872786336728"><ele>169.0</ele><time>2026-04-25T10:24:45Z</time></trkpt><trkpt lat="45.90943982457135" lon="4.815858244041175"><ele>169.0</ele><time>2026-04-25T10:24:46Z</time></trkpt><trkpt lat="45.909350678258036" lon="4.815839534406548"><ele>169.0</ele><time>2026-04-25T10:24:47Z</time></trkpt><trkpt lat="45.90926857120887" lon="4.815828112931698"><ele>169.0</ele><time>2026-04-25T10:24:48Z</time></trkpt><trkpt lat="45.90920283361851" lon="4.815815286704067"><ele>169.0</ele><time>2026-04-25T10:24:49Z</time></trkpt><trkpt lat="45.90910843775352" lon="4.815797072201587"><ele>169.16666666666669</ele><time>2026-04-25T10:24:51Z</time></trkpt><trkpt lat="45.90902216640126" lon="4.815787845208073"><ele>169.33333333333334</ele><time>2026-04-25T10:24:58Z</time></trkpt><trkpt lat="45.908927404310944" lon="4.8157742180330185"><ele>169.5</ele><time>2026-04-25T10:25:00Z</time></trkpt><trkpt lat="45.908859626246034" lon="4.815771331549413"><ele>169.66666666666666</ele><time>2026-04-25T10:25:01Z</time></trkpt><trkpt lat="45.90878278159501" lon="4.815771558187162"><ele>169.83333333333331</ele><time>2026-04-25T10:25:02Z</time></trkpt><trkpt lat="45.90871088240136" lon="4.815774332443573"><ele>170.0</ele><time>2026-04-25T10:25:03Z</time></trkpt><trkpt lat="45.90863856512141" lon="4.815776885539639"><ele>170.0</ele><time>2026-04-25T10:25:04Z</time></trkpt><trkpt lat="45.908556053962286" lon="4.815778563843809"><ele>170.0</ele><time>2026-04-25T10:25:05Z</time></trkpt><trkpt lat="45.90846305670549" lon="4.815777557721597"><ele>170.0</ele><time>2026-04-25T10:25:06Z</time></trkpt><trkpt lat="45.908358717180896" lon="4.815781241640466"><ele>170.0</ele><time>2026-04-25T10:25:07Z</time></trkpt><trkpt lat="45.908245459181344" lon="4.815786174578084"><ele>170.0</ele><time>2026-04-25T10:25:08Z</time></trkpt><trkpt lat="45.90812257333968" lon="4.815792196984667"><ele>170.75</ele><time>2026-04-25T10:25:09Z</time></trkpt><trkpt lat="45.90799424350082" lon="4.8157962568956"><ele>171.5</ele><time>2026-04-25T10:25:10Z</time></trkpt><trkpt lat="45.90786584309573" lon="4.815800091676579"><ele>172.25</ele><time>2026-04-25T10:25:11Z</time></trkpt><trkpt lat="45.9077470583763" lon="4.815804597975153"><ele>173.0</ele><time>2026-04-25T10:25:12Z</time></trkpt><trkpt lat="45.907628529447976" lon="4.815807337613489"><ele>173.2</ele><time>2026-04-25T10:25:13Z</time></trkpt><trkpt lat="45.90751215172993" lon="4.815811679713981"><ele>173.4</ele><time>2026-04-25T10:25:14.001Z</time></trkpt><trkpt lat="45.90739762969718" lon="4.815816402693985"><ele>173.6</ele><time>2026-04-25T10:25:15.001Z</time></trkpt><trkpt lat="45.90728820564188" lon="4.815821169130803"><ele>173.79999999999998</ele><time>2026-04-25T10:25:16.001Z</time></trkpt><trkpt lat="45.90718764364198" lon="4.815824349361681"><ele>174.0</ele><time>2026-04-25T10:25:17.001Z</time></trkpt><trkpt lat="45.90708115817907" lon="4.815827059934561"><ele>174.0</ele><time>2026-04-25T10:25:18.001Z</time></trkpt><trkpt lat="45.90697449429137" lon="4.815831551080977"><ele>174.0</ele><time>2026-04-25T10:25:19.001Z</time></trkpt><trkpt lat="45.906869989660436" lon="4.815837480910809"><ele>174.0</ele><time>2026-04-25T10:25:20.001Z</time></trkpt><trkpt lat="45.90676457016117" lon="4.815838976174074"><ele>174.0</ele><time>2026-04-25T10:25:21.001Z</time></trkpt><trkpt lat="45.90665779187154" lon="4.81584835213721"><ele>174.0</ele><time>2026-04-25T10:25:22.001Z</time></trkpt><trkpt lat="45.90655122931584" lon="4.815854081404999"><ele>175.0</ele><time>2026-04-25T10:25:23.001Z</time></trkpt><trkpt lat="45.90644253655455" lon="4.815854576200934"><ele>176.0</ele><time>2026-04-25T10:25:24.001Z</time></trkpt><trkpt lat="45.90633187422296" lon="4.815860329685045"><ele>177.0</ele><time>2026-04-25T10:25:25.001Z</time></trkpt><trkpt lat="45.90621884294638" lon="4.815870572160108"><ele>178.0</ele><time>2026-04-25T10:25:26.001Z</time></trkpt><trkpt lat="45.906103512911834" lon="4.815877581990563"><ele>179.0</ele><time>2026-04-25T10:25:27.001Z</time></trkpt><trkpt lat="45.90598461769157" lon="4.8158777547597"><ele>179.6</ele><time>2026-04-25T10:25:28.001Z</time></trkpt><trkpt lat="45.9058658082319" lon="4.815878782431257"><ele>180.2</ele><time>2026-04-25T10:25:29.001Z</time></trkpt><trkpt lat="45.90575577138056" lon="4.815881393752117"><ele>180.79999999999998</ele><time>2026-04-25T10:25:30.001Z</time></trkpt><trkpt lat="45.90565025724006" lon="4.815884188501591"><ele>181.39999999999998</ele><time>2026-04-25T10:25:31.001Z</time></trkpt><trkpt lat="45.90554316220283" lon="4.8158852172632125"><ele>182.0</ele><time>2026-04-25T10:25:32.001Z</time></trkpt><trkpt lat="45.905436234337394" lon="4.815888564328865"><ele>182.0</ele><time>2026-04-25T10:25:33.001Z</time></trkpt><trkpt lat="45.9053277171229" lon="4.815893385419169"><ele>182.0</ele><time>2026-04-25T10:25:34.001Z</time></trkpt><trkpt lat="45.90521758821939" lon="4.815898117761213"><ele>182.0</ele><time>2026-04-25T10:25:35.001Z</time></trkpt><trkpt lat="45.90510555251697" lon="4.815905061631451"><ele>182.0</ele><time>2026-04-25T10:25:36.001Z</time></trkpt><trkpt lat="45.904992951330094" lon="4.81591475236078"><ele>182.0</ele><time>2026-04-25T10:25:37.001Z</time></trkpt><trkpt lat="45.904885662493065" lon="4.815924273737257"><ele>181.8</ele><time>2026-04-25T10:25:38.001Z</time></trkpt><trkpt lat="45.90477742593981" lon="4.815933427666071"><ele>181.6</ele><time>2026-04-25T10:25:39.001Z</time></trkpt><trkpt lat="45.90466375015218" lon="4.81594021392076"><ele>181.4</ele><time>2026-04-25T10:25:40.001Z</time></trkpt><trkpt lat="45.90455648621923" lon="4.815947596451706"><ele>181.20000000000002</ele><time>2026-04-25T10:25:41.001Z</time></trkpt><trkpt lat="45.90445427748487" lon="4.815958575932708"><ele>181.0</ele><time>2026-04-25T10:25:42.001Z</time></trkpt><trkpt lat="45.90435063458626" lon="4.815968010661307"><ele>181.25</ele><time>2026-04-25T10:25:43.001Z</time></trkpt><trkpt lat="45.904243824749834" lon="4.815980157684979"><ele>181.5</ele><time>2026-04-25T10:25:44.001Z</time></trkpt><trkpt lat="45.90413413551049" lon="4.816006167815383"><ele>181.75</ele><time>2026-04-25T10:25:45.001Z</time></trkpt><trkpt lat="45.904017758065" lon="4.816033795792512"><ele>182.0</ele><time>2026-04-25T10:25:46.001Z</time></trkpt><trkpt lat="45.903892700290996" lon="4.816063687517705"><ele>182.25</ele><time>2026-04-25T10:25:47.001Z</time></trkpt><trkpt lat="45.90375956271663" lon="4.8161057195143675"><ele>182.5</ele><time>2026-04-25T10:25:48.001Z</time></trkpt><trkpt lat="45.90363707646519" lon="4.816142805054924"><ele>182.75</ele><time>2026-04-25T10:25:49.001Z</time></trkpt><trkpt lat="45.90352393566802" lon="4.816170851686426"><ele>183.0</ele><time>2026-04-25T10:25:50.001Z</time></trkpt><trkpt lat="45.90342547902526" lon="4.816186810886243"><ele>183.0</ele><time>2026-04-25T10:25:51.001Z</time></trkpt><trkpt lat="45.90333447758926" lon="4.816197014976355"><ele>183.0</ele><time>2026-04-25T10:25:52.001Z</time></trkpt><trkpt lat="45.903252860754876" lon="4.81620209422106"><ele>183.0</ele><time>2026-04-25T10:25:53.001Z</time></trkpt><trkpt lat="45.903175357219915" lon="4.816208497550525"><ele>183.0</ele><time>2026-04-25T10:25:54.001Z</time></trkpt><trkpt lat="45.90309348923699" lon="4.81621435873749"><ele>183.0</ele><time>2026-04-25T10:25:55.001Z</time></trkpt><trkpt lat="45.903009032448814" lon="4.816193839649854"><ele>183.0</ele><time>2026-04-25T10:25:55.999Z</time></trkpt><trkpt lat="45.9029249578227" lon="4.8161685527054425"><ele>183.0</ele><time>2026-04-25T10:25:56.999Z</time></trkpt><trkpt lat="45.90283303704484" lon="4.8161374066882425"><ele>183.0</ele><time>2026-04-25T10:25:57.999Z</time></trkpt><trkpt lat="45.902735258695316" lon="4.8161919457762705"><ele>183.0</ele><time>2026-04-25T10:25:58.999Z</time></trkpt><trkpt lat="45.90262444378404" lon="4.816224677036204"><ele>183.0</ele><time>2026-04-25T10:25:59.999Z</time></trkpt><trkpt lat="45.902500707917746" lon="4.816252267308516"><ele>183.0</ele><time>2026-04-25T10:26:00.999Z</time></trkpt><trkpt lat="45.9023648606606" lon="4.81626881900034"><ele>182.66666666666666</ele><time>2026-04-25T10:26:01.999Z</time></trkpt><trkpt lat="45.9022161868035" lon="4.816287107333776"><ele>182.33333333333331</ele><time>2026-04-25T10:26:02.999Z</time></trkpt><trkpt lat="45.902057954388646" lon="4.816312293683572"><ele>182.0</ele><time>2026-04-25T10:26:03.999Z</time></trkpt><trkpt lat="45.90189989366318" lon="4.816334111221203"><ele>181.33333333333331</ele><time>2026-04-25T10:26:04.999Z</time></trkpt><trkpt lat="45.90173341580324" lon="4.816355905691256"><ele>180.66666666666666</ele><time>2026-04-25T10:26:05.999Z</time></trkpt><trkpt lat="45.90155964941043" lon="4.8163789071803516"><ele>180.0</ele><time>2026-04-25T10:26:06.999Z</time></trkpt><trkpt lat="45.901386904010245" lon="4.81641498784584"><ele>180.0</ele><time>2026-04-25T10:26:07.999Z</time></trkpt><trkpt lat="45.901222817019615" lon="4.8164465842852895"><ele>180.0</ele><time>2026-04-25T10:26:08.999Z</time></trkpt><trkpt lat="45.901061377482364" lon="4.816481444094951"><ele>180.0</ele><time>2026-04-25T10:26:09.999Z</time></trkpt><trkpt lat="45.90090422578317" lon="4.816527373393328"><ele>179.66666666666666</ele><time>2026-04-25T10:26:11Z</time></trkpt><trkpt lat="45.90074755818696" lon="4.816582423854451"><ele>179.33333333333331</ele><time>2026-04-25T10:26:12Z</time></trkpt><trkpt lat="45.900586319131754" lon="4.816640878201239"><ele>179.0</ele><time>2026-04-25T10:26:13Z</time></trkpt><trkpt lat="45.90042657143129" lon="4.816700671367632"><ele>179.0</ele><time>2026-04-25T10:26:14Z</time></trkpt><trkpt lat="45.900277702504766" lon="4.8167626990979695"><ele>179.0</ele><time>2026-04-25T10:26:15Z</time></trkpt><trkpt lat="45.90014495924308" lon="4.816828425341337"><ele>179.0</ele><time>2026-04-25T10:26:16Z</time></trkpt><trkpt lat="45.90002462328802" lon="4.816892368935344"><ele>179.0</ele><time>2026-04-25T10:26:17Z</time></trkpt><trkpt lat="45.89991445394912" lon="4.816947384321734"><ele>178.66666666666666</ele><time>2026-04-25T10:26:18Z</time></trkpt><trkpt lat="45.8998175039853" lon="4.816995286149699"><ele>178.33333333333331</ele><time>2026-04-25T10:26:19Z</time></trkpt><trkpt lat="45.89973098369412" lon="4.81703835000583"><ele>178.0</ele><time>2026-04-25T10:26:20Z</time></trkpt><trkpt lat="45.89965290237701" lon="4.817077663033354"><ele>177.66666666666666</ele><time>2026-04-25T10:26:21Z</time></trkpt><trkpt lat="45.89958289311401" lon="4.817110619848509"><ele>177.33333333333334</ele><time>2026-04-25T10:26:22Z</time></trkpt><trkpt lat="45.89951656023384" lon="4.817131607554557"><ele>177.0</ele><time>2026-04-25T10:26:23Z</time></trkpt><trkpt lat="45.899452292097905" lon="4.81712375928861"><ele>177.0</ele><time>2026-04-25T10:26:24Z</time></trkpt><trkpt lat="45.89938967945795" lon="4.8171056696141505"><ele>177.0</ele><time>2026-04-25T10:26:25Z</time></trkpt><trkpt lat="45.89931893506004" lon="4.817112244788238"><ele>177.0</ele><time>2026-04-25T10:26:26Z</time></trkpt><trkpt lat="45.89923971176246" lon="4.817111641042048"><ele>177.0</ele><time>2026-04-25T10:26:27Z</time></trkpt><trkpt lat="45.8991793021184" lon="4.817193620330578"><ele>177.0</ele><time>2026-04-25T10:26:28Z</time></trkpt><trkpt lat="45.899134906281354" lon="4.8172664707051585"><ele>177.0</ele><time>2026-04-25T10:26:29Z</time></trkpt><trkpt lat="45.899105756925955" lon="4.817356402546857"><ele>177.0</ele><time>2026-04-25T10:26:30Z</time></trkpt><trkpt lat="45.899076157896566" lon="4.817455071119157"><ele>177.0</ele><time>2026-04-25T10:26:31Z</time></trkpt><trkpt lat="45.89902177259207" lon="4.817560569764551"><ele>177.0</ele><time>2026-04-25T10:26:32Z</time></trkpt><trkpt lat="45.8989420192731" lon="4.817654370364242"><ele>177.0</ele><time>2026-04-25T10:26:33Z</time></trkpt><trkpt lat="45.89884778548211" lon="4.817746453363895"><ele>177.0</ele><time>2026-04-25T10:26:34Z</time></trkpt><trkpt lat="45.89874570716226" lon="4.817855890961972"><ele>177.0</ele><time>2026-04-25T10:26:35Z</time></trkpt><trkpt lat="45.89863199110637" lon="4.817987229246503"><ele>177.0</ele><time>2026-04-25T10:26:36Z</time></trkpt><trkpt lat="45.8985112648002" lon="4.81812420884632"><ele>177.0</ele><time>2026-04-25T10:26:37Z</time></trkpt><trkpt lat="45.89838184365753" lon="4.818268411604494"><ele>177.0</ele><time>2026-04-25T10:26:38Z</time></trkpt><trkpt lat="45.89824341203117" lon="4.818420083429012"><ele>176.66666666666666</ele><time>2026-04-25T10:26:39Z</time></trkpt><trkpt lat="45.89810544556605" lon="4.818571754161743"><ele>176.33333333333331</ele><time>2026-04-25T10:26:40Z</time></trkpt><trkpt lat="45.89796826331607" lon="4.8187171245669385"><ele>176.0</ele><time>2026-04-25T10:26:41Z</time></trkpt><trkpt lat="45.89781800499997" lon="4.818857671087712"><ele>176.0</ele><time>2026-04-25T10:26:42Z</time></trkpt><trkpt lat="45.89766259504776" lon="4.81899181610941"><ele>176.0</ele><time>2026-04-25T10:26:43Z</time></trkpt><trkpt lat="45.897505972368705" lon="4.819119395533474"><ele>176.0</ele><time>2026-04-25T10:26:44Z</time></trkpt><trkpt lat="45.89734393275907" lon="4.819247893670846"><ele>175.33333333333331</ele><time>2026-04-25T10:26:45Z</time></trkpt><trkpt lat="45.89718170135174" lon="4.819381891917254"><ele>174.66666666666666</ele><time>2026-04-25T10:26:46Z</time></trkpt><trkpt lat="45.89702081158154" lon="4.819518182120982"><ele>174.0</ele><time>2026-04-25T10:26:47Z</time></trkpt><trkpt lat="45.89685714701562" lon="4.819656552471459"><ele>174.0</ele><time>2026-04-25T10:26:48Z</time></trkpt><trkpt lat="45.89669525595593" lon="4.819792018884555"><ele>174.0</ele><time>2026-04-25T10:26:49.001Z</time></trkpt><trkpt lat="45.89655102647218" lon="4.819912793178401"><ele>174.0</ele><time>2026-04-25T10:26:50.001Z</time></trkpt><trkpt lat="45.89642189983738" lon="4.820012602403459"><ele>174.0</ele><time>2026-04-25T10:26:51.001Z</time></trkpt><trkpt lat="45.89630226969313" lon="4.820141236613251"><ele>174.0</ele><time>2026-04-25T10:26:52.001Z</time></trkpt><trkpt lat="45.89618254583188" lon="4.820239045449939"><ele>174.0</ele><time>2026-04-25T10:26:53.001Z</time></trkpt><trkpt lat="45.8960705065056" lon="4.820328543934479"><ele>174.0</ele><time>2026-04-25T10:26:54.001Z</time></trkpt><trkpt lat="45.89596456377979" lon="4.820412987292648"><ele>173.79999999999998</ele><time>2026-04-25T10:26:55.001Z</time></trkpt><trkpt lat="45.89586253670197" lon="4.820488124204165"><ele>173.6</ele><time>2026-04-25T10:26:56.001Z</time></trkpt><trkpt lat="45.89576529595917" lon="4.8205471612027395"><ele>173.4</ele><time>2026-04-25T10:26:57.001Z</time></trkpt><trkpt lat="45.89566937096141" lon="4.820591335919783"><ele>173.2</ele><time>2026-04-25T10:26:58.001Z</time></trkpt><trkpt lat="45.8955805157506" lon="4.82063224891499"><ele>173.0</ele><time>2026-04-25T10:26:59.001Z</time></trkpt><trkpt lat="45.895499377172015" lon="4.820674215488819"><ele>173.0</ele><time>2026-04-25T10:27:00.001Z</time></trkpt><trkpt lat="45.895425586599266" lon="4.820708009940657"><ele>173.0</ele><time>2026-04-25T10:27:01.001Z</time></trkpt><trkpt lat="45.89535848711521" lon="4.8207182901588235"><ele>173.0</ele><time>2026-04-25T10:27:02.001Z</time></trkpt><trkpt lat="45.895282021328036" lon="4.820707881186052"><ele>173.0</ele><time>2026-04-25T10:27:03.001Z</time></trkpt><trkpt lat="45.89521138516241" lon="4.820719104265142"><ele>173.0</ele><time>2026-04-25T10:27:04.001Z</time></trkpt><trkpt lat="45.895126498310724" lon="4.820846881965051"><ele>173.0</ele><time>2026-04-25T10:27:06.001Z</time></trkpt><trkpt lat="45.89510338072305" lon="4.8209419638175355"><ele>172.60000000000002</ele><time>2026-04-25T10:27:07.001Z</time></trkpt><trkpt lat="45.89508726240889" lon="4.821048266584503"><ele>172.20000000000002</ele><time>2026-04-25T10:27:08.001Z</time></trkpt><trkpt lat="45.895063546897944" lon="4.821162035205971"><ele>171.8</ele><time>2026-04-25T10:27:09.001Z</time></trkpt><trkpt lat="45.89501137330868" lon="4.8212618726583845"><ele>171.4</ele><time>2026-04-25T10:27:10.001Z</time></trkpt><trkpt lat="45.89493405424187" lon="4.821347693257929"><ele>171.0</ele><time>2026-04-25T10:27:11.001Z</time></trkpt><trkpt lat="45.89484454525336" lon="4.821434964977183"><ele>171.0</ele><time>2026-04-25T10:27:12.001Z</time></trkpt><trkpt lat="45.89474515808988" lon="4.821546234588006"><ele>171.0</ele><time>2026-04-25T10:27:13.001Z</time></trkpt><trkpt lat="45.89464015340527" lon="4.821667828677774"><ele>171.0</ele><time>2026-04-25T10:27:14.001Z</time></trkpt><trkpt lat="45.89452668768321" lon="4.821803487996369"><ele>171.0</ele><time>2026-04-25T10:27:15.001Z</time></trkpt><trkpt lat="45.894418597840826" lon="4.821938643452818"><ele>171.0</ele><time>2026-04-25T10:27:16.001Z</time></trkpt><trkpt lat="45.89430209603348" lon="4.822080893223616"><ele>171.0</ele><time>2026-04-25T10:27:17.001Z</time></trkpt><trkpt lat="45.89417803410118" lon="4.822234506612587"><ele>171.0</ele><time>2026-04-25T10:27:18.001Z</time></trkpt><trkpt lat="45.89404835617115" lon="4.822391403678019"><ele>171.0</ele><time>2026-04-25T10:27:19.001Z</time></trkpt><trkpt lat="45.89391177163601" lon="4.822565596525828"><ele>171.0</ele><time>2026-04-25T10:27:20.001Z</time></trkpt><trkpt lat="45.893770618852834" lon="4.8227397899643645"><ele>171.0</ele><time>2026-04-25T10:27:21.001Z</time></trkpt><trkpt lat="45.893621049482626" lon="4.82292344732579"><ele>171.33333333333334</ele><time>2026-04-25T10:27:22.001Z</time></trkpt><trkpt lat="45.89347089576682" lon="4.823113360624783"><ele>171.66666666666669</ele><time>2026-04-25T10:27:23.001Z</time></trkpt><trkpt lat="45.89332272730964" lon="4.823295619346085"><ele>172.0</ele><time>2026-04-25T10:27:24.001Z</time></trkpt><trkpt lat="45.893188483295745" lon="4.8234505616848296"><ele>172.5</ele><time>2026-04-25T10:27:25.001Z</time></trkpt><trkpt lat="45.89306788671925" lon="4.823592492242027"><ele>173.0</ele><time>2026-04-25T10:27:26.001Z</time></trkpt><trkpt lat="45.892953740881154" lon="4.823717708573192"><ele>173.5</ele><time>2026-04-25T10:27:27.001Z</time></trkpt><trkpt lat="45.89284491951588" lon="4.823832906612439"><ele>174.0</ele><time>2026-04-25T10:27:28.001Z</time></trkpt><trkpt lat="45.89273207678961" lon="4.823945525826225"><ele>174.0</ele><time>2026-04-25T10:27:29.001Z</time></trkpt><trkpt lat="45.89261003701509" lon="4.824068494921248"><ele>174.0</ele><time>2026-04-25T10:27:30.001Z</time></trkpt><trkpt lat="45.892482418231" lon="4.824190422527294"><ele>174.0</ele><time>2026-04-25T10:27:31.001Z</time></trkpt><trkpt lat="45.892343686751666" lon="4.824308196896474"><ele>173.66666666666666</ele><time>2026-04-25T10:27:32.001Z</time></trkpt><trkpt lat="45.892198316839696" lon="4.824421270769125"><ele>173.33333333333331</ele><time>2026-04-25T10:27:33.001Z</time></trkpt><trkpt lat="45.892044515707816" lon="4.824526596298673"><ele>173.0</ele><time>2026-04-25T10:27:34.001Z</time></trkpt><trkpt lat="45.891907132302485" lon="4.824614535799193"><ele>173.0</ele><time>2026-04-25T10:27:35.001Z</time></trkpt><trkpt lat="45.89177618523796" lon="4.824698886081942"><ele>173.0</ele><time>2026-04-25T10:27:36.001Z</time></trkpt><trkpt lat="45.891646302528464" lon="4.824777878175138"><ele>173.0</ele><time>2026-04-25T10:27:37.002Z</time></trkpt><trkpt lat="45.89154054764429" lon="4.824853162489887"><ele>173.0</ele><time>2026-04-25T10:27:38.002Z</time></trkpt><trkpt lat="45.891451606105164" lon="4.824921009233873"><ele>173.0</ele><time>2026-04-25T10:27:39.002Z</time></trkpt><trkpt lat="45.89137797692031" lon="4.824983924669117"><ele>173.0</ele><time>2026-04-25T10:27:40.002Z</time></trkpt><trkpt lat="45.89132241843299" lon="4.825037560150019"><ele>173.0</ele><time>2026-04-25T10:27:41.002Z</time></trkpt><trkpt lat="45.891217507825345" lon="4.825138815736831"><ele>173.0</ele><time>2026-04-25T10:27:43.002Z</time></trkpt><trkpt lat="45.89114735965454" lon="4.825175380279932"><ele>173.0</ele><time>2026-04-25T10:27:44.002Z</time></trkpt><trkpt lat="45.891071685578694" lon="4.8251992976315075"><ele>173.0</ele><time>2026-04-25T10:27:45.002Z</time></trkpt><trkpt lat="45.8909885464423" lon="4.825221410988646"><ele>173.16666666666666</ele><time>2026-04-25T10:27:46.002Z</time></trkpt><trkpt lat="45.890915389499966" lon="4.825271779554224"><ele>173.33333333333331</ele><time>2026-04-25T10:27:47.002Z</time></trkpt><trkpt lat="45.89083853341305" lon="4.825308973207458"><ele>173.5</ele><time>2026-04-25T10:27:48.002Z</time></trkpt><trkpt lat="45.89079109555701" lon="4.825383772839963"><ele>173.66666666666666</ele><time>2026-04-25T10:27:49.002Z</time></trkpt><trkpt lat="45.890775715620734" lon="4.825504588355754"><ele>173.83333333333334</ele><time>2026-04-25T10:27:50.002Z</time></trkpt><trkpt lat="45.89076212841167" lon="4.825616131201882"><ele>174.0</ele><time>2026-04-25T10:27:51.002Z</time></trkpt><trkpt lat="45.89076922009313" lon="4.82572268833503"><ele>174.0</ele><time>2026-04-25T10:27:52.002Z</time></trkpt><trkpt lat="45.890795594984034" lon="4.825835390883387"><ele>174.0</ele><time>2026-04-25T10:27:53.002Z</time></trkpt><trkpt lat="45.890845099029484" lon="4.825937973296937"><ele>174.0</ele><time>2026-04-25T10:27:54.002Z</time></trkpt><trkpt lat="45.89091412093084" lon="4.826017124700118"><ele>174.0</ele><time>2026-04-25T10:27:55.002Z</time></trkpt><trkpt lat="45.89099495293127" lon="4.82606379229359"><ele>174.0</ele><time>2026-04-25T10:27:56.002Z</time></trkpt><trkpt lat="45.89107458873758" lon="4.826079040640532"><ele>174.0</ele><time>2026-04-25T10:27:57.002Z</time></trkpt><trkpt lat="45.89114989791332" lon="4.8260629661716425"><ele>174.0</ele><time>2026-04-25T10:27:58.002Z</time></trkpt><trkpt lat="45.8912251870777" lon="4.826130832119024"><ele>174.0</ele><time>2026-04-25T10:27:59.002Z</time></trkpt><trkpt lat="45.89129600730264" lon="4.8261971923704285"><ele>174.0</ele><time>2026-04-25T10:28:00.002Z</time></trkpt><trkpt lat="45.891361017844055" lon="4.826299375892166"><ele>174.0</ele><time>2026-04-25T10:28:01.002Z</time></trkpt><trkpt lat="45.89141889270893" lon="4.826417700739486"><ele>174.0</ele><time>2026-04-25T10:28:02Z</time></trkpt><trkpt lat="45.89148247319405" lon="4.826550828893872"><ele>174.0</ele><time>2026-04-25T10:28:03Z</time></trkpt><trkpt lat="45.891558671905386" lon="4.826698220185965"><ele>174.0</ele><time>2026-04-25T10:28:04Z</time></trkpt><trkpt lat="45.891639224119885" lon="4.826860883172282"><ele>174.0</ele><time>2026-04-25T10:28:05Z</time></trkpt><trkpt lat="45.89171447501746" lon="4.827014191970823"><ele>174.0</ele><time>2026-04-25T10:28:06Z</time></trkpt><trkpt lat="45.891792315636195" lon="4.827168126500627"><ele>174.0</ele><time>2026-04-25T10:28:07Z</time></trkpt><trkpt lat="45.89187608010601" lon="4.827337611274629"><ele>174.0</ele><time>2026-04-25T10:28:08Z</time></trkpt><trkpt lat="45.89195823247199" lon="4.827505066945195"><ele>174.0</ele><time>2026-04-25T10:28:09Z</time></trkpt><trkpt lat="45.892024987615436" lon="4.8276510915451665"><ele>174.0</ele><time>2026-04-25T10:28:10Z</time></trkpt><trkpt lat="45.89208800577682" lon="4.827784014925705"><ele>174.39999999999998</ele><time>2026-04-25T10:28:11Z</time></trkpt><trkpt lat="45.8921461544796" lon="4.8279176976823175"><ele>174.8</ele><time>2026-04-25T10:28:12Z</time></trkpt><trkpt lat="45.89219284557331" lon="4.82806000546144"><ele>175.2</ele><time>2026-04-25T10:28:13Z</time></trkpt><trkpt lat="45.89223438137739" lon="4.828206487958233"><ele>175.60000000000002</ele><time>2026-04-25T10:28:14Z</time></trkpt><trkpt lat="45.89226813235264" lon="4.828357154550079"><ele>176.0</ele><time>2026-04-25T10:28:15Z</time></trkpt><trkpt lat="45.89228854515506" lon="4.8284912377878255"><ele>176.33333333333331</ele><time>2026-04-25T10:28:16Z</time></trkpt><trkpt lat="45.8923045461892" lon="4.828609823437253"><ele>176.66666666666666</ele><time>2026-04-25T10:28:17Z</time></trkpt><trkpt lat="45.89231162836803" lon="4.828704746288375"><ele>177.0</ele><time>2026-04-25T10:28:18Z</time></trkpt><trkpt lat="45.892310983589425" lon="4.828860280865253"><ele>177.33333333333334</ele><time>2026-04-25T10:28:20Z</time></trkpt><trkpt lat="45.89229731112003" lon="4.829023355168599"><ele>177.66666666666669</ele><time>2026-04-25T10:28:22Z</time></trkpt><trkpt lat="45.89231729784419" lon="4.829113793913941"><ele>178.0</ele><time>2026-04-25T10:28:23Z</time></trkpt><trkpt lat="45.892344596181566" lon="4.829203201606918"><ele>178.0</ele><time>2026-04-25T10:28:24Z</time></trkpt><trkpt lat="45.892369463372866" lon="4.829305111036484"><ele>178.0</ele><time>2026-04-25T10:28:25Z</time></trkpt><trkpt lat="45.89237808501529" lon="4.829421764896753"><ele>178.0</ele><time>2026-04-25T10:28:26Z</time></trkpt><trkpt lat="45.892384576841465" lon="4.829555874610038"><ele>178.0</ele><time>2026-04-25T10:28:27Z</time></trkpt><trkpt lat="45.892392883411745" lon="4.829706709161607"><ele>178.0</ele><time>2026-04-25T10:28:28Z</time></trkpt><trkpt lat="45.89240671773599" lon="4.829866085126757"><ele>178.60000000000002</ele><time>2026-04-25T10:28:29Z</time></trkpt><trkpt lat="45.89242496354376" lon="4.830034314988412"><ele>179.20000000000002</ele><time>2026-04-25T10:28:30Z</time></trkpt><trkpt lat="45.89243432530379" lon="4.830172817032672"><ele>179.8</ele><time>2026-04-25T10:28:31Z</time></trkpt><trkpt lat="45.89243603187903" lon="4.83028140623358"><ele>180.4</ele><time>2026-04-25T10:28:32Z</time></trkpt><trkpt lat="45.892445648131236" lon="4.830423527493679"><ele>181.0</ele><time>2026-04-25T10:28:34Z</time></trkpt><trkpt lat="45.8924268672442" lon="4.830512230980288"><ele>181.16666666666669</ele><time>2026-04-25T10:28:36Z</time></trkpt><trkpt lat="45.892324756638715" lon="4.830573148782595"><ele>181.33333333333334</ele><time>2026-04-25T10:28:38Z</time></trkpt><trkpt lat="45.89226441135518" lon="4.830533236335461"><ele>181.5</ele><time>2026-04-25T10:28:39Z</time></trkpt><trkpt lat="45.892188154317964" lon="4.830508573511478"><ele>181.66666666666666</ele><time>2026-04-25T10:28:40Z</time></trkpt><trkpt lat="45.89209904754751" lon="4.830497586660837"><ele>181.83333333333331</ele><time>2026-04-25T10:28:41Z</time></trkpt><trkpt lat="45.8920032240565" lon="4.830460826934858"><ele>182.0</ele><time>2026-04-25T10:28:42Z</time></trkpt><trkpt lat="45.89191321957208" lon="4.83043236612222"><ele>182.0</ele><time>2026-04-25T10:28:43.001Z</time></trkpt><trkpt lat="45.891809820924244" lon="4.830389825361471"><ele>182.0</ele><time>2026-04-25T10:28:44.001Z</time></trkpt><trkpt lat="45.891695411363955" lon="4.830347584632029"><ele>182.0</ele><time>2026-04-25T10:28:45.001Z</time></trkpt><trkpt lat="45.89157038203294" lon="4.830311153859033"><ele>182.0</ele><time>2026-04-25T10:28:46.001Z</time></trkpt><trkpt lat="45.89144871255986" lon="4.830264532340393"><ele>182.0</ele><time>2026-04-25T10:28:47.001Z</time></trkpt><trkpt lat="45.89133282957683" lon="4.83022630311699"><ele>182.0</ele><time>2026-04-25T10:28:48.001Z</time></trkpt><trkpt lat="45.89122583601916" lon="4.830188253875304"><ele>182.0</ele><time>2026-04-25T10:28:49.001Z</time></trkpt><trkpt lat="45.89113226350447" lon="4.830156397420676"><ele>182.0</ele><time>2026-04-25T10:28:50.001Z</time></trkpt><trkpt lat="45.89105077054223" lon="4.830129989517992"><ele>182.0</ele><time>2026-04-25T10:28:51.001Z</time></trkpt><trkpt lat="45.89097124086819" lon="4.830103722804505"><ele>181.33333333333331</ele><time>2026-04-25T10:28:52.001Z</time></trkpt><trkpt lat="45.89090912665642" lon="4.830082609709666"><ele>180.66666666666666</ele><time>2026-04-25T10:28:53.001Z</time></trkpt><trkpt lat="45.89083371869795" lon="4.830063860222129"><ele>180.0</ele><time>2026-04-25T10:28:55.001Z</time></trkpt><trkpt lat="45.89077492001436" lon="4.830235793145424"><ele>179.33333333333334</ele><time>2026-04-25T10:28:59.001Z</time></trkpt><trkpt lat="45.89079963800541" lon="4.830323220063549"><ele>178.66666666666669</ele><time>2026-04-25T10:29:00.001Z</time></trkpt><trkpt lat="45.8908168793498" lon="4.830430489675461"><ele>178.0</ele><time>2026-04-25T10:29:01.001Z</time></trkpt><trkpt lat="45.89082784115629" lon="4.830558079336921"><ele>178.0</ele><time>2026-04-25T10:29:02.001Z</time></trkpt><trkpt lat="45.89084248826899" lon="4.830698614396102"><ele>178.0</ele><time>2026-04-25T10:29:03.001Z</time></trkpt><trkpt lat="45.89085507946648" lon="4.8308250216884225"><ele>178.0</ele><time>2026-04-25T10:29:04.001Z</time></trkpt><trkpt lat="45.89087283625844" lon="4.830968482848586"><ele>178.0</ele><time>2026-04-25T10:29:05.001Z</time></trkpt><trkpt lat="45.89089162448554" lon="4.831119764880239"><ele>178.0</ele><time>2026-04-25T10:29:06.001Z</time></trkpt><trkpt lat="45.89091109110028" lon="4.831279571725566"><ele>178.5</ele><time>2026-04-25T10:29:07.001Z</time></trkpt><trkpt lat="45.89093095521228" lon="4.83144486934286"><ele>179.0</ele><time>2026-04-25T10:29:08.001Z</time></trkpt><trkpt lat="45.890950625437895" lon="4.831592026065547"><ele>179.5</ele><time>2026-04-25T10:29:09.001Z</time></trkpt><trkpt lat="45.890966522879324" lon="4.831709471222593"><ele>180.0</ele><time>2026-04-25T10:29:10.001Z</time></trkpt><trkpt lat="45.8909774781673" lon="4.831805172609064"><ele>180.5</ele><time>2026-04-25T10:29:11.001Z</time></trkpt><trkpt lat="45.89097656345343" lon="4.831915975094631"><ele>181.0</ele><time>2026-04-25T10:29:13.001Z</time></trkpt><trkpt lat="45.890985618192296" lon="4.832015096390872"><ele>181.8</ele><time>2026-04-25T10:29:15.001Z</time></trkpt><trkpt lat="45.89088848954811" lon="4.832023634783069"><ele>182.60000000000002</ele><time>2026-04-25T10:29:16.001Z</time></trkpt><trkpt lat="45.89076713674546" lon="4.832055622505407"><ele>183.4</ele><time>2026-04-25T10:29:18.001Z</time></trkpt><trkpt lat="45.89069633577981" lon="4.8320660558429065"><ele>184.2</ele><time>2026-04-25T10:29:19.001Z</time></trkpt><trkpt lat="45.89062183744654" lon="4.832103936110732"><ele>185.0</ele><time>2026-04-25T10:29:20.001Z</time></trkpt><trkpt lat="45.89054195181582" lon="4.8321247483726815"><ele>185.0</ele><time>2026-04-25T10:29:21.001Z</time></trkpt><trkpt lat="45.890459561782535" lon="4.832148443589768"><ele>185.0</ele><time>2026-04-25T10:29:22.001Z</time></trkpt><trkpt lat="45.890385844862124" lon="4.832167878660902"><ele>185.0</ele><time>2026-04-25T10:29:23.001Z</time></trkpt><trkpt lat="45.89030633486976" lon="4.832190439525167"><ele>185.0</ele><time>2026-04-25T10:29:24.001Z</time></trkpt><trkpt lat="45.89022654109515" lon="4.832214387870255"><ele>185.0</ele><time>2026-04-25T10:29:25.001Z</time></trkpt><trkpt lat="45.89013972733684" lon="4.832240786509548"><ele>185.0</ele><time>2026-04-25T10:29:26.001Z</time></trkpt><trkpt lat="45.89004852337453" lon="4.832277719534559"><ele>184.2</ele><time>2026-04-25T10:29:27.001Z</time></trkpt><trkpt lat="45.88995529714047" lon="4.83231741912188"><ele>183.4</ele><time>2026-04-25T10:29:28.001Z</time></trkpt><trkpt lat="45.889857734863604" lon="4.8323452807954315"><ele>182.60000000000002</ele><time>2026-04-25T10:29:29.001Z</time></trkpt><trkpt lat="45.88976267331748" lon="4.832369008905293"><ele>181.8</ele><time>2026-04-25T10:29:30.002Z</time></trkpt><trkpt lat="45.889678960111404" lon="4.832389977799827"><ele>181.0</ele><time>2026-04-25T10:29:31.002Z</time></trkpt><trkpt lat="45.88960338109156" lon="4.832410560364766"><ele>181.0</ele><time>2026-04-25T10:29:32.002Z</time></trkpt><trkpt lat="45.88953680687939" lon="4.832439766250629"><ele>181.0</ele><time>2026-04-25T10:29:33.002Z</time></trkpt><trkpt lat="45.889471312870505" lon="4.8324810243337355"><ele>181.0</ele><time>2026-04-25T10:29:34.002Z</time></trkpt><trkpt lat="45.889392225396826" lon="4.832496537841868"><ele>181.0</ele><time>2026-04-25T10:29:35.002Z</time></trkpt><trkpt lat="45.88930638748793" lon="4.832534959931856"><ele>181.0</ele><time>2026-04-25T10:29:36.002Z</time></trkpt><trkpt lat="45.889209050170116" lon="4.832577394209942"><ele>181.0</ele><time>2026-04-25T10:29:37.002Z</time></trkpt><trkpt lat="45.88912232818086" lon="4.832643978812323"><ele>181.20000000000002</ele><time>2026-04-25T10:29:38.002Z</time></trkpt><trkpt lat="45.88904162532816" lon="4.832672179945979"><ele>181.4</ele><time>2026-04-25T10:29:39.002Z</time></trkpt><trkpt lat="45.88895622086732" lon="4.832708334538997"><ele>181.6</ele><time>2026-04-25T10:29:40.002Z</time></trkpt><trkpt lat="45.88885793371675" lon="4.832752701633657"><ele>181.8</ele><time>2026-04-25T10:29:41.002Z</time></trkpt><trkpt lat="45.8887480485869" lon="4.832794440906964"><ele>182.0</ele><time>2026-04-25T10:29:42.002Z</time></trkpt><trkpt lat="45.888628648742625" lon="4.832833151170984"><ele>182.0</ele><time>2026-04-25T10:29:43.002Z</time></trkpt><trkpt lat="45.888517028086326" lon="4.832868630136863"><ele>182.0</ele><time>2026-04-25T10:29:44.002Z</time></trkpt><trkpt lat="45.88841408937169" lon="4.832904863654468"><ele>182.0</ele><time>2026-04-25T10:29:45.002Z</time></trkpt><trkpt lat="45.88831578076064" lon="4.832930756511094"><ele>182.0</ele><time>2026-04-25T10:29:46.002Z</time></trkpt><trkpt lat="45.888233303833665" lon="4.832943964744854"><ele>182.0</ele><time>2026-04-25T10:29:47.002Z</time></trkpt><trkpt lat="45.8881569860863" lon="4.832954892920796"><ele>182.0</ele><time>2026-04-25T10:29:48.002Z</time></trkpt><trkpt lat="45.88808786030923" lon="4.832955085483483"><ele>182.0</ele><time>2026-04-25T10:29:49.002Z</time></trkpt><trkpt lat="45.8879957416721" lon="4.832955894858999"><ele>182.0</ele><time>2026-04-25T10:29:51.002Z</time></trkpt><trkpt lat="45.887948838770896" lon="4.83315131819749"><ele>182.0</ele><time>2026-04-25T10:29:55.002Z</time></trkpt><trkpt lat="45.887979175018046" lon="4.833247835063438"><ele>182.0</ele><time>2026-04-25T10:29:56.002Z</time></trkpt><trkpt lat="45.88801236314079" lon="4.833353572810862"><ele>182.0</ele><time>2026-04-25T10:29:57.002Z</time></trkpt><trkpt lat="45.8880524288276" lon="4.833467585013497"><ele>182.0</ele><time>2026-04-25T10:29:58.002Z</time></trkpt><trkpt lat="45.888091048365716" lon="4.833571403302749"><ele>182.0</ele><time>2026-04-25T10:29:59.002Z</time></trkpt><trkpt lat="45.88813021267515" lon="4.833672602081779"><ele>182.0</ele><time>2026-04-25T10:30:00.002Z</time></trkpt><trkpt lat="45.88817136309934" lon="4.833784330118508"><ele>182.0</ele><time>2026-04-25T10:30:01.002Z</time></trkpt><trkpt lat="45.888210209367294" lon="4.833910643584689"><ele>182.0</ele><time>2026-04-25T10:30:02.002Z</time></trkpt><trkpt lat="45.888255280328494" lon="4.83403601401811"><ele>183.5</ele><time>2026-04-25T10:30:03.002Z</time></trkpt><trkpt lat="45.88830714983821" lon="4.834168952697453"><ele>185.0</ele><time>2026-04-25T10:30:04.002Z</time></trkpt><trkpt lat="45.88835886656336" lon="4.834308788218886"><ele>186.5</ele><time>2026-04-25T10:30:05.002Z</time></trkpt><trkpt lat="45.88841251291283" lon="4.834458748723908"><ele>188.0</ele><time>2026-04-25T10:30:06.002Z</time></trkpt><trkpt lat="45.888467625510025" lon="4.834620306856336"><ele>190.0</ele><time>2026-04-25T10:30:07.002Z</time></trkpt><trkpt lat="45.888519083959146" lon="4.834764326909637"><ele>192.0</ele><time>2026-04-25T10:30:08Z</time></trkpt><trkpt lat="45.88856243287116" lon="4.834872019154055"><ele>194.0</ele><time>2026-04-25T10:30:09Z</time></trkpt><trkpt lat="45.888608112723695" lon="4.834972439865842"><ele>196.0</ele><time>2026-04-25T10:30:10Z</time></trkpt><trkpt lat="45.88865708665975" lon="4.835075677103369"><ele>198.00000000000003</ele><time>2026-04-25T10:30:11Z</time></trkpt><trkpt lat="45.88869750981061" lon="4.83515346237449"><ele>200.0</ele><time>2026-04-25T10:30:12Z</time></trkpt><trkpt lat="45.88873405546449" lon="4.835259915807645"><ele>200.25</ele><time>2026-04-25T10:30:14Z</time></trkpt><trkpt lat="45.888574663138755" lon="4.83539850513804"><ele>200.5</ele><time>2026-04-25T10:30:20Z</time></trkpt><trkpt lat="45.88850296170957" lon="4.83540754845711"><ele>200.75</ele><time>2026-04-25T10:30:21Z</time></trkpt><trkpt lat="45.88841780559026" lon="4.8354450895481795"><ele>201.0</ele><time>2026-04-25T10:30:22Z</time></trkpt><trkpt lat="45.88832034712303" lon="4.8354937078556475"><ele>201.0</ele><time>2026-04-25T10:30:23Z</time></trkpt><trkpt lat="45.888219657667655" lon="4.835541619800372"><ele>201.0</ele><time>2026-04-25T10:30:24Z</time></trkpt><trkpt lat="45.88809534933446" lon="4.835587573162862"><ele>201.0</ele><time>2026-04-25T10:30:25Z</time></trkpt><trkpt lat="45.88797021502858" lon="4.835621645375682"><ele>201.0</ele><time>2026-04-25T10:30:26Z</time></trkpt><trkpt lat="45.88784729971894" lon="4.835649877336211"><ele>201.0</ele><time>2026-04-25T10:30:27Z</time></trkpt><trkpt lat="45.88773853551041" lon="4.835687630380641"><ele>201.0</ele><time>2026-04-25T10:30:28Z</time></trkpt><trkpt lat="45.88763220231163" lon="4.835728070202919"><ele>201.0</ele><time>2026-04-25T10:30:29Z</time></trkpt><trkpt lat="45.887511064715135" lon="4.835766064101597"><ele>201.0</ele><time>2026-04-25T10:30:30Z</time></trkpt><trkpt lat="45.88739465781621" lon="4.835804796498535"><ele>199.5</ele><time>2026-04-25T10:30:31Z</time></trkpt><trkpt lat="45.88728203455585" lon="4.835848240758031"><ele>198.0</ele><time>2026-04-25T10:30:32Z</time></trkpt><trkpt lat="45.88717099699097" lon="4.835891745520395"><ele>196.5</ele><time>2026-04-25T10:30:33Z</time></trkpt><trkpt lat="45.88705361436233" lon="4.835933386645818"><ele>195.0</ele><time>2026-04-25T10:30:34Z</time></trkpt><trkpt lat="45.88693324214459" lon="4.835974661251281"><ele>197.75</ele><time>2026-04-25T10:30:35Z</time></trkpt><trkpt lat="45.886810091490574" lon="4.836022888744915"><ele>200.5</ele><time>2026-04-25T10:30:36Z</time></trkpt><trkpt lat="45.88668249300294" lon="4.836067149350503"><ele>203.25</ele><time>2026-04-25T10:30:37Z</time></trkpt><trkpt lat="45.88654578290604" lon="4.836111137489976"><ele>206.0</ele><time>2026-04-25T10:30:38Z</time></trkpt><trkpt lat="45.886397119004876" lon="4.83615436474925"><ele>206.0</ele><time>2026-04-25T10:30:39Z</time></trkpt><trkpt lat="45.886265224602376" lon="4.836197723002902"><ele>206.0</ele><time>2026-04-25T10:30:40Z</time></trkpt><trkpt lat="45.886146958997344" lon="4.836224521021289"><ele>206.0</ele><time>2026-04-25T10:30:41Z</time></trkpt><trkpt lat="45.88603449526136" lon="4.8362641202110765"><ele>206.0</ele><time>2026-04-25T10:30:42Z</time></trkpt><trkpt lat="45.885926502121485" lon="4.836307629614775"><ele>203.4</ele><time>2026-04-25T10:30:43Z</time></trkpt><trkpt lat="45.88583887912011" lon="4.836327029690084"><ele>200.8</ele><time>2026-04-25T10:30:44Z</time></trkpt><trkpt lat="45.88575764169527" lon="4.836352534676473"><ele>198.20000000000002</ele><time>2026-04-25T10:30:45Z</time></trkpt><trkpt lat="45.885684102279" lon="4.836376756062076"><ele>195.60000000000002</ele><time>2026-04-25T10:30:46.001Z</time></trkpt><trkpt lat="45.88557050641475" lon="4.836419083871178"><ele>193.0</ele><time>2026-04-25T10:30:48.001Z</time></trkpt><trkpt lat="45.88544790728595" lon="4.836467545178625"><ele>192.99999999999997</ele><time>2026-04-25T10:30:50.001Z</time></trkpt><trkpt lat="45.885373885092264" lon="4.836498776671919"><ele>193.0</ele><time>2026-04-25T10:30:51.001Z</time></trkpt><trkpt lat="45.885297799711616" lon="4.836531198622761"><ele>193.0</ele><time>2026-04-25T10:30:52.001Z</time></trkpt><trkpt lat="45.885215507935705" lon="4.836560206627035"><ele>193.0</ele><time>2026-04-25T10:30:53.001Z</time></trkpt><trkpt lat="45.88512275416872" lon="4.836588598811535"><ele>192.99999999999997</ele><time>2026-04-25T10:30:54.001Z</time></trkpt><trkpt lat="45.88502636929816" lon="4.8366128862450894"><ele>193.0</ele><time>2026-04-25T10:30:55.001Z</time></trkpt><trkpt lat="45.88492639709496" lon="4.836647576444983"><ele>191.8</ele><time>2026-04-25T10:30:56.001Z</time></trkpt><trkpt lat="45.88482568933071" lon="4.836692160795063"><ele>190.60000000000002</ele><time>2026-04-25T10:30:57.001Z</time></trkpt><trkpt lat="45.88472414962314" lon="4.8367327094491275"><ele>189.39999999999998</ele><time>2026-04-25T10:30:58.001Z</time></trkpt><trkpt lat="45.88461918416731" lon="4.836768152469282"><ele>188.2</ele><time>2026-04-25T10:30:59.001Z</time></trkpt><trkpt lat="45.884515929194826" lon="4.836795864615124"><ele>187.0</ele><time>2026-04-25T10:31:00.001Z</time></trkpt><trkpt lat="45.884415395445146" lon="4.836781269528163"><ele>187.0</ele><time>2026-04-25T10:31:01.001Z</time></trkpt><trkpt lat="45.88430880792016" lon="4.836769355264182"><ele>187.0</ele><time>2026-04-25T10:31:02.001Z</time></trkpt><trkpt lat="45.88417707747753" lon="4.836770027792812"><ele>187.0</ele><time>2026-04-25T10:31:03.001Z</time></trkpt><trkpt lat="45.8840396181157" lon="4.836767345006332"><ele>187.0</ele><time>2026-04-25T10:31:04.001Z</time></trkpt><trkpt lat="45.88389314529621" lon="4.836748741442694"><ele>186.8</ele><time>2026-04-25T10:31:05.001Z</time></trkpt><trkpt lat="45.883760110382894" lon="4.836787650391306"><ele>186.6</ele><time>2026-04-25T10:31:06.001Z</time></trkpt><trkpt lat="45.88365079101401" lon="4.836809151056182"><ele>186.4</ele><time>2026-04-25T10:31:07.001Z</time></trkpt><trkpt lat="45.88355889030917" lon="4.836832668966572"><ele>186.20000000000002</ele><time>2026-04-25T10:31:08.001Z</time></trkpt><trkpt lat="45.8834796255743" lon="4.836867849569555"><ele>186.0</ele><time>2026-04-25T10:31:09.001Z</time></trkpt><trkpt lat="45.88340391591677" lon="4.836916024839987"><ele>186.0</ele><time>2026-04-25T10:31:10.001Z</time></trkpt><trkpt lat="45.8833334015575" lon="4.836949290590071"><ele>186.0</ele><time>2026-04-25T10:31:11.001Z</time></trkpt><trkpt lat="45.8832717136743" lon="4.836974928204767"><ele>186.0</ele><time>2026-04-25T10:31:12.001Z</time></trkpt><trkpt lat="45.88315354815133" lon="4.837000461391848"><ele>186.0</ele><time>2026-04-25T10:31:14.001Z</time></trkpt><trkpt lat="45.883080907187825" lon="4.837019294037921"><ele>186.0</ele><time>2026-04-25T10:31:15.001Z</time></trkpt><trkpt lat="45.882993708879326" lon="4.837039891243513"><ele>186.0</ele><time>2026-04-25T10:31:16.001Z</time></trkpt><trkpt lat="45.882894416549874" lon="4.837068976471645"><ele>186.0</ele><time>2026-04-25T10:31:17.001Z</time></trkpt><trkpt lat="45.88278450455665" lon="4.837096636439732"><ele>186.0</ele><time>2026-04-25T10:31:18.001Z</time></trkpt><trkpt lat="45.88266849156496" lon="4.837118560332091"><ele>186.0</ele><time>2026-04-25T10:31:19.001Z</time></trkpt><trkpt lat="45.882544860976715" lon="4.837140653534644"><ele>186.0</ele><time>2026-04-25T10:31:20.001Z</time></trkpt><trkpt lat="45.88241775808562" lon="4.8371580442013675"><ele>184.8</ele><time>2026-04-25T10:31:21.001Z</time></trkpt><trkpt lat="45.88230888294999" lon="4.837187654329203"><ele>183.60000000000002</ele><time>2026-04-25T10:31:22.001Z</time></trkpt><trkpt lat="45.88221181243088" lon="4.837213310744691"><ele>182.4</ele><time>2026-04-25T10:31:23.001Z</time></trkpt><trkpt lat="45.882128022003435" lon="4.8372383746972245"><ele>181.2</ele><time>2026-04-25T10:31:24.001Z</time></trkpt><trkpt lat="45.882048947034576" lon="4.8372597872230845"><ele>180.0</ele><time>2026-04-25T10:31:25.001Z</time></trkpt><trkpt lat="45.8819354689007" lon="4.837284160998809"><ele>180.0</ele><time>2026-04-25T10:31:27.001Z</time></trkpt><trkpt lat="45.881817980570624" lon="4.8373210835091"><ele>180.0</ele><time>2026-04-25T10:31:29.001Z</time></trkpt><trkpt lat="45.88168990973163" lon="4.837357715571542"><ele>180.0</ele><time>2026-04-25T10:31:31.001Z</time></trkpt><trkpt lat="45.88161314235185" lon="4.837374944366449"><ele>180.0</ele><time>2026-04-25T10:31:32.001Z</time></trkpt><trkpt lat="45.88152930125198" lon="4.83739472279366"><ele>180.0</ele><time>2026-04-25T10:31:33.001Z</time></trkpt><trkpt lat="45.88143886046817" lon="4.837416024318085"><ele>178.8</ele><time>2026-04-25T10:31:34.002Z</time></trkpt><trkpt lat="45.88134085779692" lon="4.837431006699754"><ele>177.6</ele><time>2026-04-25T10:31:35.002Z</time></trkpt><trkpt lat="45.88123834749479" lon="4.837445767051979"><ele>176.39999999999998</ele><time>2026-04-25T10:31:36.002Z</time></trkpt><trkpt lat="45.88113387590802" lon="4.837464378828049"><ele>175.2</ele><time>2026-04-25T10:31:37.002Z</time></trkpt><trkpt lat="45.88102202023598" lon="4.837491357038182"><ele>174.0</ele><time>2026-04-25T10:31:38.002Z</time></trkpt><trkpt lat="45.88091021357183" lon="4.837512976752598"><ele>173.79999999999998</ele><time>2026-04-25T10:31:39.002Z</time></trkpt><trkpt lat="45.88081162224994" lon="4.837538249296625"><ele>173.6</ele><time>2026-04-25T10:31:40.002Z</time></trkpt><trkpt lat="45.88071905762596" lon="4.837557295922126"><ele>173.4</ele><time>2026-04-25T10:31:41.002Z</time></trkpt><trkpt lat="45.88062431359985" lon="4.837579439682439"><ele>173.2</ele><time>2026-04-25T10:31:42.002Z</time></trkpt><trkpt lat="45.88052573196742" lon="4.837608835190456"><ele>173.0</ele><time>2026-04-25T10:31:43.002Z</time></trkpt><trkpt lat="45.880419347562885" lon="4.837644423968616"><ele>173.0</ele><time>2026-04-25T10:31:44.002Z</time></trkpt><trkpt lat="45.88030432351255" lon="4.837670246335817"><ele>173.0</ele><time>2026-04-25T10:31:45.002Z</time></trkpt><trkpt lat="45.88018963492456" lon="4.837705587743725"><ele>173.0</ele><time>2026-04-25T10:31:46.002Z</time></trkpt><trkpt lat="45.88008360941642" lon="4.837728016773892"><ele>173.0</ele><time>2026-04-25T10:31:47.002Z</time></trkpt><trkpt lat="45.87998877940638" lon="4.8377478845785316"><ele>173.0</ele><time>2026-04-25T10:31:48.002Z</time></trkpt><trkpt lat="45.87990165967736" lon="4.837766205721972"><ele>173.0</ele><time>2026-04-25T10:31:49.002Z</time></trkpt><trkpt lat="45.87982246071819" lon="4.837782011424248"><ele>173.0</ele><time>2026-04-25T10:31:50.002Z</time></trkpt><trkpt lat="45.87975201014441" lon="4.837799238927425"><ele>173.0</ele><time>2026-04-25T10:31:51.002Z</time></trkpt><trkpt lat="45.87964710124729" lon="4.837814760909456"><ele>173.0</ele><time>2026-04-25T10:31:53.002Z</time></trkpt><trkpt lat="45.87957264820172" lon="4.837822089318073"><ele>173.0</ele><time>2026-04-25T10:31:56.002Z</time></trkpt><trkpt lat="45.879507145986345" lon="4.837818668197305"><ele>173.0</ele><time>2026-04-25T10:32:01.002Z</time></trkpt><trkpt lat="45.87948634876557" lon="4.837675659313409"><ele>173.0</ele><time>2026-04-25T10:32:02.002Z</time></trkpt><trkpt lat="45.87944288720244" lon="4.837604574061345"><ele>173.0</ele><time>2026-04-25T10:32:03.002Z</time></trkpt><trkpt lat="45.879375376750744" lon="4.837475408245324"><ele>173.0</ele><time>2026-04-25T10:32:05.002Z</time></trkpt><trkpt lat="45.879340699381125" lon="4.837389140026192"><ele>173.0</ele><time>2026-04-25T10:32:07.002Z</time></trkpt><trkpt lat="45.87928145324919" lon="4.837284636012369"><ele>173.0</ele><time>2026-04-25T10:32:22Z</time></trkpt><trkpt lat="45.879221518939346" lon="4.837163007285588"><ele>173.0</ele><time>2026-04-25T10:32:24Z</time></trkpt><trkpt lat="45.87917948218412" lon="4.837085692623041"><ele>173.0</ele><time>2026-04-25T10:32:25Z</time></trkpt><trkpt lat="45.87912846459806" lon="4.836934882016312"><ele>173.0</ele><time>2026-04-25T10:32:27Z</time></trkpt><trkpt lat="45.87896093806259" lon="4.83698844467906"><ele>173.0</ele><time>2026-04-25T10:32:30Z</time></trkpt><trkpt lat="45.87890182151562" lon="4.837048926902809"><ele>173.0</ele><time>2026-04-25T10:32:31Z</time></trkpt><trkpt lat="45.8788425511683" lon="4.83710862095097"><ele>173.0</ele><time>2026-04-25T10:32:32Z</time></trkpt><trkpt lat="45.87878667874051" lon="4.83716591976223"><ele>173.0</ele><time>2026-04-25T10:32:33Z</time></trkpt><trkpt lat="45.8787276306701" lon="4.837218895813249"><ele>173.0</ele><time>2026-04-25T10:32:34Z</time></trkpt><trkpt lat="45.87866349507341" lon="4.837276844370848"><ele>173.0</ele><time>2026-04-25T10:32:35Z</time></trkpt><trkpt lat="45.87859689179418" lon="4.8373420957083635"><ele>173.0</ele><time>2026-04-25T10:32:36Z</time></trkpt><trkpt lat="45.87853214291589" lon="4.8374098755447275"><ele>173.0</ele><time>2026-04-25T10:32:37Z</time></trkpt><trkpt lat="45.87846344291873" lon="4.837475994561844"><ele>173.0</ele><time>2026-04-25T10:32:38Z</time></trkpt><trkpt lat="45.87839484079089" lon="4.837543503523821"><ele>173.0</ele><time>2026-04-25T10:32:39Z</time></trkpt><trkpt lat="45.87833385535623" lon="4.837624993495066"><ele>173.0</ele><time>2026-04-25T10:32:40Z</time></trkpt><trkpt lat="45.878282104642125" lon="4.837723925985517"><ele>173.0</ele><time>2026-04-25T10:32:41Z</time></trkpt><trkpt lat="45.878232923230605" lon="4.837831300570834"><ele>173.0</ele><time>2026-04-25T10:32:42.001Z</time></trkpt><trkpt lat="45.87818761494894" lon="4.837939508233485"><ele>173.0</ele><time>2026-04-25T10:32:43.001Z</time></trkpt><trkpt lat="45.878144895363036" lon="4.83802746486926"><ele>173.0</ele><time>2026-04-25T10:32:44.001Z</time></trkpt><trkpt lat="45.87809822117123" lon="4.838097240926235"><ele>173.0</ele><time>2026-04-25T10:32:45.001Z</time></trkpt><trkpt lat="45.877951445463346" lon="4.837981503806465"><ele>173.0</ele><time>2026-04-25T10:32:46.001Z</time></trkpt><trkpt lat="45.877884096567975" lon="4.8380536022985785"><ele>173.0</ele><time>2026-04-25T10:32:47.001Z</time></trkpt><trkpt lat="45.87781739757838" lon="4.838127998769355"><ele>173.0</ele><time>2026-04-25T10:32:48.001Z</time></trkpt><trkpt lat="45.87776407008786" lon="4.838245226597214"><ele>173.0</ele><time>2026-04-25T10:32:49.001Z</time></trkpt><trkpt lat="45.87767294000324" lon="4.838276610724748"><ele>172.5</ele><time>2026-04-25T10:32:50.001Z</time></trkpt><trkpt lat="45.877593413953505" lon="4.838301002363973"><ele>172.0</ele><time>2026-04-25T10:32:51.001Z</time></trkpt><trkpt lat="45.877523271592565" lon="4.83832227981742"><ele>171.5</ele><time>2026-04-25T10:32:52.001Z</time></trkpt><trkpt lat="45.877458615378636" lon="4.838341597025444"><ele>171.0</ele><time>2026-04-25T10:32:53.001Z</time></trkpt><trkpt lat="45.8773442202837" lon="4.838373452366786"><ele>170.5</ele><time>2026-04-25T10:32:55.001Z</time></trkpt><trkpt lat="45.87724751013315" lon="4.838385056447077"><ele>170.0</ele><time>2026-04-25T10:32:57.001Z</time></trkpt><trkpt lat="45.877135349667626" lon="4.838334965298788"><ele>170.0</ele><time>2026-04-25T10:32:59.001Z</time></trkpt><trkpt lat="45.877077908400665" lon="4.8382725564706295"><ele>170.0</ele><time>2026-04-25T10:33:00.001Z</time></trkpt><trkpt lat="45.87702734467464" lon="4.838214395921314"><ele>170.0</ele><time>2026-04-25T10:33:01.001Z</time></trkpt><trkpt lat="45.87700538541454" lon="4.838109100545437"><ele>170.0</ele><time>2026-04-25T10:33:02.001Z</time></trkpt><trkpt lat="45.8769938720156" lon="4.838017103661983"><ele>170.0</ele><time>2026-04-25T10:33:03.001Z</time></trkpt><trkpt lat="45.87698684127987" lon="4.837912889542676"><ele>170.0</ele><time>2026-04-25T10:33:04.001Z</time></trkpt><trkpt lat="45.876976970777626" lon="4.837790651919788"><ele>170.0</ele><time>2026-04-25T10:33:05.001Z</time></trkpt><trkpt lat="45.87696334531616" lon="4.83765334149396"><ele>169.0</ele><time>2026-04-25T10:33:06.001Z</time></trkpt><trkpt lat="45.87694831646588" lon="4.837500360091541"><ele>168.0</ele><time>2026-04-25T10:33:07.001Z</time></trkpt><trkpt lat="45.87693637960438" lon="4.837329779602376"><ele>167.0</ele><time>2026-04-25T10:33:08.001Z</time></trkpt><trkpt lat="45.876924362690644" lon="4.837169883542123"><ele>166.0</ele><time>2026-04-25T10:33:09.001Z</time></trkpt><trkpt lat="45.876911820792934" lon="4.8370202793096775"><ele>165.0</ele><time>2026-04-25T10:33:10.001Z</time></trkpt><trkpt lat="45.87690194618061" lon="4.836883774987797"><ele>165.0</ele><time>2026-04-25T10:33:11.001Z</time></trkpt><trkpt lat="45.87689098575935" lon="4.836742730084012"><ele>165.0</ele><time>2026-04-25T10:33:12.001Z</time></trkpt><trkpt lat="45.87687806724064" lon="4.836604360455321"><ele>165.0</ele><time>2026-04-25T10:33:13.001Z</time></trkpt><trkpt lat="45.87686894683264" lon="4.8364715660481545"><ele>165.0</ele><time>2026-04-25T10:33:14.001Z</time></trkpt><trkpt lat="45.87685835128964" lon="4.836349530627183"><ele>165.0</ele><time>2026-04-25T10:33:15.001Z</time></trkpt><trkpt lat="45.87684922458719" lon="4.836231047564359"><ele>165.0</ele><time>2026-04-25T10:33:16.001Z</time></trkpt><trkpt lat="45.87684186830532" lon="4.836115712941613"><ele>165.0</ele><time>2026-04-25T10:33:17.001Z</time></trkpt><trkpt lat="45.876833760174534" lon="4.836013185222894"><ele>165.0</ele><time>2026-04-25T10:33:18.001Z</time></trkpt><trkpt lat="45.876824587289605" lon="4.835919652386183"><ele>165.0</ele><time>2026-04-25T10:33:19.001Z</time></trkpt><trkpt lat="45.876813087684866" lon="4.835751118658316"><ele>165.0</ele><time>2026-04-25T10:33:21.001Z</time></trkpt><trkpt lat="45.87683781040607" lon="4.835597451802343"><ele>165.0</ele><time>2026-04-25T10:33:23.001Z</time></trkpt><trkpt lat="45.876859352644445" lon="4.835465492878707"><ele>165.0</ele><time>2026-04-25T10:33:25.001Z</time></trkpt><trkpt lat="45.876864385752064" lon="4.835358904015181"><ele>165.0</ele><time>2026-04-25T10:33:27.001Z</time></trkpt><trkpt lat="45.87677787285052" lon="4.835332051214964"><ele>165.0</ele><time>2026-04-25T10:33:28.001Z</time></trkpt><trkpt lat="45.876668376533324" lon="4.835371755741126"><ele>165.0</ele><time>2026-04-25T10:33:30.001Z</time></trkpt><trkpt lat="45.8765936192637" lon="4.83539675448413"><ele>165.0</ele><time>2026-04-25T10:33:31.001Z</time></trkpt><trkpt lat="45.87649919957337" lon="4.835406130174625"><ele>165.0</ele><time>2026-04-25T10:33:32.001Z</time></trkpt><trkpt lat="45.87637878141045" lon="4.835390022150887"><ele>165.25</ele><time>2026-04-25T10:33:33.001Z</time></trkpt><trkpt lat="45.87624022894619" lon="4.8353742195248275"><ele>165.5</ele><time>2026-04-25T10:33:34.001Z</time></trkpt><trkpt lat="45.87610050684752" lon="4.835354777645557"><ele>165.75</ele><time>2026-04-25T10:33:35.002Z</time></trkpt><trkpt lat="45.875945066126235" lon="4.83531964272865"><ele>166.0</ele><time>2026-04-25T10:33:36.002Z</time></trkpt><trkpt lat="45.87577549842456" lon="4.83526002955274"><ele>166.0</ele><time>2026-04-25T10:33:37.002Z</time></trkpt><trkpt lat="45.875606293774965" lon="4.835187247994476"><ele>166.0</ele><time>2026-04-25T10:33:38.002Z</time></trkpt><trkpt lat="45.875462278377604" lon="4.835123929233285"><ele>166.0</ele><time>2026-04-25T10:33:39.002Z</time></trkpt><trkpt lat="45.87532791606311" lon="4.835074186060719"><ele>167.0</ele><time>2026-04-25T10:33:40.002Z</time></trkpt><trkpt lat="45.87519534181804" lon="4.835046302051872"><ele>168.0</ele><time>2026-04-25T10:33:41.002Z</time></trkpt><trkpt lat="45.87504428251848" lon="4.835035608160622"><ele>169.0</ele><time>2026-04-25T10:33:42.002Z</time></trkpt><trkpt lat="45.87488656058214" lon="4.835035360408234"><ele>170.0</ele><time>2026-04-25T10:33:43.002Z</time></trkpt><trkpt lat="45.87472106930105" lon="4.835035314971908"><ele>170.66666666666666</ele><time>2026-04-25T10:33:44.002Z</time></trkpt><trkpt lat="45.8745473465613" lon="4.83503868199626"><ele>171.33333333333334</ele><time>2026-04-25T10:33:45.002Z</time></trkpt><trkpt lat="45.87437074144234" lon="4.835033039019119"><ele>172.0</ele><time>2026-04-25T10:33:46.002Z</time></trkpt><trkpt lat="45.87419099786678" lon="4.835031578600111"><ele>172.0</ele><time>2026-04-25T10:33:47.002Z</time></trkpt><trkpt lat="45.87401834258336" lon="4.835033838707824"><ele>172.0</ele><time>2026-04-25T10:33:48.002Z</time></trkpt><trkpt lat="45.87385283012176" lon="4.83503973433473"><ele>172.0</ele><time>2026-04-25T10:33:49.002Z</time></trkpt><trkpt lat="45.87368485407004" lon="4.835044747997727"><ele>172.0</ele><time>2026-04-25T10:33:50.002Z</time></trkpt><trkpt lat="45.8735142960524" lon="4.835037178619408"><ele>172.0</ele><time>2026-04-25T10:33:51.002Z</time></trkpt><trkpt lat="45.87333978267343" lon="4.835023685651107"><ele>172.0</ele><time>2026-04-25T10:33:52.002Z</time></trkpt><trkpt lat="45.87316246407217" lon="4.8349893016844785"><ele>171.66666666666669</ele><time>2026-04-25T10:33:53.002Z</time></trkpt><trkpt lat="45.8729726652767" lon="4.834948051865297"><ele>171.33333333333334</ele><time>2026-04-25T10:33:54.002Z</time></trkpt><trkpt lat="45.87277744090822" lon="4.834909996013165"><ele>171.0</ele><time>2026-04-25T10:33:55.002Z</time></trkpt><trkpt lat="45.872575325181884" lon="4.834874789957885"><ele>170.0</ele><time>2026-04-25T10:33:56.002Z</time></trkpt><trkpt lat="45.8723826212929" lon="4.834843151579372"><ele>169.0</ele><time>2026-04-25T10:33:57.002Z</time></trkpt><trkpt lat="45.87220150861718" lon="4.834810970399913"><ele>168.0</ele><time>2026-04-25T10:33:58.002Z</time></trkpt><trkpt lat="45.87201422284231" lon="4.834784400977284"><ele>168.0</ele><time>2026-04-25T10:33:59.002Z</time></trkpt><trkpt lat="45.87184080421235" lon="4.834753734779265"><ele>168.0</ele><time>2026-04-25T10:34:00.002Z</time></trkpt><trkpt lat="45.8716812457962" lon="4.83472112977246"><ele>168.0</ele><time>2026-04-25T10:34:01.002Z</time></trkpt><trkpt lat="45.871524017281224" lon="4.834694609425545"><ele>168.33333333333334</ele><time>2026-04-25T10:34:02.002Z</time></trkpt><trkpt lat="45.871363203557905" lon="4.834671410270913"><ele>168.66666666666669</ele><time>2026-04-25T10:34:03.002Z</time></trkpt><trkpt lat="45.87119408786893" lon="4.834656483987504"><ele>169.0</ele><time>2026-04-25T10:34:04.002Z</time></trkpt><trkpt lat="45.87102290551432" lon="4.834632456533697"><ele>169.0</ele><time>2026-04-25T10:34:05.002Z</time></trkpt><trkpt lat="45.870846033847485" lon="4.834631883868994"><ele>169.0</ele><time>2026-04-25T10:34:06.002Z</time></trkpt><trkpt lat="45.870664326899075" lon="4.834653556418098"><ele>169.0</ele><time>2026-04-25T10:34:07.002Z</time></trkpt><trkpt lat="45.870478435297066" lon="4.834653758883144"><ele>169.0</ele><time>2026-04-25T10:34:08.002Z</time></trkpt><trkpt lat="45.87029166112417" lon="4.834650438761543"><ele>169.0</ele><time>2026-04-25T10:34:09.002Z</time></trkpt><trkpt lat="45.870101581388035" lon="4.834647900368764"><ele>169.0</ele><time>2026-04-25T10:34:10.002Z</time></trkpt><trkpt lat="45.869908749773906" lon="4.834625734871534"><ele>168.66666666666669</ele><time>2026-04-25T10:34:11.002Z</time></trkpt><trkpt lat="45.869707918023515" lon="4.834623705775178"><ele>168.33333333333334</ele><time>2026-04-25T10:34:12.002Z</time></trkpt><trkpt lat="45.86950215723605" lon="4.834619115461522"><ele>168.0</ele><time>2026-04-25T10:34:13.002Z</time></trkpt><trkpt lat="45.869291804031725" lon="4.8346118176235136"><ele>168.33333333333334</ele><time>2026-04-25T10:34:14.002Z</time></trkpt><trkpt lat="45.86907674279766" lon="4.834593147721133"><ele>168.66666666666669</ele><time>2026-04-25T10:34:15.002Z</time></trkpt><trkpt lat="45.86885639229978" lon="4.834566701871276"><ele>169.0</ele><time>2026-04-25T10:34:16.002Z</time></trkpt><trkpt lat="45.86864723440221" lon="4.8345417144052165"><ele>169.0</ele><time>2026-04-25T10:34:17.002Z</time></trkpt><trkpt lat="45.86845207992835" lon="4.834519185823518"><ele>169.0</ele><time>2026-04-25T10:34:18.002Z</time></trkpt><trkpt lat="45.86827189771167" lon="4.834499082329154"><ele>169.0</ele><time>2026-04-25T10:34:19.002Z</time></trkpt><trkpt lat="45.8681044020528" lon="4.834482755522698"><ele>169.0</ele><time>2026-04-25T10:34:20Z</time></trkpt><trkpt lat="45.86794851367186" lon="4.834470076893617"><ele>169.0</ele><time>2026-04-25T10:34:21Z</time></trkpt><trkpt lat="45.86780235424556" lon="4.834458189522805"><ele>169.0</ele><time>2026-04-25T10:34:22Z</time></trkpt><trkpt lat="45.86766663698293" lon="4.8344471514335625"><ele>169.0</ele><time>2026-04-25T10:34:23Z</time></trkpt><trkpt lat="45.8675382936252" lon="4.83443671307744"><ele>169.0</ele><time>2026-04-25T10:34:24Z</time></trkpt><trkpt lat="45.86741945608831" lon="4.834427047842034"><ele>169.0</ele><time>2026-04-25T10:34:25Z</time></trkpt><trkpt lat="45.86730247270478" lon="4.834417533408624"><ele>169.0</ele><time>2026-04-25T10:34:26Z</time></trkpt><trkpt lat="45.86717015913965" lon="4.834436869041604"><ele>169.0</ele><time>2026-04-25T10:34:27Z</time></trkpt><trkpt lat="45.86703016995718" lon="4.834421047792033"><ele>169.0</ele><time>2026-04-25T10:34:28Z</time></trkpt><trkpt lat="45.86687541177242" lon="4.834409696646133"><ele>169.0</ele><time>2026-04-25T10:34:29Z</time></trkpt><trkpt lat="45.86670601907165" lon="4.834401240674798"><ele>169.0</ele><time>2026-04-25T10:34:30Z</time></trkpt><trkpt lat="45.866526650775434" lon="4.834370742108307"><ele>169.0</ele><time>2026-04-25T10:34:31Z</time></trkpt><trkpt lat="45.86635717383311" lon="4.834344820001238"><ele>169.0</ele><time>2026-04-25T10:34:32Z</time></trkpt><trkpt lat="45.86619843139084" lon="4.83432026585839"><ele>169.0</ele><time>2026-04-25T10:34:33Z</time></trkpt><trkpt lat="45.86604712091107" lon="4.834297811166176"><ele>169.0</ele><time>2026-04-25T10:34:34Z</time></trkpt><trkpt lat="45.865895412549584" lon="4.8342981551386535"><ele>169.0</ele><time>2026-04-25T10:34:35Z</time></trkpt><trkpt lat="45.865738917553536" lon="4.834306929422002"><ele>169.0</ele><time>2026-04-25T10:34:36Z</time></trkpt><trkpt lat="45.86558142838134" lon="4.834326262008081"><ele>169.0</ele><time>2026-04-25T10:34:37Z</time></trkpt><trkpt lat="45.86542325290723" lon="4.83435755840884"><ele>169.0</ele><time>2026-04-25T10:34:38Z</time></trkpt><trkpt lat="45.86527731698386" lon="4.834396108883912"><ele>169.0</ele><time>2026-04-25T10:34:39Z</time></trkpt><trkpt lat="45.8651344594896" lon="4.834450113188574"><ele>169.5</ele><time>2026-04-25T10:34:40Z</time></trkpt><trkpt lat="45.86500109846061" lon="4.834508731957718"><ele>170.0</ele><time>2026-04-25T10:34:41Z</time></trkpt><trkpt lat="45.86488217985674" lon="4.8345691844532075"><ele>170.5</ele><time>2026-04-25T10:34:42Z</time></trkpt><trkpt lat="45.864771994372866" lon="4.834627386659296"><ele>171.0</ele><time>2026-04-25T10:34:43Z</time></trkpt><trkpt lat="45.86466784510658" lon="4.834676771722769"><ele>171.0</ele><time>2026-04-25T10:34:44Z</time></trkpt><trkpt lat="45.86456917526242" lon="4.8347136935796495"><ele>171.0</ele><time>2026-04-25T10:34:45Z</time></trkpt><trkpt lat="45.86446501984454" lon="4.834738415155847"><ele>171.0</ele><time>2026-04-25T10:34:46Z</time></trkpt><trkpt lat="45.864355758449264" lon="4.834744007415651"><ele>171.0</ele><time>2026-04-25T10:34:47Z</time></trkpt><trkpt lat="45.86424856619806" lon="4.834724908709262"><ele>171.0</ele><time>2026-04-25T10:34:48Z</time></trkpt><trkpt lat="45.864157598129225" lon="4.8347137011359305"><ele>171.0</ele><time>2026-04-25T10:34:49Z</time></trkpt><trkpt lat="45.86407538947359" lon="4.834720867014253"><ele>171.0</ele><time>2026-04-25T10:34:50Z</time></trkpt><trkpt lat="45.86400146564561" lon="4.834743136154278"><ele>171.0</ele><time>2026-04-25T10:34:51.001Z</time></trkpt><trkpt lat="45.863932257560485" lon="4.834763349991084"><ele>171.0</ele><time>2026-04-25T10:34:52.001Z</time></trkpt><trkpt lat="45.86386316982175" lon="4.8347686146238615"><ele>171.0</ele><time>2026-04-25T10:34:53.001Z</time></trkpt><trkpt lat="45.863735724582874" lon="4.834739192485172"><ele>171.0</ele><time>2026-04-25T10:34:55.001Z</time></trkpt><trkpt lat="45.86360067594623" lon="4.834815902838352"><ele>171.0</ele><time>2026-04-25T10:34:57.001Z</time></trkpt><trkpt lat="45.86354550396069" lon="4.834897673774621"><ele>171.0</ele><time>2026-04-25T10:34:58.001Z</time></trkpt><trkpt lat="45.86348455608015" lon="4.834994509920621"><ele>171.0</ele><time>2026-04-25T10:34:59.001Z</time></trkpt><trkpt lat="45.863402149046465" lon="4.835081873220785"><ele>171.0</ele><time>2026-04-25T10:35:00.001Z</time></trkpt><trkpt lat="45.8633060838105" lon="4.835156294578903"><ele>171.0</ele><time>2026-04-25T10:35:01.001Z</time></trkpt><trkpt lat="45.86319618972994" lon="4.835218623514135"><ele>170.75</ele><time>2026-04-25T10:35:02.001Z</time></trkpt><trkpt lat="45.86307816022794" lon="4.835261119453331"><ele>170.5</ele><time>2026-04-25T10:35:03.001Z</time></trkpt><trkpt lat="45.86295266708581" lon="4.83528690546779"><ele>170.25</ele><time>2026-04-25T10:35:04.001Z</time></trkpt><trkpt lat="45.862822129371885" lon="4.835289989067498"><ele>170.0</ele><time>2026-04-25T10:35:05.001Z</time></trkpt><trkpt lat="45.86268739029961" lon="4.835284797024001"><ele>170.5</ele><time>2026-04-25T10:35:06.001Z</time></trkpt><trkpt lat="45.86255411405014" lon="4.835277093962761"><ele>171.0</ele><time>2026-04-25T10:35:07.001Z</time></trkpt><trkpt lat="45.86241407093265" lon="4.835271682155826"><ele>171.5</ele><time>2026-04-25T10:35:08.001Z</time></trkpt><trkpt lat="45.862261614638626" lon="4.835260834073718"><ele>172.0</ele><time>2026-04-25T10:35:09.001Z</time></trkpt><trkpt lat="45.86209807625908" lon="4.835247287170597"><ele>172.0</ele><time>2026-04-25T10:35:10.001Z</time></trkpt><trkpt lat="45.861928412640836" lon="4.835228617941387"><ele>172.0</ele><time>2026-04-25T10:35:11.001Z</time></trkpt><trkpt lat="45.86174942909713" lon="4.835215171343929"><ele>172.0</ele><time>2026-04-25T10:35:12.001Z</time></trkpt><trkpt lat="45.861563542049915" lon="4.835201625634944"><ele>170.33333333333334</ele><time>2026-04-25T10:35:13.001Z</time></trkpt><trkpt lat="45.861380565140294" lon="4.8351879808833065"><ele>168.66666666666666</ele><time>2026-04-25T10:35:14.001Z</time></trkpt><trkpt lat="45.86121954809615" lon="4.835181615693533"><ele>167.0</ele><time>2026-04-25T10:35:15.001Z</time></trkpt><trkpt lat="45.861061799190274" lon="4.835171488563736"><ele>167.75</ele><time>2026-04-25T10:35:16.001Z</time></trkpt><trkpt lat="45.86091103875626" lon="4.8351482341676855"><ele>168.5</ele><time>2026-04-25T10:35:17.001Z</time></trkpt><trkpt lat="45.86076342181752" lon="4.835122705730296"><ele>169.25</ele><time>2026-04-25T10:35:18.001Z</time></trkpt><trkpt lat="45.86061685322525" lon="4.835100993756273"><ele>170.0</ele><time>2026-04-25T10:35:19.001Z</time></trkpt><trkpt lat="45.8604681038779" lon="4.835092752187346"><ele>170.0</ele><time>2026-04-25T10:35:20.001Z</time></trkpt><trkpt lat="45.860316904489075" lon="4.8350890222238325"><ele>170.0</ele><time>2026-04-25T10:35:21.001Z</time></trkpt><trkpt lat="45.86016592556073" lon="4.8350810439363245"><ele>170.0</ele><time>2026-04-25T10:35:22.001Z</time></trkpt><trkpt lat="45.86001073077392" lon="4.83507820817594"><ele>170.0</ele><time>2026-04-25T10:35:23.001Z</time></trkpt><trkpt lat="45.85985325144539" lon="4.835079768191"><ele>170.0</ele><time>2026-04-25T10:35:24.001Z</time></trkpt><trkpt lat="45.85971026509734" lon="4.835090432602055"><ele>170.0</ele><time>2026-04-25T10:35:25.001Z</time></trkpt><trkpt lat="45.85957928179911" lon="4.835100569899384"><ele>170.0</ele><time>2026-04-25T10:35:26.001Z</time></trkpt><trkpt lat="45.85945887932113" lon="4.835105081224528"><ele>170.0</ele><time>2026-04-25T10:35:27.001Z</time></trkpt><trkpt lat="45.859347875940244" lon="4.835105523365294"><ele>170.0</ele><time>2026-04-25T10:35:28.001Z</time></trkpt><trkpt lat="45.859243036994975" lon="4.835113336590318"><ele>170.0</ele><time>2026-04-25T10:35:29.001Z</time></trkpt><trkpt lat="45.859132504627546" lon="4.8351232071348695"><ele>170.0</ele><time>2026-04-25T10:35:30.001Z</time></trkpt><trkpt lat="45.85900644624854" lon="4.835120246838538"><ele>170.0</ele><time>2026-04-25T10:35:31.001Z</time></trkpt><trkpt lat="45.8588650369694" lon="4.8351010551763975"><ele>170.0</ele><time>2026-04-25T10:35:32.001Z</time></trkpt><trkpt lat="45.85871261015554" lon="4.835080552965934"><ele>170.0</ele><time>2026-04-25T10:35:33.001Z</time></trkpt><trkpt lat="45.858548017079514" lon="4.835066976860653"><ele>170.25</ele><time>2026-04-25T10:35:34.001Z</time></trkpt><trkpt lat="45.85838154948524" lon="4.835051818891097"><ele>170.5</ele><time>2026-04-25T10:35:35.001Z</time></trkpt><trkpt lat="45.85823754679289" lon="4.835040314964143"><ele>170.75</ele><time>2026-04-25T10:35:36.001Z</time></trkpt><trkpt lat="45.85810389757019" lon="4.835027048476085"><ele>171.0</ele><time>2026-04-25T10:35:37.001Z</time></trkpt><trkpt lat="45.85797984225689" lon="4.83501563901301"><ele>171.0</ele><time>2026-04-25T10:35:38.001Z</time></trkpt><trkpt lat="45.85786467221982" lon="4.835005133958461"><ele>171.0</ele><time>2026-04-25T10:35:39.001Z</time></trkpt><trkpt lat="45.85774482087882" lon="4.834996969421352"><ele>171.0</ele><time>2026-04-25T10:35:40.001Z</time></trkpt><trkpt lat="45.857627771150135" lon="4.8349884664076175"><ele>171.0</ele><time>2026-04-25T10:35:41.001Z</time></trkpt><trkpt lat="45.85752367540317" lon="4.834975286467158"><ele>171.0</ele><time>2026-04-25T10:35:42.001Z</time></trkpt><trkpt lat="45.85742161278445" lon="4.8349583345993565"><ele>171.0</ele><time>2026-04-25T10:35:43.002Z</time></trkpt><trkpt lat="45.85733173253845" lon="4.834945343454235"><ele>171.0</ele><time>2026-04-25T10:35:44.002Z</time></trkpt><trkpt lat="45.8572491660671" lon="4.834935351845399"><ele>171.0</ele><time>2026-04-25T10:35:45.002Z</time></trkpt><trkpt lat="45.857157763739025" lon="4.834916663802325"><ele>171.0</ele><time>2026-04-25T10:35:46.002Z</time></trkpt><trkpt lat="45.857058917907935" lon="4.8348982262870885"><ele>171.0</ele><time>2026-04-25T10:35:47.002Z</time></trkpt><trkpt lat="45.85695051352995" lon="4.8348875693561855"><ele>171.0</ele><time>2026-04-25T10:35:48.002Z</time></trkpt><trkpt lat="45.85683555689169" lon="4.834860043811673"><ele>171.0</ele><time>2026-04-25T10:35:49.002Z</time></trkpt><trkpt lat="45.85671235521949" lon="4.834836405036844"><ele>171.0</ele><time>2026-04-25T10:35:50.002Z</time></trkpt><trkpt lat="45.856581520292686" lon="4.834813560201252"><ele>170.5</ele><time>2026-04-25T10:35:51.002Z</time></trkpt><trkpt lat="45.85644689508922" lon="4.834770728312243"><ele>170.0</ele><time>2026-04-25T10:35:52.002Z</time></trkpt><trkpt lat="45.856307993085316" lon="4.834714905579541"><ele>169.5</ele><time>2026-04-25T10:35:53.002Z</time></trkpt><trkpt lat="45.85618425063459" lon="4.834669634578773"><ele>169.0</ele><time>2026-04-25T10:35:54.002Z</time></trkpt><trkpt lat="45.85606213426156" lon="4.834626805696151"><ele>169.5</ele><time>2026-04-25T10:35:55.002Z</time></trkpt><trkpt lat="45.855938463059594" lon="4.834583494019541"><ele>170.0</ele><time>2026-04-25T10:35:56.002Z</time></trkpt><trkpt lat="45.855814344367936" lon="4.834540437368241"><ele>170.5</ele><time>2026-04-25T10:35:57.002Z</time></trkpt><trkpt lat="45.85569159398634" lon="4.834496943518501"><ele>171.0</ele><time>2026-04-25T10:35:58.002Z</time></trkpt><trkpt lat="45.85556918507038" lon="4.8344563104008875"><ele>171.0</ele><time>2026-04-25T10:35:59.002Z</time></trkpt><trkpt lat="45.85544782831462" lon="4.834416721377882"><ele>171.0</ele><time>2026-04-25T10:36:00.002Z</time></trkpt><trkpt lat="45.85532745057068" lon="4.834373769929779"><ele>171.0</ele><time>2026-04-25T10:36:01.002Z</time></trkpt><trkpt lat="45.85520726894791" lon="4.834336918966464"><ele>171.0</ele><time>2026-04-25T10:36:02.002Z</time></trkpt><trkpt lat="45.85508417648901" lon="4.834303793307889"><ele>170.75</ele><time>2026-04-25T10:36:03.002Z</time></trkpt><trkpt lat="45.85495685555413" lon="4.8342685842972895"><ele>170.5</ele><time>2026-04-25T10:36:04.002Z</time></trkpt><trkpt lat="45.854829789165166" lon="4.834225569156778"><ele>170.25</ele><time>2026-04-25T10:36:05.002Z</time></trkpt><trkpt lat="45.854701472170184" lon="4.83418429390348"><ele>170.0</ele><time>2026-04-25T10:36:06.002Z</time></trkpt><trkpt lat="45.85457061884736" lon="4.834148731925643"><ele>170.0</ele><time>2026-04-25T10:36:07.002Z</time></trkpt><trkpt lat="45.85444078853531" lon="4.834110519573883"><ele>170.0</ele><time>2026-04-25T10:36:08.002Z</time></trkpt><trkpt lat="45.85431064827475" lon="4.834068999850202"><ele>170.0</ele><time>2026-04-25T10:36:09.002Z</time></trkpt><trkpt lat="45.85417865877384" lon="4.834029179009734"><ele>170.0</ele><time>2026-04-25T10:36:10.002Z</time></trkpt><trkpt lat="45.8540480639633" lon="4.833991340629734"><ele>170.25</ele><time>2026-04-25T10:36:11.002Z</time></trkpt><trkpt lat="45.8539139995199" lon="4.8339624319831245"><ele>170.5</ele><time>2026-04-25T10:36:12.002Z</time></trkpt><trkpt lat="45.85378332787188" lon="4.833932323130012"><ele>170.75</ele><time>2026-04-25T10:36:13.002Z</time></trkpt><trkpt lat="45.853653391866416" lon="4.833893251853388"><ele>171.0</ele><time>2026-04-25T10:36:14.002Z</time></trkpt><trkpt lat="45.85352450709966" lon="4.833852299401923"><ele>170.75</ele><time>2026-04-25T10:36:15.002Z</time></trkpt><trkpt lat="45.853393462823405" lon="4.833816672900276"><ele>170.5</ele><time>2026-04-25T10:36:16.002Z</time></trkpt><trkpt lat="45.85326334943451" lon="4.8337807633225465"><ele>170.25</ele><time>2026-04-25T10:36:17.002Z</time></trkpt><trkpt lat="45.8531320372502" lon="4.8337454688131"><ele>170.0</ele><time>2026-04-25T10:36:18.002Z</time></trkpt><trkpt lat="45.85300113704093" lon="4.833710696329954"><ele>170.0</ele><time>2026-04-25T10:36:19.002Z</time></trkpt><trkpt lat="45.85286989998676" lon="4.833671844572266"><ele>170.0</ele><time>2026-04-25T10:36:20.002Z</time></trkpt><trkpt lat="45.85273719460697" lon="4.833636596607842"><ele>170.0</ele><time>2026-04-25T10:36:21.002Z</time></trkpt><trkpt lat="45.85260432299536" lon="4.833602010328166"><ele>170.0</ele><time>2026-04-25T10:36:22.002Z</time></trkpt><trkpt lat="45.85248434169064" lon="4.83356546584811"><ele>170.0</ele><time>2026-04-25T10:36:23.002Z</time></trkpt><trkpt lat="45.85237311737345" lon="4.833530690002651"><ele>170.0</ele><time>2026-04-25T10:36:24.002Z</time></trkpt><trkpt lat="45.852265092303114" lon="4.83349783376203"><ele>170.0</ele><time>2026-04-25T10:36:25.002Z</time></trkpt><trkpt lat="45.85216021110897" lon="4.833466742228471"><ele>170.0</ele><time>2026-04-25T10:36:26Z</time></trkpt><trkpt lat="45.852062406498234" lon="4.833436813259306"><ele>170.0</ele><time>2026-04-25T10:36:27Z</time></trkpt><trkpt lat="45.85197525225426" lon="4.833410611856552"><ele>170.0</ele><time>2026-04-25T10:36:28Z</time></trkpt><trkpt lat="45.85189464280095" lon="4.8333875217930276"><ele>170.0</ele><time>2026-04-25T10:36:29Z</time></trkpt><trkpt lat="45.85181611296524" lon="4.83336548438"><ele>170.0</ele><time>2026-04-25T10:36:30Z</time></trkpt><trkpt lat="45.85173554365545" lon="4.833340737950517"><ele>170.0</ele><time>2026-04-25T10:36:31Z</time></trkpt><trkpt lat="45.85163484732516" lon="4.833307562612378"><ele>170.0</ele><time>2026-04-25T10:36:32Z</time></trkpt><trkpt lat="45.851521065473015" lon="4.833267243681663"><ele>170.0</ele><time>2026-04-25T10:36:33Z</time></trkpt><trkpt lat="45.851398941738395" lon="4.833223183161169"><ele>170.0</ele><time>2026-04-25T10:36:34Z</time></trkpt><trkpt lat="45.851270350490424" lon="4.833173844800127"><ele>170.0</ele><time>2026-04-25T10:36:35Z</time></trkpt><trkpt lat="45.85113755146373" lon="4.833117561887983"><ele>170.0</ele><time>2026-04-25T10:36:36Z</time></trkpt><trkpt lat="45.85099959481327" lon="4.83305970580255"><ele>170.25</ele><time>2026-04-25T10:36:37Z</time></trkpt><trkpt lat="45.85087374743669" lon="4.833015390794395"><ele>170.5</ele><time>2026-04-25T10:36:38Z</time></trkpt><trkpt lat="45.850756594984745" lon="4.8329746508049825"><ele>170.75</ele><time>2026-04-25T10:36:39Z</time></trkpt><trkpt lat="45.85064787875247" lon="4.832925690311719"><ele>171.0</ele><time>2026-04-25T10:36:40Z</time></trkpt><trkpt lat="45.850540530226326" lon="4.8328726928373"><ele>171.0</ele><time>2026-04-25T10:36:41Z</time></trkpt><trkpt lat="45.85042826440839" lon="4.832821093164231"><ele>171.0</ele><time>2026-04-25T10:36:42Z</time></trkpt><trkpt lat="45.850322325834995" lon="4.832773858334285"><ele>171.0</ele><time>2026-04-25T10:36:43Z</time></trkpt><trkpt lat="45.85022765003339" lon="4.832728433573388"><ele>171.0</ele><time>2026-04-25T10:36:44Z</time></trkpt><trkpt lat="45.850140802954925" lon="4.832688385551247"><ele>171.0</ele><time>2026-04-25T10:36:45Z</time></trkpt><trkpt lat="45.85006005510769" lon="4.832656324754835"><ele>171.0</ele><time>2026-04-25T10:36:46Z</time></trkpt><trkpt lat="45.84998484186698" lon="4.832626563405752"><ele>171.0</ele><time>2026-04-25T10:36:47Z</time></trkpt><trkpt lat="45.84991363352824" lon="4.8325948489139865"><ele>171.0</ele><time>2026-04-25T10:36:48Z</time></trkpt><trkpt lat="45.84984334987769" lon="4.832558348171525"><ele>171.0</ele><time>2026-04-25T10:36:49Z</time></trkpt><trkpt lat="45.84976622192106" lon="4.8325201712374914"><ele>171.0</ele><time>2026-04-25T10:36:50Z</time></trkpt><trkpt lat="45.84967461700366" lon="4.832481330276212"><ele>171.0</ele><time>2026-04-25T10:36:51Z</time></trkpt><trkpt lat="45.849578767194956" lon="4.83243027026089"><ele>171.0</ele><time>2026-04-25T10:36:52Z</time></trkpt><trkpt lat="45.84947085176567" lon="4.8323714852447575"><ele>171.0</ele><time>2026-04-25T10:36:53Z</time></trkpt><trkpt lat="45.849354366987484" lon="4.832322223096288"><ele>171.0</ele><time>2026-04-25T10:36:54Z</time></trkpt><trkpt lat="45.84925906571865" lon="4.8322714116668255"><ele>171.0</ele><time>2026-04-25T10:36:55Z</time></trkpt><trkpt lat="45.8491612256492" lon="4.832227375877842"><ele>171.0</ele><time>2026-04-25T10:36:56Z</time></trkpt><trkpt lat="45.84906004687379" lon="4.832179896466702"><ele>170.25</ele><time>2026-04-25T10:36:57Z</time></trkpt><trkpt lat="45.84895089245417" lon="4.83213349735515"><ele>169.5</ele><time>2026-04-25T10:36:58Z</time></trkpt><trkpt lat="45.84882787124615" lon="4.832088443638168"><ele>168.75</ele><time>2026-04-25T10:36:59Z</time></trkpt><trkpt lat="45.84869673865599" lon="4.83203842073645"><ele>168.0</ele><time>2026-04-25T10:37:00Z</time></trkpt><trkpt lat="45.848554492071216" lon="4.831997819868914"><ele>167.75</ele><time>2026-04-25T10:37:01Z</time></trkpt><trkpt lat="45.84841699514334" lon="4.831967658806873"><ele>167.5</ele><time>2026-04-25T10:37:02Z</time></trkpt><trkpt lat="45.84829518384752" lon="4.831937136740988"><ele>167.25</ele><time>2026-04-25T10:37:03Z</time></trkpt><trkpt lat="45.84818165982383" lon="4.831908280652537"><ele>167.0</ele><time>2026-04-25T10:37:04.001Z</time></trkpt><trkpt lat="45.84807279930702" lon="4.831878259618274"><ele>167.0</ele><time>2026-04-25T10:37:05.001Z</time></trkpt><trkpt lat="45.84796302466285" lon="4.831846803520516"><ele>167.0</ele><time>2026-04-25T10:37:06.001Z</time></trkpt><trkpt lat="45.847849792633205" lon="4.831819695625188"><ele>167.0</ele><time>2026-04-25T10:37:07.001Z</time></trkpt><trkpt lat="45.847731768788464" lon="4.831800754520797"><ele>167.0</ele><time>2026-04-25T10:37:08.001Z</time></trkpt><trkpt lat="45.847614116925875" lon="4.831778705577577"><ele>167.25</ele><time>2026-04-25T10:37:09.001Z</time></trkpt><trkpt lat="45.847494595338794" lon="4.8317575870955105"><ele>167.5</ele><time>2026-04-25T10:37:10.001Z</time></trkpt><trkpt lat="45.84737444050266" lon="4.83174697772393"><ele>167.75</ele><time>2026-04-25T10:37:11.001Z</time></trkpt><trkpt lat="45.847253982761515" lon="4.831750079574671"><ele>168.0</ele><time>2026-04-25T10:37:12.001Z</time></trkpt><trkpt lat="45.8471328400373" lon="4.8317725193570595"><ele>168.25</ele><time>2026-04-25T10:37:13.001Z</time></trkpt><trkpt lat="45.84701137906817" lon="4.831807595350854"><ele>168.5</ele><time>2026-04-25T10:37:14.001Z</time></trkpt><trkpt lat="45.84689134076516" lon="4.831852314165806"><ele>168.75</ele><time>2026-04-25T10:37:15.001Z</time></trkpt><trkpt lat="45.846772281182545" lon="4.831918610066309"><ele>169.0</ele><time>2026-04-25T10:37:16.001Z</time></trkpt><trkpt lat="45.846654288184006" lon="4.831982721619433"><ele>169.0</ele><time>2026-04-25T10:37:17.001Z</time></trkpt><trkpt lat="45.84653629414217" lon="4.832051917042769"><ele>169.0</ele><time>2026-04-25T10:37:18.001Z</time></trkpt><trkpt lat="45.846414811513" lon="4.832111486282639"><ele>169.0</ele><time>2026-04-25T10:37:19.001Z</time></trkpt><trkpt lat="45.84630432763025" lon="4.832168908180844"><ele>169.0</ele><time>2026-04-25T10:37:20.001Z</time></trkpt><trkpt lat="45.84620173997388" lon="4.832218509327834"><ele>169.0</ele><time>2026-04-25T10:37:21.001Z</time></trkpt><trkpt lat="45.84609801398831" lon="4.83226820676593"><ele>169.0</ele><time>2026-04-25T10:37:22.001Z</time></trkpt><trkpt lat="45.845998393582875" lon="4.832304570516958"><ele>169.0</ele><time>2026-04-25T10:37:23.001Z</time></trkpt><trkpt lat="45.84590825755582" lon="4.832328708927968"><ele>169.0</ele><time>2026-04-25T10:37:24.001Z</time></trkpt><trkpt lat="45.84581615826975" lon="4.83235299056614"><ele>169.0</ele><time>2026-04-25T10:37:25.001Z</time></trkpt><trkpt lat="45.84572305236589" lon="4.832365773567207"><ele>169.0</ele><time>2026-04-25T10:37:26.001Z</time></trkpt><trkpt lat="45.8456254371429" lon="4.83237289036979"><ele>169.0</ele><time>2026-04-25T10:37:27.001Z</time></trkpt><trkpt lat="45.84552497565498" lon="4.832366449356849"><ele>169.0</ele><time>2026-04-25T10:37:28.001Z</time></trkpt><trkpt lat="45.845418615997254" lon="4.832361984646226"><ele>169.0</ele><time>2026-04-25T10:37:29.001Z</time></trkpt><trkpt lat="45.84530611281053" lon="4.832348583264304"><ele>169.0</ele><time>2026-04-25T10:37:30.001Z</time></trkpt><trkpt lat="45.8451864709743" lon="4.832325308253092"><ele>169.0</ele><time>2026-04-25T10:37:31.001Z</time></trkpt><trkpt lat="45.84506021712365" lon="4.832297360911659"><ele>169.0</ele><time>2026-04-25T10:37:32.001Z</time></trkpt><trkpt lat="45.84492580789936" lon="4.832261910466092"><ele>169.0</ele><time>2026-04-25T10:37:33.001Z</time></trkpt><trkpt lat="45.84479177258851" lon="4.83222695218103"><ele>169.0</ele><time>2026-04-25T10:37:34.001Z</time></trkpt><trkpt lat="45.844667863716914" lon="4.832197201093113"><ele>169.0</ele><time>2026-04-25T10:37:35.001Z</time></trkpt><trkpt lat="45.844545093321734" lon="4.83217075149604"><ele>169.0</ele><time>2026-04-25T10:37:36.001Z</time></trkpt><trkpt lat="45.84442275985425" lon="4.832140126377436"><ele>169.0</ele><time>2026-04-25T10:37:37.001Z</time></trkpt><trkpt lat="45.84429357367386" lon="4.832106302057665"><ele>169.0</ele><time>2026-04-25T10:37:38.001Z</time></trkpt><trkpt lat="45.844161995859416" lon="4.832075809307407"><ele>169.0</ele><time>2026-04-25T10:37:39.001Z</time></trkpt><trkpt lat="45.844025202467755" lon="4.832040892489529"><ele>169.0</ele><time>2026-04-25T10:37:40.001Z</time></trkpt><trkpt lat="45.843883599813786" lon="4.8320065908741805"><ele>169.0</ele><time>2026-04-25T10:37:41.001Z</time></trkpt><trkpt lat="45.84375348700631" lon="4.831969198625886"><ele>169.0</ele><time>2026-04-25T10:37:42.001Z</time></trkpt><trkpt lat="45.843630347167846" lon="4.831935625468056"><ele>169.0</ele><time>2026-04-25T10:37:43.001Z</time></trkpt><trkpt lat="45.843505946726786" lon="4.831902483914206"><ele>169.0</ele><time>2026-04-25T10:37:44.001Z</time></trkpt><trkpt lat="45.8433772604507" lon="4.83186768654935"><ele>169.0</ele><time>2026-04-25T10:37:45.001Z</time></trkpt><trkpt lat="45.84324574301834" lon="4.831834210127013"><ele>169.0</ele><time>2026-04-25T10:37:46.001Z</time></trkpt><trkpt lat="45.84310890471382" lon="4.831801089826485"><ele>169.33333333333334</ele><time>2026-04-25T10:37:47.001Z</time></trkpt><trkpt lat="45.84296778313495" lon="4.831764467091988"><ele>169.66666666666666</ele><time>2026-04-25T10:37:48.001Z</time></trkpt><trkpt lat="45.84282250224188" lon="4.8317237129476"><ele>170.0</ele><time>2026-04-25T10:37:49.001Z</time></trkpt><trkpt lat="45.84266734021954" lon="4.831669423236994"><ele>170.0</ele><time>2026-04-25T10:37:50.001Z</time></trkpt><trkpt lat="45.842516077048785" lon="4.83161661100482"><ele>170.0</ele><time>2026-04-25T10:37:51.001Z</time></trkpt><trkpt lat="45.84236107829702" lon="4.831566651196087"><ele>170.0</ele><time>2026-04-25T10:37:52.001Z</time></trkpt><trkpt lat="45.84221564507605" lon="4.831512637091405"><ele>170.0</ele><time>2026-04-25T10:37:53.001Z</time></trkpt><trkpt lat="45.84207248576502" lon="4.831466822446715"><ele>170.0</ele><time>2026-04-25T10:37:54.001Z</time></trkpt><trkpt lat="45.84193046760496" lon="4.831412875263019"><ele>170.0</ele><time>2026-04-25T10:37:55.001Z</time></trkpt><trkpt lat="45.8417894164236" lon="4.831361548540909"><ele>170.0</ele><time>2026-04-25T10:37:56.001Z</time></trkpt><trkpt lat="45.84164660197494" lon="4.831314934132139"><ele>169.0</ele><time>2026-04-25T10:37:57.002Z</time></trkpt><trkpt lat="45.8415167767445" lon="4.831269468677678"><ele>168.0</ele><time>2026-04-25T10:37:58.002Z</time></trkpt><trkpt lat="45.841392643222356" lon="4.831228712304738"><ele>167.0</ele><time>2026-04-25T10:37:59.002Z</time></trkpt><trkpt lat="45.841267954725744" lon="4.831187072500328"><ele>166.0</ele><time>2026-04-25T10:38:00.002Z</time></trkpt><trkpt lat="45.84113892637194" lon="4.831146535583323"><ele>166.0</ele><time>2026-04-25T10:38:01.002Z</time></trkpt><trkpt lat="45.84100415855799" lon="4.831115252771541"><ele>166.0</ele><time>2026-04-25T10:38:02.002Z</time></trkpt><trkpt lat="45.84086915467329" lon="4.8310875874756976"><ele>166.0</ele><time>2026-04-25T10:38:03.002Z</time></trkpt><trkpt lat="45.84075151098061" lon="4.831065682971157"><ele>166.0</ele><time>2026-04-25T10:38:04.002Z</time></trkpt><trkpt lat="45.84064032484634" lon="4.831041391120321"><ele>166.60000000000002</ele><time>2026-04-25T10:38:05.002Z</time></trkpt><trkpt lat="45.8405391142222" lon="4.831027777469003"><ele>167.2</ele><time>2026-04-25T10:38:06.002Z</time></trkpt><trkpt lat="45.840444334444776" lon="4.831014742489329"><ele>167.8</ele><time>2026-04-25T10:38:07.002Z</time></trkpt><trkpt lat="45.84035041504022" lon="4.831007650626026"><ele>168.39999999999998</ele><time>2026-04-25T10:38:08.002Z</time></trkpt><trkpt lat="45.84024887494932" lon="4.831000642007747"><ele>169.0</ele><time>2026-04-25T10:38:09.002Z</time></trkpt><trkpt lat="45.84014509649044" lon="4.830994061581623"><ele>169.2</ele><time>2026-04-25T10:38:10.002Z</time></trkpt><trkpt lat="45.84004674111824" lon="4.83098592727283"><ele>169.39999999999998</ele><time>2026-04-25T10:38:11.002Z</time></trkpt><trkpt lat="45.839947870703234" lon="4.830979031005288"><ele>169.6</ele><time>2026-04-25T10:38:12.002Z</time></trkpt><trkpt lat="45.839859242511814" lon="4.8309795924316195"><ele>169.8</ele><time>2026-04-25T10:38:13.002Z</time></trkpt><trkpt lat="45.83977222423871" lon="4.830987493368627"><ele>170.0</ele><time>2026-04-25T10:38:14.002Z</time></trkpt><trkpt lat="45.83968395130545" lon="4.830995616730992"><ele>170.0</ele><time>2026-04-25T10:38:15.002Z</time></trkpt><trkpt lat="45.83960481420022" lon="4.830989712227307"><ele>170.0</ele><time>2026-04-25T10:38:16.002Z</time></trkpt><trkpt lat="45.839517827212234" lon="4.830988057436177"><ele>170.0</ele><time>2026-04-25T10:38:17.002Z</time></trkpt><trkpt lat="45.839422488586635" lon="4.831001275186791"><ele>170.0</ele><time>2026-04-25T10:38:18.002Z</time></trkpt><trkpt lat="45.83931694205705" lon="4.831012989068449"><ele>170.0</ele><time>2026-04-25T10:38:19.002Z</time></trkpt><trkpt lat="45.8392141900713" lon="4.831020765089014"><ele>169.4</ele><time>2026-04-25T10:38:20.002Z</time></trkpt><trkpt lat="45.83912278402361" lon="4.831032559558316"><ele>168.8</ele><time>2026-04-25T10:38:21.002Z</time></trkpt><trkpt lat="45.839026500991295" lon="4.831044510377319"><ele>168.2</ele><time>2026-04-25T10:38:22.002Z</time></trkpt><trkpt lat="45.83892446193591" lon="4.831057894953466"><ele>167.6</ele><time>2026-04-25T10:38:23.002Z</time></trkpt><trkpt lat="45.83881609150115" lon="4.831077424570646"><ele>167.0</ele><time>2026-04-25T10:38:24.002Z</time></trkpt><trkpt lat="45.838700115284546" lon="4.8311060519500435"><ele>167.0</ele><time>2026-04-25T10:38:25.002Z</time></trkpt><trkpt lat="45.838576502594215" lon="4.831136980581665"><ele>167.0</ele><time>2026-04-25T10:38:26.002Z</time></trkpt><trkpt lat="45.838462434601944" lon="4.8311706063676345"><ele>167.0</ele><time>2026-04-25T10:38:27.002Z</time></trkpt><trkpt lat="45.838348892826545" lon="4.831202136716965"><ele>167.0</ele><time>2026-04-25T10:38:28.002Z</time></trkpt><trkpt lat="45.838229289813754" lon="4.83124056662448"><ele>167.25</ele><time>2026-04-25T10:38:29.002Z</time></trkpt><trkpt lat="45.83810784137139" lon="4.831282441000425"><ele>167.5</ele><time>2026-04-25T10:38:30.002Z</time></trkpt><trkpt lat="45.8379927644434" lon="4.831334469305972"><ele>167.75</ele><time>2026-04-25T10:38:31.002Z</time></trkpt><trkpt lat="45.83787657779892" lon="4.831394997764815"><ele>168.0</ele><time>2026-04-25T10:38:32Z</time></trkpt><trkpt lat="45.83775499509859" lon="4.831457449273419"><ele>168.75</ele><time>2026-04-25T10:38:33Z</time></trkpt><trkpt lat="45.83763185780313" lon="4.831522833408934"><ele>169.5</ele><time>2026-04-25T10:38:34Z</time></trkpt><trkpt lat="45.837518404217285" lon="4.831585821735323"><ele>170.25</ele><time>2026-04-25T10:38:35Z</time></trkpt><trkpt lat="45.837412274826065" lon="4.831659887036842"><ele>171.0</ele><time>2026-04-25T10:38:36Z</time></trkpt><trkpt lat="45.83730455483239" lon="4.831743016463406"><ele>169.5</ele><time>2026-04-25T10:38:37Z</time></trkpt><trkpt lat="45.83719301283745" lon="4.831825479651818"><ele>168.0</ele><time>2026-04-25T10:38:38Z</time></trkpt><trkpt lat="45.83707809402222" lon="4.831923745709295"><ele>166.5</ele><time>2026-04-25T10:38:39Z</time></trkpt><trkpt lat="45.83695813865015" lon="4.832032251143689"><ele>165.0</ele><time>2026-04-25T10:38:40Z</time></trkpt><trkpt lat="45.836831035429555" lon="4.832143465993165"><ele>166.25</ele><time>2026-04-25T10:38:41Z</time></trkpt><trkpt lat="45.836707600251614" lon="4.83224780439702"><ele>167.5</ele><time>2026-04-25T10:38:42Z</time></trkpt><trkpt lat="45.83658428881795" lon="4.832351856389568"><ele>168.75</ele><time>2026-04-25T10:38:43Z</time></trkpt><trkpt lat="45.8364521386033" lon="4.832464731700731"><ele>170.0</ele><time>2026-04-25T10:38:44Z</time></trkpt><trkpt lat="45.836330369178526" lon="4.8325638435904"><ele>170.25</ele><time>2026-04-25T10:38:45Z</time></trkpt><trkpt lat="45.83620123471025" lon="4.832658250499675"><ele>170.5</ele><time>2026-04-25T10:38:46Z</time></trkpt><trkpt lat="45.83607874060199" lon="4.832743288348556"><ele>170.75</ele><time>2026-04-25T10:38:47Z</time></trkpt><trkpt lat="45.83596049976321" lon="4.832832161086126"><ele>171.0</ele><time>2026-04-25T10:38:48Z</time></trkpt><trkpt lat="45.83584155856995" lon="4.832926815063319"><ele>171.0</ele><time>2026-04-25T10:38:49Z</time></trkpt><trkpt lat="45.83572948001192" lon="4.833021317461174"><ele>171.0</ele><time>2026-04-25T10:38:50Z</time></trkpt><trkpt lat="45.835615688570506" lon="4.83312347769869"><ele>171.0</ele><time>2026-04-25T10:38:51Z</time></trkpt><trkpt lat="45.835501430862" lon="4.83323624579003"><ele>171.0</ele><time>2026-04-25T10:38:52Z</time></trkpt><trkpt lat="45.83538747874911" lon="4.833360095806126"><ele>172.0</ele><time>2026-04-25T10:38:53Z</time></trkpt><trkpt lat="45.835273367431846" lon="4.833498144831858"><ele>173.0</ele><time>2026-04-25T10:38:54Z</time></trkpt><trkpt lat="45.835165323235756" lon="4.833644013835728"><ele>174.0</ele><time>2026-04-25T10:38:55Z</time></trkpt><trkpt lat="45.83506212713665" lon="4.833800772162912"><ele>175.0</ele><time>2026-04-25T10:38:56Z</time></trkpt><trkpt lat="45.83496323659597" lon="4.833959882861494"><ele>175.0</ele><time>2026-04-25T10:38:57Z</time></trkpt><trkpt lat="45.834869379921436" lon="4.834127092856877"><ele>175.0</ele><time>2026-04-25T10:38:58Z</time></trkpt><trkpt lat="45.834779843786315" lon="4.834297355893497"><ele>175.0</ele><time>2026-04-25T10:38:59Z</time></trkpt><trkpt lat="45.83469213465907" lon="4.8344717908413655"><ele>175.0</ele><time>2026-04-25T10:39:00Z</time></trkpt><trkpt lat="45.83461022324105" lon="4.834651212572348"><ele>174.0</ele><time>2026-04-25T10:39:01Z</time></trkpt><trkpt lat="45.83453132807888" lon="4.834835321605637"><ele>173.0</ele><time>2026-04-25T10:39:02Z</time></trkpt><trkpt lat="45.83445380499364" lon="4.835027486482645"><ele>172.0</ele><time>2026-04-25T10:39:03Z</time></trkpt><trkpt lat="45.8343756801639" lon="4.835226546910265"><ele>174.33333333333334</ele><time>2026-04-25T10:39:04Z</time></trkpt><trkpt lat="45.83429876873579" lon="4.835429459484536"><ele>176.66666666666666</ele><time>2026-04-25T10:39:05Z</time></trkpt><trkpt lat="45.83422190903274" lon="4.83563600174376"><ele>179.0</ele><time>2026-04-25T10:39:06Z</time></trkpt><trkpt lat="45.83414859476751" lon="4.835838623198469"><ele>175.33333333333331</ele><time>2026-04-25T10:39:07Z</time></trkpt><trkpt lat="45.83407393284232" lon="4.836051157557055"><ele>171.66666666666666</ele><time>2026-04-25T10:39:08Z</time></trkpt><trkpt lat="45.83400414808274" lon="4.8362585421691495"><ele>168.0</ele><time>2026-04-25T10:39:09Z</time></trkpt><trkpt lat="45.83393763592967" lon="4.8364661048325255"><ele>168.0</ele><time>2026-04-25T10:39:10Z</time></trkpt><trkpt lat="45.83387021800042" lon="4.8366826739715805"><ele>168.0</ele><time>2026-04-25T10:39:11.001Z</time></trkpt><trkpt lat="45.83380329315892" lon="4.836906960638782"><ele>168.0</ele><time>2026-04-25T10:39:12.001Z</time></trkpt><trkpt lat="45.83373494645778" lon="4.837135583738627"><ele>167.33333333333334</ele><time>2026-04-25T10:39:13.001Z</time></trkpt><trkpt lat="45.83366835222669" lon="4.837361731072982"><ele>166.66666666666669</ele><time>2026-04-25T10:39:14.001Z</time></trkpt><trkpt lat="45.83360375314933" lon="4.837578594671753"><ele>166.0</ele><time>2026-04-25T10:39:15.001Z</time></trkpt><trkpt lat="45.83354162958111" lon="4.837791957714364"><ele>165.66666666666669</ele><time>2026-04-25T10:39:16.001Z</time></trkpt><trkpt lat="45.83348072419952" lon="4.838008861218849"><ele>165.33333333333334</ele><time>2026-04-25T10:39:17.001Z</time></trkpt><trkpt lat="45.833423059345435" lon="4.838230772738262"><ele>165.0</ele><time>2026-04-25T10:39:18.001Z</time></trkpt><trkpt lat="45.833367742826624" lon="4.838457066163965"><ele>167.33333333333334</ele><time>2026-04-25T10:39:19.001Z</time></trkpt><trkpt lat="45.833309868530144" lon="4.8386804174227676"><ele>169.66666666666669</ele><time>2026-04-25T10:39:20.001Z</time></trkpt><trkpt lat="45.83324945230205" lon="4.83890927727174"><ele>172.0</ele><time>2026-04-25T10:39:21.001Z</time></trkpt><trkpt lat="45.83318876221127" lon="4.83914308514349"><ele>170.33333333333334</ele><time>2026-04-25T10:39:22.001Z</time></trkpt><trkpt lat="45.833129129398095" lon="4.839376758539589"><ele>168.66666666666666</ele><time>2026-04-25T10:39:23.001Z</time></trkpt><trkpt lat="45.83306976330687" lon="4.839612548907323"><ele>167.0</ele><time>2026-04-25T10:39:24.001Z</time></trkpt><trkpt lat="45.83301069687194" lon="4.839854340438746"><ele>167.0</ele><time>2026-04-25T10:39:25.001Z</time></trkpt><trkpt lat="45.83295254672464" lon="4.840103275468585"><ele>167.0</ele><time>2026-04-25T10:39:26.001Z</time></trkpt><trkpt lat="45.832896413555" lon="4.840357153919167"><ele>167.0</ele><time>2026-04-25T10:39:27.001Z</time></trkpt><trkpt lat="45.8328459869424" lon="4.840594568222562"><ele>166.33333333333331</ele><time>2026-04-25T10:39:28.001Z</time></trkpt><trkpt lat="45.832796082080634" lon="4.840813894416668"><ele>165.66666666666666</ele><time>2026-04-25T10:39:29.001Z</time></trkpt><trkpt lat="45.83274964634594" lon="4.841019021362752"><ele>165.0</ele><time>2026-04-25T10:39:30.001Z</time></trkpt><trkpt lat="45.83270595030003" lon="4.841218891987327"><ele>165.0</ele><time>2026-04-25T10:39:31.001Z</time></trkpt><trkpt lat="45.83265999306535" lon="4.8414192992993055"><ele>165.0</ele><time>2026-04-25T10:39:32.001Z</time></trkpt><trkpt lat="45.83261186663315" lon="4.8416343220764"><ele>165.0</ele><time>2026-04-25T10:39:33.001Z</time></trkpt><trkpt lat="45.832560829721125" lon="4.841856641483407"><ele>168.33333333333334</ele><time>2026-04-25T10:39:34.001Z</time></trkpt><trkpt lat="45.832511194023596" lon="4.842082104794544"><ele>171.66666666666669</ele><time>2026-04-25T10:39:35.001Z</time></trkpt><trkpt lat="45.832463048787496" lon="4.842301584052236"><ele>175.0</ele><time>2026-04-25T10:39:36.001Z</time></trkpt><trkpt lat="45.832417757602386" lon="4.842508456546022"><ele>173.66666666666669</ele><time>2026-04-25T10:39:37.001Z</time></trkpt><trkpt lat="45.83237082162756" lon="4.842714605152101"><ele>172.33333333333334</ele><time>2026-04-25T10:39:38.001Z</time></trkpt><trkpt lat="45.832325750243974" lon="4.842919811517235"><ele>171.0</ele><time>2026-04-25T10:39:39.001Z</time></trkpt><trkpt lat="45.83228089587596" lon="4.843130975812277"><ele>171.0</ele><time>2026-04-25T10:39:40.001Z</time></trkpt><trkpt lat="45.83223334042816" lon="4.843347207488545"><ele>171.0</ele><time>2026-04-25T10:39:41.001Z</time></trkpt><trkpt lat="45.83218461857402" lon="4.843567607522267"><ele>171.0</ele><time>2026-04-25T10:39:42.001Z</time></trkpt><trkpt lat="45.83212246721729" lon="4.843793130055588"><ele>170.0</ele><time>2026-04-25T10:39:43.001Z</time></trkpt><trkpt lat="45.8320838891108" lon="4.844004960235348"><ele>169.0</ele><time>2026-04-25T10:39:44.001Z</time></trkpt><trkpt lat="45.83205022234941" lon="4.844209898909133"><ele>168.0</ele><time>2026-04-25T10:39:45.001Z</time></trkpt><trkpt lat="45.83201762951393" lon="4.844398034889815"><ele>167.0</ele><time>2026-04-25T10:39:46.001Z</time></trkpt><trkpt lat="45.831978529530836" lon="4.844581047045352"><ele>166.5</ele><time>2026-04-25T10:39:47.001Z</time></trkpt><trkpt lat="45.83194031570535" lon="4.844765196133498"><ele>166.0</ele><time>2026-04-25T10:39:48.001Z</time></trkpt><trkpt lat="45.831906846260026" lon="4.844953211182404"><ele>165.5</ele><time>2026-04-25T10:39:49.001Z</time></trkpt><trkpt lat="45.831868252217866" lon="4.845151958943363"><ele>165.0</ele><time>2026-04-25T10:39:50.001Z</time></trkpt><trkpt lat="45.83182187677244" lon="4.84536242041016"><ele>166.66666666666666</ele><time>2026-04-25T10:39:51.001Z</time></trkpt><trkpt lat="45.831769320134825" lon="4.845577576279688"><ele>168.33333333333331</ele><time>2026-04-25T10:39:52.001Z</time></trkpt><trkpt lat="45.831710206240615" lon="4.8457750610711035"><ele>170.0</ele><time>2026-04-25T10:39:53.001Z</time></trkpt><trkpt lat="45.831649978116104" lon="4.845958085889982"><ele>169.25</ele><time>2026-04-25T10:39:54.001Z</time></trkpt><trkpt lat="45.831584725429224" lon="4.846121031628349"><ele>168.5</ele><time>2026-04-25T10:39:55.001Z</time></trkpt><trkpt lat="45.831524011935606" lon="4.846273198210289"><ele>167.75</ele><time>2026-04-25T10:39:56.001Z</time></trkpt><trkpt lat="45.8314673312181" lon="4.846402339611931"><ele>167.0</ele><time>2026-04-25T10:39:57.001Z</time></trkpt><trkpt lat="45.83141150735662" lon="4.8465214101094425"><ele>167.0</ele><time>2026-04-25T10:39:58.001Z</time></trkpt><trkpt lat="45.83135576301316" lon="4.846625880629735"><ele>167.0</ele><time>2026-04-25T10:39:59.001Z</time></trkpt><trkpt lat="45.83129692203527" lon="4.846717815038459"><ele>167.0</ele><time>2026-04-25T10:40:00.001Z</time></trkpt><trkpt lat="45.83124101529131" lon="4.846795356902873"><ele>167.0</ele><time>2026-04-25T10:40:01.002Z</time></trkpt><trkpt lat="45.83119570883274" lon="4.8468581986727095"><ele>167.0</ele><time>2026-04-25T10:40:02.002Z</time></trkpt><trkpt lat="45.83112112983728" lon="4.8469622501411544"><ele>167.0</ele><time>2026-04-25T10:40:04.002Z</time></trkpt><trkpt lat="45.83106773591379" lon="4.8470202437872585"><ele>166.66666666666666</ele><time>2026-04-25T10:40:10.002Z</time></trkpt><trkpt lat="45.83098606210618" lon="4.847076734619479"><ele>166.33333333333331</ele><time>2026-04-25T10:40:19.002Z</time></trkpt><trkpt lat="45.83092634864346" lon="4.8471061330369976"><ele>166.0</ele><time>2026-04-25T10:40:20.002Z</time></trkpt><trkpt lat="45.83086891808288" lon="4.847149790123794"><ele>165.66666666666666</ele><time>2026-04-25T10:40:21.002Z</time></trkpt><trkpt lat="45.830808434290184" lon="4.847286241717868"><ele>165.33333333333334</ele><time>2026-04-25T10:40:23.002Z</time></trkpt><trkpt lat="45.83078334367648" lon="4.847392571398001"><ele>165.0</ele><time>2026-04-25T10:40:24.002Z</time></trkpt><trkpt lat="45.830742062341216" lon="4.847516960898226"><ele>165.75</ele><time>2026-04-25T10:40:25.002Z</time></trkpt><trkpt lat="45.83068245692606" lon="4.8476490997399875"><ele>166.5</ele><time>2026-04-25T10:40:26.002Z</time></trkpt><trkpt lat="45.83062338445853" lon="4.847776087395633"><ele>167.25</ele><time>2026-04-25T10:40:27.002Z</time></trkpt><trkpt lat="45.83055890282577" lon="4.847920179085845"><ele>168.0</ele><time>2026-04-25T10:40:28.002Z</time></trkpt><trkpt lat="45.83048419169742" lon="4.848082390880023"><ele>168.0</ele><time>2026-04-25T10:40:29.002Z</time></trkpt><trkpt lat="45.83040771244396" lon="4.848240532411371"><ele>168.0</ele><time>2026-04-25T10:40:30.002Z</time></trkpt><trkpt lat="45.83033489164826" lon="4.848385567347113"><ele>168.0</ele><time>2026-04-25T10:40:31.002Z</time></trkpt><trkpt lat="45.83026606281662" lon="4.8485217767507125"><ele>168.0</ele><time>2026-04-25T10:40:32.002Z</time></trkpt><trkpt lat="45.83020434381718" lon="4.848652095873852"><ele>167.60000000000002</ele><time>2026-04-25T10:40:33.002Z</time></trkpt><trkpt lat="45.83014521102795" lon="4.848771016648798"><ele>167.20000000000002</ele><time>2026-04-25T10:40:34.002Z</time></trkpt><trkpt lat="45.83008356019708" lon="4.848884447414006"><ele>166.8</ele><time>2026-04-25T10:40:35.002Z</time></trkpt><trkpt lat="45.83001962593518" lon="4.849008246299714"><ele>166.4</ele><time>2026-04-25T10:40:36.002Z</time></trkpt><trkpt lat="45.82994620101435" lon="4.849142939239199"><ele>166.0</ele><time>2026-04-25T10:40:37.002Z</time></trkpt><trkpt lat="45.8298540951063" lon="4.84928215708669"><ele>165.75</ele><time>2026-04-25T10:40:38Z</time></trkpt><trkpt lat="45.82974958651925" lon="4.8494240867725615"><ele>165.5</ele><time>2026-04-25T10:40:39Z</time></trkpt><trkpt lat="45.82963714591488" lon="4.849572424993872"><ele>165.25</ele><time>2026-04-25T10:40:40Z</time></trkpt><trkpt lat="45.82952987010407" lon="4.849712479384746"><ele>165.0</ele><time>2026-04-25T10:40:41Z</time></trkpt><trkpt lat="45.829424039603126" lon="4.849848722837153"><ele>165.0</ele><time>2026-04-25T10:40:42Z</time></trkpt><trkpt lat="45.829315564267546" lon="4.8499819812201315"><ele>165.0</ele><time>2026-04-25T10:40:43Z</time></trkpt><trkpt lat="45.82920318310907" lon="4.850109628418475"><ele>165.0</ele><time>2026-04-25T10:40:44Z</time></trkpt><trkpt lat="45.82909492747794" lon="4.850245593120565"><ele>165.0</ele><time>2026-04-25T10:40:45Z</time></trkpt><trkpt lat="45.82898299912963" lon="4.850382613200887"><ele>165.0</ele><time>2026-04-25T10:40:46Z</time></trkpt><trkpt lat="45.828871289985436" lon="4.850513707226736"><ele>165.0</ele><time>2026-04-25T10:40:47Z</time></trkpt><trkpt lat="45.82875726981132" lon="4.850642584016205"><ele>165.0</ele><time>2026-04-25T10:40:48Z</time></trkpt><trkpt lat="45.82863915044" lon="4.85076075087836"><ele>165.0</ele><time>2026-04-25T10:40:49Z</time></trkpt><trkpt lat="45.82851127250418" lon="4.850887526685994"><ele>165.33333333333334</ele><time>2026-04-25T10:40:50Z</time></trkpt><trkpt lat="45.828385872004915" lon="4.851012662500863"><ele>165.66666666666669</ele><time>2026-04-25T10:40:51Z</time></trkpt><trkpt lat="45.828259364861886" lon="4.8511367087906185"><ele>166.0</ele><time>2026-04-25T10:40:52Z</time></trkpt><trkpt lat="45.828126482469514" lon="4.851260431030177"><ele>166.0</ele><time>2026-04-25T10:40:53Z</time></trkpt><trkpt lat="45.82799053160014" lon="4.851378673287244"><ele>166.0</ele><time>2026-04-25T10:40:54Z</time></trkpt><trkpt lat="45.827854012202074" lon="4.851483569168144"><ele>166.0</ele><time>2026-04-25T10:40:55Z</time></trkpt><trkpt lat="45.82772990160629" lon="4.851583548782272"><ele>166.0</ele><time>2026-04-25T10:40:56Z</time></trkpt><trkpt lat="45.82760155596204" lon="4.851683399346597"><ele>166.0</ele><time>2026-04-25T10:40:57Z</time></trkpt><trkpt lat="45.82747192024952" lon="4.851780945439607"><ele>166.0</ele><time>2026-04-25T10:40:58Z</time></trkpt><trkpt lat="45.82734194275486" lon="4.851874974902404"><ele>166.0</ele><time>2026-04-25T10:40:59Z</time></trkpt><trkpt lat="45.827220008957084" lon="4.851966388234689"><ele>166.0</ele><time>2026-04-25T10:41:00Z</time></trkpt><trkpt lat="45.82710644832103" lon="4.852054969798032"><ele>166.0</ele><time>2026-04-25T10:41:01Z</time></trkpt><trkpt lat="45.826982247114294" lon="4.852145868998873"><ele>166.0</ele><time>2026-04-25T10:41:02Z</time></trkpt><trkpt lat="45.82685370273475" lon="4.8522608132332"><ele>166.0</ele><time>2026-04-25T10:41:03Z</time></trkpt><trkpt lat="45.82672846004145" lon="4.852337148169615"><ele>166.0</ele><time>2026-04-25T10:41:04Z</time></trkpt><trkpt lat="45.82661759127406" lon="4.85242240178718"><ele>166.0</ele><time>2026-04-25T10:41:05Z</time></trkpt><trkpt lat="45.826507764911774" lon="4.852497334804414"><ele>166.0</ele><time>2026-04-25T10:41:06Z</time></trkpt><trkpt lat="45.82641294092913" lon="4.852557498428316"><ele>166.0</ele><time>2026-04-25T10:41:07Z</time></trkpt><trkpt lat="45.826330478400195" lon="4.852610630743814"><ele>166.0</ele><time>2026-04-25T10:41:08Z</time></trkpt><trkpt lat="45.826264155086086" lon="4.852656232279486"><ele>166.0</ele><time>2026-04-25T10:41:09Z</time></trkpt><trkpt lat="45.826176847098296" lon="4.8527223290837105"><ele>166.0</ele><time>2026-04-25T10:41:11.001Z</time></trkpt><trkpt lat="45.82611821442641" lon="4.852775387466199"><ele>166.0</ele><time>2026-04-25T10:41:40.001Z</time></trkpt><trkpt lat="45.82601959885209" lon="4.852842446566229"><ele>166.0</ele><time>2026-04-25T10:41:42.001Z</time></trkpt><trkpt lat="45.825949718144564" lon="4.852891369119276"><ele>166.0</ele><time>2026-04-25T10:41:43.001Z</time></trkpt><trkpt lat="45.82587594080329" lon="4.852939933498943"><ele>166.0</ele><time>2026-04-25T10:41:44.001Z</time></trkpt><trkpt lat="45.82581561975067" lon="4.852986611889296"><ele>166.60000000000002</ele><time>2026-04-25T10:41:45.001Z</time></trkpt><trkpt lat="45.825743016778034" lon="4.853039632339197"><ele>167.2</ele><time>2026-04-25T10:41:46.001Z</time></trkpt><trkpt lat="45.825659624720664" lon="4.853095248742932"><ele>167.8</ele><time>2026-04-25T10:41:47.001Z</time></trkpt><trkpt lat="45.82556456423492" lon="4.853158441232112"><ele>168.39999999999998</ele><time>2026-04-25T10:41:48.001Z</time></trkpt><trkpt lat="45.825463739953754" lon="4.8532221846796775"><ele>169.0</ele><time>2026-04-25T10:41:49.001Z</time></trkpt><trkpt lat="45.825350370019684" lon="4.853291836475119"><ele>169.0</ele><time>2026-04-25T10:41:50.001Z</time></trkpt><trkpt lat="45.82523303394506" lon="4.853373972175734"><ele>169.0</ele><time>2026-04-25T10:41:51.001Z</time></trkpt><trkpt lat="45.825110643033305" lon="4.853463030096874"><ele>169.0</ele><time>2026-04-25T10:41:52.001Z</time></trkpt><trkpt lat="45.82499250103572" lon="4.8535547833418216"><ele>169.0</ele><time>2026-04-25T10:41:53.001Z</time></trkpt><trkpt lat="45.82486350634633" lon="4.853643399200532"><ele>168.25</ele><time>2026-04-25T10:41:54.001Z</time></trkpt><trkpt lat="45.82472068296513" lon="4.8537306370853965"><ele>167.5</ele><time>2026-04-25T10:41:55.001Z</time></trkpt><trkpt lat="45.82457721769612" lon="4.853812638619374"><ele>166.75</ele><time>2026-04-25T10:41:56.001Z</time></trkpt><trkpt lat="45.82445251250105" lon="4.853880777605237"><ele>166.0</ele><time>2026-04-25T10:41:57.001Z</time></trkpt><trkpt lat="45.824325686982284" lon="4.8539504480733395"><ele>167.25</ele><time>2026-04-25T10:41:58.001Z</time></trkpt><trkpt lat="45.824195239121515" lon="4.854020042711219"><ele>168.5</ele><time>2026-04-25T10:41:59.001Z</time></trkpt><trkpt lat="45.82406116629022" lon="4.854088036441063"><ele>169.75</ele><time>2026-04-25T10:42:00.001Z</time></trkpt><trkpt lat="45.82391760957472" lon="4.854159321446742"><ele>171.0</ele><time>2026-04-25T10:42:01.001Z</time></trkpt><trkpt lat="45.82377323536207" lon="4.854217896093481"><ele>171.0</ele><time>2026-04-25T10:42:02.002Z</time></trkpt><trkpt lat="45.823632216591115" lon="4.854278260963604"><ele>171.0</ele><time>2026-04-25T10:42:03.002Z</time></trkpt><trkpt lat="45.82349468777362" lon="4.854332655067547"><ele>171.0</ele><time>2026-04-25T10:42:04.002Z</time></trkpt><trkpt lat="45.82335599592691" lon="4.854387736040119"><ele>171.0</ele><time>2026-04-25T10:42:05.002Z</time></trkpt><trkpt lat="45.82321442256278" lon="4.854437669562815"><ele>170.0</ele><time>2026-04-25T10:42:06.002Z</time></trkpt><trkpt lat="45.82307395098133" lon="4.8544916412486225"><ele>169.0</ele><time>2026-04-25T10:42:07.002Z</time></trkpt><trkpt lat="45.82293042364134" lon="4.854533749621737"><ele>168.0</ele><time>2026-04-25T10:42:08.002Z</time></trkpt><trkpt lat="45.82279545912413" lon="4.854570450295361"><ele>167.0</ele><time>2026-04-25T10:42:09.002Z</time></trkpt><trkpt lat="45.82266239725028" lon="4.85460969968054"><ele>167.33333333333331</ele><time>2026-04-25T10:42:10.002Z</time></trkpt><trkpt lat="45.822520307937" lon="4.85464686022408"><ele>167.66666666666666</ele><time>2026-04-25T10:42:11.002Z</time></trkpt><trkpt lat="45.82237188726412" lon="4.854676132929128"><ele>168.0</ele><time>2026-04-25T10:42:12.002Z</time></trkpt><trkpt lat="45.82221752159911" lon="4.854707028145039"><ele>168.0</ele><time>2026-04-25T10:42:13.002Z</time></trkpt><trkpt lat="45.822059286881554" lon="4.854736844991138"><ele>168.0</ele><time>2026-04-25T10:42:14.002Z</time></trkpt><trkpt lat="45.821895534652946" lon="4.8547618254145855"><ele>168.0</ele><time>2026-04-25T10:42:15.002Z</time></trkpt><trkpt lat="45.82173024814125" lon="4.854779086012434"><ele>168.0</ele><time>2026-04-25T10:42:16.002Z</time></trkpt><trkpt lat="45.82157485133316" lon="4.85478513061817"><ele>168.0</ele><time>2026-04-25T10:42:17.002Z</time></trkpt><trkpt lat="45.8214310272162" lon="4.854791744903406"><ele>168.0</ele><time>2026-04-25T10:42:18.002Z</time></trkpt><trkpt lat="45.82129505895249" lon="4.854793257658403"><ele>168.0</ele><time>2026-04-25T10:42:19.002Z</time></trkpt><trkpt lat="45.821155302971064" lon="4.85479254888904"><ele>168.0</ele><time>2026-04-25T10:42:20.002Z</time></trkpt><trkpt lat="45.82101399173987" lon="4.854784772499872"><ele>168.0</ele><time>2026-04-25T10:42:21.002Z</time></trkpt><trkpt lat="45.820872806483536" lon="4.8547774130552686"><ele>168.0</ele><time>2026-04-25T10:42:22.002Z</time></trkpt><trkpt lat="45.82072886576189" lon="4.854761019744538"><ele>168.0</ele><time>2026-04-25T10:42:23.002Z</time></trkpt><trkpt lat="45.820576448348426" lon="4.8547384046166515"><ele>167.75</ele><time>2026-04-25T10:42:24.002Z</time></trkpt><trkpt lat="45.820425462059866" lon="4.8547128685411405"><ele>167.5</ele><time>2026-04-25T10:42:25.002Z</time></trkpt><trkpt lat="45.82028246158857" lon="4.8546823648618025"><ele>167.25</ele><time>2026-04-25T10:42:26.002Z</time></trkpt><trkpt lat="45.82014748186862" lon="4.854653338049979"><ele>167.0</ele><time>2026-04-25T10:42:27.002Z</time></trkpt><trkpt lat="45.820018023934466" lon="4.854620891285178"><ele>167.0</ele><time>2026-04-25T10:42:28.002Z</time></trkpt><trkpt lat="45.8198804221428" lon="4.854583779488938"><ele>167.0</ele><time>2026-04-25T10:42:29.002Z</time></trkpt><trkpt lat="45.81974504187083" lon="4.8545366389780815"><ele>167.0</ele><time>2026-04-25T10:42:30.002Z</time></trkpt><trkpt lat="45.819612951185256" lon="4.854481417323452"><ele>167.0</ele><time>2026-04-25T10:42:31.002Z</time></trkpt><trkpt lat="45.81946859530254" lon="4.854416306923497"><ele>167.0</ele><time>2026-04-25T10:42:32.002Z</time></trkpt><trkpt lat="45.81933528178533" lon="4.854355520317419"><ele>167.0</ele><time>2026-04-25T10:42:33.002Z</time></trkpt><trkpt lat="45.8191949067492" lon="4.854291554578395"><ele>167.0</ele><time>2026-04-25T10:42:34.002Z</time></trkpt><trkpt lat="45.81904318533508" lon="4.8542067943672835"><ele>168.0</ele><time>2026-04-25T10:42:35.002Z</time></trkpt><trkpt lat="45.81889420812259" lon="4.854103672249677"><ele>169.0</ele><time>2026-04-25T10:42:36.002Z</time></trkpt><trkpt lat="45.81874597039957" lon="4.853993816370358"><ele>170.0</ele><time>2026-04-25T10:42:37.002Z</time></trkpt><trkpt lat="45.81858700938529" lon="4.8538743048609785"><ele>169.66666666666666</ele><time>2026-04-25T10:42:38.002Z</time></trkpt><trkpt lat="45.81842827516001" lon="4.853747992221858"><ele>169.33333333333334</ele><time>2026-04-25T10:42:39.002Z</time></trkpt><trkpt lat="45.81827854616127" lon="4.853612201220598"><ele>169.0</ele><time>2026-04-25T10:42:40.002Z</time></trkpt><trkpt lat="45.818115368315354" lon="4.853454171153398"><ele>169.0</ele><time>2026-04-25T10:42:41.002Z</time></trkpt><trkpt lat="45.817973298585905" lon="4.853291448184274"><ele>169.0</ele><time>2026-04-25T10:42:42.002Z</time></trkpt><trkpt lat="45.817841656370874" lon="4.853128975154784"><ele>169.0</ele><time>2026-04-25T10:42:43.002Z</time></trkpt><trkpt lat="45.817713326072024" lon="4.852949444358456"><ele>169.33333333333334</ele><time>2026-04-25T10:42:44.001Z</time></trkpt><trkpt lat="45.81758894214806" lon="4.852757609130035"><ele>169.66666666666666</ele><time>2026-04-25T10:42:45.001Z</time></trkpt><trkpt lat="45.81746353472312" lon="4.852560161025577"><ele>170.0</ele><time>2026-04-25T10:42:46.001Z</time></trkpt><trkpt lat="45.81734343075577" lon="4.8523520519184995"><ele>170.0</ele><time>2026-04-25T10:42:47Z</time></trkpt><trkpt lat="45.817226399867884" lon="4.8521348780361135"><ele>170.0</ele><time>2026-04-25T10:42:48Z</time></trkpt><trkpt lat="45.81710990812619" lon="4.851910984569258"><ele>170.0</ele><time>2026-04-25T10:42:49Z</time></trkpt><trkpt lat="45.816994035643226" lon="4.851673767557615"><ele>169.0</ele><time>2026-04-25T10:42:50Z</time></trkpt><trkpt lat="45.81687583826621" lon="4.851417555032961"><ele>168.0</ele><time>2026-04-25T10:42:51Z</time></trkpt><trkpt lat="45.816757451261125" lon="4.85114405014376"><ele>167.0</ele><time>2026-04-25T10:42:52Z</time></trkpt><trkpt lat="45.8166388120078" lon="4.85086077583417"><ele>167.0</ele><time>2026-04-25T10:42:53Z</time></trkpt><trkpt lat="45.81653149284014" lon="4.850592132262941"><ele>167.0</ele><time>2026-04-25T10:42:54Z</time></trkpt><trkpt lat="45.8164362016869" lon="4.850347096715691"><ele>167.0</ele><time>2026-04-25T10:42:55Z</time></trkpt><trkpt lat="45.81634281014564" lon="4.850119069060086"><ele>167.33333333333331</ele><time>2026-04-25T10:42:56Z</time></trkpt><trkpt lat="45.81625362283216" lon="4.849884366319791"><ele>167.66666666666666</ele><time>2026-04-25T10:42:57Z</time></trkpt><trkpt lat="45.81617186969552" lon="4.849669602694302"><ele>168.0</ele><time>2026-04-25T10:42:58Z</time></trkpt><trkpt lat="45.8160944279783" lon="4.849466659680066"><ele>168.0</ele><time>2026-04-25T10:42:59Z</time></trkpt><trkpt lat="45.816016547830465" lon="4.8492675304957595"><ele>168.0</ele><time>2026-04-25T10:43:00Z</time></trkpt><trkpt lat="45.815937460146294" lon="4.849072209657669"><ele>168.0</ele><time>2026-04-25T10:43:01Z</time></trkpt><trkpt lat="45.81585938234409" lon="4.848876813894808"><ele>168.25</ele><time>2026-04-25T10:43:02Z</time></trkpt><trkpt lat="45.815774946181165" lon="4.8486983653158395"><ele>168.5</ele><time>2026-04-25T10:43:03Z</time></trkpt><trkpt lat="45.815695650127765" lon="4.848525682914085"><ele>168.75</ele><time>2026-04-25T10:43:04Z</time></trkpt><trkpt lat="45.81562793147631" lon="4.8483555804129335"><ele>169.0</ele><time>2026-04-25T10:43:05Z</time></trkpt><trkpt lat="45.81556306667638" lon="4.848179114300674"><ele>169.0</ele><time>2026-04-25T10:43:06Z</time></trkpt><trkpt lat="45.81550070573421" lon="4.848006635869695"><ele>169.0</ele><time>2026-04-25T10:43:07Z</time></trkpt><trkpt lat="45.81543912615128" lon="4.847823535869377"><ele>169.0</ele><time>2026-04-25T10:43:08Z</time></trkpt><trkpt lat="45.815378465616625" lon="4.847637352256004"><ele>169.0</ele><time>2026-04-25T10:43:09.001Z</time></trkpt><trkpt lat="45.815325943303435" lon="4.847461287015758"><ele>169.25</ele><time>2026-04-25T10:43:10.001Z</time></trkpt><trkpt lat="45.81527589382622" lon="4.847288941006608"><ele>169.5</ele><time>2026-04-25T10:43:11.001Z</time></trkpt><trkpt lat="45.81523002521942" lon="4.847123149169864"><ele>169.75</ele><time>2026-04-25T10:43:12.001Z</time></trkpt><trkpt lat="45.815187468613715" lon="4.846971403746704"><ele>170.0</ele><time>2026-04-25T10:43:13.001Z</time></trkpt><trkpt lat="45.815168322843846" lon="4.846853120203231"><ele>170.0</ele><time>2026-04-25T10:43:14.001Z</time></trkpt><trkpt lat="45.81510291796992" lon="4.846717572680251"><ele>170.0</ele><time>2026-04-25T10:43:15.001Z</time></trkpt><trkpt lat="45.81505242088803" lon="4.846592935555149"><ele>170.0</ele><time>2026-04-25T10:43:16.001Z</time></trkpt><trkpt lat="45.815006450042624" lon="4.846487761013321"><ele>170.0</ele><time>2026-04-25T10:43:17.001Z</time></trkpt><trkpt lat="45.81497056643651" lon="4.846391559607762"><ele>170.0</ele><time>2026-04-25T10:43:18.001Z</time></trkpt><trkpt lat="45.81494768136701" lon="4.846278229128007"><ele>170.0</ele><time>2026-04-25T10:43:19.001Z</time></trkpt><trkpt lat="45.81488311886021" lon="4.846177453401888"><ele>170.0</ele><time>2026-04-25T10:43:20.001Z</time></trkpt><trkpt lat="45.81480490515025" lon="4.84608423153816"><ele>170.0</ele><time>2026-04-25T10:43:21.001Z</time></trkpt><trkpt lat="45.814697473271586" lon="4.845962704088079"><ele>170.0</ele><time>2026-04-25T10:43:22.001Z</time></trkpt><trkpt lat="45.814588008690116" lon="4.845818324074571"><ele>170.0</ele><time>2026-04-25T10:43:23.001Z</time></trkpt><trkpt lat="45.81445394885222" lon="4.845650055323308"><ele>170.0</ele><time>2026-04-25T10:43:24.001Z</time></trkpt><trkpt lat="45.814303186470255" lon="4.845470552880517"><ele>170.0</ele><time>2026-04-25T10:43:25.001Z</time></trkpt><trkpt lat="45.81415573852951" lon="4.845290531119634"><ele>169.66666666666666</ele><time>2026-04-25T10:43:26.001Z</time></trkpt><trkpt lat="45.8139956451052" lon="4.845107219262748"><ele>169.33333333333334</ele><time>2026-04-25T10:43:27.001Z</time></trkpt><trkpt lat="45.813853266833" lon="4.844937350036885"><ele>169.0</ele><time>2026-04-25T10:43:28.001Z</time></trkpt><trkpt lat="45.81372006496222" lon="4.844774273401277"><ele>169.0</ele><time>2026-04-25T10:43:29.001Z</time></trkpt><trkpt lat="45.81358766919306" lon="4.84461050084946"><ele>169.0</ele><time>2026-04-25T10:43:30.001Z</time></trkpt><trkpt lat="45.81345476652481" lon="4.844445490460173"><ele>169.0</ele><time>2026-04-25T10:43:31.001Z</time></trkpt><trkpt lat="45.813318176670165" lon="4.844283934555905"><ele>169.0</ele><time>2026-04-25T10:43:32.001Z</time></trkpt><trkpt lat="45.81318079174233" lon="4.844114782587695"><ele>169.0</ele><time>2026-04-25T10:43:33.001Z</time></trkpt><trkpt lat="45.81304073573897" lon="4.843947385512079"><ele>169.0</ele><time>2026-04-25T10:43:34.001Z</time></trkpt><trkpt lat="45.812900142121535" lon="4.843775245986956"><ele>169.0</ele><time>2026-04-25T10:43:35.001Z</time></trkpt><trkpt lat="45.81275316777512" lon="4.8436036663885655"><ele>169.0</ele><time>2026-04-25T10:43:36.001Z</time></trkpt><trkpt lat="45.81259700005629" lon="4.843432204924364"><ele>169.0</ele><time>2026-04-25T10:43:37.001Z</time></trkpt><trkpt lat="45.812437173082735" lon="4.843270873992352"><ele>168.33333333333334</ele><time>2026-04-25T10:43:38.001Z</time></trkpt><trkpt lat="45.81227245330032" lon="4.843117230632782"><ele>167.66666666666666</ele><time>2026-04-25T10:43:39.001Z</time></trkpt><trkpt lat="45.81210027185043" lon="4.842968829842284"><ele>167.0</ele><time>2026-04-25T10:43:40.001Z</time></trkpt><trkpt lat="45.81193102912531" lon="4.842838383372523"><ele>166.33333333333331</ele><time>2026-04-25T10:43:41.001Z</time></trkpt><trkpt lat="45.811769913155224" lon="4.842721815540602"><ele>165.66666666666666</ele><time>2026-04-25T10:43:42.001Z</time></trkpt><trkpt lat="45.811612319823936" lon="4.842614286296521"><ele>165.0</ele><time>2026-04-25T10:43:43.001Z</time></trkpt><trkpt lat="45.81145108704479" lon="4.8425141626431465"><ele>166.33333333333334</ele><time>2026-04-25T10:43:44.001Z</time></trkpt><trkpt lat="45.81128326891393" lon="4.842419620763408"><ele>167.66666666666669</ele><time>2026-04-25T10:43:45.001Z</time></trkpt><trkpt lat="45.811121287835874" lon="4.842332957381934"><ele>169.0</ele><time>2026-04-25T10:43:46.001Z</time></trkpt><trkpt lat="45.81096078089116" lon="4.8422559562090886"><ele>169.0</ele><time>2026-04-25T10:43:47.001Z</time></trkpt><trkpt lat="45.81079031972797" lon="4.84218733792875"><ele>169.0</ele><time>2026-04-25T10:43:48.001Z</time></trkpt><trkpt lat="45.810622918532005" lon="4.8421020109828445"><ele>169.0</ele><time>2026-04-25T10:43:49.001Z</time></trkpt><trkpt lat="45.8104458063256" lon="4.842041716267884"><ele>169.0</ele><time>2026-04-25T10:43:50.001Z</time></trkpt><trkpt lat="45.81026720969596" lon="4.841994500844797"><ele>169.0</ele><time>2026-04-25T10:43:51.001Z</time></trkpt><trkpt lat="45.81008378845801" lon="4.841974827164453"><ele>169.0</ele><time>2026-04-25T10:43:52.001Z</time></trkpt><trkpt lat="45.809901623548754" lon="4.841941257507417"><ele>168.66666666666669</ele><time>2026-04-25T10:43:53.001Z</time></trkpt><trkpt lat="45.80971344274418" lon="4.841919674768599"><ele>168.33333333333334</ele><time>2026-04-25T10:43:54.001Z</time></trkpt><trkpt lat="45.80952377697215" lon="4.841909125150028"><ele>168.0</ele><time>2026-04-25T10:43:55.001Z</time></trkpt><trkpt lat="45.809340390497994" lon="4.841910592025875"><ele>167.0</ele><time>2026-04-25T10:43:56.001Z</time></trkpt><trkpt lat="45.809153865381354" lon="4.841886330461833"><ele>166.0</ele><time>2026-04-25T10:43:57.001Z</time></trkpt><trkpt lat="45.80896199311885" lon="4.8418848970156745"><ele>165.0</ele><time>2026-04-25T10:43:58.001Z</time></trkpt><trkpt lat="45.80876877415863" lon="4.841905462202097"><ele>165.0</ele><time>2026-04-25T10:43:59.001Z</time></trkpt><trkpt lat="45.80857104811503" lon="4.841897285396934"><ele>165.0</ele><time>2026-04-25T10:44:00.001Z</time></trkpt><trkpt lat="45.80836835415502" lon="4.841882418620953"><ele>165.0</ele><time>2026-04-25T10:44:01.001Z</time></trkpt><trkpt lat="45.80816177658104" lon="4.841863927945982"><ele>165.0</ele><time>2026-04-25T10:44:02.001Z</time></trkpt><trkpt lat="45.80795611957756" lon="4.841813437355066"><ele>165.0</ele><time>2026-04-25T10:44:03.001Z</time></trkpt><trkpt lat="45.80775106954883" lon="4.841780413649666"><ele>165.0</ele><time>2026-04-25T10:44:04.001Z</time></trkpt><trkpt lat="45.807562399636154" lon="4.84174262243718"><ele>168.33333333333334</ele><time>2026-04-25T10:44:05.001Z</time></trkpt><trkpt lat="45.80737676717959" lon="4.841721738023678"><ele>171.66666666666669</ele><time>2026-04-25T10:44:06.001Z</time></trkpt><trkpt lat="45.80719243505454" lon="4.841669191890891"><ele>175.0</ele><time>2026-04-25T10:44:07.001Z</time></trkpt><trkpt lat="45.80700536441023" lon="4.841614544652607"><ele>173.33333333333334</ele><time>2026-04-25T10:44:08.001Z</time></trkpt><trkpt lat="45.80681915924683" lon="4.841554835258168"><ele>171.66666666666666</ele><time>2026-04-25T10:44:09.002Z</time></trkpt><trkpt lat="45.80663344556718" lon="4.841483876089597"><ele>170.0</ele><time>2026-04-25T10:44:10.002Z</time></trkpt><trkpt lat="45.80645001019593" lon="4.841404524132831"><ele>170.0</ele><time>2026-04-25T10:44:11.002Z</time></trkpt><trkpt lat="45.806270055533275" lon="4.841326804338367"><ele>170.0</ele><time>2026-04-25T10:44:12.002Z</time></trkpt><trkpt lat="45.80609990002117" lon="4.841244829025146"><ele>170.0</ele><time>2026-04-25T10:44:13.002Z</time></trkpt><trkpt lat="45.80592819452334" lon="4.841154219050457"><ele>168.66666666666666</ele><time>2026-04-25T10:44:14.002Z</time></trkpt><trkpt lat="45.805758479167785" lon="4.84105601866994"><ele>167.33333333333334</ele><time>2026-04-25T10:44:15.002Z</time></trkpt><trkpt lat="45.80558755218482" lon="4.840953844968028"><ele>166.0</ele><time>2026-04-25T10:44:16.002Z</time></trkpt><trkpt lat="45.805414993447975" lon="4.840848423042019"><ele>167.66666666666669</ele><time>2026-04-25T10:44:17.002Z</time></trkpt><trkpt lat="45.805254872638706" lon="4.8407544764994626"><ele>169.33333333333334</ele><time>2026-04-25T10:44:18.002Z</time></trkpt><trkpt lat="45.80510221909845" lon="4.840665707753037"><ele>171.0</ele><time>2026-04-25T10:44:19.002Z</time></trkpt><trkpt lat="45.80494278728034" lon="4.840578062092291"><ele>171.0</ele><time>2026-04-25T10:44:20.002Z</time></trkpt><trkpt lat="45.80478405383032" lon="4.840498840878871"><ele>171.0</ele><time>2026-04-25T10:44:21.002Z</time></trkpt><trkpt lat="45.80462448665916" lon="4.84042572244827"><ele>171.0</ele><time>2026-04-25T10:44:22.002Z</time></trkpt><trkpt lat="45.80446576295468" lon="4.840345767599193"><ele>172.0</ele><time>2026-04-25T10:44:23.002Z</time></trkpt><trkpt lat="45.80430557969226" lon="4.840260534073908"><ele>173.0</ele><time>2026-04-25T10:44:24.002Z</time></trkpt><trkpt lat="45.80414232908282" lon="4.840166846919808"><ele>174.0</ele><time>2026-04-25T10:44:25.002Z</time></trkpt><trkpt lat="45.80397685852182" lon="4.840053502543313"><ele>174.0</ele><time>2026-04-25T10:44:26.002Z</time></trkpt><trkpt lat="45.80381135267966" lon="4.839926384605272"><ele>174.0</ele><time>2026-04-25T10:44:27.002Z</time></trkpt><trkpt lat="45.803656201056384" lon="4.8397874925045645"><ele>174.0</ele><time>2026-04-25T10:44:28.002Z</time></trkpt><trkpt lat="45.80352023647725" lon="4.839656362780153"><ele>173.25</ele><time>2026-04-25T10:44:29.002Z</time></trkpt><trkpt lat="45.80339752763459" lon="4.839529780431658"><ele>172.5</ele><time>2026-04-25T10:44:30.002Z</time></trkpt><trkpt lat="45.80328568584952" lon="4.839406659498192"><ele>171.75</ele><time>2026-04-25T10:44:31.002Z</time></trkpt><trkpt lat="45.803178860559726" lon="4.839287607076291"><ele>171.0</ele><time>2026-04-25T10:44:32.002Z</time></trkpt><trkpt lat="45.80307336787924" lon="4.839169455711638"><ele>173.75</ele><time>2026-04-25T10:44:33.002Z</time></trkpt><trkpt lat="45.802970019123066" lon="4.839054859133038"><ele>176.5</ele><time>2026-04-25T10:44:34.002Z</time></trkpt><trkpt lat="45.802870315423974" lon="4.838944565163275"><ele>179.25</ele><time>2026-04-25T10:44:35.002Z</time></trkpt><trkpt lat="45.80277255981356" lon="4.838832512246537"><ele>182.0</ele><time>2026-04-25T10:44:36.002Z</time></trkpt><trkpt lat="45.802672984460614" lon="4.838714497317449"><ele>182.2</ele><time>2026-04-25T10:44:37.002Z</time></trkpt><trkpt lat="45.80258449099815" lon="4.838595986400894"><ele>182.39999999999998</ele><time>2026-04-25T10:44:38.002Z</time></trkpt><trkpt lat="45.80248939206946" lon="4.83853488355693"><ele>182.60000000000002</ele><time>2026-04-25T10:44:39.002Z</time></trkpt><trkpt lat="45.802403075740465" lon="4.83846348211405"><ele>182.8</ele><time>2026-04-25T10:44:40.002Z</time></trkpt><trkpt lat="45.80231004514013" lon="4.838408242889219"><ele>183.0</ele><time>2026-04-25T10:44:41.002Z</time></trkpt><trkpt lat="45.8022109861636" lon="4.838377690716961"><ele>183.0</ele><time>2026-04-25T10:44:42.002Z</time></trkpt><trkpt lat="45.80210804733258" lon="4.838363003165848"><ele>183.0</ele><time>2026-04-25T10:44:43.002Z</time></trkpt><trkpt lat="45.80200431320014" lon="4.838375014727252"><ele>183.0</ele><time>2026-04-25T10:44:44.002Z</time></trkpt><trkpt lat="45.801899440240774" lon="4.838402711592116"><ele>183.0</ele><time>2026-04-25T10:44:45.002Z</time></trkpt><trkpt lat="45.80180124672399" lon="4.8384232531397595"><ele>183.0</ele><time>2026-04-25T10:44:46.002Z</time></trkpt><trkpt lat="45.80170667912795" lon="4.8384240381844315"><ele>181.5</ele><time>2026-04-25T10:44:47.002Z</time></trkpt><trkpt lat="45.80160743288669" lon="4.838401135903406"><ele>180.0</ele><time>2026-04-25T10:44:48.002Z</time></trkpt><trkpt lat="45.80149697443413" lon="4.838335225080528"><ele>178.5</ele><time>2026-04-25T10:44:49.002Z</time></trkpt><trkpt lat="45.801378272232" lon="4.838253648132446"><ele>177.0</ele><time>2026-04-25T10:44:50Z</time></trkpt><trkpt lat="45.80124840562958" lon="4.838145729037627"><ele>177.0</ele><time>2026-04-25T10:44:51Z</time></trkpt><trkpt lat="45.80111522043625" lon="4.838019461560212"><ele>177.0</ele><time>2026-04-25T10:44:52Z</time></trkpt><trkpt lat="45.8009749869655" lon="4.837874200066414"><ele>177.0</ele><time>2026-04-25T10:44:53Z</time></trkpt><trkpt lat="45.800840238156304" lon="4.837719069396581"><ele>175.33333333333334</ele><time>2026-04-25T10:44:54Z</time></trkpt><trkpt lat="45.800702567320066" lon="4.83754927305205"><ele>173.66666666666669</ele><time>2026-04-25T10:44:55Z</time></trkpt><trkpt lat="45.8005603747692" lon="4.8373688616550705"><ele>172.0</ele><time>2026-04-25T10:44:56Z</time></trkpt><trkpt lat="45.80042823126979" lon="4.837180125554513"><ele>172.0</ele><time>2026-04-25T10:44:57Z</time></trkpt><trkpt lat="45.80031912208833" lon="4.836994069322891"><ele>172.0</ele><time>2026-04-25T10:44:58Z</time></trkpt><trkpt lat="45.800215736677174" lon="4.836806095548732"><ele>172.0</ele><time>2026-04-25T10:44:59Z</time></trkpt><trkpt lat="45.80011803234371" lon="4.836616537024401"><ele>172.66666666666669</ele><time>2026-04-25T10:45:00Z</time></trkpt><trkpt lat="45.80002940022796" lon="4.836417041642631"><ele>173.33333333333334</ele><time>2026-04-25T10:45:01Z</time></trkpt><trkpt lat="45.79994062838323" lon="4.836210532652558"><ele>174.0</ele><time>2026-04-25T10:45:02Z</time></trkpt><trkpt lat="45.79985989286337" lon="4.836017950329391"><ele>175.25</ele><time>2026-04-25T10:45:03Z</time></trkpt><trkpt lat="45.79977730761615" lon="4.835843689144778"><ele>176.5</ele><time>2026-04-25T10:45:04Z</time></trkpt><trkpt lat="45.79972033653832" lon="4.835654826214927"><ele>177.75</ele><time>2026-04-25T10:45:05Z</time></trkpt><trkpt lat="45.799657378682916" lon="4.835469089528896"><ele>179.0</ele><time>2026-04-25T10:45:06Z</time></trkpt><trkpt lat="45.799594644134736" lon="4.835271167371198"><ele>179.66666666666666</ele><time>2026-04-25T10:45:07Z</time></trkpt><trkpt lat="45.799522332272915" lon="4.835076607053265"><ele>180.33333333333334</ele><time>2026-04-25T10:45:08Z</time></trkpt><trkpt lat="45.79946359825976" lon="4.834876737581839"><ele>181.0</ele><time>2026-04-25T10:45:09Z</time></trkpt><trkpt lat="45.799406600618184" lon="4.834669197903832"><ele>181.0</ele><time>2026-04-25T10:45:10Z</time></trkpt><trkpt lat="45.7993539721735" lon="4.834478529477972"><ele>181.0</ele><time>2026-04-25T10:45:11Z</time></trkpt><trkpt lat="45.799306332989374" lon="4.834302577556634"><ele>181.0</ele><time>2026-04-25T10:45:12Z</time></trkpt><trkpt lat="45.79926571046675" lon="4.834144729770585"><ele>181.0</ele><time>2026-04-25T10:45:13Z</time></trkpt><trkpt lat="45.79922016295109" lon="4.833994507954566"><ele>179.66666666666669</ele><time>2026-04-25T10:45:14Z</time></trkpt><trkpt lat="45.79916830674994" lon="4.833850551799815"><ele>178.33333333333334</ele><time>2026-04-25T10:45:15Z</time></trkpt><trkpt lat="45.79912964516513" lon="4.833726115315037"><ele>177.0</ele><time>2026-04-25T10:45:16Z</time></trkpt><trkpt lat="45.799095762377554" lon="4.833617644619517"><ele>175.66666666666666</ele><time>2026-04-25T10:45:17Z</time></trkpt><trkpt lat="45.799073155336025" lon="4.83352107390346"><ele>174.33333333333331</ele><time>2026-04-25T10:45:18Z</time></trkpt><trkpt lat="45.79904502912822" lon="4.833427643198633"><ele>173.0</ele><time>2026-04-25T10:45:19Z</time></trkpt><trkpt lat="45.79901844825852" lon="4.833337908875536"><ele>173.0</ele><time>2026-04-25T10:45:20Z</time></trkpt><trkpt lat="45.798968107106184" lon="4.8331821361596585"><ele>173.0</ele><time>2026-04-25T10:45:22Z</time></trkpt><trkpt lat="45.79894031103538" lon="4.833088926680789"><ele>173.0</ele><time>2026-04-25T10:45:23Z</time></trkpt><trkpt lat="45.798907391502446" lon="4.832980192227284"><ele>173.0</ele><time>2026-04-25T10:45:24Z</time></trkpt><trkpt lat="45.79887354049557" lon="4.832863475523826"><ele>173.0</ele><time>2026-04-25T10:45:25.001Z</time></trkpt><trkpt lat="45.79883963371597" lon="4.832743492793134"><ele>173.60000000000002</ele><time>2026-04-25T10:45:26.001Z</time></trkpt><trkpt lat="45.798801880711714" lon="4.832621463102688"><ele>174.20000000000002</ele><time>2026-04-25T10:45:27.001Z</time></trkpt><trkpt lat="45.798759467995" lon="4.832479848797902"><ele>174.8</ele><time>2026-04-25T10:45:28.001Z</time></trkpt><trkpt lat="45.79872332823926" lon="4.832333232727216"><ele>175.4</ele><time>2026-04-25T10:45:29.001Z</time></trkpt><trkpt lat="45.79868356805478" lon="4.832190130407116"><ele>176.0</ele><time>2026-04-25T10:45:30.001Z</time></trkpt><trkpt lat="45.798646541671395" lon="4.8320645295556215"><ele>176.0</ele><time>2026-04-25T10:45:31.001Z</time></trkpt><trkpt lat="45.7986037254543" lon="4.831957748976054"><ele>176.0</ele><time>2026-04-25T10:45:32.001Z</time></trkpt><trkpt lat="45.79856411143969" lon="4.831852922075107"><ele>176.0</ele><time>2026-04-25T10:45:33.001Z</time></trkpt><trkpt lat="45.79852512092584" lon="4.831745414198026"><ele>176.0</ele><time>2026-04-25T10:45:34.001Z</time></trkpt><trkpt lat="45.79847753607221" lon="4.831640463825437"><ele>176.0</ele><time>2026-04-25T10:45:35.001Z</time></trkpt><trkpt lat="45.79843665794827" lon="4.831559251281238"><ele>176.0</ele><time>2026-04-25T10:45:36.001Z</time></trkpt><trkpt lat="45.79839051693945" lon="4.831456453227152"><ele>175.4</ele><time>2026-04-25T10:45:38.001Z</time></trkpt><trkpt lat="45.79834526456727" lon="4.831366000291163"><ele>174.8</ele><time>2026-04-25T10:45:49.001Z</time></trkpt><trkpt lat="45.79828866526278" lon="4.83122932349065"><ele>174.20000000000002</ele><time>2026-04-25T10:45:51.001Z</time></trkpt><trkpt lat="45.798247861116764" lon="4.831141766185116"><ele>173.60000000000002</ele><time>2026-04-25T10:45:52.001Z</time></trkpt><trkpt lat="45.79821009508175" lon="4.8310546781232535"><ele>173.0</ele><time>2026-04-25T10:45:53.001Z</time></trkpt><trkpt lat="45.798154375033626" lon="4.830908510443954"><ele>173.0</ele><time>2026-04-25T10:45:55.001Z</time></trkpt><trkpt lat="45.798094468222885" lon="4.830756021579788"><ele>173.0</ele><time>2026-04-25T10:45:57.001Z</time></trkpt><trkpt lat="45.7980607335565" lon="4.830677188627217"><ele>173.0</ele><time>2026-04-25T10:45:58.001Z</time></trkpt><trkpt lat="45.798028654477065" lon="4.830588800124221"><ele>173.0</ele><time>2026-04-25T10:45:59.001Z</time></trkpt><trkpt lat="45.79800487520316" lon="4.83043178365766"><ele>173.0</ele><time>2026-04-25T10:46:01.001Z</time></trkpt><trkpt lat="45.79799456697571" lon="4.830253751410364"><ele>173.0</ele><time>2026-04-25T10:46:03.001Z</time></trkpt><trkpt lat="45.797975509667765" lon="4.83015613196196"><ele>173.0</ele><time>2026-04-25T10:46:04.001Z</time></trkpt><trkpt lat="45.79793887277948" lon="4.830058393403708"><ele>173.0</ele><time>2026-04-25T10:46:05.001Z</time></trkpt><trkpt lat="45.79788672576591" lon="4.829967425614581"><ele>173.0</ele><time>2026-04-25T10:46:06.001Z</time></trkpt><trkpt lat="45.79783309716942" lon="4.829895477850142"><ele>173.0</ele><time>2026-04-25T10:46:07.001Z</time></trkpt><trkpt lat="45.79778303024708" lon="4.829837772509887"><ele>173.0</ele><time>2026-04-25T10:46:08.001Z</time></trkpt><trkpt lat="45.797733473397344" lon="4.82978203915294"><ele>173.0</ele><time>2026-04-25T10:46:09.001Z</time></trkpt><trkpt lat="45.79765940717257" lon="4.829696124754335"><ele>172.66666666666666</ele><time>2026-04-25T10:46:11.001Z</time></trkpt><trkpt lat="45.79759038077442" lon="4.829604446367549"><ele>172.33333333333331</ele><time>2026-04-25T10:46:13.001Z</time></trkpt><trkpt lat="45.797535659378916" lon="4.8294886147446405"><ele>172.0</ele><time>2026-04-25T10:46:15.001Z</time></trkpt><trkpt lat="45.797476692435175" lon="4.829333086605498"><ele>171.66666666666666</ele><time>2026-04-25T10:46:17.001Z</time></trkpt><trkpt lat="45.7974405390539" lon="4.82925675039765"><ele>171.33333333333334</ele><time>2026-04-25T10:46:18.001Z</time></trkpt><trkpt lat="45.797401890126125" lon="4.829178948987193"><ele>171.0</ele><time>2026-04-25T10:46:19.001Z</time></trkpt><trkpt lat="45.79735587106836" lon="4.829098725610096"><ele>171.0</ele><time>2026-04-25T10:46:20.001Z</time></trkpt><trkpt lat="45.79730778940497" lon="4.8290217010973375"><ele>171.0</ele><time>2026-04-25T10:46:21.001Z</time></trkpt><trkpt lat="45.79726985517275" lon="4.828947905456531"><ele>171.0</ele><time>2026-04-25T10:46:22.001Z</time></trkpt><trkpt lat="45.7972068028526" lon="4.828808025722944"><ele>171.0</ele><time>2026-04-25T10:46:24.001Z</time></trkpt><trkpt lat="45.79715529186496" lon="4.828717338269603"><ele>171.0</ele><time>2026-04-25T10:46:26.002Z</time></trkpt><trkpt lat="45.79710879118264" lon="4.8286081229911515"><ele>171.0</ele><time>2026-04-25T10:46:33.002Z</time></trkpt><trkpt lat="45.797055221997674" lon="4.828526369373896"><ele>170.60000000000002</ele><time>2026-04-25T10:46:35.002Z</time></trkpt><trkpt lat="45.796979918071074" lon="4.828383015250723"><ele>170.2</ele><time>2026-04-25T10:46:37.002Z</time></trkpt><trkpt lat="45.79692629116054" lon="4.828277797463401"><ele>169.8</ele><time>2026-04-25T10:46:38.002Z</time></trkpt><trkpt lat="45.796874277700255" lon="4.828174288426077"><ele>169.39999999999998</ele><time>2026-04-25T10:46:39.002Z</time></trkpt><trkpt lat="45.7968084454297" lon="4.828054338607584"><ele>169.0</ele><time>2026-04-25T10:46:40.002Z</time></trkpt><trkpt lat="45.7967369940173" lon="4.827916981232149"><ele>168.6</ele><time>2026-04-25T10:46:41.002Z</time></trkpt><trkpt lat="45.79666775823347" lon="4.827781887153922"><ele>168.2</ele><time>2026-04-25T10:46:42.002Z</time></trkpt><trkpt lat="45.796603242925706" lon="4.827667624903166"><ele>167.79999999999998</ele><time>2026-04-25T10:46:43.002Z</time></trkpt><trkpt lat="45.796548175265336" lon="4.827556347601992"><ele>167.39999999999998</ele><time>2026-04-25T10:46:44.002Z</time></trkpt><trkpt lat="45.79648538972598" lon="4.827439592513852"><ele>167.0</ele><time>2026-04-25T10:46:45.002Z</time></trkpt><trkpt lat="45.79641639257219" lon="4.827315092770901"><ele>167.0</ele><time>2026-04-25T10:46:46.002Z</time></trkpt><trkpt lat="45.79634484228632" lon="4.827183701028204"><ele>167.0</ele><time>2026-04-25T10:46:47.002Z</time></trkpt><trkpt lat="45.79627740100589" lon="4.827037324815097"><ele>167.0</ele><time>2026-04-25T10:46:48.002Z</time></trkpt><trkpt lat="45.796212288059365" lon="4.826902158895686"><ele>167.0</ele><time>2026-04-25T10:46:49.002Z</time></trkpt><trkpt lat="45.79614726663726" lon="4.826789896629651"><ele>167.0</ele><time>2026-04-25T10:46:50.002Z</time></trkpt><trkpt lat="45.79608801953812" lon="4.826671621479363"><ele>167.0</ele><time>2026-04-25T10:46:51.002Z</time></trkpt><trkpt lat="45.796026212920246" lon="4.826532390475098"><ele>167.0</ele><time>2026-04-25T10:46:52.002Z</time></trkpt><trkpt lat="45.79595089365861" lon="4.82638836719837"><ele>167.0</ele><time>2026-04-25T10:46:53.002Z</time></trkpt><trkpt lat="45.795879230262045" lon="4.826246608761696"><ele>167.0</ele><time>2026-04-25T10:46:54.002Z</time></trkpt><trkpt lat="45.79581385063248" lon="4.826119680972992"><ele>167.0</ele><time>2026-04-25T10:46:55.002Z</time></trkpt><trkpt lat="45.795750832644444" lon="4.82599990971104"><ele>167.0</ele><time>2026-04-25T10:46:56Z</time></trkpt><trkpt lat="45.795688096259695" lon="4.82587949031826"><ele>167.0</ele><time>2026-04-25T10:46:57Z</time></trkpt><trkpt lat="45.79562672068276" lon="4.825760496788518"><ele>167.0</ele><time>2026-04-25T10:46:58Z</time></trkpt><trkpt lat="45.79557146893578" lon="4.82565330536196"><ele>167.6</ele><time>2026-04-25T10:46:59Z</time></trkpt><trkpt lat="45.79551201771779" lon="4.8255412545496315"><ele>168.2</ele><time>2026-04-25T10:47:00Z</time></trkpt><trkpt lat="45.795451854684934" lon="4.825432960294563"><ele>168.8</ele><time>2026-04-25T10:47:01Z</time></trkpt><trkpt lat="45.79539671040374" lon="4.825316101246498"><ele>169.4</ele><time>2026-04-25T10:47:02Z</time></trkpt><trkpt lat="45.795332472159025" lon="4.825195068360125"><ele>170.0</ele><time>2026-04-25T10:47:03Z</time></trkpt><trkpt lat="45.795266754732395" lon="4.82507183975526"><ele>170.5</ele><time>2026-04-25T10:47:04Z</time></trkpt><trkpt lat="45.79519270957931" lon="4.824938385665734"><ele>171.0</ele><time>2026-04-25T10:47:05Z</time></trkpt><trkpt lat="45.79511084242622" lon="4.8247888707749915"><ele>171.5</ele><time>2026-04-25T10:47:06Z</time></trkpt><trkpt lat="45.79502419340846" lon="4.824632253988918"><ele>172.0</ele><time>2026-04-25T10:47:07Z</time></trkpt><trkpt lat="45.794933929054245" lon="4.824468341728178"><ele>171.5</ele><time>2026-04-25T10:47:08Z</time></trkpt><trkpt lat="45.79483964216017" lon="4.824292612211869"><ele>171.0</ele><time>2026-04-25T10:47:09Z</time></trkpt><trkpt lat="45.794751106914106" lon="4.824127854860584"><ele>170.5</ele><time>2026-04-25T10:47:10Z</time></trkpt><trkpt lat="45.79465993849448" lon="4.823961124785629"><ele>170.0</ele><time>2026-04-25T10:47:11Z</time></trkpt><trkpt lat="45.7945688543721" lon="4.823796655692371"><ele>170.0</ele><time>2026-04-25T10:47:12Z</time></trkpt><trkpt lat="45.794473124592386" lon="4.823621276131997"><ele>170.0</ele><time>2026-04-25T10:47:13Z</time></trkpt><trkpt lat="45.7943819218923" lon="4.823445462319112"><ele>170.0</ele><time>2026-04-25T10:47:14Z</time></trkpt><trkpt lat="45.79429044281678" lon="4.82327400750396"><ele>169.25</ele><time>2026-04-25T10:47:15Z</time></trkpt><trkpt lat="45.7942023925582" lon="4.82310477385429"><ele>168.5</ele><time>2026-04-25T10:47:16Z</time></trkpt><trkpt lat="45.79411005166541" lon="4.82294317578024"><ele>167.75</ele><time>2026-04-25T10:47:17Z</time></trkpt><trkpt lat="45.79401418213282" lon="4.822775219485998"><ele>167.0</ele><time>2026-04-25T10:47:18Z</time></trkpt><trkpt lat="45.79392868449255" lon="4.822613601627026"><ele>168.5</ele><time>2026-04-25T10:47:19Z</time></trkpt><trkpt lat="45.793846603235906" lon="4.822462978062459"><ele>170.0</ele><time>2026-04-25T10:47:20Z</time></trkpt><trkpt lat="45.793760889579175" lon="4.822311139306508"><ele>171.5</ele><time>2026-04-25T10:47:21Z</time></trkpt><trkpt lat="45.7936746487514" lon="4.822164580834265"><ele>173.0</ele><time>2026-04-25T10:47:22Z</time></trkpt><trkpt lat="45.79358184563569" lon="4.822026202846579"><ele>172.2</ele><time>2026-04-25T10:47:23Z</time></trkpt><trkpt lat="45.79349600482288" lon="4.82190345915337"><ele>171.4</ele><time>2026-04-25T10:47:24Z</time></trkpt><trkpt lat="45.793416264612446" lon="4.821798759360767"><ele>170.6</ele><time>2026-04-25T10:47:25.001Z</time></trkpt><trkpt lat="45.793339311219164" lon="4.8216986709825225"><ele>169.79999999999998</ele><time>2026-04-25T10:47:26.001Z</time></trkpt><trkpt lat="45.79327201388467" lon="4.821610141124452"><ele>169.0</ele><time>2026-04-25T10:47:27.001Z</time></trkpt><trkpt lat="45.79321108300799" lon="4.821537907987777"><ele>169.0</ele><time>2026-04-25T10:47:28.001Z</time></trkpt><trkpt lat="45.79315634721218" lon="4.821474677506001"><ele>169.0</ele><time>2026-04-25T10:47:29.001Z</time></trkpt><trkpt lat="45.793078969095134" lon="4.821384635105409"><ele>169.0</ele><time>2026-04-25T10:47:31.001Z</time></trkpt><trkpt lat="45.79302441454903" lon="4.821317695204838"><ele>169.0</ele><time>2026-04-25T10:47:34.001Z</time></trkpt><trkpt lat="45.79296392818706" lon="4.821236817497763"><ele>169.0</ele><time>2026-04-25T10:47:37.001Z</time></trkpt><trkpt lat="45.79287088311618" lon="4.821125426151219"><ele>169.0</ele><time>2026-04-25T10:47:39.001Z</time></trkpt><trkpt lat="45.792803465886614" lon="4.821048392925022"><ele>169.0</ele><time>2026-04-25T10:47:40.001Z</time></trkpt><trkpt lat="45.792728143899566" lon="4.8209583342728095"><ele>169.0</ele><time>2026-04-25T10:47:41.001Z</time></trkpt><trkpt lat="45.792669320432374" lon="4.820874170017464"><ele>169.0</ele><time>2026-04-25T10:47:42.001Z</time></trkpt><trkpt lat="45.79258803367152" lon="4.820775118651492"><ele>169.0</ele><time>2026-04-25T10:47:43.001Z</time></trkpt><trkpt lat="45.79250202174048" lon="4.820662633253838"><ele>169.0</ele><time>2026-04-25T10:47:44.001Z</time></trkpt><trkpt lat="45.792410698646705" lon="4.820546178503444"><ele>169.0</ele><time>2026-04-25T10:47:45.001Z</time></trkpt><trkpt lat="45.79232296564933" lon="4.820427706218525"><ele>169.0</ele><time>2026-04-25T10:47:46.001Z</time></trkpt><trkpt lat="45.792217982890406" lon="4.8203073887442835"><ele>169.0</ele><time>2026-04-25T10:47:47.001Z</time></trkpt><trkpt lat="45.79212930087467" lon="4.820194343837922"><ele>169.0</ele><time>2026-04-25T10:47:48.001Z</time></trkpt><trkpt lat="45.79205142140741" lon="4.820083295505236"><ele>168.75</ele><time>2026-04-25T10:47:49.001Z</time></trkpt><trkpt lat="45.79196175939982" lon="4.819978351838122"><ele>168.5</ele><time>2026-04-25T10:47:50.001Z</time></trkpt><trkpt lat="45.79186913489638" lon="4.819864685653739"><ele>168.25</ele><time>2026-04-25T10:47:51.001Z</time></trkpt><trkpt lat="45.791785470571234" lon="4.819754352003399"><ele>168.0</ele><time>2026-04-25T10:47:52.001Z</time></trkpt><trkpt lat="45.79171096401343" lon="4.819661323645699"><ele>168.0</ele><time>2026-04-25T10:47:53.001Z</time></trkpt><trkpt lat="45.79162857085731" lon="4.819558390596327"><ele>168.0</ele><time>2026-04-25T10:47:54.001Z</time></trkpt><trkpt lat="45.79154101519546" lon="4.819456586218658"><ele>168.0</ele><time>2026-04-25T10:47:55.001Z</time></trkpt><trkpt lat="45.7914442733632" lon="4.819349998056887"><ele>168.0</ele><time>2026-04-25T10:47:56.001Z</time></trkpt><trkpt lat="45.79136761738776" lon="4.819237533867917"><ele>167.60000000000002</ele><time>2026-04-25T10:47:57.001Z</time></trkpt><trkpt lat="45.79128575170018" lon="4.819136097244613"><ele>167.20000000000002</ele><time>2026-04-25T10:47:58.001Z</time></trkpt><trkpt lat="45.79120423123152" lon="4.81904679361915"><ele>166.8</ele><time>2026-04-25T10:47:59.001Z</time></trkpt><trkpt lat="45.79113161205999" lon="4.818938665071315"><ele>166.4</ele><time>2026-04-25T10:48:00.001Z</time></trkpt><trkpt lat="45.79105376759084" lon="4.818820753194817"><ele>166.0</ele><time>2026-04-25T10:48:01.001Z</time></trkpt><trkpt lat="45.79095966814012" lon="4.818714192963213"><ele>166.0</ele><time>2026-04-25T10:48:02.001Z</time></trkpt><trkpt lat="45.79088096101913" lon="4.818598259598067"><ele>166.0</ele><time>2026-04-25T10:48:03.001Z</time></trkpt><trkpt lat="45.790805740746364" lon="4.818497093871949"><ele>166.0</ele><time>2026-04-25T10:48:04.001Z</time></trkpt><trkpt lat="45.79073180792767" lon="4.818393919686832"><ele>166.0</ele><time>2026-04-25T10:48:05.001Z</time></trkpt><trkpt lat="45.790635808764044" lon="4.818293333508722"><ele>166.0</ele><time>2026-04-25T10:48:06.001Z</time></trkpt><trkpt lat="45.79055510825287" lon="4.818158667653486"><ele>166.25</ele><time>2026-04-25T10:48:07.001Z</time></trkpt><trkpt lat="45.79046441610543" lon="4.8180342570685815"><ele>166.5</ele><time>2026-04-25T10:48:08.001Z</time></trkpt><trkpt lat="45.79037379915703" lon="4.81791717837786"><ele>166.75</ele><time>2026-04-25T10:48:09.001Z</time></trkpt><trkpt lat="45.79029565508718" lon="4.817799791584956"><ele>167.0</ele><time>2026-04-25T10:48:10.001Z</time></trkpt><trkpt lat="45.79021503051721" lon="4.8176788160132045"><ele>167.25</ele><time>2026-04-25T10:48:11.001Z</time></trkpt><trkpt lat="45.790123074789456" lon="4.8175465608775605"><ele>167.5</ele><time>2026-04-25T10:48:12.001Z</time></trkpt><trkpt lat="45.79004242379604" lon="4.8174018858249"><ele>167.75</ele><time>2026-04-25T10:48:13.001Z</time></trkpt><trkpt lat="45.78996518553678" lon="4.817282886419564"><ele>168.0</ele><time>2026-04-25T10:48:14.001Z</time></trkpt><trkpt lat="45.789891390176805" lon="4.817180089108852"><ele>168.0</ele><time>2026-04-25T10:48:15.001Z</time></trkpt><trkpt lat="45.78981485880181" lon="4.817070030896434"><ele>168.0</ele><time>2026-04-25T10:48:16.001Z</time></trkpt><trkpt lat="45.78973231329094" lon="4.816951875109717"><ele>168.0</ele><time>2026-04-25T10:48:17.001Z</time></trkpt><trkpt lat="45.78965024149727" lon="4.816832754906919"><ele>168.0</ele><time>2026-04-25T10:48:18.001Z</time></trkpt><trkpt lat="45.78956140027841" lon="4.816716028978294"><ele>168.2</ele><time>2026-04-25T10:48:19.001Z</time></trkpt><trkpt lat="45.78947049458827" lon="4.8165898144712935"><ele>168.4</ele><time>2026-04-25T10:48:20.001Z</time></trkpt><trkpt lat="45.78938985986293" lon="4.81646938499198"><ele>168.6</ele><time>2026-04-25T10:48:21.001Z</time></trkpt><trkpt lat="45.789316435347914" lon="4.816364753481101"><ele>168.79999999999998</ele><time>2026-04-25T10:48:22.001Z</time></trkpt><trkpt lat="45.78924384893572" lon="4.816273075991583"><ele>169.0</ele><time>2026-04-25T10:48:23.001Z</time></trkpt><trkpt lat="45.7891983574381" lon="4.816173111266028"><ele>169.16666666666669</ele><time>2026-04-25T10:48:24.001Z</time></trkpt><trkpt lat="45.7891406327825" lon="4.816093697460704"><ele>169.33333333333334</ele><time>2026-04-25T10:48:25.001Z</time></trkpt><trkpt lat="45.7890741884282" lon="4.8160294963674595"><ele>169.5</ele><time>2026-04-25T10:48:26.001Z</time></trkpt><trkpt lat="45.78900446385241" lon="4.815956798210638"><ele>169.66666666666666</ele><time>2026-04-25T10:48:27.001Z</time></trkpt><trkpt lat="45.78892399684182" lon="4.815893825364689"><ele>169.83333333333331</ele><time>2026-04-25T10:48:28.001Z</time></trkpt><trkpt lat="45.788855962350226" lon="4.815791753418189"><ele>170.0</ele><time>2026-04-25T10:48:29.001Z</time></trkpt><trkpt lat="45.78879172688565" lon="4.815693020320906"><ele>170.0</ele><time>2026-04-25T10:48:30.002Z</time></trkpt><trkpt lat="45.788705584453034" lon="4.815599286735029"><ele>170.0</ele><time>2026-04-25T10:48:31.002Z</time></trkpt><trkpt lat="45.78861055194396" lon="4.815506760638616"><ele>170.0</ele><time>2026-04-25T10:48:32.002Z</time></trkpt><trkpt lat="45.7885315984363" lon="4.815434334728609"><ele>170.0</ele><time>2026-04-25T10:48:33.002Z</time></trkpt><trkpt lat="45.78846597793906" lon="4.815356489561554"><ele>170.0</ele><time>2026-04-25T10:48:34.002Z</time></trkpt><trkpt lat="45.78839304783142" lon="4.815281948994754"><ele>170.0</ele><time>2026-04-25T10:48:35.002Z</time></trkpt><trkpt lat="45.78832119030123" lon="4.815215783962002"><ele>170.0</ele><time>2026-04-25T10:48:36.002Z</time></trkpt><trkpt lat="45.78824347744194" lon="4.815136482316578"><ele>170.0</ele><time>2026-04-25T10:48:37.002Z</time></trkpt><trkpt lat="45.78816529685876" lon="4.815060691720959"><ele>170.0</ele><time>2026-04-25T10:48:38.002Z</time></trkpt><trkpt lat="45.78807696485938" lon="4.814987568952213"><ele>170.0</ele><time>2026-04-25T10:48:39.002Z</time></trkpt><trkpt lat="45.787985390123666" lon="4.814916347976011"><ele>170.0</ele><time>2026-04-25T10:48:40.002Z</time></trkpt><trkpt lat="45.7878963534212" lon="4.81483424972835"><ele>170.0</ele><time>2026-04-25T10:48:41.002Z</time></trkpt><trkpt lat="45.78780614620072" lon="4.814764404277416"><ele>170.0</ele><time>2026-04-25T10:48:42.002Z</time></trkpt><trkpt lat="45.78773672872283" lon="4.81470066722114"><ele>170.0</ele><time>2026-04-25T10:48:43.002Z</time></trkpt><trkpt lat="45.78766642853561" lon="4.814644478460444"><ele>170.0</ele><time>2026-04-25T10:48:44.002Z</time></trkpt><trkpt lat="45.78760257518469" lon="4.814597502059622"><ele>170.0</ele><time>2026-04-25T10:48:45.002Z</time></trkpt><trkpt lat="45.787530298390124" lon="4.814556865693339"><ele>170.0</ele><time>2026-04-25T10:48:46.002Z</time></trkpt><trkpt lat="45.78745766006743" lon="4.814498156862369"><ele>170.0</ele><time>2026-04-25T10:48:47.002Z</time></trkpt><trkpt lat="45.78738471178659" lon="4.81443982018432"><ele>170.0</ele><time>2026-04-25T10:48:48.002Z</time></trkpt><trkpt lat="45.787305097600466" lon="4.814376963980547"><ele>170.0</ele><time>2026-04-25T10:48:49.002Z</time></trkpt><trkpt lat="45.787220507510185" lon="4.814323015635852"><ele>170.0</ele><time>2026-04-25T10:48:50.002Z</time></trkpt><trkpt lat="45.78713536817667" lon="4.814267677108513"><ele>170.0</ele><time>2026-04-25T10:48:51.002Z</time></trkpt><trkpt lat="45.78704890414353" lon="4.814207695946426"><ele>170.25</ele><time>2026-04-25T10:48:52.002Z</time></trkpt><trkpt lat="45.78694905653481" lon="4.81414935333035"><ele>170.5</ele><time>2026-04-25T10:48:53.002Z</time></trkpt><trkpt lat="45.78685166700445" lon="4.814076424435632"><ele>170.75</ele><time>2026-04-25T10:48:54.002Z</time></trkpt><trkpt lat="45.78675029948462" lon="4.814003362382873"><ele>171.0</ele><time>2026-04-25T10:48:55.002Z</time></trkpt><trkpt lat="45.786637564279445" lon="4.813924910284861"><ele>170.60000000000002</ele><time>2026-04-25T10:48:56.002Z</time></trkpt><trkpt lat="45.78652878677058" lon="4.813865268497832"><ele>170.2</ele><time>2026-04-25T10:48:57.002Z</time></trkpt><trkpt lat="45.786447420076364" lon="4.813805056191163"><ele>169.8</ele><time>2026-04-25T10:48:58.002Z</time></trkpt><trkpt lat="45.7863577727109" lon="4.813743878717845"><ele>169.39999999999998</ele><time>2026-04-25T10:48:59.002Z</time></trkpt><trkpt lat="45.786265904770026" lon="4.813678911612608"><ele>169.0</ele><time>2026-04-25T10:49:00.002Z</time></trkpt><trkpt lat="45.786168688239975" lon="4.813615584117672"><ele>169.0</ele><time>2026-04-25T10:49:01.002Z</time></trkpt><trkpt lat="45.786071967940124" lon="4.813558232056213"><ele>169.0</ele><time>2026-04-25T10:49:02Z</time></trkpt><trkpt lat="45.785977970755056" lon="4.813482116902734"><ele>169.0</ele><time>2026-04-25T10:49:03Z</time></trkpt><trkpt lat="45.78588923046818" lon="4.813429871792162"><ele>169.0</ele><time>2026-04-25T10:49:04Z</time></trkpt><trkpt lat="45.785818630997504" lon="4.813383580434315"><ele>169.0</ele><time>2026-04-25T10:49:05Z</time></trkpt><trkpt lat="45.7857506351358" lon="4.81334166571688"><ele>168.66666666666669</ele><time>2026-04-25T10:49:06Z</time></trkpt><trkpt lat="45.785681436454844" lon="4.813301972705185"><ele>168.33333333333334</ele><time>2026-04-25T10:49:07Z</time></trkpt><trkpt lat="45.78562437567082" lon="4.813254434399944"><ele>168.0</ele><time>2026-04-25T10:49:08Z</time></trkpt><trkpt lat="45.7855674348387" lon="4.8132013718789635"><ele>167.66666666666666</ele><time>2026-04-25T10:49:09Z</time></trkpt><trkpt lat="45.78549889256939" lon="4.813149715616207"><ele>167.33333333333331</ele><time>2026-04-25T10:49:10Z</time></trkpt><trkpt lat="45.785424176438006" lon="4.813107119654619"><ele>167.0</ele><time>2026-04-25T10:49:11Z</time></trkpt><trkpt lat="45.78534564130222" lon="4.813049822845122"><ele>167.0</ele><time>2026-04-25T10:49:12Z</time></trkpt><trkpt lat="45.78526839943129" lon="4.812988496795288"><ele>167.0</ele><time>2026-04-25T10:49:13Z</time></trkpt><trkpt lat="45.78519067280185" lon="4.812936000995202"><ele>167.0</ele><time>2026-04-25T10:49:14Z</time></trkpt><trkpt lat="45.78510323096676" lon="4.812877212638109"><ele>167.0</ele><time>2026-04-25T10:49:15Z</time></trkpt><trkpt lat="45.78499180377573" lon="4.812782789644021"><ele>167.0</ele><time>2026-04-25T10:49:16Z</time></trkpt><trkpt lat="45.784868143709716" lon="4.812682902841215"><ele>168.0</ele><time>2026-04-25T10:49:17Z</time></trkpt><trkpt lat="45.78473360217088" lon="4.812573480615834"><ele>169.0</ele><time>2026-04-25T10:49:18Z</time></trkpt><trkpt lat="45.784592121787085" lon="4.812458178566676"><ele>170.0</ele><time>2026-04-25T10:49:19Z</time></trkpt><trkpt lat="45.7844696399561" lon="4.812356022753264"><ele>170.0</ele><time>2026-04-25T10:49:20Z</time></trkpt><trkpt lat="45.78436570639117" lon="4.812269189256812"><ele>170.0</ele><time>2026-04-25T10:49:21Z</time></trkpt><trkpt lat="45.78427487518826" lon="4.812202917792944"><ele>170.0</ele><time>2026-04-25T10:49:22Z</time></trkpt><trkpt lat="45.78419684381819" lon="4.812134225627021"><ele>170.0</ele><time>2026-04-25T10:49:23Z</time></trkpt><trkpt lat="45.78412040089425" lon="4.812074044879383"><ele>170.0</ele><time>2026-04-25T10:49:24Z</time></trkpt><trkpt lat="45.78403372415811" lon="4.812002780071807"><ele>170.25</ele><time>2026-04-25T10:49:25Z</time></trkpt><trkpt lat="45.78393560050756" lon="4.811918921042499"><ele>170.5</ele><time>2026-04-25T10:49:26Z</time></trkpt><trkpt lat="45.78383172540449" lon="4.811840949489647"><ele>170.75</ele><time>2026-04-25T10:49:27Z</time></trkpt><trkpt lat="45.7837293444081" lon="4.8117502725580295"><ele>171.0</ele><time>2026-04-25T10:49:28Z</time></trkpt><trkpt lat="45.7836222911714" lon="4.811661740144815"><ele>171.0</ele><time>2026-04-25T10:49:29Z</time></trkpt><trkpt lat="45.78352770982314" lon="4.811551620335228"><ele>171.0</ele><time>2026-04-25T10:49:30Z</time></trkpt><trkpt lat="45.78342008855783" lon="4.81147375293414"><ele>171.0</ele><time>2026-04-25T10:49:31Z</time></trkpt><trkpt lat="45.78332177515259" lon="4.811399949232838"><ele>171.0</ele><time>2026-04-25T10:49:32Z</time></trkpt><trkpt lat="45.78323076303357" lon="4.811334478537792"><ele>171.0</ele><time>2026-04-25T10:49:33.001Z</time></trkpt><trkpt lat="45.78315956869448" lon="4.81128027148754"><ele>171.0</ele><time>2026-04-25T10:49:34.001Z</time></trkpt><trkpt lat="45.78308536436049" lon="4.8112220120992415"><ele>171.0</ele><time>2026-04-25T10:49:35.001Z</time></trkpt><trkpt lat="45.78300806542164" lon="4.81117745075908"><ele>171.0</ele><time>2026-04-25T10:49:36.001Z</time></trkpt><trkpt lat="45.78293200826933" lon="4.811116245057288"><ele>171.0</ele><time>2026-04-25T10:49:37.001Z</time></trkpt><trkpt lat="45.78284104347578" lon="4.8110399612028925"><ele>171.0</ele><time>2026-04-25T10:49:38.001Z</time></trkpt><trkpt lat="45.78276058619748" lon="4.810966697109425"><ele>171.0</ele><time>2026-04-25T10:49:39.001Z</time></trkpt><trkpt lat="45.78268622856978" lon="4.810881781485019"><ele>171.0</ele><time>2026-04-25T10:49:40.001Z</time></trkpt><trkpt lat="45.782606923040014" lon="4.810793287837193"><ele>171.0</ele><time>2026-04-25T10:49:41.001Z</time></trkpt><trkpt lat="45.78251768942966" lon="4.810705923748357"><ele>171.0</ele><time>2026-04-25T10:49:42.001Z</time></trkpt><trkpt lat="45.78241101033111" lon="4.810612644227009"><ele>171.0</ele><time>2026-04-25T10:49:43.001Z</time></trkpt><trkpt lat="45.78229228939355" lon="4.810514769488626"><ele>171.0</ele><time>2026-04-25T10:49:44.001Z</time></trkpt><trkpt lat="45.782178265783756" lon="4.810421647170126"><ele>171.0</ele><time>2026-04-25T10:49:45.001Z</time></trkpt><trkpt lat="45.78204849971212" lon="4.810308252762433"><ele>171.0</ele><time>2026-04-25T10:49:46.001Z</time></trkpt><trkpt lat="45.781911856092826" lon="4.810203590737283"><ele>171.0</ele><time>2026-04-25T10:49:47.001Z</time></trkpt><trkpt lat="45.78178999195925" lon="4.810114574213145"><ele>169.75</ele><time>2026-04-25T10:49:48.001Z</time></trkpt><trkpt lat="45.781676155591626" lon="4.810017136484237"><ele>168.5</ele><time>2026-04-25T10:49:49.001Z</time></trkpt><trkpt lat="45.78156924749552" lon="4.809925077840619"><ele>167.25</ele><time>2026-04-25T10:49:50.001Z</time></trkpt><trkpt lat="45.78146879306488" lon="4.809841929248898"><ele>166.0</ele><time>2026-04-25T10:49:51.001Z</time></trkpt><trkpt lat="45.78137107767134" lon="4.809762834275702"><ele>166.0</ele><time>2026-04-25T10:49:52.001Z</time></trkpt><trkpt lat="45.78127694487082" lon="4.809685737688833"><ele>166.0</ele><time>2026-04-25T10:49:53.001Z</time></trkpt><trkpt lat="45.78118520854417" lon="4.809610960378081"><ele>166.0</ele><time>2026-04-25T10:49:54.001Z</time></trkpt><trkpt lat="45.78110629251252" lon="4.809550301616076"><ele>166.0</ele><time>2026-04-25T10:49:55.001Z</time></trkpt><trkpt lat="45.78103127465058" lon="4.809493592236879"><ele>166.0</ele><time>2026-04-25T10:49:56.001Z</time></trkpt><trkpt lat="45.780954720199425" lon="4.809437007644197"><ele>166.0</ele><time>2026-04-25T10:49:57.001Z</time></trkpt><trkpt lat="45.78088238907603" lon="4.809373438517474"><ele>166.0</ele><time>2026-04-25T10:49:58.001Z</time></trkpt><trkpt lat="45.78081901360458" lon="4.809310296473617"><ele>166.0</ele><time>2026-04-25T10:49:59.001Z</time></trkpt><trkpt lat="45.78076496618231" lon="4.809249010895602"><ele>166.0</ele><time>2026-04-25T10:50:00.001Z</time></trkpt><trkpt lat="45.78069438623618" lon="4.809183439567703"><ele>166.0</ele><time>2026-04-25T10:50:02.001Z</time></trkpt><trkpt lat="45.78060249667593" lon="4.809111890046816"><ele>166.0</ele><time>2026-04-25T10:50:56.002Z</time></trkpt><trkpt lat="45.78052981863874" lon="4.809059727765474"><ele>166.0</ele><time>2026-04-25T10:50:58.002Z</time></trkpt><trkpt lat="45.780457145819504" lon="4.809019697697879"><ele>166.0</ele><time>2026-04-25T10:51:13.001Z</time></trkpt><trkpt lat="45.78037111880352" lon="4.809331961580537"><ele>166.0</ele><time>2026-04-25T10:51:18.001Z</time></trkpt><trkpt lat="45.780342860954455" lon="4.80944468931899"><ele>166.0</ele><time>2026-04-25T10:51:19.001Z</time></trkpt><trkpt lat="45.78030741782399" lon="4.80958471953102"><ele>166.0</ele><time>2026-04-25T10:51:20Z</time></trkpt><trkpt lat="45.78027428272132" lon="4.8097088400884"><ele>166.0</ele><time>2026-04-25T10:51:21Z</time></trkpt><trkpt lat="45.78023090267934" lon="4.809857559911962"><ele>166.0</ele><time>2026-04-25T10:51:22Z</time></trkpt><trkpt lat="45.7801872825867" lon="4.810020970285455"><ele>166.0</ele><time>2026-04-25T10:51:23Z</time></trkpt><trkpt lat="45.78014433149405" lon="4.810188317982234"><ele>166.0</ele><time>2026-04-25T10:51:24Z</time></trkpt><trkpt lat="45.78010692851443" lon="4.810323248874329"><ele>166.0</ele><time>2026-04-25T10:51:25Z</time></trkpt><trkpt lat="45.78007161126265" lon="4.810443514913959"><ele>166.0</ele><time>2026-04-25T10:51:26Z</time></trkpt><trkpt lat="45.780038809955315" lon="4.8105523564034725"><ele>166.0</ele><time>2026-04-25T10:51:27Z</time></trkpt><trkpt lat="45.78000993822959" lon="4.810657093423219"><ele>166.0</ele><time>2026-04-25T10:51:28Z</time></trkpt><trkpt lat="45.77998381627595" lon="4.810755712639438"><ele>166.0</ele><time>2026-04-25T10:51:29Z</time></trkpt><trkpt lat="45.77996006280936" lon="4.810842624393684"><ele>166.0</ele><time>2026-04-25T10:51:30.001Z</time></trkpt><trkpt lat="45.779936333041675" lon="4.810927582043152"><ele>166.0</ele><time>2026-04-25T10:51:31.001Z</time></trkpt><trkpt lat="45.77989251295357" lon="4.81106075962446"><ele>166.0</ele><time>2026-04-25T10:51:33.001Z</time></trkpt><trkpt lat="45.77986951488752" lon="4.8111594229123655"><ele>166.0</ele><time>2026-04-25T10:51:35.001Z</time></trkpt><trkpt lat="45.77984742668806" lon="4.811256776754621"><ele>166.0</ele><time>2026-04-25T10:51:38.001Z</time></trkpt><trkpt lat="45.7798232433286" lon="4.811342822401601"><ele>166.0</ele><time>2026-04-25T10:51:43.001Z</time></trkpt><trkpt lat="45.77979124929933" lon="4.8114838206618735"><ele>166.4</ele><time>2026-04-25T10:51:45.001Z</time></trkpt><trkpt lat="45.77976520131509" lon="4.8115824687978"><ele>166.8</ele><time>2026-04-25T10:51:47.001Z</time></trkpt><trkpt lat="45.779626669426726" lon="4.8115351465715674"><ele>167.20000000000002</ele><time>2026-04-25T10:51:49.001Z</time></trkpt><trkpt lat="45.77955367804135" lon="4.811504095752747"><ele>167.60000000000002</ele><time>2026-04-25T10:51:50.001Z</time></trkpt><trkpt lat="45.779470609070614" lon="4.811463518430213"><ele>168.0</ele><time>2026-04-25T10:51:51.001Z</time></trkpt><trkpt lat="45.77938486826337" lon="4.811433709575793"><ele>170.0</ele><time>2026-04-25T10:51:52.001Z</time></trkpt><trkpt lat="45.77929145953526" lon="4.811393960900921"><ele>172.0</ele><time>2026-04-25T10:51:53.001Z</time></trkpt><trkpt lat="45.779193547758155" lon="4.811351160539602"><ele>174.0</ele><time>2026-04-25T10:51:54.001Z</time></trkpt><trkpt lat="45.77908515472745" lon="4.8113117193137125"><ele>176.0</ele><time>2026-04-25T10:51:55.001Z</time></trkpt><trkpt lat="45.77898308098451" lon="4.811262237476933"><ele>178.0</ele><time>2026-04-25T10:51:56.001Z</time></trkpt><trkpt lat="45.778883032781835" lon="4.8112128104398275"><ele>178.0</ele><time>2026-04-25T10:51:57.001Z</time></trkpt><trkpt lat="45.778778707241024" lon="4.811169805869279"><ele>178.0</ele><time>2026-04-25T10:51:58.001Z</time></trkpt><trkpt lat="45.7786880683657" lon="4.811137729889855"><ele>178.0</ele><time>2026-04-25T10:51:59.001Z</time></trkpt><trkpt lat="45.77861319904755" lon="4.81109898789137"><ele>178.0</ele><time>2026-04-25T10:52:00.001Z</time></trkpt><trkpt lat="45.77853863432076" lon="4.811066533740306"><ele>178.0</ele><time>2026-04-25T10:52:01.001Z</time></trkpt><trkpt lat="45.77846381412493" lon="4.8110362730862555"><ele>178.0</ele><time>2026-04-25T10:52:02.001Z</time></trkpt><trkpt lat="45.77839140605943" lon="4.811007394630973"><ele>176.4</ele><time>2026-04-25T10:52:03.001Z</time></trkpt><trkpt lat="45.778329992855404" lon="4.8109769069424"><ele>174.8</ele><time>2026-04-25T10:52:04.001Z</time></trkpt><trkpt lat="45.77824894142836" lon="4.810937701476343"><ele>173.2</ele><time>2026-04-25T10:52:06.001Z</time></trkpt><trkpt lat="45.77816475675494" lon="4.810907862196062"><ele>171.6</ele><time>2026-04-25T10:52:18.001Z</time></trkpt><trkpt lat="45.77806866705089" lon="4.810864497930984"><ele>170.0</ele><time>2026-04-25T10:52:20.001Z</time></trkpt><trkpt lat="45.777948558589905" lon="4.810815318930955"><ele>170.0</ele><time>2026-04-25T10:52:22.001Z</time></trkpt><trkpt lat="45.77787638255122" lon="4.810777639607397"><ele>170.0</ele><time>2026-04-25T10:52:23.001Z</time></trkpt><trkpt lat="45.77780076515757" lon="4.810747510880719"><ele>170.0</ele><time>2026-04-25T10:52:24.001Z</time></trkpt><trkpt lat="45.77772407915537" lon="4.810714157643705"><ele>170.0</ele><time>2026-04-25T10:52:25.001Z</time></trkpt><trkpt lat="45.77765338988824" lon="4.810688869540113"><ele>170.0</ele><time>2026-04-25T10:52:26.001Z</time></trkpt><trkpt lat="45.777570700297794" lon="4.810658233177893"><ele>170.0</ele><time>2026-04-25T10:52:27.001Z</time></trkpt><trkpt lat="45.77748492939257" lon="4.810607044944111"><ele>170.66666666666666</ele><time>2026-04-25T10:52:28.001Z</time></trkpt><trkpt lat="45.77738798376937" lon="4.81056156996061"><ele>171.33333333333331</ele><time>2026-04-25T10:52:29.001Z</time></trkpt><trkpt lat="45.77729704121233" lon="4.810523292395017"><ele>172.0</ele><time>2026-04-25T10:52:30.001Z</time></trkpt><trkpt lat="45.77721998221321" lon="4.810502556742146"><ele>172.66666666666666</ele><time>2026-04-25T10:52:31.001Z</time></trkpt><trkpt lat="45.77714637468536" lon="4.810464879693553"><ele>173.33333333333334</ele><time>2026-04-25T10:52:32.001Z</time></trkpt><trkpt lat="45.77705530725197" lon="4.810435456176448"><ele>174.0</ele><time>2026-04-25T10:52:33.001Z</time></trkpt><trkpt lat="45.77696370174952" lon="4.810407919398879"><ele>174.0</ele><time>2026-04-25T10:52:34.001Z</time></trkpt><trkpt lat="45.776879391680815" lon="4.810387814336362"><ele>174.0</ele><time>2026-04-25T10:52:35.001Z</time></trkpt><trkpt lat="45.77680214712415" lon="4.810370104732167"><ele>174.0</ele><time>2026-04-25T10:52:36.001Z</time></trkpt><trkpt lat="45.77672053614392" lon="4.810354679002075"><ele>174.0</ele><time>2026-04-25T10:52:37.001Z</time></trkpt><trkpt lat="45.77663467283791" lon="4.810340442048642"><ele>174.0</ele><time>2026-04-25T10:52:38.001Z</time></trkpt><trkpt lat="45.77654488347555" lon="4.810329474889768"><ele>174.0</ele><time>2026-04-25T10:52:39.001Z</time></trkpt><trkpt lat="45.77645959196594" lon="4.810325396184049"><ele>173.83333333333334</ele><time>2026-04-25T10:52:40.001Z</time></trkpt><trkpt lat="45.77638302658413" lon="4.8103203405297235"><ele>173.66666666666666</ele><time>2026-04-25T10:52:41.001Z</time></trkpt><trkpt lat="45.77631440976538" lon="4.81031644143114"><ele>173.5</ele><time>2026-04-25T10:52:42.001Z</time></trkpt><trkpt lat="45.77619137188641" lon="4.810312782736092"><ele>173.33333333333331</ele><time>2026-04-25T10:52:44.001Z</time></trkpt><trkpt lat="45.77611992852567" lon="4.810307491973347"><ele>173.16666666666666</ele><time>2026-04-25T10:52:45.001Z</time></trkpt><trkpt lat="45.77604142959629" lon="4.810302421428456"><ele>173.0</ele><time>2026-04-25T10:52:46.001Z</time></trkpt><trkpt lat="45.775958152852176" lon="4.810296941820234"><ele>172.60000000000002</ele><time>2026-04-25T10:52:47.001Z</time></trkpt><trkpt lat="45.77586854878314" lon="4.810293050742316"><ele>172.20000000000002</ele><time>2026-04-25T10:52:48.001Z</time></trkpt><trkpt lat="45.77577395866548" lon="4.810294989930596"><ele>171.8</ele><time>2026-04-25T10:52:49.001Z</time></trkpt><trkpt lat="45.77566692971393" lon="4.810301830062536"><ele>171.4</ele><time>2026-04-25T10:52:50.001Z</time></trkpt><trkpt lat="45.77555245368412" lon="4.810305325008986"><ele>171.0</ele><time>2026-04-25T10:52:51.001Z</time></trkpt><trkpt lat="45.77543282536551" lon="4.810317694229997"><ele>171.0</ele><time>2026-04-25T10:52:52.002Z</time></trkpt><trkpt lat="45.7753186865868" lon="4.810335944673334"><ele>171.0</ele><time>2026-04-25T10:52:53.002Z</time></trkpt><trkpt lat="45.77521085302146" lon="4.810360564197103"><ele>171.0</ele><time>2026-04-25T10:52:54.002Z</time></trkpt><trkpt lat="45.77509629930889" lon="4.810391582095909"><ele>171.0</ele><time>2026-04-25T10:52:55.002Z</time></trkpt><trkpt lat="45.77497772302829" lon="4.810437401850876"><ele>170.75</ele><time>2026-04-25T10:52:56.002Z</time></trkpt><trkpt lat="45.77485592399252" lon="4.810492332819606"><ele>170.5</ele><time>2026-04-25T10:52:57.002Z</time></trkpt><trkpt lat="45.774734237942816" lon="4.810562184672559"><ele>170.25</ele><time>2026-04-25T10:52:58.002Z</time></trkpt><trkpt lat="45.77461485584808" lon="4.8106376167825555"><ele>170.0</ele><time>2026-04-25T10:52:59.002Z</time></trkpt><trkpt lat="45.774511734105644" lon="4.8107127660772795"><ele>170.0</ele><time>2026-04-25T10:53:00.002Z</time></trkpt><trkpt lat="45.77442157209671" lon="4.810780380179571"><ele>170.0</ele><time>2026-04-25T10:53:01.002Z</time></trkpt><trkpt lat="45.774327206139056" lon="4.810864316582265"><ele>170.0</ele><time>2026-04-25T10:53:02.002Z</time></trkpt><trkpt lat="45.774227520619576" lon="4.81095948815824"><ele>170.0</ele><time>2026-04-25T10:53:03.002Z</time></trkpt><trkpt lat="45.77414677960252" lon="4.811052508611343"><ele>170.0</ele><time>2026-04-25T10:53:04.002Z</time></trkpt><trkpt lat="45.77408443950038" lon="4.811130671304703"><ele>170.0</ele><time>2026-04-25T10:53:05.002Z</time></trkpt><trkpt lat="45.7740343636079" lon="4.811199264552248"><ele>170.0</ele><time>2026-04-25T10:53:06.002Z</time></trkpt><trkpt lat="45.77395587961707" lon="4.811293985516294"><ele>170.0</ele><time>2026-04-25T10:53:08.002Z</time></trkpt><trkpt lat="45.77392798383948" lon="4.811391728112328"><ele>170.0</ele><time>2026-04-25T10:53:10.002Z</time></trkpt><trkpt lat="45.77388467641031" lon="4.8114770149118415"><ele>170.0</ele><time>2026-04-25T10:53:41Z</time></trkpt><trkpt lat="45.773838059129574" lon="4.811543991916644"><ele>170.0</ele><time>2026-04-25T10:53:43Z</time></trkpt><trkpt lat="45.773808394027725" lon="4.811641540438721"><ele>170.0</ele><time>2026-04-25T10:53:45Z</time></trkpt><trkpt lat="45.77374648001234" lon="4.811755233567279"><ele>170.0</ele><time>2026-04-25T10:53:47Z</time></trkpt><trkpt lat="45.7737044286114" lon="4.81185268924557"><ele>170.0</ele><time>2026-04-25T10:53:49Z</time></trkpt><trkpt lat="45.77365431283187" lon="4.81195045125274"><ele>170.0</ele><time>2026-04-25T10:53:51Z</time></trkpt><trkpt lat="45.773591344461195" lon="4.812053329376149"><ele>170.0</ele><time>2026-04-25T10:53:53Z</time></trkpt><trkpt lat="45.773667308201425" lon="4.812234326718775"><ele>170.16666666666666</ele><time>2026-04-25T10:53:55Z</time></trkpt><trkpt lat="45.773719493301314" lon="4.812299330261478"><ele>170.33333333333331</ele><time>2026-04-25T10:53:56Z</time></trkpt><trkpt lat="45.77377991187329" lon="4.812369244290627"><ele>170.5</ele><time>2026-04-25T10:53:57Z</time></trkpt><trkpt lat="45.773843778592735" lon="4.812434603204863"><ele>170.66666666666666</ele><time>2026-04-25T10:53:58Z</time></trkpt><trkpt lat="45.77390150325234" lon="4.812492269428287"><ele>170.83333333333334</ele><time>2026-04-25T10:53:59.001Z</time></trkpt><trkpt lat="45.773986728831034" lon="4.812597650373835"><ele>171.0</ele><time>2026-04-25T10:54:01.001Z</time></trkpt><trkpt lat="45.774062724746344" lon="4.812692671424278"><ele>171.33333333333334</ele><time>2026-04-25T10:54:03.001Z</time></trkpt><trkpt lat="45.77413512716251" lon="4.812835681426316"><ele>171.66666666666666</ele><time>2026-04-25T10:54:05.001Z</time></trkpt><trkpt lat="45.77415843024367" lon="4.812923017756288"><ele>172.0</ele><time>2026-04-25T10:54:06.001Z</time></trkpt><trkpt lat="45.77417722640813" lon="4.813023776645143"><ele>172.33333333333331</ele><time>2026-04-25T10:54:07.001Z</time></trkpt><trkpt lat="45.774177837271935" lon="4.813137599473425"><ele>172.66666666666666</ele><time>2026-04-25T10:54:08.001Z</time></trkpt><trkpt lat="45.774174940288034" lon="4.813263237703389"><ele>173.0</ele><time>2026-04-25T10:54:09.001Z</time></trkpt><trkpt lat="45.77417047241195" lon="4.813399317648782"><ele>173.60000000000002</ele><time>2026-04-25T10:54:10.001Z</time></trkpt><trkpt lat="45.77416370589209" lon="4.8135463327222245"><ele>174.20000000000002</ele><time>2026-04-25T10:54:11.001Z</time></trkpt><trkpt lat="45.77415226925225" lon="4.813683756738849"><ele>174.8</ele><time>2026-04-25T10:54:12.001Z</time></trkpt><trkpt lat="45.77414075732026" lon="4.813807954144351"><ele>175.4</ele><time>2026-04-25T10:54:13.001Z</time></trkpt><trkpt lat="45.77411717123666" lon="4.81393066142303"><ele>176.0</ele><time>2026-04-25T10:54:14.001Z</time></trkpt><trkpt lat="45.77409727865575" lon="4.814050039627058"><ele>176.0</ele><time>2026-04-25T10:54:15.001Z</time></trkpt><trkpt lat="45.77406924939547" lon="4.814168300664807"><ele>176.0</ele><time>2026-04-25T10:54:16.001Z</time></trkpt><trkpt lat="45.774035930783164" lon="4.814292771560575"><ele>176.0</ele><time>2026-04-25T10:54:17.001Z</time></trkpt><trkpt lat="45.773968427646686" lon="4.8143872427955285"><ele>176.0</ele><time>2026-04-25T10:54:18.001Z</time></trkpt><trkpt lat="45.7738857431473" lon="4.814462701726232"><ele>176.0</ele><time>2026-04-25T10:54:19.001Z</time></trkpt><trkpt lat="45.773795884556094" lon="4.814517289528563"><ele>179.8</ele><time>2026-04-25T10:54:20.001Z</time></trkpt><trkpt lat="45.77370767716066" lon="4.814571264672886"><ele>183.60000000000002</ele><time>2026-04-25T10:54:21.001Z</time></trkpt><trkpt lat="45.77361419321336" lon="4.814617390386046"><ele>187.4</ele><time>2026-04-25T10:54:22.001Z</time></trkpt><trkpt lat="45.7735199056142" lon="4.814664654436203"><ele>191.2</ele><time>2026-04-25T10:54:23.001Z</time></trkpt><trkpt lat="45.773423075242654" lon="4.814718277417072"><ele>195.0</ele><time>2026-04-25T10:54:24.001Z</time></trkpt><trkpt lat="45.77332780978443" lon="4.814773252226356"><ele>195.0</ele><time>2026-04-25T10:54:25.001Z</time></trkpt><trkpt lat="45.77322502439647" lon="4.814809249856566"><ele>195.0</ele><time>2026-04-25T10:54:26.001Z</time></trkpt><trkpt lat="45.773127463473266" lon="4.814861736145489"><ele>195.0</ele><time>2026-04-25T10:54:27.001Z</time></trkpt><trkpt lat="45.77303442672733" lon="4.814908245170612"><ele>195.0</ele><time>2026-04-25T10:54:28.001Z</time></trkpt><trkpt lat="45.77295538596235" lon="4.814945269956426"><ele>195.0</ele><time>2026-04-25T10:54:29.001Z</time></trkpt><trkpt lat="45.77287860418268" lon="4.814980087267901"><ele>195.0</ele><time>2026-04-25T10:54:30.001Z</time></trkpt><trkpt lat="45.77279710546791" lon="4.815022909381949"><ele>195.0</ele><time>2026-04-25T10:54:31.001Z</time></trkpt><trkpt lat="45.77271025292697" lon="4.815055594589317"><ele>195.0</ele><time>2026-04-25T10:54:32.001Z</time></trkpt><trkpt lat="45.77261760019025" lon="4.815078668598392"><ele>195.0</ele><time>2026-04-25T10:54:33.001Z</time></trkpt><trkpt lat="45.77251858640589" lon="4.815089792778761"><ele>195.0</ele><time>2026-04-25T10:54:34.001Z</time></trkpt><trkpt lat="45.77241799543226" lon="4.815087406340012"><ele>194.2</ele><time>2026-04-25T10:54:35.001Z</time></trkpt><trkpt lat="45.77232461757959" lon="4.815076860803177"><ele>193.4</ele><time>2026-04-25T10:54:36.001Z</time></trkpt><trkpt lat="45.772234336549786" lon="4.815050068520952"><ele>192.60000000000002</ele><time>2026-04-25T10:54:37.001Z</time></trkpt><trkpt lat="45.77213999098296" lon="4.815012939037265"><ele>191.8</ele><time>2026-04-25T10:54:38.001Z</time></trkpt><trkpt lat="45.77205682949188" lon="4.814971858505346"><ele>191.0</ele><time>2026-04-25T10:54:39.001Z</time></trkpt><trkpt lat="45.77198203428203" lon="4.8149351739980215"><ele>191.0</ele><time>2026-04-25T10:54:40.001Z</time></trkpt><trkpt lat="45.771906717807845" lon="4.814898643500115"><ele>191.0</ele><time>2026-04-25T10:54:41.001Z</time></trkpt><trkpt lat="45.77183389474672" lon="4.814887032047313"><ele>191.0</ele><time>2026-04-25T10:54:42.001Z</time></trkpt><trkpt lat="45.771767123568296" lon="4.814904659729218"><ele>191.0</ele><time>2026-04-25T10:54:43.001Z</time></trkpt><trkpt lat="45.77171304912296" lon="4.814952009818272"><ele>191.0</ele><time>2026-04-25T10:54:44.001Z</time></trkpt><trkpt lat="45.77166851895895" lon="4.815108863331527"><ele>191.0</ele><time>2026-04-25T10:54:46.001Z</time></trkpt><trkpt lat="45.771689913929386" lon="4.815209071307806"><ele>195.33333333333331</ele><time>2026-04-25T10:54:47.001Z</time></trkpt><trkpt lat="45.77173626719763" lon="4.815281482541818"><ele>199.66666666666666</ele><time>2026-04-25T10:54:48.001Z</time></trkpt><trkpt lat="45.77180010513393" lon="4.815322051440947"><ele>204.0</ele><time>2026-04-25T10:54:49.001Z</time></trkpt><trkpt lat="45.7718785194021" lon="4.815337804453634"><ele>208.33333333333331</ele><time>2026-04-25T10:54:50.001Z</time></trkpt><trkpt lat="45.771969569827824" lon="4.815342669393782"><ele>212.66666666666666</ele><time>2026-04-25T10:54:51.001Z</time></trkpt><trkpt lat="45.772064999107236" lon="4.81534787268615"><ele>217.0</ele><time>2026-04-25T10:54:52.001Z</time></trkpt><trkpt lat="45.77214786744922" lon="4.815355533547477"><ele>216.99999999999997</ele><time>2026-04-25T10:54:53.001Z</time></trkpt><trkpt lat="45.772230693158576" lon="4.815358759583646"><ele>217.0</ele><time>2026-04-25T10:54:54.001Z</time></trkpt><trkpt lat="45.772314528219844" lon="4.815360430047488"><ele>217.0</ele><time>2026-04-25T10:54:55.001Z</time></trkpt><trkpt lat="45.7724005159442" lon="4.815363802845175"><ele>217.0</ele><time>2026-04-25T10:54:56.001Z</time></trkpt><trkpt lat="45.772484238231115" lon="4.815366858561835"><ele>216.99999999999997</ele><time>2026-04-25T10:54:57.001Z</time></trkpt><trkpt lat="45.77256250922738" lon="4.815365072944882"><ele>217.0</ele><time>2026-04-25T10:54:58.001Z</time></trkpt><trkpt lat="45.772635788281164" lon="4.815373071515265"><ele>217.6</ele><time>2026-04-25T10:54:59.001Z</time></trkpt><trkpt lat="45.772725328659085" lon="4.815387629708393"><ele>218.2</ele><time>2026-04-25T10:55:00.001Z</time></trkpt><trkpt lat="45.77281099288192" lon="4.815400254446549"><ele>218.8</ele><time>2026-04-25T10:55:01.001Z</time></trkpt><trkpt lat="45.772906552534245" lon="4.815407634620427"><ele>219.4</ele><time>2026-04-25T10:55:02.001Z</time></trkpt><trkpt lat="45.77300639302128" lon="4.815414062182917"><ele>220.0</ele><time>2026-04-25T10:55:03.001Z</time></trkpt><trkpt lat="45.77310604491499" lon="4.815430550104086"><ele>220.0</ele><time>2026-04-25T10:55:04.001Z</time></trkpt><trkpt lat="45.773204472457934" lon="4.815437268654014"><ele>220.0</ele><time>2026-04-25T10:55:05.001Z</time></trkpt><trkpt lat="45.77330593467565" lon="4.815445982839595"><ele>220.0</ele><time>2026-04-25T10:55:06.001Z</time></trkpt><trkpt lat="45.77340303055867" lon="4.815458255333088"><ele>220.0</ele><time>2026-04-25T10:55:07.001Z</time></trkpt><trkpt lat="45.77349710876044" lon="4.815470657018604"><ele>220.0</ele><time>2026-04-25T10:55:08.002Z</time></trkpt><trkpt lat="45.77358683909797" lon="4.815464270937812"><ele>220.83333333333331</ele><time>2026-04-25T10:55:09.002Z</time></trkpt><trkpt lat="45.77367116863571" lon="4.815437686623252"><ele>221.66666666666666</ele><time>2026-04-25T10:55:10.002Z</time></trkpt><trkpt lat="45.77374990581256" lon="4.815399092890804"><ele>222.5</ele><time>2026-04-25T10:55:11.002Z</time></trkpt><trkpt lat="45.77380460291094" lon="4.815351959687136"><ele>223.33333333333331</ele><time>2026-04-25T10:55:12.002Z</time></trkpt><trkpt lat="45.77386616580182" lon="4.81529762301383"><ele>224.16666666666666</ele><time>2026-04-25T10:55:13.002Z</time></trkpt><trkpt lat="45.77392671944538" lon="4.815256215539604"><ele>225.0</ele><time>2026-04-25T10:55:14.002Z</time></trkpt><trkpt lat="45.77404517244137" lon="4.815197651891853"><ele>225.0</ele><time>2026-04-25T10:55:16.002Z</time></trkpt><trkpt lat="45.774145782905634" lon="4.81525458478331"><ele>225.0</ele><time>2026-04-25T10:55:18.002Z</time></trkpt><trkpt lat="45.77413267109066" lon="4.815446775912651"><ele>225.0</ele><time>2026-04-25T10:55:20Z</time></trkpt><trkpt lat="45.774026176946236" lon="4.815536826891589"><ele>225.0</ele><time>2026-04-25T10:55:22Z</time></trkpt><trkpt lat="45.77395010262206" lon="4.815560694401218"><ele>225.0</ele><time>2026-04-25T10:55:23Z</time></trkpt><trkpt lat="45.773862661334746" lon="4.815589423823899"><ele>225.0</ele><time>2026-04-25T10:55:24Z</time></trkpt><trkpt lat="45.77376891832759" lon="4.815619032098874"><ele>225.0</ele><time>2026-04-25T10:55:25Z</time></trkpt><trkpt lat="45.77366197131126" lon="4.815654683273013"><ele>225.0</ele><time>2026-04-25T10:55:26Z</time></trkpt><trkpt lat="45.77355141296811" lon="4.815686053054483"><ele>225.0</ele><time>2026-04-25T10:55:27Z</time></trkpt><trkpt lat="45.773457342345296" lon="4.81571558302053"><ele>225.0</ele><time>2026-04-25T10:55:28Z</time></trkpt><trkpt lat="45.77337011341285" lon="4.8157499189500435"><ele>224.0</ele><time>2026-04-25T10:55:29Z</time></trkpt><trkpt lat="45.773287470599264" lon="4.81578369724252"><ele>223.0</ele><time>2026-04-25T10:55:30Z</time></trkpt><trkpt lat="45.77320031802518" lon="4.815809022792243"><ele>222.0</ele><time>2026-04-25T10:55:31Z</time></trkpt><trkpt lat="45.773113578293305" lon="4.815832985182706"><ele>221.0</ele><time>2026-04-25T10:55:32Z</time></trkpt><trkpt lat="45.77301679983781" lon="4.81585034339062"><ele>220.0</ele><time>2026-04-25T10:55:33Z</time></trkpt><trkpt lat="45.77291322136183" lon="4.815863776083176"><ele>219.99999999999997</ele><time>2026-04-25T10:55:34Z</time></trkpt><trkpt lat="45.772814337907725" lon="4.815862159850479"><ele>220.0</ele><time>2026-04-25T10:55:35Z</time></trkpt><trkpt lat="45.772732359380235" lon="4.815856118580908"><ele>220.0</ele><time>2026-04-25T10:55:36Z</time></trkpt><trkpt lat="45.772645839878685" lon="4.815850394016555"><ele>220.0</ele><time>2026-04-25T10:55:37Z</time></trkpt><trkpt lat="45.77255790349953" lon="4.815838509027998"><ele>219.99999999999997</ele><time>2026-04-25T10:55:38Z</time></trkpt><trkpt lat="45.77246763354478" lon="4.815829207232143"><ele>220.0</ele><time>2026-04-25T10:55:39Z</time></trkpt><trkpt lat="45.77238698648464" lon="4.815815835637247"><ele>219.4</ele><time>2026-04-25T10:55:40Z</time></trkpt><trkpt lat="45.77231174890972" lon="4.815799868606335"><ele>218.8</ele><time>2026-04-25T10:55:41Z</time></trkpt><trkpt lat="45.77224331876039" lon="4.815772971535233"><ele>218.2</ele><time>2026-04-25T10:55:42Z</time></trkpt><trkpt lat="45.77212390292561" lon="4.815716238574726"><ele>217.6</ele><time>2026-04-25T10:55:44Z</time></trkpt><trkpt lat="45.77201628245704" lon="4.8157220959414655"><ele>217.0</ele><time>2026-04-25T10:55:46Z</time></trkpt><trkpt lat="45.77193918105223" lon="4.81581495579683"><ele>217.0</ele><time>2026-04-25T10:55:48Z</time></trkpt><trkpt lat="45.77192328758028" lon="4.815978610309539"><ele>217.0</ele><time>2026-04-25T10:55:50Z</time></trkpt><trkpt lat="45.77201413247586" lon="4.816103391591823"><ele>217.0</ele><time>2026-04-25T10:55:52Z</time></trkpt><trkpt lat="45.77207487934737" lon="4.816129399090107"><ele>217.0</ele><time>2026-04-25T10:55:53Z</time></trkpt><trkpt lat="45.77214653285727" lon="4.816117564302129"><ele>217.0</ele><time>2026-04-25T10:55:54Z</time></trkpt><trkpt lat="45.77221979012972" lon="4.816089966407116"><ele>220.2</ele><time>2026-04-25T10:55:55Z</time></trkpt><trkpt lat="45.77230306843498" lon="4.816066643137791"><ele>223.39999999999998</ele><time>2026-04-25T10:55:56Z</time></trkpt><trkpt lat="45.77239874503975" lon="4.816069868069316"><ele>226.60000000000002</ele><time>2026-04-25T10:55:57Z</time></trkpt><trkpt lat="45.77249920448954" lon="4.816076128315326"><ele>229.8</ele><time>2026-04-25T10:55:58Z</time></trkpt><trkpt lat="45.77260654525104" lon="4.816087723414979"><ele>233.0</ele><time>2026-04-25T10:55:59Z</time></trkpt><trkpt lat="45.77269551911809" lon="4.816098272569619"><ele>233.0</ele><time>2026-04-25T10:56:00Z</time></trkpt><trkpt lat="45.772776280497794" lon="4.816127037887769"><ele>233.0</ele><time>2026-04-25T10:56:01Z</time></trkpt><trkpt lat="45.77283672335826" lon="4.816168493907046"><ele>233.0</ele><time>2026-04-25T10:56:02Z</time></trkpt><trkpt lat="45.772869149930195" lon="4.816249638250767"><ele>233.0</ele><time>2026-04-25T10:56:03Z</time></trkpt><trkpt lat="45.77290317006836" lon="4.816332949169519"><ele>233.0</ele><time>2026-04-25T10:56:04Z</time></trkpt><trkpt lat="45.77288206673705" lon="4.816435935352288"><ele>233.0</ele><time>2026-04-25T10:56:05Z</time></trkpt><trkpt lat="45.772846223275245" lon="4.8165195833297885"><ele>233.0</ele><time>2026-04-25T10:56:06Z</time></trkpt><trkpt lat="45.77275965923334" lon="4.816688336557257"><ele>233.00000000000003</ele><time>2026-04-25T10:56:08Z</time></trkpt><trkpt lat="45.77269936169259" lon="4.816799674772413"><ele>233.0</ele><time>2026-04-25T10:56:09Z</time></trkpt><trkpt lat="45.77263938721941" lon="4.816907205754907"><ele>233.0</ele><time>2026-04-25T10:56:10Z</time></trkpt><trkpt lat="45.77258728874627" lon="4.817000090520641"><ele>233.0</ele><time>2026-04-25T10:56:11Z</time></trkpt><trkpt lat="45.77254057210898" lon="4.81707618937532"><ele>233.00000000000003</ele><time>2026-04-25T10:56:12Z</time></trkpt><trkpt lat="45.77249848761172" lon="4.817154657972268"><ele>233.0</ele><time>2026-04-25T10:56:13Z</time></trkpt><trkpt lat="45.772452375304546" lon="4.817237500150795"><ele>233.66666666666669</ele><time>2026-04-25T10:56:14Z</time></trkpt><trkpt lat="45.772411418022585" lon="4.817320254085386"><ele>234.33333333333334</ele><time>2026-04-25T10:56:15.001Z</time></trkpt><trkpt lat="45.77237250372084" lon="4.817393158535582"><ele>235.0</ele><time>2026-04-25T10:56:16.001Z</time></trkpt><trkpt lat="45.77230526603484" lon="4.817512350010574"><ele>235.66666666666669</ele><time>2026-04-25T10:56:18.001Z</time></trkpt><trkpt lat="45.77225310248569" lon="4.817615494829408"><ele>236.33333333333334</ele><time>2026-04-25T10:56:20.001Z</time></trkpt><trkpt lat="45.77220074354478" lon="4.817712452527113"><ele>237.0</ele><time>2026-04-25T10:56:23.001Z</time></trkpt><trkpt lat="45.772149512920876" lon="4.817793653120807"><ele>237.2</ele><time>2026-04-25T10:56:25.001Z</time></trkpt><trkpt lat="45.77208212177873" lon="4.817885554602473"><ele>237.39999999999998</ele><time>2026-04-25T10:56:27.001Z</time></trkpt><trkpt lat="45.77203054637944" lon="4.818012677146817"><ele>237.60000000000002</ele><time>2026-04-25T10:56:29.001Z</time></trkpt><trkpt lat="45.77203542198887" lon="4.818198722955058"><ele>237.8</ele><time>2026-04-25T10:56:31.001Z</time></trkpt><trkpt lat="45.77205790927435" lon="4.818308167449545"><ele>238.0</ele><time>2026-04-25T10:56:32.001Z</time></trkpt><trkpt lat="45.77209760731683" lon="4.818413684173603"><ele>238.33333333333331</ele><time>2026-04-25T10:56:33.001Z</time></trkpt><trkpt lat="45.772128815338064" lon="4.818517939570555"><ele>238.66666666666666</ele><time>2026-04-25T10:56:34.001Z</time></trkpt><trkpt lat="45.77215684947737" lon="4.818619014149333"><ele>239.0</ele><time>2026-04-25T10:56:35.001Z</time></trkpt><trkpt lat="45.77218335782348" lon="4.8187027763721355"><ele>239.33333333333331</ele><time>2026-04-25T10:56:36.001Z</time></trkpt><trkpt lat="45.77223202487747" lon="4.818863873453116"><ele>239.66666666666666</ele><time>2026-04-25T10:56:38.001Z</time></trkpt><trkpt lat="45.77227697765199" lon="4.818999382686449"><ele>240.0</ele><time>2026-04-25T10:56:40.001Z</time></trkpt><trkpt lat="45.772258428019796" lon="4.819114356764525"><ele>240.0</ele><time>2026-04-25T10:56:42.001Z</time></trkpt><trkpt lat="45.77217706671148" lon="4.819185736267708"><ele>240.0</ele><time>2026-04-25T10:56:44.001Z</time></trkpt><trkpt lat="45.772113174832015" lon="4.819181878822262"><ele>240.0</ele><time>2026-04-25T10:56:45.001Z</time></trkpt><trkpt lat="45.77205554215679" lon="4.819223375508838"><ele>240.0</ele><time>2026-04-25T10:56:46.001Z</time></trkpt><trkpt lat="45.771977380815514" lon="4.819303433242995"><ele>240.0</ele><time>2026-04-25T10:56:48.001Z</time></trkpt><trkpt lat="45.771914252538544" lon="4.8193310990271305"><ele>241.0</ele><time>2026-04-25T10:56:52.001Z</time></trkpt></trkseg></trk></gpx>